<?xml version="1.0" encoding="UTF-8" standalone="no" ?>
<gpx xmlns="http://www.topografix.com/GPX/1/1" xmlns:xsi="http://www.w3.org/2001/XMLSchema-instance" xsi:schemaLocation="http://www.topografix.com/GPX/1/1 http://www.topografix.com/GPX/1/1/gpx.xsd" version="1.1" creator="VisuGPX - https://www.visugpx.com">
  <metadata>
    <name>LGT : Guerlédan au départ de Trégnanton</name>
    <desc><![CDATA[Une balade d\'environ 10 km au départ de Trégnanton ayant pour but de découvrir, pour une dernière fois, les anciennes écluses en amont du barrage de Guerlédan. Le retour s\'effectue en empruntant le sentier balisé très accidenté qui longe les rives du lac quand celui-ci est en eaux.]]></desc>
  </metadata>
  <trk>
    <name><![CDATA[LGT : Guerlédan au départ de Trégnanton_1]]></name>
    <trkseg>
      <trkpt lat="48.21378" lon="-3.08463">
        <ele>201</ele>
        <time>2015-10-12T12:41:40.1Z</time>
      </trkpt>
      <trkpt lat="48.21377" lon="-3.08461">
        <ele>201</ele>
        <time>2015-10-12T12:41:42.1Z</time>
      </trkpt>
      <trkpt lat="48.21374" lon="-3.0846">
        <ele>200</ele>
        <time>2015-10-12T12:41:45.1Z</time>
      </trkpt>
      <trkpt lat="48.21372" lon="-3.0846">
        <ele>200</ele>
        <time>2015-10-12T12:41:47.1Z</time>
      </trkpt>
      <trkpt lat="48.21369" lon="-3.08459">
        <ele>200</ele>
        <time>2015-10-12T12:41:50.1Z</time>
      </trkpt>
      <trkpt lat="48.21366" lon="-3.08458">
        <ele>199</ele>
        <time>2015-10-12T12:41:53.1Z</time>
      </trkpt>
      <trkpt lat="48.21364" lon="-3.08458">
        <ele>199</ele>
        <time>2015-10-12T12:41:56.1Z</time>
      </trkpt>
      <trkpt lat="48.2136" lon="-3.08457">
        <ele>199</ele>
        <time>2015-10-12T12:41:59.1Z</time>
      </trkpt>
      <trkpt lat="48.21358" lon="-3.08456">
        <ele>199</ele>
        <time>2015-10-12T12:42:01.1Z</time>
      </trkpt>
      <trkpt lat="48.21355" lon="-3.08456">
        <ele>199</ele>
        <time>2015-10-12T12:42:04.1Z</time>
      </trkpt>
      <trkpt lat="48.21352" lon="-3.08455">
        <ele>199</ele>
        <time>2015-10-12T12:42:07.1Z</time>
      </trkpt>
      <trkpt lat="48.21349" lon="-3.08454">
        <ele>199</ele>
        <time>2015-10-12T12:42:10.1Z</time>
      </trkpt>
      <trkpt lat="48.21348" lon="-3.08453">
        <ele>199</ele>
        <time>2015-10-12T12:42:12.1Z</time>
      </trkpt>
      <trkpt lat="48.21345" lon="-3.08452">
        <ele>198</ele>
        <time>2015-10-12T12:42:15.1Z</time>
      </trkpt>
      <trkpt lat="48.21344" lon="-3.08451">
        <ele>198</ele>
        <time>2015-10-12T12:42:17.1Z</time>
      </trkpt>
      <trkpt lat="48.21341" lon="-3.0845">
        <ele>198</ele>
        <time>2015-10-12T12:42:20.1Z</time>
      </trkpt>
      <trkpt lat="48.2134" lon="-3.0845">
        <ele>198</ele>
        <time>2015-10-12T12:42:23.1Z</time>
      </trkpt>
      <trkpt lat="48.21339" lon="-3.08449">
        <ele>197</ele>
        <time>2015-10-12T12:42:25.1Z</time>
      </trkpt>
      <trkpt lat="48.21338" lon="-3.08449">
        <ele>197</ele>
        <time>2015-10-12T12:42:28.1Z</time>
      </trkpt>
      <trkpt lat="48.21338" lon="-3.08447">
        <ele>198</ele>
        <time>2015-10-12T12:42:31.1Z</time>
      </trkpt>
      <trkpt lat="48.21338" lon="-3.08445">
        <ele>198</ele>
        <time>2015-10-12T12:42:33.1Z</time>
      </trkpt>
      <trkpt lat="48.21336" lon="-3.08441">
        <ele>198</ele>
        <time>2015-10-12T12:42:36.1Z</time>
      </trkpt>
      <trkpt lat="48.21334" lon="-3.08438">
        <ele>197</ele>
        <time>2015-10-12T12:42:39.1Z</time>
      </trkpt>
      <trkpt lat="48.21333" lon="-3.08435">
        <ele>197</ele>
        <time>2015-10-12T12:42:41.1Z</time>
      </trkpt>
      <trkpt lat="48.21333" lon="-3.08431">
        <ele>196</ele>
        <time>2015-10-12T12:42:44.1Z</time>
      </trkpt>
      <trkpt lat="48.21332" lon="-3.08426">
        <ele>196</ele>
        <time>2015-10-12T12:42:47.1Z</time>
      </trkpt>
      <trkpt lat="48.21331" lon="-3.08422">
        <ele>196</ele>
        <time>2015-10-12T12:42:50.1Z</time>
      </trkpt>
      <trkpt lat="48.21332" lon="-3.08418">
        <ele>196</ele>
        <time>2015-10-12T12:42:52.1Z</time>
      </trkpt>
      <trkpt lat="48.21333" lon="-3.08414">
        <ele>196</ele>
        <time>2015-10-12T12:42:55.1Z</time>
      </trkpt>
      <trkpt lat="48.21332" lon="-3.0841">
        <ele>196</ele>
        <time>2015-10-12T12:42:58.1Z</time>
      </trkpt>
      <trkpt lat="48.21332" lon="-3.08405">
        <ele>196</ele>
        <time>2015-10-12T12:43:01.1Z</time>
      </trkpt>
      <trkpt lat="48.21333" lon="-3.08401">
        <ele>196</ele>
        <time>2015-10-12T12:43:04.1Z</time>
      </trkpt>
      <trkpt lat="48.21332" lon="-3.08398">
        <ele>196</ele>
        <time>2015-10-12T12:43:06.1Z</time>
      </trkpt>
      <trkpt lat="48.21331" lon="-3.08394">
        <ele>196</ele>
        <time>2015-10-12T12:43:09.1Z</time>
      </trkpt>
      <trkpt lat="48.2133" lon="-3.08389">
        <ele>196</ele>
        <time>2015-10-12T12:43:12.1Z</time>
      </trkpt>
      <trkpt lat="48.21329" lon="-3.08387">
        <ele>196</ele>
        <time>2015-10-12T12:43:14.1Z</time>
      </trkpt>
      <trkpt lat="48.21328" lon="-3.08383">
        <ele>195</ele>
        <time>2015-10-12T12:43:17.1Z</time>
      </trkpt>
      <trkpt lat="48.21326" lon="-3.08379">
        <ele>195</ele>
        <time>2015-10-12T12:43:20.1Z</time>
      </trkpt>
      <trkpt lat="48.21325" lon="-3.08377">
        <ele>195</ele>
        <time>2015-10-12T12:43:22.1Z</time>
      </trkpt>
      <trkpt lat="48.21323" lon="-3.08375">
        <ele>194</ele>
        <time>2015-10-12T12:43:25.1Z</time>
      </trkpt>
      <trkpt lat="48.2132" lon="-3.08372">
        <ele>194</ele>
        <time>2015-10-12T12:43:28.1Z</time>
      </trkpt>
      <trkpt lat="48.21318" lon="-3.0837">
        <ele>194</ele>
        <time>2015-10-12T12:43:31.1Z</time>
      </trkpt>
      <trkpt lat="48.21316" lon="-3.08369">
        <ele>194</ele>
        <time>2015-10-12T12:43:33.1Z</time>
      </trkpt>
      <trkpt lat="48.21314" lon="-3.08368">
        <ele>193</ele>
        <time>2015-10-12T12:43:36.1Z</time>
      </trkpt>
      <trkpt lat="48.21312" lon="-3.08367">
        <ele>193</ele>
        <time>2015-10-12T12:43:38.1Z</time>
      </trkpt>
      <trkpt lat="48.21309" lon="-3.08365">
        <ele>193</ele>
        <time>2015-10-12T12:43:41.1Z</time>
      </trkpt>
      <trkpt lat="48.21306" lon="-3.08363">
        <ele>193</ele>
        <time>2015-10-12T12:43:44.1Z</time>
      </trkpt>
      <trkpt lat="48.21304" lon="-3.08361">
        <ele>192</ele>
        <time>2015-10-12T12:43:46.1Z</time>
      </trkpt>
      <trkpt lat="48.21302" lon="-3.0836">
        <ele>193</ele>
        <time>2015-10-12T12:43:49.1Z</time>
      </trkpt>
      <trkpt lat="48.213" lon="-3.08359">
        <ele>193</ele>
        <time>2015-10-12T12:43:51.1Z</time>
      </trkpt>
      <trkpt lat="48.21297" lon="-3.08359">
        <ele>193</ele>
        <time>2015-10-12T12:43:54.1Z</time>
      </trkpt>
      <trkpt lat="48.21295" lon="-3.08359">
        <ele>192</ele>
        <time>2015-10-12T12:43:57.1Z</time>
      </trkpt>
      <trkpt lat="48.21294" lon="-3.08359">
        <ele>192</ele>
        <time>2015-10-12T12:43:59.1Z</time>
      </trkpt>
      <trkpt lat="48.21291" lon="-3.0836">
        <ele>192</ele>
        <time>2015-10-12T12:44:02.1Z</time>
      </trkpt>
      <trkpt lat="48.2129" lon="-3.0836">
        <ele>192</ele>
        <time>2015-10-12T12:44:04.1Z</time>
      </trkpt>
      <trkpt lat="48.21288" lon="-3.08361">
        <ele>191</ele>
        <time>2015-10-12T12:44:07.1Z</time>
      </trkpt>
      <trkpt lat="48.21285" lon="-3.08363">
        <ele>191</ele>
        <time>2015-10-12T12:44:10.1Z</time>
      </trkpt>
      <trkpt lat="48.21283" lon="-3.08365">
        <ele>191</ele>
        <time>2015-10-12T12:44:12.1Z</time>
      </trkpt>
      <trkpt lat="48.2128" lon="-3.08367">
        <ele>191</ele>
        <time>2015-10-12T12:44:15.1Z</time>
      </trkpt>
      <trkpt lat="48.21278" lon="-3.08368">
        <ele>191</ele>
        <time>2015-10-12T12:44:17.1Z</time>
      </trkpt>
      <trkpt lat="48.21275" lon="-3.08368">
        <ele>191</ele>
        <time>2015-10-12T12:44:20.1Z</time>
      </trkpt>
      <trkpt lat="48.21273" lon="-3.08367">
        <ele>191</ele>
        <time>2015-10-12T12:44:23.1Z</time>
      </trkpt>
      <trkpt lat="48.21272" lon="-3.08367">
        <ele>191</ele>
        <time>2015-10-12T12:44:25.1Z</time>
      </trkpt>
      <trkpt lat="48.21268" lon="-3.08367">
        <ele>190</ele>
        <time>2015-10-12T12:44:28.1Z</time>
      </trkpt>
      <trkpt lat="48.21266" lon="-3.08368">
        <ele>190</ele>
        <time>2015-10-12T12:44:30.1Z</time>
      </trkpt>
      <trkpt lat="48.21262" lon="-3.08369">
        <ele>190</ele>
        <time>2015-10-12T12:44:33.1Z</time>
      </trkpt>
      <trkpt lat="48.21259" lon="-3.0837">
        <ele>190</ele>
        <time>2015-10-12T12:44:36.1Z</time>
      </trkpt>
      <trkpt lat="48.21257" lon="-3.0837">
        <ele>189</ele>
        <time>2015-10-12T12:44:38.1Z</time>
      </trkpt>
      <trkpt lat="48.21252" lon="-3.08372">
        <ele>189</ele>
        <time>2015-10-12T12:44:41.1Z</time>
      </trkpt>
      <trkpt lat="48.2125" lon="-3.08373">
        <ele>189</ele>
        <time>2015-10-12T12:44:43.1Z</time>
      </trkpt>
      <trkpt lat="48.21247" lon="-3.08373">
        <ele>189</ele>
        <time>2015-10-12T12:44:46.1Z</time>
      </trkpt>
      <trkpt lat="48.21245" lon="-3.08372">
        <ele>189</ele>
        <time>2015-10-12T12:44:49.1Z</time>
      </trkpt>
      <trkpt lat="48.21243" lon="-3.08372">
        <ele>188</ele>
        <time>2015-10-12T12:44:52.1Z</time>
      </trkpt>
      <trkpt lat="48.21241" lon="-3.08372">
        <ele>187</ele>
        <time>2015-10-12T12:44:55.1Z</time>
      </trkpt>
      <trkpt lat="48.21239" lon="-3.08373">
        <ele>187</ele>
        <time>2015-10-12T12:44:57.1Z</time>
      </trkpt>
      <trkpt lat="48.21237" lon="-3.08372">
        <ele>187</ele>
        <time>2015-10-12T12:44:59.1Z</time>
      </trkpt>
      <trkpt lat="48.21233" lon="-3.08372">
        <ele>187</ele>
        <time>2015-10-12T12:45:02.1Z</time>
      </trkpt>
      <trkpt lat="48.2123" lon="-3.08372">
        <ele>187</ele>
        <time>2015-10-12T12:45:05.1Z</time>
      </trkpt>
      <trkpt lat="48.2123" lon="-3.0837">
        <ele>187</ele>
        <time>2015-10-12T12:45:07.1Z</time>
      </trkpt>
      <trkpt lat="48.21226" lon="-3.08369">
        <ele>187</ele>
        <time>2015-10-12T12:45:10.1Z</time>
      </trkpt>
      <trkpt lat="48.21224" lon="-3.08369">
        <ele>187</ele>
        <time>2015-10-12T12:45:12.1Z</time>
      </trkpt>
      <trkpt lat="48.21221" lon="-3.08367">
        <ele>187</ele>
        <time>2015-10-12T12:45:15.1Z</time>
      </trkpt>
      <trkpt lat="48.21219" lon="-3.08367">
        <ele>186</ele>
        <time>2015-10-12T12:45:17.1Z</time>
      </trkpt>
      <trkpt lat="48.21215" lon="-3.08367">
        <ele>186</ele>
        <time>2015-10-12T12:45:20.1Z</time>
      </trkpt>
      <trkpt lat="48.21213" lon="-3.08367">
        <ele>186</ele>
        <time>2015-10-12T12:45:22.1Z</time>
      </trkpt>
      <trkpt lat="48.2121" lon="-3.08368">
        <ele>186</ele>
        <time>2015-10-12T12:45:24.1Z</time>
      </trkpt>
      <trkpt lat="48.21207" lon="-3.08369">
        <ele>186</ele>
        <time>2015-10-12T12:45:27.1Z</time>
      </trkpt>
      <trkpt lat="48.21203" lon="-3.0837">
        <ele>185</ele>
        <time>2015-10-12T12:45:30.1Z</time>
      </trkpt>
      <trkpt lat="48.21201" lon="-3.0837">
        <ele>185</ele>
        <time>2015-10-12T12:45:32.1Z</time>
      </trkpt>
      <trkpt lat="48.21197" lon="-3.0837">
        <ele>185</ele>
        <time>2015-10-12T12:45:35.1Z</time>
      </trkpt>
      <trkpt lat="48.21195" lon="-3.0837">
        <ele>185</ele>
        <time>2015-10-12T12:45:37.1Z</time>
      </trkpt>
      <trkpt lat="48.21191" lon="-3.08371">
        <ele>184</ele>
        <time>2015-10-12T12:45:40.1Z</time>
      </trkpt>
      <trkpt lat="48.21188" lon="-3.08372">
        <ele>184</ele>
        <time>2015-10-12T12:45:42.1Z</time>
      </trkpt>
      <trkpt lat="48.21185" lon="-3.08372">
        <ele>184</ele>
        <time>2015-10-12T12:45:45.1Z</time>
      </trkpt>
      <trkpt lat="48.21183" lon="-3.08373">
        <ele>184</ele>
        <time>2015-10-12T12:45:47.1Z</time>
      </trkpt>
      <trkpt lat="48.2118" lon="-3.08373">
        <ele>184</ele>
        <time>2015-10-12T12:45:49.1Z</time>
      </trkpt>
      <trkpt lat="48.21177" lon="-3.08375">
        <ele>183</ele>
        <time>2015-10-12T12:45:52.1Z</time>
      </trkpt>
      <trkpt lat="48.21173" lon="-3.08375">
        <ele>183</ele>
        <time>2015-10-12T12:45:55.1Z</time>
      </trkpt>
      <trkpt lat="48.2117" lon="-3.08375">
        <ele>183</ele>
        <time>2015-10-12T12:45:58.1Z</time>
      </trkpt>
      <trkpt lat="48.21167" lon="-3.08376">
        <ele>183</ele>
        <time>2015-10-12T12:46:00.1Z</time>
      </trkpt>
      <trkpt lat="48.21165" lon="-3.08376">
        <ele>182</ele>
        <time>2015-10-12T12:46:02.1Z</time>
      </trkpt>
      <trkpt lat="48.21162" lon="-3.08376">
        <ele>182</ele>
        <time>2015-10-12T12:46:05.1Z</time>
      </trkpt>
      <trkpt lat="48.21159" lon="-3.08378">
        <ele>182</ele>
        <time>2015-10-12T12:46:08.1Z</time>
      </trkpt>
      <trkpt lat="48.21157" lon="-3.08379">
        <ele>182</ele>
        <time>2015-10-12T12:46:10.1Z</time>
      </trkpt>
      <trkpt lat="48.21154" lon="-3.0838">
        <ele>183</ele>
        <time>2015-10-12T12:46:12.1Z</time>
      </trkpt>
      <trkpt lat="48.21153" lon="-3.08382">
        <ele>183</ele>
        <time>2015-10-12T12:46:14.1Z</time>
      </trkpt>
      <trkpt lat="48.21151" lon="-3.08384">
        <ele>183</ele>
        <time>2015-10-12T12:46:17.1Z</time>
      </trkpt>
      <trkpt lat="48.2115" lon="-3.08388">
        <ele>183</ele>
        <time>2015-10-12T12:46:20.1Z</time>
      </trkpt>
      <trkpt lat="48.21149" lon="-3.08393">
        <ele>182</ele>
        <time>2015-10-12T12:46:23.1Z</time>
      </trkpt>
      <trkpt lat="48.21148" lon="-3.08397">
        <ele>182</ele>
        <time>2015-10-12T12:46:26.1Z</time>
      </trkpt>
      <trkpt lat="48.21146" lon="-3.08402">
        <ele>183</ele>
        <time>2015-10-12T12:46:29.1Z</time>
      </trkpt>
      <trkpt lat="48.21145" lon="-3.08406">
        <ele>183</ele>
        <time>2015-10-12T12:46:32.1Z</time>
      </trkpt>
      <trkpt lat="48.21144" lon="-3.08409">
        <ele>183</ele>
        <time>2015-10-12T12:46:34.1Z</time>
      </trkpt>
      <trkpt lat="48.21144" lon="-3.08413">
        <ele>183</ele>
        <time>2015-10-12T12:46:37.1Z</time>
      </trkpt>
      <trkpt lat="48.21143" lon="-3.08416">
        <ele>183</ele>
        <time>2015-10-12T12:46:39.1Z</time>
      </trkpt>
      <trkpt lat="48.21143" lon="-3.0842">
        <ele>184</ele>
        <time>2015-10-12T12:46:42.1Z</time>
      </trkpt>
      <trkpt lat="48.21142" lon="-3.08423">
        <ele>184</ele>
        <time>2015-10-12T12:46:44.1Z</time>
      </trkpt>
      <trkpt lat="48.21141" lon="-3.08427">
        <ele>184</ele>
        <time>2015-10-12T12:46:47.1Z</time>
      </trkpt>
      <trkpt lat="48.21141" lon="-3.0843">
        <ele>184</ele>
        <time>2015-10-12T12:46:49.1Z</time>
      </trkpt>
      <trkpt lat="48.2114" lon="-3.08432">
        <ele>184</ele>
        <time>2015-10-12T12:46:51.1Z</time>
      </trkpt>
      <trkpt lat="48.21141" lon="-3.08436">
        <ele>184</ele>
        <time>2015-10-12T12:46:54.1Z</time>
      </trkpt>
      <trkpt lat="48.21142" lon="-3.0844">
        <ele>184</ele>
        <time>2015-10-12T12:46:57.1Z</time>
      </trkpt>
      <trkpt lat="48.21143" lon="-3.08443">
        <ele>184</ele>
        <time>2015-10-12T12:46:59.1Z</time>
      </trkpt>
      <trkpt lat="48.21143" lon="-3.08447">
        <ele>185</ele>
        <time>2015-10-12T12:47:02.1Z</time>
      </trkpt>
      <trkpt lat="48.21143" lon="-3.08452">
        <ele>185</ele>
        <time>2015-10-12T12:47:05.1Z</time>
      </trkpt>
      <trkpt lat="48.21144" lon="-3.08456">
        <ele>185</ele>
        <time>2015-10-12T12:47:08.1Z</time>
      </trkpt>
      <trkpt lat="48.21144" lon="-3.0846">
        <ele>185</ele>
        <time>2015-10-12T12:47:11.1Z</time>
      </trkpt>
      <trkpt lat="48.21144" lon="-3.08463">
        <ele>185</ele>
        <time>2015-10-12T12:47:13.1Z</time>
      </trkpt>
      <trkpt lat="48.21143" lon="-3.08467">
        <ele>185</ele>
        <time>2015-10-12T12:47:16.1Z</time>
      </trkpt>
      <trkpt lat="48.21143" lon="-3.0847">
        <ele>185</ele>
        <time>2015-10-12T12:47:18.1Z</time>
      </trkpt>
      <trkpt lat="48.21142" lon="-3.08471">
        <ele>184</ele>
        <time>2015-10-12T12:47:21.1Z</time>
      </trkpt>
      <trkpt lat="48.21142" lon="-3.08472">
        <ele>184</ele>
        <time>2015-10-12T12:47:23.1Z</time>
      </trkpt>
      <trkpt lat="48.21141" lon="-3.08472">
        <ele>184</ele>
        <time>2015-10-12T12:47:26.1Z</time>
      </trkpt>
      <trkpt lat="48.21139" lon="-3.08471">
        <ele>184</ele>
        <time>2015-10-12T12:47:29.1Z</time>
      </trkpt>
      <trkpt lat="48.21138" lon="-3.0847">
        <ele>183</ele>
        <time>2015-10-12T12:47:31.1Z</time>
      </trkpt>
      <trkpt lat="48.21138" lon="-3.08468">
        <ele>183</ele>
        <time>2015-10-12T12:47:34.1Z</time>
      </trkpt>
      <trkpt lat="48.21138" lon="-3.08468">
        <ele>183</ele>
        <time>2015-10-12T12:47:36.1Z</time>
      </trkpt>
      <trkpt lat="48.21137" lon="-3.08467">
        <ele>182</ele>
        <time>2015-10-12T12:47:40.1Z</time>
      </trkpt>
      <trkpt lat="48.21136" lon="-3.08468">
        <ele>182</ele>
        <time>2015-10-12T12:47:43.1Z</time>
      </trkpt>
      <trkpt lat="48.21136" lon="-3.08468">
        <ele>183</ele>
        <time>2015-10-12T12:47:47.1Z</time>
      </trkpt>
      <trkpt lat="48.21136" lon="-3.08468">
        <ele>183</ele>
        <time>2015-10-12T12:47:49.1Z</time>
      </trkpt>
      <trkpt lat="48.21136" lon="-3.08466">
        <ele>182</ele>
        <time>2015-10-12T12:47:52.1Z</time>
      </trkpt>
      <trkpt lat="48.21134" lon="-3.08463">
        <ele>182</ele>
        <time>2015-10-12T12:47:55.1Z</time>
      </trkpt>
      <trkpt lat="48.21133" lon="-3.08461">
        <ele>182</ele>
        <time>2015-10-12T12:47:58.1Z</time>
      </trkpt>
      <trkpt lat="48.21132" lon="-3.08459">
        <ele>181</ele>
        <time>2015-10-12T12:48:00.1Z</time>
      </trkpt>
      <trkpt lat="48.21131" lon="-3.08457">
        <ele>181</ele>
        <time>2015-10-12T12:48:03.1Z</time>
      </trkpt>
      <trkpt lat="48.21131" lon="-3.08457">
        <ele>181</ele>
        <time>2015-10-12T12:48:05.1Z</time>
      </trkpt>
      <trkpt lat="48.2113" lon="-3.08457">
        <ele>181</ele>
        <time>2015-10-12T12:48:08.1Z</time>
      </trkpt>
      <trkpt lat="48.21129" lon="-3.08456">
        <ele>181</ele>
        <time>2015-10-12T12:48:11.1Z</time>
      </trkpt>
      <trkpt lat="48.21129" lon="-3.08455">
        <ele>181</ele>
        <time>2015-10-12T12:48:14.1Z</time>
      </trkpt>
      <trkpt lat="48.21127" lon="-3.08452">
        <ele>181</ele>
        <time>2015-10-12T12:48:17.1Z</time>
      </trkpt>
      <trkpt lat="48.21125" lon="-3.08451">
        <ele>180</ele>
        <time>2015-10-12T12:48:20.1Z</time>
      </trkpt>
      <trkpt lat="48.21124" lon="-3.08448">
        <ele>180</ele>
        <time>2015-10-12T12:48:23.1Z</time>
      </trkpt>
      <trkpt lat="48.21123" lon="-3.08444">
        <ele>180</ele>
        <time>2015-10-12T12:48:26.1Z</time>
      </trkpt>
      <trkpt lat="48.21121" lon="-3.08441">
        <ele>180</ele>
        <time>2015-10-12T12:48:29.1Z</time>
      </trkpt>
      <trkpt lat="48.21121" lon="-3.08438">
        <ele>179</ele>
        <time>2015-10-12T12:48:32.1Z</time>
      </trkpt>
      <trkpt lat="48.21121" lon="-3.08435">
        <ele>179</ele>
        <time>2015-10-12T12:48:34.1Z</time>
      </trkpt>
      <trkpt lat="48.21121" lon="-3.08431">
        <ele>178</ele>
        <time>2015-10-12T12:48:37.1Z</time>
      </trkpt>
      <trkpt lat="48.21121" lon="-3.08427">
        <ele>178</ele>
        <time>2015-10-12T12:48:40.1Z</time>
      </trkpt>
      <trkpt lat="48.2112" lon="-3.08424">
        <ele>177</ele>
        <time>2015-10-12T12:48:43.1Z</time>
      </trkpt>
      <trkpt lat="48.2112" lon="-3.0842">
        <ele>177</ele>
        <time>2015-10-12T12:48:46.1Z</time>
      </trkpt>
      <trkpt lat="48.2112" lon="-3.08418">
        <ele>177</ele>
        <time>2015-10-12T12:48:48.1Z</time>
      </trkpt>
      <trkpt lat="48.2112" lon="-3.08416">
        <ele>177</ele>
        <time>2015-10-12T12:48:50.1Z</time>
      </trkpt>
      <trkpt lat="48.21121" lon="-3.08412">
        <ele>177</ele>
        <time>2015-10-12T12:48:53.1Z</time>
      </trkpt>
      <trkpt lat="48.21121" lon="-3.0841">
        <ele>176</ele>
        <time>2015-10-12T12:48:55.1Z</time>
      </trkpt>
      <trkpt lat="48.21122" lon="-3.08406">
        <ele>176</ele>
        <time>2015-10-12T12:48:58.1Z</time>
      </trkpt>
      <trkpt lat="48.21122" lon="-3.08404">
        <ele>176</ele>
        <time>2015-10-12T12:49:00.1Z</time>
      </trkpt>
      <trkpt lat="48.21123" lon="-3.08401">
        <ele>176</ele>
        <time>2015-10-12T12:49:03.1Z</time>
      </trkpt>
      <trkpt lat="48.21123" lon="-3.084">
        <ele>176</ele>
        <time>2015-10-12T12:49:05.1Z</time>
      </trkpt>
      <trkpt lat="48.21123" lon="-3.08398">
        <ele>175</ele>
        <time>2015-10-12T12:49:08.1Z</time>
      </trkpt>
      <trkpt lat="48.21123" lon="-3.08395">
        <ele>175</ele>
        <time>2015-10-12T12:49:11.1Z</time>
      </trkpt>
      <trkpt lat="48.21124" lon="-3.0839">
        <ele>175</ele>
        <time>2015-10-12T12:49:14.1Z</time>
      </trkpt>
      <trkpt lat="48.21124" lon="-3.08388">
        <ele>174</ele>
        <time>2015-10-12T12:49:16.1Z</time>
      </trkpt>
      <trkpt lat="48.21124" lon="-3.08386">
        <ele>174</ele>
        <time>2015-10-12T12:49:18.1Z</time>
      </trkpt>
      <trkpt lat="48.21124" lon="-3.08382">
        <ele>174</ele>
        <time>2015-10-12T12:49:21.1Z</time>
      </trkpt>
      <trkpt lat="48.21125" lon="-3.08379">
        <ele>173</ele>
        <time>2015-10-12T12:49:23.1Z</time>
      </trkpt>
      <trkpt lat="48.21125" lon="-3.08375">
        <ele>173</ele>
        <time>2015-10-12T12:49:26.1Z</time>
      </trkpt>
      <trkpt lat="48.21125" lon="-3.08371">
        <ele>172</ele>
        <time>2015-10-12T12:49:29.1Z</time>
      </trkpt>
      <trkpt lat="48.21125" lon="-3.08368">
        <ele>172</ele>
        <time>2015-10-12T12:49:31.1Z</time>
      </trkpt>
      <trkpt lat="48.21125" lon="-3.08364">
        <ele>172</ele>
        <time>2015-10-12T12:49:34.1Z</time>
      </trkpt>
      <trkpt lat="48.21126" lon="-3.0836">
        <ele>171</ele>
        <time>2015-10-12T12:49:37.1Z</time>
      </trkpt>
      <trkpt lat="48.21126" lon="-3.08355">
        <ele>171</ele>
        <time>2015-10-12T12:49:40.1Z</time>
      </trkpt>
      <trkpt lat="48.21127" lon="-3.08352">
        <ele>170</ele>
        <time>2015-10-12T12:49:42.1Z</time>
      </trkpt>
      <trkpt lat="48.21127" lon="-3.08349">
        <ele>170</ele>
        <time>2015-10-12T12:49:44.1Z</time>
      </trkpt>
      <trkpt lat="48.21127" lon="-3.08345">
        <ele>170</ele>
        <time>2015-10-12T12:49:47.1Z</time>
      </trkpt>
      <trkpt lat="48.21127" lon="-3.08343">
        <ele>170</ele>
        <time>2015-10-12T12:49:49.1Z</time>
      </trkpt>
      <trkpt lat="48.21128" lon="-3.08339">
        <ele>169</ele>
        <time>2015-10-12T12:49:52.1Z</time>
      </trkpt>
      <trkpt lat="48.21128" lon="-3.08334">
        <ele>169</ele>
        <time>2015-10-12T12:49:55.1Z</time>
      </trkpt>
      <trkpt lat="48.21129" lon="-3.08332">
        <ele>168</ele>
        <time>2015-10-12T12:49:57.1Z</time>
      </trkpt>
      <trkpt lat="48.2113" lon="-3.08328">
        <ele>168</ele>
        <time>2015-10-12T12:50:00.1Z</time>
      </trkpt>
      <trkpt lat="48.2113" lon="-3.08325">
        <ele>168</ele>
        <time>2015-10-12T12:50:02.1Z</time>
      </trkpt>
      <trkpt lat="48.21131" lon="-3.0832">
        <ele>167</ele>
        <time>2015-10-12T12:50:05.1Z</time>
      </trkpt>
      <trkpt lat="48.21132" lon="-3.08316">
        <ele>167</ele>
        <time>2015-10-12T12:50:08.1Z</time>
      </trkpt>
      <trkpt lat="48.21133" lon="-3.08312">
        <ele>167</ele>
        <time>2015-10-12T12:50:11.1Z</time>
      </trkpt>
      <trkpt lat="48.21135" lon="-3.08308">
        <ele>167</ele>
        <time>2015-10-12T12:50:14.1Z</time>
      </trkpt>
      <trkpt lat="48.21136" lon="-3.08306">
        <ele>166</ele>
        <time>2015-10-12T12:50:16.1Z</time>
      </trkpt>
      <trkpt lat="48.21138" lon="-3.08302">
        <ele>166</ele>
        <time>2015-10-12T12:50:19.1Z</time>
      </trkpt>
      <trkpt lat="48.21139" lon="-3.08299">
        <ele>166</ele>
        <time>2015-10-12T12:50:22.1Z</time>
      </trkpt>
      <trkpt lat="48.2114" lon="-3.08297">
        <ele>166</ele>
        <time>2015-10-12T12:50:24.1Z</time>
      </trkpt>
      <trkpt lat="48.21141" lon="-3.08295">
        <ele>166</ele>
        <time>2015-10-12T12:50:27.1Z</time>
      </trkpt>
      <trkpt lat="48.21141" lon="-3.08293">
        <ele>165</ele>
        <time>2015-10-12T12:50:30.1Z</time>
      </trkpt>
      <trkpt lat="48.21142" lon="-3.08291">
        <ele>165</ele>
        <time>2015-10-12T12:50:32.1Z</time>
      </trkpt>
      <trkpt lat="48.21144" lon="-3.08289">
        <ele>165</ele>
        <time>2015-10-12T12:50:35.1Z</time>
      </trkpt>
      <trkpt lat="48.21145" lon="-3.08287">
        <ele>165</ele>
        <time>2015-10-12T12:50:37.1Z</time>
      </trkpt>
      <trkpt lat="48.21146" lon="-3.08286">
        <ele>165</ele>
        <time>2015-10-12T12:50:39.1Z</time>
      </trkpt>
      <trkpt lat="48.21146" lon="-3.08284">
        <ele>166</ele>
        <time>2015-10-12T12:50:42.1Z</time>
      </trkpt>
      <trkpt lat="48.21148" lon="-3.08283">
        <ele>165</ele>
        <time>2015-10-12T12:50:45.1Z</time>
      </trkpt>
      <trkpt lat="48.2115" lon="-3.08281">
        <ele>165</ele>
        <time>2015-10-12T12:50:48.1Z</time>
      </trkpt>
      <trkpt lat="48.21152" lon="-3.0828">
        <ele>165</ele>
        <time>2015-10-12T12:50:51.1Z</time>
      </trkpt>
      <trkpt lat="48.21153" lon="-3.08279">
        <ele>165</ele>
        <time>2015-10-12T12:50:53.1Z</time>
      </trkpt>
      <trkpt lat="48.21155" lon="-3.08277">
        <ele>165</ele>
        <time>2015-10-12T12:50:56.1Z</time>
      </trkpt>
      <trkpt lat="48.21156" lon="-3.08276">
        <ele>164</ele>
        <time>2015-10-12T12:50:58.1Z</time>
      </trkpt>
      <trkpt lat="48.21157" lon="-3.08274">
        <ele>164</ele>
        <time>2015-10-12T12:51:01.1Z</time>
      </trkpt>
      <trkpt lat="48.21159" lon="-3.08271">
        <ele>164</ele>
        <time>2015-10-12T12:51:04.1Z</time>
      </trkpt>
      <trkpt lat="48.2116" lon="-3.08271">
        <ele>164</ele>
        <time>2015-10-12T12:51:06.1Z</time>
      </trkpt>
      <trkpt lat="48.2116" lon="-3.0827">
        <ele>164</ele>
        <time>2015-10-12T12:51:09.1Z</time>
      </trkpt>
      <trkpt lat="48.2116" lon="-3.0827">
        <ele>164</ele>
        <time>2015-10-12T12:51:12.1Z</time>
      </trkpt>
      <trkpt lat="48.2116" lon="-3.0827">
        <ele>164</ele>
        <time>2015-10-12T12:51:14.1Z</time>
      </trkpt>
      <trkpt lat="48.2116" lon="-3.08269">
        <ele>164</ele>
        <time>2015-10-12T12:51:17.1Z</time>
      </trkpt>
      <trkpt lat="48.21159" lon="-3.08269">
        <ele>163</ele>
        <time>2015-10-12T12:51:19.1Z</time>
      </trkpt>
      <trkpt lat="48.21159" lon="-3.08269">
        <ele>163</ele>
        <time>2015-10-12T12:51:22.1Z</time>
      </trkpt>
      <trkpt lat="48.21159" lon="-3.08268">
        <ele>163</ele>
        <time>2015-10-12T12:51:24.1Z</time>
      </trkpt>
      <trkpt lat="48.21159" lon="-3.08265">
        <ele>163</ele>
        <time>2015-10-12T12:51:27.1Z</time>
      </trkpt>
      <trkpt lat="48.21158" lon="-3.08263">
        <ele>163</ele>
        <time>2015-10-12T12:51:30.1Z</time>
      </trkpt>
      <trkpt lat="48.21157" lon="-3.08263">
        <ele>163</ele>
        <time>2015-10-12T12:51:33.1Z</time>
      </trkpt>
      <trkpt lat="48.21157" lon="-3.08263">
        <ele>163</ele>
        <time>2015-10-12T12:51:36.1Z</time>
      </trkpt>
      <trkpt lat="48.21157" lon="-3.08263">
        <ele>163</ele>
        <time>2015-10-12T12:51:38.1Z</time>
      </trkpt>
      <trkpt lat="48.21157" lon="-3.08263">
        <ele>163</ele>
        <time>2015-10-12T12:51:41.1Z</time>
      </trkpt>
      <trkpt lat="48.21157" lon="-3.08261">
        <ele>162</ele>
        <time>2015-10-12T12:51:43.1Z</time>
      </trkpt>
      <trkpt lat="48.21157" lon="-3.08261">
        <ele>162</ele>
        <time>2015-10-12T12:51:46.1Z</time>
      </trkpt>
      <trkpt lat="48.21156" lon="-3.0826">
        <ele>163</ele>
        <time>2015-10-12T12:51:49.1Z</time>
      </trkpt>
      <trkpt lat="48.21156" lon="-3.0826">
        <ele>163</ele>
        <time>2015-10-12T12:51:52.1Z</time>
      </trkpt>
      <trkpt lat="48.21155" lon="-3.08258">
        <ele>164</ele>
        <time>2015-10-12T12:51:55.1Z</time>
      </trkpt>
      <trkpt lat="48.21154" lon="-3.08258">
        <ele>164</ele>
        <time>2015-10-12T12:51:57.1Z</time>
      </trkpt>
      <trkpt lat="48.21154" lon="-3.08257">
        <ele>163</ele>
        <time>2015-10-12T12:51:59.1Z</time>
      </trkpt>
      <trkpt lat="48.21153" lon="-3.08257">
        <ele>163</ele>
        <time>2015-10-12T12:52:01.1Z</time>
      </trkpt>
      <trkpt lat="48.21153" lon="-3.08257">
        <ele>163</ele>
        <time>2015-10-12T12:52:04.1Z</time>
      </trkpt>
      <trkpt lat="48.21153" lon="-3.08257">
        <ele>164</ele>
        <time>2015-10-12T12:52:09.1Z</time>
      </trkpt>
      <trkpt lat="48.21153" lon="-3.08257">
        <ele>165</ele>
        <time>2015-10-12T12:52:12.1Z</time>
      </trkpt>
      <trkpt lat="48.21152" lon="-3.08257">
        <ele>165</ele>
        <time>2015-10-12T12:52:15.1Z</time>
      </trkpt>
      <trkpt lat="48.21152" lon="-3.08257">
        <ele>165</ele>
        <time>2015-10-12T12:52:19.1Z</time>
      </trkpt>
      <trkpt lat="48.21152" lon="-3.08258">
        <ele>164</ele>
        <time>2015-10-12T12:52:22.1Z</time>
      </trkpt>
      <trkpt lat="48.21153" lon="-3.08258">
        <ele>164</ele>
        <time>2015-10-12T12:52:24.1Z</time>
      </trkpt>
      <trkpt lat="48.21153" lon="-3.08258">
        <ele>164</ele>
        <time>2015-10-12T12:52:26.1Z</time>
      </trkpt>
      <trkpt lat="48.21152" lon="-3.08258">
        <ele>163</ele>
        <time>2015-10-12T12:52:28.1Z</time>
      </trkpt>
      <trkpt lat="48.21152" lon="-3.08258">
        <ele>163</ele>
        <time>2015-10-12T12:52:31.1Z</time>
      </trkpt>
      <trkpt lat="48.21151" lon="-3.08256">
        <ele>163</ele>
        <time>2015-10-12T12:52:34.1Z</time>
      </trkpt>
      <trkpt lat="48.2115" lon="-3.08255">
        <ele>163</ele>
        <time>2015-10-12T12:52:36.1Z</time>
      </trkpt>
      <trkpt lat="48.2115" lon="-3.08255">
        <ele>162</ele>
        <time>2015-10-12T12:52:39.1Z</time>
      </trkpt>
      <trkpt lat="48.21149" lon="-3.08255">
        <ele>162</ele>
        <time>2015-10-12T12:52:41.1Z</time>
      </trkpt>
      <trkpt lat="48.21149" lon="-3.08255">
        <ele>162</ele>
        <time>2015-10-12T12:52:43.1Z</time>
      </trkpt>
      <trkpt lat="48.21149" lon="-3.08255">
        <ele>163</ele>
        <time>2015-10-12T12:52:49.1Z</time>
      </trkpt>
      <trkpt lat="48.21149" lon="-3.08256">
        <ele>163</ele>
        <time>2015-10-12T12:52:55.1Z</time>
      </trkpt>
      <trkpt lat="48.21149" lon="-3.08256">
        <ele>162</ele>
        <time>2015-10-12T12:52:57.1Z</time>
      </trkpt>
      <trkpt lat="48.2115" lon="-3.08256">
        <ele>163</ele>
        <time>2015-10-12T12:53:02.1Z</time>
      </trkpt>
      <trkpt lat="48.2115" lon="-3.08256">
        <ele>163</ele>
        <time>2015-10-12T12:53:05.1Z</time>
      </trkpt>
      <trkpt lat="48.2115" lon="-3.08257">
        <ele>163</ele>
        <time>2015-10-12T12:53:08.1Z</time>
      </trkpt>
      <trkpt lat="48.2115" lon="-3.08257">
        <ele>163</ele>
        <time>2015-10-12T12:53:10.1Z</time>
      </trkpt>
      <trkpt lat="48.2115" lon="-3.08257">
        <ele>162</ele>
        <time>2015-10-12T12:53:13.1Z</time>
      </trkpt>
      <trkpt lat="48.2115" lon="-3.08257">
        <ele>162</ele>
        <time>2015-10-12T12:53:16.1Z</time>
      </trkpt>
      <trkpt lat="48.21151" lon="-3.08257">
        <ele>162</ele>
        <time>2015-10-12T12:53:18.1Z</time>
      </trkpt>
      <trkpt lat="48.21151" lon="-3.08257">
        <ele>162</ele>
        <time>2015-10-12T12:53:21.1Z</time>
      </trkpt>
      <trkpt lat="48.21151" lon="-3.08259">
        <ele>162</ele>
        <time>2015-10-12T12:53:24.1Z</time>
      </trkpt>
      <trkpt lat="48.21152" lon="-3.08261">
        <ele>163</ele>
        <time>2015-10-12T12:53:27.1Z</time>
      </trkpt>
      <trkpt lat="48.21153" lon="-3.08262">
        <ele>163</ele>
        <time>2015-10-12T12:53:30.1Z</time>
      </trkpt>
      <trkpt lat="48.21153" lon="-3.08262">
        <ele>164</ele>
        <time>2015-10-12T12:53:33.1Z</time>
      </trkpt>
      <trkpt lat="48.21154" lon="-3.08265">
        <ele>163</ele>
        <time>2015-10-12T12:53:36.1Z</time>
      </trkpt>
      <trkpt lat="48.21154" lon="-3.08266">
        <ele>163</ele>
        <time>2015-10-12T12:53:38.1Z</time>
      </trkpt>
      <trkpt lat="48.21152" lon="-3.08266">
        <ele>163</ele>
        <time>2015-10-12T12:53:41.1Z</time>
      </trkpt>
      <trkpt lat="48.21152" lon="-3.08266">
        <ele>164</ele>
        <time>2015-10-12T12:53:45.1Z</time>
      </trkpt>
      <trkpt lat="48.21153" lon="-3.08268">
        <ele>164</ele>
        <time>2015-10-12T12:53:47.1Z</time>
      </trkpt>
      <trkpt lat="48.21152" lon="-3.08267">
        <ele>164</ele>
        <time>2015-10-12T12:53:54.1Z</time>
      </trkpt>
      <trkpt lat="48.21153" lon="-3.08267">
        <ele>164</ele>
        <time>2015-10-12T12:53:56.1Z</time>
      </trkpt>
      <trkpt lat="48.21153" lon="-3.08267">
        <ele>163</ele>
        <time>2015-10-12T12:53:58.1Z</time>
      </trkpt>
      <trkpt lat="48.21153" lon="-3.08266">
        <ele>163</ele>
        <time>2015-10-12T12:54:03.1Z</time>
      </trkpt>
      <trkpt lat="48.21154" lon="-3.08265">
        <ele>163</ele>
        <time>2015-10-12T12:54:05.1Z</time>
      </trkpt>
      <trkpt lat="48.21156" lon="-3.08265">
        <ele>163</ele>
        <time>2015-10-12T12:54:07.1Z</time>
      </trkpt>
      <trkpt lat="48.21154" lon="-3.08263">
        <ele>163</ele>
        <time>2015-10-12T12:54:10.1Z</time>
      </trkpt>
      <trkpt lat="48.21152" lon="-3.08263">
        <ele>163</ele>
        <time>2015-10-12T12:54:12.1Z</time>
      </trkpt>
      <trkpt lat="48.21152" lon="-3.08263">
        <ele>164</ele>
        <time>2015-10-12T12:54:15.1Z</time>
      </trkpt>
      <trkpt lat="48.21152" lon="-3.08262">
        <ele>163</ele>
        <time>2015-10-12T12:54:17.1Z</time>
      </trkpt>
      <trkpt lat="48.21153" lon="-3.08261">
        <ele>163</ele>
        <time>2015-10-12T12:54:20.1Z</time>
      </trkpt>
      <trkpt lat="48.21154" lon="-3.0826">
        <ele>163</ele>
        <time>2015-10-12T12:54:23.1Z</time>
      </trkpt>
      <trkpt lat="48.21156" lon="-3.08257">
        <ele>163</ele>
        <time>2015-10-12T12:54:26.1Z</time>
      </trkpt>
      <trkpt lat="48.21157" lon="-3.08255">
        <ele>163</ele>
        <time>2015-10-12T12:54:28.1Z</time>
      </trkpt>
      <trkpt lat="48.21158" lon="-3.08254">
        <ele>163</ele>
        <time>2015-10-12T12:54:31.1Z</time>
      </trkpt>
      <trkpt lat="48.21159" lon="-3.08254">
        <ele>163</ele>
        <time>2015-10-12T12:54:34.1Z</time>
      </trkpt>
      <trkpt lat="48.21159" lon="-3.08253">
        <ele>163</ele>
        <time>2015-10-12T12:54:37.1Z</time>
      </trkpt>
      <trkpt lat="48.2116" lon="-3.08253">
        <ele>164</ele>
        <time>2015-10-12T12:54:39.1Z</time>
      </trkpt>
      <trkpt lat="48.21161" lon="-3.08253">
        <ele>164</ele>
        <time>2015-10-12T12:54:42.1Z</time>
      </trkpt>
      <trkpt lat="48.21161" lon="-3.08253">
        <ele>164</ele>
        <time>2015-10-12T12:54:44.1Z</time>
      </trkpt>
      <trkpt lat="48.21161" lon="-3.08253">
        <ele>164</ele>
        <time>2015-10-12T12:54:46.1Z</time>
      </trkpt>
      <trkpt lat="48.21162" lon="-3.08254">
        <ele>163</ele>
        <time>2015-10-12T12:54:51.1Z</time>
      </trkpt>
      <trkpt lat="48.21163" lon="-3.08254">
        <ele>163</ele>
        <time>2015-10-12T12:54:54.1Z</time>
      </trkpt>
      <trkpt lat="48.21164" lon="-3.08253">
        <ele>163</ele>
        <time>2015-10-12T12:54:57.1Z</time>
      </trkpt>
      <trkpt lat="48.21164" lon="-3.08254">
        <ele>163</ele>
        <time>2015-10-12T12:54:59.1Z</time>
      </trkpt>
      <trkpt lat="48.21164" lon="-3.08254">
        <ele>163</ele>
        <time>2015-10-12T12:55:02.1Z</time>
      </trkpt>
      <trkpt lat="48.21164" lon="-3.08254">
        <ele>163</ele>
        <time>2015-10-12T12:55:06.1Z</time>
      </trkpt>
      <trkpt lat="48.21165" lon="-3.08255">
        <ele>164</ele>
        <time>2015-10-12T12:55:09.1Z</time>
      </trkpt>
      <trkpt lat="48.21165" lon="-3.08255">
        <ele>164</ele>
        <time>2015-10-12T12:55:13.1Z</time>
      </trkpt>
      <trkpt lat="48.21164" lon="-3.08255">
        <ele>163</ele>
        <time>2015-10-12T12:55:16.1Z</time>
      </trkpt>
      <trkpt lat="48.21164" lon="-3.08255">
        <ele>163</ele>
        <time>2015-10-12T12:55:19.1Z</time>
      </trkpt>
      <trkpt lat="48.21164" lon="-3.08255">
        <ele>163</ele>
        <time>2015-10-12T12:55:22.1Z</time>
      </trkpt>
      <trkpt lat="48.21164" lon="-3.08255">
        <ele>163</ele>
        <time>2015-10-12T12:55:24.1Z</time>
      </trkpt>
      <trkpt lat="48.21164" lon="-3.08255">
        <ele>163</ele>
        <time>2015-10-12T12:55:26.1Z</time>
      </trkpt>
      <trkpt lat="48.21163" lon="-3.08255">
        <ele>163</ele>
        <time>2015-10-12T12:55:29.1Z</time>
      </trkpt>
      <trkpt lat="48.21163" lon="-3.08255">
        <ele>163</ele>
        <time>2015-10-12T12:55:32.1Z</time>
      </trkpt>
      <trkpt lat="48.21163" lon="-3.08255">
        <ele>163</ele>
        <time>2015-10-12T12:55:34.1Z</time>
      </trkpt>
      <trkpt lat="48.21163" lon="-3.08253">
        <ele>163</ele>
        <time>2015-10-12T12:55:37.1Z</time>
      </trkpt>
      <trkpt lat="48.21163" lon="-3.08251">
        <ele>163</ele>
        <time>2015-10-12T12:55:39.1Z</time>
      </trkpt>
      <trkpt lat="48.21161" lon="-3.08247">
        <ele>163</ele>
        <time>2015-10-12T12:55:42.1Z</time>
      </trkpt>
      <trkpt lat="48.21159" lon="-3.08246">
        <ele>163</ele>
        <time>2015-10-12T12:55:44.1Z</time>
      </trkpt>
      <trkpt lat="48.21158" lon="-3.08244">
        <ele>163</ele>
        <time>2015-10-12T12:55:46.1Z</time>
      </trkpt>
      <trkpt lat="48.21158" lon="-3.08244">
        <ele>163</ele>
        <time>2015-10-12T12:55:49.1Z</time>
      </trkpt>
      <trkpt lat="48.21158" lon="-3.08245">
        <ele>163</ele>
        <time>2015-10-12T12:55:51.1Z</time>
      </trkpt>
      <trkpt lat="48.21158" lon="-3.08245">
        <ele>163</ele>
        <time>2015-10-12T12:55:53.1Z</time>
      </trkpt>
      <trkpt lat="48.21157" lon="-3.08246">
        <ele>163</ele>
        <time>2015-10-12T12:55:56.1Z</time>
      </trkpt>
      <trkpt lat="48.21157" lon="-3.08246">
        <ele>163</ele>
        <time>2015-10-12T12:55:58.1Z</time>
      </trkpt>
      <trkpt lat="48.21157" lon="-3.08247">
        <ele>163</ele>
        <time>2015-10-12T12:56:01.1Z</time>
      </trkpt>
      <trkpt lat="48.21156" lon="-3.08248">
        <ele>163</ele>
        <time>2015-10-12T12:56:04.1Z</time>
      </trkpt>
      <trkpt lat="48.21156" lon="-3.08248">
        <ele>163</ele>
        <time>2015-10-12T12:56:06.1Z</time>
      </trkpt>
      <trkpt lat="48.21155" lon="-3.0825">
        <ele>163</ele>
        <time>2015-10-12T12:56:09.1Z</time>
      </trkpt>
      <trkpt lat="48.21155" lon="-3.08252">
        <ele>163</ele>
        <time>2015-10-12T12:56:11.1Z</time>
      </trkpt>
      <trkpt lat="48.21154" lon="-3.08253">
        <ele>163</ele>
        <time>2015-10-12T12:56:13.1Z</time>
      </trkpt>
      <trkpt lat="48.21154" lon="-3.08253">
        <ele>163</ele>
        <time>2015-10-12T12:56:15.1Z</time>
      </trkpt>
      <trkpt lat="48.21154" lon="-3.08254">
        <ele>163</ele>
        <time>2015-10-12T12:56:18.1Z</time>
      </trkpt>
      <trkpt lat="48.21153" lon="-3.08255">
        <ele>163</ele>
        <time>2015-10-12T12:56:20.1Z</time>
      </trkpt>
      <trkpt lat="48.21153" lon="-3.08255">
        <ele>162</ele>
        <time>2015-10-12T12:56:25.1Z</time>
      </trkpt>
      <trkpt lat="48.21153" lon="-3.08255">
        <ele>162</ele>
        <time>2015-10-12T12:56:28.1Z</time>
      </trkpt>
      <trkpt lat="48.21154" lon="-3.08255">
        <ele>163</ele>
        <time>2015-10-12T12:56:32.1Z</time>
      </trkpt>
      <trkpt lat="48.21154" lon="-3.08254">
        <ele>163</ele>
        <time>2015-10-12T12:56:35.1Z</time>
      </trkpt>
      <trkpt lat="48.21154" lon="-3.08253">
        <ele>163</ele>
        <time>2015-10-12T12:56:37.1Z</time>
      </trkpt>
      <trkpt lat="48.21154" lon="-3.08253">
        <ele>163</ele>
        <time>2015-10-12T12:56:40.1Z</time>
      </trkpt>
      <trkpt lat="48.21154" lon="-3.08253">
        <ele>163</ele>
        <time>2015-10-12T12:56:42.1Z</time>
      </trkpt>
      <trkpt lat="48.21155" lon="-3.08256">
        <ele>163</ele>
        <time>2015-10-12T12:56:45.1Z</time>
      </trkpt>
      <trkpt lat="48.21156" lon="-3.08259">
        <ele>163</ele>
        <time>2015-10-12T12:56:48.1Z</time>
      </trkpt>
      <trkpt lat="48.21158" lon="-3.08259">
        <ele>164</ele>
        <time>2015-10-12T12:56:51.1Z</time>
      </trkpt>
      <trkpt lat="48.2116" lon="-3.08258">
        <ele>163</ele>
        <time>2015-10-12T12:56:54.1Z</time>
      </trkpt>
      <trkpt lat="48.21162" lon="-3.08257">
        <ele>163</ele>
        <time>2015-10-12T12:56:57.1Z</time>
      </trkpt>
      <trkpt lat="48.21162" lon="-3.08258">
        <ele>164</ele>
        <time>2015-10-12T12:57:00.1Z</time>
      </trkpt>
      <trkpt lat="48.21161" lon="-3.0826">
        <ele>164</ele>
        <time>2015-10-12T12:57:03.1Z</time>
      </trkpt>
      <trkpt lat="48.2116" lon="-3.0826">
        <ele>164</ele>
        <time>2015-10-12T12:57:05.1Z</time>
      </trkpt>
      <trkpt lat="48.2116" lon="-3.0826">
        <ele>164</ele>
        <time>2015-10-12T12:57:07.1Z</time>
      </trkpt>
      <trkpt lat="48.2116" lon="-3.0826">
        <ele>164</ele>
        <time>2015-10-12T12:57:10.1Z</time>
      </trkpt>
      <trkpt lat="48.2116" lon="-3.08259">
        <ele>163</ele>
        <time>2015-10-12T12:57:13.1Z</time>
      </trkpt>
      <trkpt lat="48.2116" lon="-3.08259">
        <ele>163</ele>
        <time>2015-10-12T12:57:16.1Z</time>
      </trkpt>
      <trkpt lat="48.21161" lon="-3.08259">
        <ele>163</ele>
        <time>2015-10-12T12:57:22.1Z</time>
      </trkpt>
      <trkpt lat="48.21161" lon="-3.08259">
        <ele>163</ele>
        <time>2015-10-12T12:57:24.1Z</time>
      </trkpt>
      <trkpt lat="48.2116" lon="-3.08259">
        <ele>163</ele>
        <time>2015-10-12T12:57:27.1Z</time>
      </trkpt>
      <trkpt lat="48.2116" lon="-3.08259">
        <ele>163</ele>
        <time>2015-10-12T12:57:31.1Z</time>
      </trkpt>
      <trkpt lat="48.21162" lon="-3.08259">
        <ele>164</ele>
        <time>2015-10-12T12:57:34.1Z</time>
      </trkpt>
      <trkpt lat="48.21163" lon="-3.08258">
        <ele>163</ele>
        <time>2015-10-12T12:57:38.1Z</time>
      </trkpt>
      <trkpt lat="48.21164" lon="-3.08259">
        <ele>163</ele>
        <time>2015-10-12T12:57:40.1Z</time>
      </trkpt>
      <trkpt lat="48.21166" lon="-3.08259">
        <ele>163</ele>
        <time>2015-10-12T12:57:43.1Z</time>
      </trkpt>
      <trkpt lat="48.21168" lon="-3.0826">
        <ele>162</ele>
        <time>2015-10-12T12:57:45.1Z</time>
      </trkpt>
      <trkpt lat="48.2117" lon="-3.08259">
        <ele>162</ele>
        <time>2015-10-12T12:57:47.1Z</time>
      </trkpt>
      <trkpt lat="48.21173" lon="-3.08257">
        <ele>162</ele>
        <time>2015-10-12T12:57:49.1Z</time>
      </trkpt>
      <trkpt lat="48.21175" lon="-3.08255">
        <ele>162</ele>
        <time>2015-10-12T12:57:52.1Z</time>
      </trkpt>
      <trkpt lat="48.21177" lon="-3.08253">
        <ele>162</ele>
        <time>2015-10-12T12:57:54.1Z</time>
      </trkpt>
      <trkpt lat="48.2118" lon="-3.0825">
        <ele>162</ele>
        <time>2015-10-12T12:57:57.1Z</time>
      </trkpt>
      <trkpt lat="48.21183" lon="-3.08249">
        <ele>162</ele>
        <time>2015-10-12T12:58:00.1Z</time>
      </trkpt>
      <trkpt lat="48.21186" lon="-3.08247">
        <ele>162</ele>
        <time>2015-10-12T12:58:03.1Z</time>
      </trkpt>
      <trkpt lat="48.2119" lon="-3.08244">
        <ele>162</ele>
        <time>2015-10-12T12:58:06.1Z</time>
      </trkpt>
      <trkpt lat="48.21191" lon="-3.08242">
        <ele>161</ele>
        <time>2015-10-12T12:58:08.1Z</time>
      </trkpt>
      <trkpt lat="48.21194" lon="-3.08238">
        <ele>161</ele>
        <time>2015-10-12T12:58:11.1Z</time>
      </trkpt>
      <trkpt lat="48.21196" lon="-3.08235">
        <ele>161</ele>
        <time>2015-10-12T12:58:13.1Z</time>
      </trkpt>
      <trkpt lat="48.21198" lon="-3.08231">
        <ele>161</ele>
        <time>2015-10-12T12:58:16.1Z</time>
      </trkpt>
      <trkpt lat="48.21199" lon="-3.08225">
        <ele>161</ele>
        <time>2015-10-12T12:58:18.1Z</time>
      </trkpt>
      <trkpt lat="48.212" lon="-3.08224">
        <ele>161</ele>
        <time>2015-10-12T12:58:21.1Z</time>
      </trkpt>
      <trkpt lat="48.212" lon="-3.08222">
        <ele>162</ele>
        <time>2015-10-12T12:58:24.1Z</time>
      </trkpt>
      <trkpt lat="48.21202" lon="-3.08217">
        <ele>162</ele>
        <time>2015-10-12T12:58:26.1Z</time>
      </trkpt>
      <trkpt lat="48.21203" lon="-3.08214">
        <ele>161</ele>
        <time>2015-10-12T12:58:29.1Z</time>
      </trkpt>
      <trkpt lat="48.21203" lon="-3.08206">
        <ele>161</ele>
        <time>2015-10-12T12:58:32.1Z</time>
      </trkpt>
      <trkpt lat="48.21204" lon="-3.082">
        <ele>161</ele>
        <time>2015-10-12T12:58:35.1Z</time>
      </trkpt>
      <trkpt lat="48.21205" lon="-3.08194">
        <ele>160</ele>
        <time>2015-10-12T12:58:38.1Z</time>
      </trkpt>
      <trkpt lat="48.21205" lon="-3.08189">
        <ele>160</ele>
        <time>2015-10-12T12:58:40.1Z</time>
      </trkpt>
      <trkpt lat="48.21205" lon="-3.08186">
        <ele>160</ele>
        <time>2015-10-12T12:58:43.1Z</time>
      </trkpt>
      <trkpt lat="48.21206" lon="-3.0818">
        <ele>160</ele>
        <time>2015-10-12T12:58:46.1Z</time>
      </trkpt>
      <trkpt lat="48.21206" lon="-3.08178">
        <ele>159</ele>
        <time>2015-10-12T12:58:48.1Z</time>
      </trkpt>
      <trkpt lat="48.21205" lon="-3.08172">
        <ele>159</ele>
        <time>2015-10-12T12:58:51.1Z</time>
      </trkpt>
      <trkpt lat="48.21204" lon="-3.08165">
        <ele>158</ele>
        <time>2015-10-12T12:58:53.1Z</time>
      </trkpt>
      <trkpt lat="48.21203" lon="-3.0816">
        <ele>158</ele>
        <time>2015-10-12T12:58:56.1Z</time>
      </trkpt>
      <trkpt lat="48.21202" lon="-3.08155">
        <ele>158</ele>
        <time>2015-10-12T12:58:58.1Z</time>
      </trkpt>
      <trkpt lat="48.21202" lon="-3.0815">
        <ele>158</ele>
        <time>2015-10-12T12:59:00.1Z</time>
      </trkpt>
      <trkpt lat="48.21202" lon="-3.08144">
        <ele>158</ele>
        <time>2015-10-12T12:59:03.1Z</time>
      </trkpt>
      <trkpt lat="48.21202" lon="-3.08138">
        <ele>158</ele>
        <time>2015-10-12T12:59:05.1Z</time>
      </trkpt>
      <trkpt lat="48.21202" lon="-3.08134">
        <ele>157</ele>
        <time>2015-10-12T12:59:08.1Z</time>
      </trkpt>
      <trkpt lat="48.212" lon="-3.08129">
        <ele>157</ele>
        <time>2015-10-12T12:59:11.1Z</time>
      </trkpt>
      <trkpt lat="48.212" lon="-3.08124">
        <ele>157</ele>
        <time>2015-10-12T12:59:13.1Z</time>
      </trkpt>
      <trkpt lat="48.21201" lon="-3.08119">
        <ele>157</ele>
        <time>2015-10-12T12:59:16.1Z</time>
      </trkpt>
      <trkpt lat="48.21201" lon="-3.08117">
        <ele>157</ele>
        <time>2015-10-12T12:59:18.1Z</time>
      </trkpt>
      <trkpt lat="48.21202" lon="-3.08113">
        <ele>157</ele>
        <time>2015-10-12T12:59:20.1Z</time>
      </trkpt>
      <trkpt lat="48.21203" lon="-3.08111">
        <ele>157</ele>
        <time>2015-10-12T12:59:23.1Z</time>
      </trkpt>
      <trkpt lat="48.21204" lon="-3.08109">
        <ele>157</ele>
        <time>2015-10-12T12:59:26.1Z</time>
      </trkpt>
      <trkpt lat="48.21206" lon="-3.08105">
        <ele>157</ele>
        <time>2015-10-12T12:59:28.1Z</time>
      </trkpt>
      <trkpt lat="48.21207" lon="-3.08103">
        <ele>156</ele>
        <time>2015-10-12T12:59:31.1Z</time>
      </trkpt>
      <trkpt lat="48.21208" lon="-3.081">
        <ele>156</ele>
        <time>2015-10-12T12:59:33.1Z</time>
      </trkpt>
      <trkpt lat="48.21209" lon="-3.08098">
        <ele>156</ele>
        <time>2015-10-12T12:59:36.1Z</time>
      </trkpt>
      <trkpt lat="48.21209" lon="-3.08094">
        <ele>155</ele>
        <time>2015-10-12T12:59:39.1Z</time>
      </trkpt>
      <trkpt lat="48.21209" lon="-3.08091">
        <ele>155</ele>
        <time>2015-10-12T12:59:41.1Z</time>
      </trkpt>
      <trkpt lat="48.2121" lon="-3.08088">
        <ele>155</ele>
        <time>2015-10-12T12:59:44.1Z</time>
      </trkpt>
      <trkpt lat="48.2121" lon="-3.08084">
        <ele>155</ele>
        <time>2015-10-12T12:59:47.1Z</time>
      </trkpt>
      <trkpt lat="48.2121" lon="-3.08081">
        <ele>154</ele>
        <time>2015-10-12T12:59:49.1Z</time>
      </trkpt>
      <trkpt lat="48.2121" lon="-3.08078">
        <ele>154</ele>
        <time>2015-10-12T12:59:52.1Z</time>
      </trkpt>
      <trkpt lat="48.21211" lon="-3.08074">
        <ele>154</ele>
        <time>2015-10-12T12:59:55.1Z</time>
      </trkpt>
      <trkpt lat="48.21211" lon="-3.0807">
        <ele>154</ele>
        <time>2015-10-12T12:59:57.1Z</time>
      </trkpt>
      <trkpt lat="48.21211" lon="-3.08067">
        <ele>154</ele>
        <time>2015-10-12T13:00:00.1Z</time>
      </trkpt>
      <trkpt lat="48.21211" lon="-3.08063">
        <ele>154</ele>
        <time>2015-10-12T13:00:03.1Z</time>
      </trkpt>
      <trkpt lat="48.21211" lon="-3.08059">
        <ele>154</ele>
        <time>2015-10-12T13:00:06.1Z</time>
      </trkpt>
      <trkpt lat="48.21211" lon="-3.08055">
        <ele>154</ele>
        <time>2015-10-12T13:00:09.1Z</time>
      </trkpt>
      <trkpt lat="48.21211" lon="-3.08052">
        <ele>153</ele>
        <time>2015-10-12T13:00:12.1Z</time>
      </trkpt>
      <trkpt lat="48.2121" lon="-3.08048">
        <ele>153</ele>
        <time>2015-10-12T13:00:14.1Z</time>
      </trkpt>
      <trkpt lat="48.2121" lon="-3.08045">
        <ele>153</ele>
        <time>2015-10-12T13:00:17.1Z</time>
      </trkpt>
      <trkpt lat="48.2121" lon="-3.08042">
        <ele>154</ele>
        <time>2015-10-12T13:00:19.1Z</time>
      </trkpt>
      <trkpt lat="48.21209" lon="-3.08038">
        <ele>154</ele>
        <time>2015-10-12T13:00:22.1Z</time>
      </trkpt>
      <trkpt lat="48.21208" lon="-3.08034">
        <ele>154</ele>
        <time>2015-10-12T13:00:25.1Z</time>
      </trkpt>
      <trkpt lat="48.21207" lon="-3.08029">
        <ele>153</ele>
        <time>2015-10-12T13:00:27.1Z</time>
      </trkpt>
      <trkpt lat="48.21207" lon="-3.08026">
        <ele>153</ele>
        <time>2015-10-12T13:00:30.1Z</time>
      </trkpt>
      <trkpt lat="48.21207" lon="-3.08024">
        <ele>153</ele>
        <time>2015-10-12T13:00:32.1Z</time>
      </trkpt>
      <trkpt lat="48.21207" lon="-3.0802">
        <ele>153</ele>
        <time>2015-10-12T13:00:34.1Z</time>
      </trkpt>
      <trkpt lat="48.21206" lon="-3.08016">
        <ele>153</ele>
        <time>2015-10-12T13:00:38.1Z</time>
      </trkpt>
      <trkpt lat="48.21207" lon="-3.08012">
        <ele>153</ele>
        <time>2015-10-12T13:00:40.1Z</time>
      </trkpt>
      <trkpt lat="48.21207" lon="-3.08009">
        <ele>153</ele>
        <time>2015-10-12T13:00:43.1Z</time>
      </trkpt>
      <trkpt lat="48.21207" lon="-3.08006">
        <ele>153</ele>
        <time>2015-10-12T13:00:45.1Z</time>
      </trkpt>
      <trkpt lat="48.21207" lon="-3.08001">
        <ele>153</ele>
        <time>2015-10-12T13:00:47.1Z</time>
      </trkpt>
      <trkpt lat="48.21207" lon="-3.07999">
        <ele>152</ele>
        <time>2015-10-12T13:00:50.1Z</time>
      </trkpt>
      <trkpt lat="48.21208" lon="-3.07995">
        <ele>153</ele>
        <time>2015-10-12T13:00:52.1Z</time>
      </trkpt>
      <trkpt lat="48.21209" lon="-3.07993">
        <ele>153</ele>
        <time>2015-10-12T13:00:55.1Z</time>
      </trkpt>
      <trkpt lat="48.2121" lon="-3.07989">
        <ele>153</ele>
        <time>2015-10-12T13:00:58.1Z</time>
      </trkpt>
      <trkpt lat="48.21212" lon="-3.07985">
        <ele>153</ele>
        <time>2015-10-12T13:01:01.1Z</time>
      </trkpt>
      <trkpt lat="48.21214" lon="-3.07983">
        <ele>152</ele>
        <time>2015-10-12T13:01:03.1Z</time>
      </trkpt>
      <trkpt lat="48.21215" lon="-3.07982">
        <ele>152</ele>
        <time>2015-10-12T13:01:06.1Z</time>
      </trkpt>
      <trkpt lat="48.21218" lon="-3.07981">
        <ele>152</ele>
        <time>2015-10-12T13:01:09.1Z</time>
      </trkpt>
      <trkpt lat="48.2122" lon="-3.0798">
        <ele>152</ele>
        <time>2015-10-12T13:01:12.1Z</time>
      </trkpt>
      <trkpt lat="48.21223" lon="-3.07979">
        <ele>151</ele>
        <time>2015-10-12T13:01:14.1Z</time>
      </trkpt>
      <trkpt lat="48.21223" lon="-3.07977">
        <ele>151</ele>
        <time>2015-10-12T13:01:17.1Z</time>
      </trkpt>
      <trkpt lat="48.21225" lon="-3.07975">
        <ele>150</ele>
        <time>2015-10-12T13:01:20.1Z</time>
      </trkpt>
      <trkpt lat="48.21225" lon="-3.07972">
        <ele>150</ele>
        <time>2015-10-12T13:01:22.1Z</time>
      </trkpt>
      <trkpt lat="48.21226" lon="-3.07971">
        <ele>150</ele>
        <time>2015-10-12T13:01:25.1Z</time>
      </trkpt>
      <trkpt lat="48.21226" lon="-3.0797">
        <ele>150</ele>
        <time>2015-10-12T13:01:28.1Z</time>
      </trkpt>
      <trkpt lat="48.21226" lon="-3.07969">
        <ele>150</ele>
        <time>2015-10-12T13:01:30.1Z</time>
      </trkpt>
      <trkpt lat="48.21226" lon="-3.07968">
        <ele>150</ele>
        <time>2015-10-12T13:01:33.1Z</time>
      </trkpt>
      <trkpt lat="48.21226" lon="-3.07967">
        <ele>150</ele>
        <time>2015-10-12T13:01:36.1Z</time>
      </trkpt>
      <trkpt lat="48.21225" lon="-3.07967">
        <ele>151</ele>
        <time>2015-10-12T13:01:39.1Z</time>
      </trkpt>
      <trkpt lat="48.21223" lon="-3.07964">
        <ele>151</ele>
        <time>2015-10-12T13:01:41.1Z</time>
      </trkpt>
      <trkpt lat="48.21223" lon="-3.07962">
        <ele>151</ele>
        <time>2015-10-12T13:01:44.1Z</time>
      </trkpt>
      <trkpt lat="48.21221" lon="-3.07958">
        <ele>149</ele>
        <time>2015-10-12T13:01:46.1Z</time>
      </trkpt>
      <trkpt lat="48.2122" lon="-3.07956">
        <ele>149</ele>
        <time>2015-10-12T13:01:49.1Z</time>
      </trkpt>
      <trkpt lat="48.21218" lon="-3.07953">
        <ele>148</ele>
        <time>2015-10-12T13:01:52.1Z</time>
      </trkpt>
      <trkpt lat="48.21217" lon="-3.07951">
        <ele>147</ele>
        <time>2015-10-12T13:01:54.1Z</time>
      </trkpt>
      <trkpt lat="48.21214" lon="-3.07949">
        <ele>147</ele>
        <time>2015-10-12T13:01:58.1Z</time>
      </trkpt>
      <trkpt lat="48.21212" lon="-3.07947">
        <ele>146</ele>
        <time>2015-10-12T13:02:00.1Z</time>
      </trkpt>
      <trkpt lat="48.2121" lon="-3.07946">
        <ele>146</ele>
        <time>2015-10-12T13:02:03.1Z</time>
      </trkpt>
      <trkpt lat="48.21209" lon="-3.07944">
        <ele>146</ele>
        <time>2015-10-12T13:02:05.1Z</time>
      </trkpt>
      <trkpt lat="48.21208" lon="-3.07942">
        <ele>145</ele>
        <time>2015-10-12T13:02:08.1Z</time>
      </trkpt>
      <trkpt lat="48.21207" lon="-3.0794">
        <ele>145</ele>
        <time>2015-10-12T13:02:10.1Z</time>
      </trkpt>
      <trkpt lat="48.21206" lon="-3.07939">
        <ele>145</ele>
        <time>2015-10-12T13:02:13.1Z</time>
      </trkpt>
      <trkpt lat="48.21205" lon="-3.07937">
        <ele>145</ele>
        <time>2015-10-12T13:02:16.1Z</time>
      </trkpt>
      <trkpt lat="48.21206" lon="-3.07935">
        <ele>144</ele>
        <time>2015-10-12T13:02:18.1Z</time>
      </trkpt>
      <trkpt lat="48.21207" lon="-3.07931">
        <ele>144</ele>
        <time>2015-10-12T13:02:20.1Z</time>
      </trkpt>
      <trkpt lat="48.21208" lon="-3.0793">
        <ele>145</ele>
        <time>2015-10-12T13:02:23.1Z</time>
      </trkpt>
      <trkpt lat="48.21208" lon="-3.07929">
        <ele>145</ele>
        <time>2015-10-12T13:02:26.1Z</time>
      </trkpt>
      <trkpt lat="48.21208" lon="-3.07929">
        <ele>146</ele>
        <time>2015-10-12T13:02:28.1Z</time>
      </trkpt>
      <trkpt lat="48.21209" lon="-3.07929">
        <ele>146</ele>
        <time>2015-10-12T13:02:31.1Z</time>
      </trkpt>
      <trkpt lat="48.21208" lon="-3.07928">
        <ele>146</ele>
        <time>2015-10-12T13:02:33.1Z</time>
      </trkpt>
      <trkpt lat="48.21209" lon="-3.07928">
        <ele>146</ele>
        <time>2015-10-12T13:02:36.1Z</time>
      </trkpt>
      <trkpt lat="48.21209" lon="-3.07928">
        <ele>146</ele>
        <time>2015-10-12T13:02:38.1Z</time>
      </trkpt>
      <trkpt lat="48.21209" lon="-3.07927">
        <ele>146</ele>
        <time>2015-10-12T13:02:41.1Z</time>
      </trkpt>
      <trkpt lat="48.21209" lon="-3.07928">
        <ele>146</ele>
        <time>2015-10-12T13:02:43.1Z</time>
      </trkpt>
      <trkpt lat="48.21209" lon="-3.07928">
        <ele>146</ele>
        <time>2015-10-12T13:02:46.1Z</time>
      </trkpt>
      <trkpt lat="48.21209" lon="-3.07928">
        <ele>146</ele>
        <time>2015-10-12T13:02:50.1Z</time>
      </trkpt>
      <trkpt lat="48.21208" lon="-3.07929">
        <ele>146</ele>
        <time>2015-10-12T13:02:52.1Z</time>
      </trkpt>
      <trkpt lat="48.21208" lon="-3.07929">
        <ele>146</ele>
        <time>2015-10-12T13:02:55.1Z</time>
      </trkpt>
      <trkpt lat="48.21207" lon="-3.07929">
        <ele>146</ele>
        <time>2015-10-12T13:02:57.1Z</time>
      </trkpt>
      <trkpt lat="48.21207" lon="-3.07929">
        <ele>146</ele>
        <time>2015-10-12T13:03:00.1Z</time>
      </trkpt>
      <trkpt lat="48.21207" lon="-3.07929">
        <ele>146</ele>
        <time>2015-10-12T13:03:03.1Z</time>
      </trkpt>
      <trkpt lat="48.21206" lon="-3.07929">
        <ele>145</ele>
        <time>2015-10-12T13:03:05.1Z</time>
      </trkpt>
      <trkpt lat="48.21206" lon="-3.07929">
        <ele>145</ele>
        <time>2015-10-12T13:03:08.1Z</time>
      </trkpt>
      <trkpt lat="48.21206" lon="-3.07929">
        <ele>146</ele>
        <time>2015-10-12T13:03:10.1Z</time>
      </trkpt>
      <trkpt lat="48.21206" lon="-3.07929">
        <ele>146</ele>
        <time>2015-10-12T13:03:13.1Z</time>
      </trkpt>
      <trkpt lat="48.21207" lon="-3.07929">
        <ele>147</ele>
        <time>2015-10-12T13:03:18.1Z</time>
      </trkpt>
      <trkpt lat="48.21206" lon="-3.07929">
        <ele>146</ele>
        <time>2015-10-12T13:03:20.1Z</time>
      </trkpt>
      <trkpt lat="48.21204" lon="-3.07931">
        <ele>146</ele>
        <time>2015-10-12T13:03:23.1Z</time>
      </trkpt>
      <trkpt lat="48.21202" lon="-3.07928">
        <ele>146</ele>
        <time>2015-10-12T13:03:25.1Z</time>
      </trkpt>
      <trkpt lat="48.21201" lon="-3.07926">
        <ele>146</ele>
        <time>2015-10-12T13:03:28.1Z</time>
      </trkpt>
      <trkpt lat="48.21199" lon="-3.07925">
        <ele>145</ele>
        <time>2015-10-12T13:03:31.1Z</time>
      </trkpt>
      <trkpt lat="48.21197" lon="-3.07923">
        <ele>145</ele>
        <time>2015-10-12T13:03:33.1Z</time>
      </trkpt>
      <trkpt lat="48.21197" lon="-3.07923">
        <ele>145</ele>
        <time>2015-10-12T13:03:36.1Z</time>
      </trkpt>
      <trkpt lat="48.21195" lon="-3.07923">
        <ele>145</ele>
        <time>2015-10-12T13:03:38.1Z</time>
      </trkpt>
      <trkpt lat="48.21193" lon="-3.07922">
        <ele>144</ele>
        <time>2015-10-12T13:03:41.1Z</time>
      </trkpt>
      <trkpt lat="48.2119" lon="-3.0792">
        <ele>143</ele>
        <time>2015-10-12T13:03:44.1Z</time>
      </trkpt>
      <trkpt lat="48.21187" lon="-3.07919">
        <ele>143</ele>
        <time>2015-10-12T13:03:46.1Z</time>
      </trkpt>
      <trkpt lat="48.21186" lon="-3.07919">
        <ele>142</ele>
        <time>2015-10-12T13:03:49.1Z</time>
      </trkpt>
      <trkpt lat="48.21183" lon="-3.07918">
        <ele>143</ele>
        <time>2015-10-12T13:03:51.1Z</time>
      </trkpt>
      <trkpt lat="48.21182" lon="-3.07916">
        <ele>143</ele>
        <time>2015-10-12T13:03:54.1Z</time>
      </trkpt>
      <trkpt lat="48.2118" lon="-3.07913">
        <ele>144</ele>
        <time>2015-10-12T13:03:57.1Z</time>
      </trkpt>
      <trkpt lat="48.21179" lon="-3.07909">
        <ele>145</ele>
        <time>2015-10-12T13:03:59.1Z</time>
      </trkpt>
      <trkpt lat="48.21178" lon="-3.07907">
        <ele>145</ele>
        <time>2015-10-12T13:04:02.1Z</time>
      </trkpt>
      <trkpt lat="48.21178" lon="-3.07903">
        <ele>145</ele>
        <time>2015-10-12T13:04:05.1Z</time>
      </trkpt>
      <trkpt lat="48.21177" lon="-3.07899">
        <ele>146</ele>
        <time>2015-10-12T13:04:07.1Z</time>
      </trkpt>
      <trkpt lat="48.21177" lon="-3.07897">
        <ele>146</ele>
        <time>2015-10-12T13:04:10.1Z</time>
      </trkpt>
      <trkpt lat="48.21177" lon="-3.07893">
        <ele>146</ele>
        <time>2015-10-12T13:04:12.1Z</time>
      </trkpt>
      <trkpt lat="48.21177" lon="-3.0789">
        <ele>146</ele>
        <time>2015-10-12T13:04:14.1Z</time>
      </trkpt>
      <trkpt lat="48.21176" lon="-3.07886">
        <ele>146</ele>
        <time>2015-10-12T13:04:17.1Z</time>
      </trkpt>
      <trkpt lat="48.21175" lon="-3.07884">
        <ele>146</ele>
        <time>2015-10-12T13:04:20.1Z</time>
      </trkpt>
      <trkpt lat="48.21173" lon="-3.0788">
        <ele>146</ele>
        <time>2015-10-12T13:04:23.1Z</time>
      </trkpt>
      <trkpt lat="48.21172" lon="-3.07876">
        <ele>147</ele>
        <time>2015-10-12T13:04:25.1Z</time>
      </trkpt>
      <trkpt lat="48.21172" lon="-3.07874">
        <ele>147</ele>
        <time>2015-10-12T13:04:28.1Z</time>
      </trkpt>
      <trkpt lat="48.2117" lon="-3.07871">
        <ele>147</ele>
        <time>2015-10-12T13:04:30.1Z</time>
      </trkpt>
      <trkpt lat="48.2117" lon="-3.0787">
        <ele>147</ele>
        <time>2015-10-12T13:04:32.1Z</time>
      </trkpt>
      <trkpt lat="48.21167" lon="-3.07866">
        <ele>147</ele>
        <time>2015-10-12T13:04:36.1Z</time>
      </trkpt>
      <trkpt lat="48.21165" lon="-3.07863">
        <ele>146</ele>
        <time>2015-10-12T13:04:38.1Z</time>
      </trkpt>
      <trkpt lat="48.21164" lon="-3.0786">
        <ele>146</ele>
        <time>2015-10-12T13:04:40.1Z</time>
      </trkpt>
      <trkpt lat="48.21163" lon="-3.07856">
        <ele>146</ele>
        <time>2015-10-12T13:04:44.1Z</time>
      </trkpt>
      <trkpt lat="48.21161" lon="-3.07854">
        <ele>146</ele>
        <time>2015-10-12T13:04:46.1Z</time>
      </trkpt>
      <trkpt lat="48.2116" lon="-3.07852">
        <ele>145</ele>
        <time>2015-10-12T13:04:49.1Z</time>
      </trkpt>
      <trkpt lat="48.21161" lon="-3.07849">
        <ele>145</ele>
        <time>2015-10-12T13:04:51.1Z</time>
      </trkpt>
      <trkpt lat="48.2116" lon="-3.07846">
        <ele>145</ele>
        <time>2015-10-12T13:04:54.1Z</time>
      </trkpt>
      <trkpt lat="48.2116" lon="-3.07844">
        <ele>145</ele>
        <time>2015-10-12T13:04:57.1Z</time>
      </trkpt>
      <trkpt lat="48.2116" lon="-3.07841">
        <ele>145</ele>
        <time>2015-10-12T13:05:00.1Z</time>
      </trkpt>
      <trkpt lat="48.21159" lon="-3.07839">
        <ele>145</ele>
        <time>2015-10-12T13:05:02.1Z</time>
      </trkpt>
      <trkpt lat="48.21158" lon="-3.07838">
        <ele>145</ele>
        <time>2015-10-12T13:05:05.1Z</time>
      </trkpt>
      <trkpt lat="48.21158" lon="-3.07838">
        <ele>145</ele>
        <time>2015-10-12T13:05:07.1Z</time>
      </trkpt>
      <trkpt lat="48.21158" lon="-3.07837">
        <ele>145</ele>
        <time>2015-10-12T13:05:10.1Z</time>
      </trkpt>
      <trkpt lat="48.21156" lon="-3.07836">
        <ele>144</ele>
        <time>2015-10-12T13:05:12.1Z</time>
      </trkpt>
      <trkpt lat="48.21154" lon="-3.07833">
        <ele>144</ele>
        <time>2015-10-12T13:05:15.1Z</time>
      </trkpt>
      <trkpt lat="48.21152" lon="-3.07831">
        <ele>143</ele>
        <time>2015-10-12T13:05:19.1Z</time>
      </trkpt>
      <trkpt lat="48.2115" lon="-3.07829">
        <ele>142</ele>
        <time>2015-10-12T13:05:21.1Z</time>
      </trkpt>
      <trkpt lat="48.21149" lon="-3.07829">
        <ele>142</ele>
        <time>2015-10-12T13:05:24.1Z</time>
      </trkpt>
      <trkpt lat="48.21148" lon="-3.07833">
        <ele>142</ele>
        <time>2015-10-12T13:05:26.1Z</time>
      </trkpt>
      <trkpt lat="48.21146" lon="-3.07834">
        <ele>141</ele>
        <time>2015-10-12T13:05:28.1Z</time>
      </trkpt>
      <trkpt lat="48.21144" lon="-3.07836">
        <ele>141</ele>
        <time>2015-10-12T13:05:31.1Z</time>
      </trkpt>
      <trkpt lat="48.21142" lon="-3.07837">
        <ele>141</ele>
        <time>2015-10-12T13:05:34.1Z</time>
      </trkpt>
      <trkpt lat="48.21139" lon="-3.0784">
        <ele>140</ele>
        <time>2015-10-12T13:05:36.1Z</time>
      </trkpt>
      <trkpt lat="48.21137" lon="-3.07841">
        <ele>140</ele>
        <time>2015-10-12T13:05:38.1Z</time>
      </trkpt>
      <trkpt lat="48.21136" lon="-3.07842">
        <ele>141</ele>
        <time>2015-10-12T13:05:40.1Z</time>
      </trkpt>
      <trkpt lat="48.21134" lon="-3.07844">
        <ele>141</ele>
        <time>2015-10-12T13:05:43.1Z</time>
      </trkpt>
      <trkpt lat="48.21133" lon="-3.07845">
        <ele>141</ele>
        <time>2015-10-12T13:05:45.1Z</time>
      </trkpt>
      <trkpt lat="48.21131" lon="-3.07847">
        <ele>141</ele>
        <time>2015-10-12T13:05:48.1Z</time>
      </trkpt>
      <trkpt lat="48.21128" lon="-3.07849">
        <ele>141</ele>
        <time>2015-10-12T13:05:50.1Z</time>
      </trkpt>
      <trkpt lat="48.21127" lon="-3.0785">
        <ele>141</ele>
        <time>2015-10-12T13:05:53.1Z</time>
      </trkpt>
      <trkpt lat="48.21127" lon="-3.07851">
        <ele>141</ele>
        <time>2015-10-12T13:05:56.1Z</time>
      </trkpt>
      <trkpt lat="48.21124" lon="-3.07853">
        <ele>141</ele>
        <time>2015-10-12T13:05:59.1Z</time>
      </trkpt>
      <trkpt lat="48.21123" lon="-3.07854">
        <ele>140</ele>
        <time>2015-10-12T13:06:01.1Z</time>
      </trkpt>
      <trkpt lat="48.2112" lon="-3.07856">
        <ele>140</ele>
        <time>2015-10-12T13:06:04.1Z</time>
      </trkpt>
      <trkpt lat="48.21118" lon="-3.07859">
        <ele>140</ele>
        <time>2015-10-12T13:06:07.1Z</time>
      </trkpt>
      <trkpt lat="48.21116" lon="-3.07861">
        <ele>140</ele>
        <time>2015-10-12T13:06:10.1Z</time>
      </trkpt>
      <trkpt lat="48.21116" lon="-3.07862">
        <ele>140</ele>
        <time>2015-10-12T13:06:13.1Z</time>
      </trkpt>
      <trkpt lat="48.21115" lon="-3.07862">
        <ele>140</ele>
        <time>2015-10-12T13:06:16.1Z</time>
      </trkpt>
      <trkpt lat="48.21115" lon="-3.07862">
        <ele>141</ele>
        <time>2015-10-12T13:06:18.1Z</time>
      </trkpt>
      <trkpt lat="48.21115" lon="-3.07862">
        <ele>141</ele>
        <time>2015-10-12T13:06:21.1Z</time>
      </trkpt>
      <trkpt lat="48.21114" lon="-3.07862">
        <ele>141</ele>
        <time>2015-10-12T13:06:24.1Z</time>
      </trkpt>
      <trkpt lat="48.21114" lon="-3.07863">
        <ele>140</ele>
        <time>2015-10-12T13:06:27.1Z</time>
      </trkpt>
      <trkpt lat="48.21115" lon="-3.07863">
        <ele>139</ele>
        <time>2015-10-12T13:06:30.1Z</time>
      </trkpt>
      <trkpt lat="48.21115" lon="-3.07863">
        <ele>139</ele>
        <time>2015-10-12T13:06:32.1Z</time>
      </trkpt>
      <trkpt lat="48.21115" lon="-3.07864">
        <ele>139</ele>
        <time>2015-10-12T13:06:35.1Z</time>
      </trkpt>
      <trkpt lat="48.21115" lon="-3.07864">
        <ele>139</ele>
        <time>2015-10-12T13:06:37.1Z</time>
      </trkpt>
      <trkpt lat="48.21117" lon="-3.07867">
        <ele>140</ele>
        <time>2015-10-12T13:06:40.1Z</time>
      </trkpt>
      <trkpt lat="48.21118" lon="-3.07869">
        <ele>140</ele>
        <time>2015-10-12T13:06:43.1Z</time>
      </trkpt>
      <trkpt lat="48.2112" lon="-3.07873">
        <ele>140</ele>
        <time>2015-10-12T13:06:45.1Z</time>
      </trkpt>
      <trkpt lat="48.21121" lon="-3.07876">
        <ele>140</ele>
        <time>2015-10-12T13:06:47.1Z</time>
      </trkpt>
      <trkpt lat="48.21122" lon="-3.0788">
        <ele>140</ele>
        <time>2015-10-12T13:06:50.1Z</time>
      </trkpt>
      <trkpt lat="48.21123" lon="-3.07885">
        <ele>141</ele>
        <time>2015-10-12T13:06:53.1Z</time>
      </trkpt>
      <trkpt lat="48.21124" lon="-3.07886">
        <ele>140</ele>
        <time>2015-10-12T13:06:55.1Z</time>
      </trkpt>
      <trkpt lat="48.21127" lon="-3.07885">
        <ele>140</ele>
        <time>2015-10-12T13:06:58.1Z</time>
      </trkpt>
      <trkpt lat="48.21128" lon="-3.07884">
        <ele>140</ele>
        <time>2015-10-12T13:07:00.1Z</time>
      </trkpt>
      <trkpt lat="48.2113" lon="-3.07883">
        <ele>139</ele>
        <time>2015-10-12T13:07:02.1Z</time>
      </trkpt>
      <trkpt lat="48.21132" lon="-3.07885">
        <ele>140</ele>
        <time>2015-10-12T13:07:05.1Z</time>
      </trkpt>
      <trkpt lat="48.21133" lon="-3.07887">
        <ele>140</ele>
        <time>2015-10-12T13:07:07.1Z</time>
      </trkpt>
      <trkpt lat="48.21134" lon="-3.0789">
        <ele>141</ele>
        <time>2015-10-12T13:07:10.1Z</time>
      </trkpt>
      <trkpt lat="48.21136" lon="-3.07894">
        <ele>141</ele>
        <time>2015-10-12T13:07:12.1Z</time>
      </trkpt>
      <trkpt lat="48.21137" lon="-3.07898">
        <ele>141</ele>
        <time>2015-10-12T13:07:15.1Z</time>
      </trkpt>
      <trkpt lat="48.21138" lon="-3.079">
        <ele>141</ele>
        <time>2015-10-12T13:07:17.1Z</time>
      </trkpt>
      <trkpt lat="48.2114" lon="-3.07904">
        <ele>141</ele>
        <time>2015-10-12T13:07:20.1Z</time>
      </trkpt>
      <trkpt lat="48.21141" lon="-3.07908">
        <ele>141</ele>
        <time>2015-10-12T13:07:24.1Z</time>
      </trkpt>
      <trkpt lat="48.21143" lon="-3.07912">
        <ele>141</ele>
        <time>2015-10-12T13:07:26.1Z</time>
      </trkpt>
      <trkpt lat="48.21144" lon="-3.07916">
        <ele>141</ele>
        <time>2015-10-12T13:07:29.1Z</time>
      </trkpt>
      <trkpt lat="48.21145" lon="-3.0792">
        <ele>141</ele>
        <time>2015-10-12T13:07:32.1Z</time>
      </trkpt>
      <trkpt lat="48.21146" lon="-3.07923">
        <ele>141</ele>
        <time>2015-10-12T13:07:34.1Z</time>
      </trkpt>
      <trkpt lat="48.21147" lon="-3.07926">
        <ele>141</ele>
        <time>2015-10-12T13:07:38.1Z</time>
      </trkpt>
      <trkpt lat="48.21146" lon="-3.0793">
        <ele>141</ele>
        <time>2015-10-12T13:07:40.1Z</time>
      </trkpt>
      <trkpt lat="48.21147" lon="-3.07933">
        <ele>142</ele>
        <time>2015-10-12T13:07:42.1Z</time>
      </trkpt>
      <trkpt lat="48.21148" lon="-3.07938">
        <ele>141</ele>
        <time>2015-10-12T13:07:45.1Z</time>
      </trkpt>
      <trkpt lat="48.21149" lon="-3.07941">
        <ele>141</ele>
        <time>2015-10-12T13:07:47.1Z</time>
      </trkpt>
      <trkpt lat="48.2115" lon="-3.07943">
        <ele>141</ele>
        <time>2015-10-12T13:07:49.1Z</time>
      </trkpt>
      <trkpt lat="48.21151" lon="-3.07946">
        <ele>141</ele>
        <time>2015-10-12T13:07:52.1Z</time>
      </trkpt>
      <trkpt lat="48.21152" lon="-3.0795">
        <ele>141</ele>
        <time>2015-10-12T13:07:54.1Z</time>
      </trkpt>
      <trkpt lat="48.21152" lon="-3.07953">
        <ele>141</ele>
        <time>2015-10-12T13:07:56.1Z</time>
      </trkpt>
      <trkpt lat="48.21154" lon="-3.07958">
        <ele>141</ele>
        <time>2015-10-12T13:07:59.1Z</time>
      </trkpt>
      <trkpt lat="48.21154" lon="-3.0796">
        <ele>141</ele>
        <time>2015-10-12T13:08:01.1Z</time>
      </trkpt>
      <trkpt lat="48.21155" lon="-3.07964">
        <ele>141</ele>
        <time>2015-10-12T13:08:04.1Z</time>
      </trkpt>
      <trkpt lat="48.21156" lon="-3.07968">
        <ele>141</ele>
        <time>2015-10-12T13:08:07.1Z</time>
      </trkpt>
      <trkpt lat="48.21156" lon="-3.07971">
        <ele>141</ele>
        <time>2015-10-12T13:08:09.1Z</time>
      </trkpt>
      <trkpt lat="48.21157" lon="-3.07974">
        <ele>141</ele>
        <time>2015-10-12T13:08:12.1Z</time>
      </trkpt>
      <trkpt lat="48.21157" lon="-3.07976">
        <ele>141</ele>
        <time>2015-10-12T13:08:14.1Z</time>
      </trkpt>
      <trkpt lat="48.21157" lon="-3.0798">
        <ele>141</ele>
        <time>2015-10-12T13:08:17.1Z</time>
      </trkpt>
      <trkpt lat="48.21158" lon="-3.07983">
        <ele>140</ele>
        <time>2015-10-12T13:08:20.1Z</time>
      </trkpt>
      <trkpt lat="48.21157" lon="-3.07987">
        <ele>140</ele>
        <time>2015-10-12T13:08:22.1Z</time>
      </trkpt>
      <trkpt lat="48.21158" lon="-3.07991">
        <ele>140</ele>
        <time>2015-10-12T13:08:25.1Z</time>
      </trkpt>
      <trkpt lat="48.21158" lon="-3.07996">
        <ele>140</ele>
        <time>2015-10-12T13:08:28.1Z</time>
      </trkpt>
      <trkpt lat="48.21158" lon="-3.07998">
        <ele>140</ele>
        <time>2015-10-12T13:08:30.1Z</time>
      </trkpt>
      <trkpt lat="48.21158" lon="-3.08">
        <ele>140</ele>
        <time>2015-10-12T13:08:32.1Z</time>
      </trkpt>
      <trkpt lat="48.21158" lon="-3.08004">
        <ele>140</ele>
        <time>2015-10-12T13:08:35.1Z</time>
      </trkpt>
      <trkpt lat="48.21157" lon="-3.08009">
        <ele>140</ele>
        <time>2015-10-12T13:08:38.1Z</time>
      </trkpt>
      <trkpt lat="48.21157" lon="-3.08011">
        <ele>140</ele>
        <time>2015-10-12T13:08:40.1Z</time>
      </trkpt>
      <trkpt lat="48.21156" lon="-3.08015">
        <ele>140</ele>
        <time>2015-10-12T13:08:43.1Z</time>
      </trkpt>
      <trkpt lat="48.21156" lon="-3.08018">
        <ele>140</ele>
        <time>2015-10-12T13:08:45.1Z</time>
      </trkpt>
      <trkpt lat="48.21155" lon="-3.08022">
        <ele>140</ele>
        <time>2015-10-12T13:08:48.1Z</time>
      </trkpt>
      <trkpt lat="48.21154" lon="-3.08027">
        <ele>139</ele>
        <time>2015-10-12T13:08:51.1Z</time>
      </trkpt>
      <trkpt lat="48.21153" lon="-3.08031">
        <ele>139</ele>
        <time>2015-10-12T13:08:54.1Z</time>
      </trkpt>
      <trkpt lat="48.21153" lon="-3.08034">
        <ele>139</ele>
        <time>2015-10-12T13:08:56.1Z</time>
      </trkpt>
      <trkpt lat="48.21152" lon="-3.08038">
        <ele>139</ele>
        <time>2015-10-12T13:08:59.1Z</time>
      </trkpt>
      <trkpt lat="48.21151" lon="-3.08041">
        <ele>139</ele>
        <time>2015-10-12T13:09:02.1Z</time>
      </trkpt>
      <trkpt lat="48.2115" lon="-3.08045">
        <ele>139</ele>
        <time>2015-10-12T13:09:04.1Z</time>
      </trkpt>
      <trkpt lat="48.21149" lon="-3.0805">
        <ele>139</ele>
        <time>2015-10-12T13:09:07.1Z</time>
      </trkpt>
      <trkpt lat="48.21148" lon="-3.08053">
        <ele>140</ele>
        <time>2015-10-12T13:09:09.1Z</time>
      </trkpt>
      <trkpt lat="48.21147" lon="-3.08057">
        <ele>140</ele>
        <time>2015-10-12T13:09:12.1Z</time>
      </trkpt>
      <trkpt lat="48.21146" lon="-3.0806">
        <ele>140</ele>
        <time>2015-10-12T13:09:14.1Z</time>
      </trkpt>
      <trkpt lat="48.21145" lon="-3.08063">
        <ele>140</ele>
        <time>2015-10-12T13:09:17.1Z</time>
      </trkpt>
      <trkpt lat="48.21144" lon="-3.08067">
        <ele>140</ele>
        <time>2015-10-12T13:09:19.1Z</time>
      </trkpt>
      <trkpt lat="48.21143" lon="-3.08072">
        <ele>140</ele>
        <time>2015-10-12T13:09:22.1Z</time>
      </trkpt>
      <trkpt lat="48.21141" lon="-3.08075">
        <ele>140</ele>
        <time>2015-10-12T13:09:24.1Z</time>
      </trkpt>
      <trkpt lat="48.2114" lon="-3.0808">
        <ele>140</ele>
        <time>2015-10-12T13:09:27.1Z</time>
      </trkpt>
      <trkpt lat="48.21139" lon="-3.08083">
        <ele>140</ele>
        <time>2015-10-12T13:09:29.1Z</time>
      </trkpt>
      <trkpt lat="48.21138" lon="-3.08087">
        <ele>140</ele>
        <time>2015-10-12T13:09:32.1Z</time>
      </trkpt>
      <trkpt lat="48.21138" lon="-3.08089">
        <ele>141</ele>
        <time>2015-10-12T13:09:35.1Z</time>
      </trkpt>
      <trkpt lat="48.21138" lon="-3.08089">
        <ele>141</ele>
        <time>2015-10-12T13:09:38.1Z</time>
      </trkpt>
      <trkpt lat="48.21137" lon="-3.08088">
        <ele>141</ele>
        <time>2015-10-12T13:09:41.1Z</time>
      </trkpt>
      <trkpt lat="48.21137" lon="-3.08088">
        <ele>141</ele>
        <time>2015-10-12T13:09:44.1Z</time>
      </trkpt>
      <trkpt lat="48.21137" lon="-3.08088">
        <ele>141</ele>
        <time>2015-10-12T13:09:47.1Z</time>
      </trkpt>
      <trkpt lat="48.21137" lon="-3.08088">
        <ele>142</ele>
        <time>2015-10-12T13:09:50.1Z</time>
      </trkpt>
      <trkpt lat="48.21137" lon="-3.08087">
        <ele>142</ele>
        <time>2015-10-12T13:09:53.1Z</time>
      </trkpt>
      <trkpt lat="48.21136" lon="-3.08089">
        <ele>141</ele>
        <time>2015-10-12T13:09:55.1Z</time>
      </trkpt>
      <trkpt lat="48.21135" lon="-3.08092">
        <ele>141</ele>
        <time>2015-10-12T13:09:58.1Z</time>
      </trkpt>
      <trkpt lat="48.21133" lon="-3.08095">
        <ele>140</ele>
        <time>2015-10-12T13:10:00.1Z</time>
      </trkpt>
      <trkpt lat="48.21131" lon="-3.08101">
        <ele>140</ele>
        <time>2015-10-12T13:10:03.1Z</time>
      </trkpt>
      <trkpt lat="48.21129" lon="-3.08106">
        <ele>140</ele>
        <time>2015-10-12T13:10:06.1Z</time>
      </trkpt>
      <trkpt lat="48.21127" lon="-3.08111">
        <ele>141</ele>
        <time>2015-10-12T13:10:09.1Z</time>
      </trkpt>
      <trkpt lat="48.21125" lon="-3.08115">
        <ele>141</ele>
        <time>2015-10-12T13:10:11.1Z</time>
      </trkpt>
      <trkpt lat="48.21123" lon="-3.08119">
        <ele>141</ele>
        <time>2015-10-12T13:10:14.1Z</time>
      </trkpt>
      <trkpt lat="48.21121" lon="-3.08124">
        <ele>141</ele>
        <time>2015-10-12T13:10:16.1Z</time>
      </trkpt>
      <trkpt lat="48.21118" lon="-3.08129">
        <ele>141</ele>
        <time>2015-10-12T13:10:19.1Z</time>
      </trkpt>
      <trkpt lat="48.21117" lon="-3.08133">
        <ele>141</ele>
        <time>2015-10-12T13:10:21.1Z</time>
      </trkpt>
      <trkpt lat="48.21115" lon="-3.08137">
        <ele>141</ele>
        <time>2015-10-12T13:10:24.1Z</time>
      </trkpt>
      <trkpt lat="48.21114" lon="-3.08141">
        <ele>141</ele>
        <time>2015-10-12T13:10:26.1Z</time>
      </trkpt>
      <trkpt lat="48.21114" lon="-3.08142">
        <ele>141</ele>
        <time>2015-10-12T13:10:29.1Z</time>
      </trkpt>
      <trkpt lat="48.21114" lon="-3.08144">
        <ele>141</ele>
        <time>2015-10-12T13:10:31.1Z</time>
      </trkpt>
      <trkpt lat="48.21114" lon="-3.08148">
        <ele>140</ele>
        <time>2015-10-12T13:10:34.1Z</time>
      </trkpt>
      <trkpt lat="48.21112" lon="-3.08153">
        <ele>140</ele>
        <time>2015-10-12T13:10:37.1Z</time>
      </trkpt>
      <trkpt lat="48.21112" lon="-3.08156">
        <ele>140</ele>
        <time>2015-10-12T13:10:39.1Z</time>
      </trkpt>
      <trkpt lat="48.21111" lon="-3.08159">
        <ele>141</ele>
        <time>2015-10-12T13:10:41.1Z</time>
      </trkpt>
      <trkpt lat="48.21109" lon="-3.08163">
        <ele>141</ele>
        <time>2015-10-12T13:10:44.1Z</time>
      </trkpt>
      <trkpt lat="48.21108" lon="-3.08166">
        <ele>140</ele>
        <time>2015-10-12T13:10:46.1Z</time>
      </trkpt>
      <trkpt lat="48.21107" lon="-3.08169">
        <ele>140</ele>
        <time>2015-10-12T13:10:48.1Z</time>
      </trkpt>
      <trkpt lat="48.21106" lon="-3.08173">
        <ele>140</ele>
        <time>2015-10-12T13:10:51.1Z</time>
      </trkpt>
      <trkpt lat="48.21106" lon="-3.08176">
        <ele>140</ele>
        <time>2015-10-12T13:10:53.1Z</time>
      </trkpt>
      <trkpt lat="48.21105" lon="-3.0818">
        <ele>141</ele>
        <time>2015-10-12T13:10:55.1Z</time>
      </trkpt>
      <trkpt lat="48.21104" lon="-3.08182">
        <ele>141</ele>
        <time>2015-10-12T13:10:58.1Z</time>
      </trkpt>
      <trkpt lat="48.21103" lon="-3.08187">
        <ele>141</ele>
        <time>2015-10-12T13:11:00.1Z</time>
      </trkpt>
      <trkpt lat="48.21102" lon="-3.08191">
        <ele>141</ele>
        <time>2015-10-12T13:11:03.1Z</time>
      </trkpt>
      <trkpt lat="48.211" lon="-3.08196">
        <ele>141</ele>
        <time>2015-10-12T13:11:06.1Z</time>
      </trkpt>
      <trkpt lat="48.21099" lon="-3.08201">
        <ele>141</ele>
        <time>2015-10-12T13:11:09.1Z</time>
      </trkpt>
      <trkpt lat="48.21098" lon="-3.08204">
        <ele>141</ele>
        <time>2015-10-12T13:11:11.1Z</time>
      </trkpt>
      <trkpt lat="48.21096" lon="-3.08208">
        <ele>141</ele>
        <time>2015-10-12T13:11:14.1Z</time>
      </trkpt>
      <trkpt lat="48.21096" lon="-3.08211">
        <ele>141</ele>
        <time>2015-10-12T13:11:16.1Z</time>
      </trkpt>
      <trkpt lat="48.21096" lon="-3.08212">
        <ele>141</ele>
        <time>2015-10-12T13:11:18.1Z</time>
      </trkpt>
      <trkpt lat="48.21095" lon="-3.08215">
        <ele>141</ele>
        <time>2015-10-12T13:11:21.1Z</time>
      </trkpt>
      <trkpt lat="48.21095" lon="-3.08217">
        <ele>141</ele>
        <time>2015-10-12T13:11:23.1Z</time>
      </trkpt>
      <trkpt lat="48.21095" lon="-3.08218">
        <ele>141</ele>
        <time>2015-10-12T13:11:25.1Z</time>
      </trkpt>
      <trkpt lat="48.21095" lon="-3.08219">
        <ele>141</ele>
        <time>2015-10-12T13:11:28.1Z</time>
      </trkpt>
      <trkpt lat="48.21095" lon="-3.0822">
        <ele>140</ele>
        <time>2015-10-12T13:11:30.1Z</time>
      </trkpt>
      <trkpt lat="48.21094" lon="-3.08219">
        <ele>141</ele>
        <time>2015-10-12T13:11:33.1Z</time>
      </trkpt>
      <trkpt lat="48.21094" lon="-3.08219">
        <ele>141</ele>
        <time>2015-10-12T13:11:36.1Z</time>
      </trkpt>
      <trkpt lat="48.21094" lon="-3.08219">
        <ele>141</ele>
        <time>2015-10-12T13:11:38.1Z</time>
      </trkpt>
      <trkpt lat="48.21095" lon="-3.08219">
        <ele>141</ele>
        <time>2015-10-12T13:11:40.1Z</time>
      </trkpt>
      <trkpt lat="48.21095" lon="-3.08219">
        <ele>141</ele>
        <time>2015-10-12T13:11:43.1Z</time>
      </trkpt>
      <trkpt lat="48.21095" lon="-3.08219">
        <ele>141</ele>
        <time>2015-10-12T13:11:45.1Z</time>
      </trkpt>
      <trkpt lat="48.21095" lon="-3.0822">
        <ele>141</ele>
        <time>2015-10-12T13:11:48.1Z</time>
      </trkpt>
      <trkpt lat="48.21095" lon="-3.0822">
        <ele>141</ele>
        <time>2015-10-12T13:11:51.1Z</time>
      </trkpt>
      <trkpt lat="48.21095" lon="-3.08221">
        <ele>141</ele>
        <time>2015-10-12T13:11:53.1Z</time>
      </trkpt>
      <trkpt lat="48.21095" lon="-3.08221">
        <ele>140</ele>
        <time>2015-10-12T13:11:56.1Z</time>
      </trkpt>
      <trkpt lat="48.21096" lon="-3.08221">
        <ele>140</ele>
        <time>2015-10-12T13:11:59.1Z</time>
      </trkpt>
      <trkpt lat="48.21096" lon="-3.08222">
        <ele>140</ele>
        <time>2015-10-12T13:12:02.1Z</time>
      </trkpt>
      <trkpt lat="48.21096" lon="-3.08222">
        <ele>141</ele>
        <time>2015-10-12T13:12:04.1Z</time>
      </trkpt>
      <trkpt lat="48.21095" lon="-3.08224">
        <ele>141</ele>
        <time>2015-10-12T13:12:07.1Z</time>
      </trkpt>
      <trkpt lat="48.21095" lon="-3.08224">
        <ele>141</ele>
        <time>2015-10-12T13:12:09.1Z</time>
      </trkpt>
      <trkpt lat="48.21095" lon="-3.08224">
        <ele>141</ele>
        <time>2015-10-12T13:12:11.1Z</time>
      </trkpt>
      <trkpt lat="48.21095" lon="-3.08225">
        <ele>141</ele>
        <time>2015-10-12T13:12:14.1Z</time>
      </trkpt>
      <trkpt lat="48.21095" lon="-3.08225">
        <ele>141</ele>
        <time>2015-10-12T13:12:17.1Z</time>
      </trkpt>
      <trkpt lat="48.21095" lon="-3.08225">
        <ele>140</ele>
        <time>2015-10-12T13:12:20.1Z</time>
      </trkpt>
      <trkpt lat="48.21095" lon="-3.08225">
        <ele>141</ele>
        <time>2015-10-12T13:12:23.1Z</time>
      </trkpt>
      <trkpt lat="48.21094" lon="-3.08226">
        <ele>140</ele>
        <time>2015-10-12T13:12:25.1Z</time>
      </trkpt>
      <trkpt lat="48.21094" lon="-3.08226">
        <ele>141</ele>
        <time>2015-10-12T13:12:28.1Z</time>
      </trkpt>
      <trkpt lat="48.21094" lon="-3.08225">
        <ele>141</ele>
        <time>2015-10-12T13:12:31.1Z</time>
      </trkpt>
      <trkpt lat="48.21094" lon="-3.08225">
        <ele>141</ele>
        <time>2015-10-12T13:12:34.1Z</time>
      </trkpt>
      <trkpt lat="48.21095" lon="-3.08225">
        <ele>141</ele>
        <time>2015-10-12T13:12:37.1Z</time>
      </trkpt>
      <trkpt lat="48.21095" lon="-3.08225">
        <ele>141</ele>
        <time>2015-10-12T13:12:40.1Z</time>
      </trkpt>
      <trkpt lat="48.21095" lon="-3.08225">
        <ele>141</ele>
        <time>2015-10-12T13:12:42.1Z</time>
      </trkpt>
      <trkpt lat="48.21094" lon="-3.08225">
        <ele>141</ele>
        <time>2015-10-12T13:12:46.1Z</time>
      </trkpt>
      <trkpt lat="48.21095" lon="-3.08225">
        <ele>141</ele>
        <time>2015-10-12T13:12:49.1Z</time>
      </trkpt>
      <trkpt lat="48.21094" lon="-3.08226">
        <ele>141</ele>
        <time>2015-10-12T13:12:52.1Z</time>
      </trkpt>
      <trkpt lat="48.21095" lon="-3.08226">
        <ele>141</ele>
        <time>2015-10-12T13:12:57.1Z</time>
      </trkpt>
      <trkpt lat="48.21095" lon="-3.08225">
        <ele>140</ele>
        <time>2015-10-12T13:13:01.1Z</time>
      </trkpt>
      <trkpt lat="48.21095" lon="-3.08226">
        <ele>140</ele>
        <time>2015-10-12T13:13:04.1Z</time>
      </trkpt>
      <trkpt lat="48.21095" lon="-3.08226">
        <ele>140</ele>
        <time>2015-10-12T13:13:06.1Z</time>
      </trkpt>
      <trkpt lat="48.21095" lon="-3.08226">
        <ele>140</ele>
        <time>2015-10-12T13:13:08.1Z</time>
      </trkpt>
      <trkpt lat="48.21095" lon="-3.08226">
        <ele>140</ele>
        <time>2015-10-12T13:13:11.1Z</time>
      </trkpt>
      <trkpt lat="48.21095" lon="-3.08227">
        <ele>140</ele>
        <time>2015-10-12T13:13:13.1Z</time>
      </trkpt>
      <trkpt lat="48.21093" lon="-3.0823">
        <ele>140</ele>
        <time>2015-10-12T13:13:16.1Z</time>
      </trkpt>
      <trkpt lat="48.21093" lon="-3.08231">
        <ele>140</ele>
        <time>2015-10-12T13:13:18.1Z</time>
      </trkpt>
      <trkpt lat="48.21093" lon="-3.08231">
        <ele>140</ele>
        <time>2015-10-12T13:13:20.1Z</time>
      </trkpt>
      <trkpt lat="48.21093" lon="-3.0823">
        <ele>140</ele>
        <time>2015-10-12T13:13:22.1Z</time>
      </trkpt>
      <trkpt lat="48.21093" lon="-3.0823">
        <ele>139</ele>
        <time>2015-10-12T13:13:24.1Z</time>
      </trkpt>
      <trkpt lat="48.21093" lon="-3.08231">
        <ele>139</ele>
        <time>2015-10-12T13:13:27.1Z</time>
      </trkpt>
      <trkpt lat="48.21092" lon="-3.08234">
        <ele>140</ele>
        <time>2015-10-12T13:13:30.1Z</time>
      </trkpt>
      <trkpt lat="48.21091" lon="-3.08237">
        <ele>140</ele>
        <time>2015-10-12T13:13:32.1Z</time>
      </trkpt>
      <trkpt lat="48.2109" lon="-3.08241">
        <ele>141</ele>
        <time>2015-10-12T13:13:35.1Z</time>
      </trkpt>
      <trkpt lat="48.21089" lon="-3.08244">
        <ele>141</ele>
        <time>2015-10-12T13:13:37.1Z</time>
      </trkpt>
      <trkpt lat="48.21088" lon="-3.08248">
        <ele>141</ele>
        <time>2015-10-12T13:13:40.1Z</time>
      </trkpt>
      <trkpt lat="48.21087" lon="-3.08252">
        <ele>141</ele>
        <time>2015-10-12T13:13:43.1Z</time>
      </trkpt>
      <trkpt lat="48.21085" lon="-3.08256">
        <ele>141</ele>
        <time>2015-10-12T13:13:46.1Z</time>
      </trkpt>
      <trkpt lat="48.21085" lon="-3.08259">
        <ele>141</ele>
        <time>2015-10-12T13:13:48.1Z</time>
      </trkpt>
      <trkpt lat="48.21083" lon="-3.08263">
        <ele>141</ele>
        <time>2015-10-12T13:13:51.1Z</time>
      </trkpt>
      <trkpt lat="48.21082" lon="-3.08267">
        <ele>141</ele>
        <time>2015-10-12T13:13:54.1Z</time>
      </trkpt>
      <trkpt lat="48.21081" lon="-3.0827">
        <ele>140</ele>
        <time>2015-10-12T13:13:56.1Z</time>
      </trkpt>
      <trkpt lat="48.2108" lon="-3.08273">
        <ele>140</ele>
        <time>2015-10-12T13:13:58.1Z</time>
      </trkpt>
      <trkpt lat="48.21079" lon="-3.08277">
        <ele>140</ele>
        <time>2015-10-12T13:14:01.1Z</time>
      </trkpt>
      <trkpt lat="48.21078" lon="-3.08279">
        <ele>140</ele>
        <time>2015-10-12T13:14:03.1Z</time>
      </trkpt>
      <trkpt lat="48.21077" lon="-3.08282">
        <ele>140</ele>
        <time>2015-10-12T13:14:05.1Z</time>
      </trkpt>
      <trkpt lat="48.21076" lon="-3.08286">
        <ele>140</ele>
        <time>2015-10-12T13:14:08.1Z</time>
      </trkpt>
      <trkpt lat="48.21075" lon="-3.08289">
        <ele>140</ele>
        <time>2015-10-12T13:14:10.1Z</time>
      </trkpt>
      <trkpt lat="48.21074" lon="-3.08293">
        <ele>141</ele>
        <time>2015-10-12T13:14:13.1Z</time>
      </trkpt>
      <trkpt lat="48.21074" lon="-3.08297">
        <ele>141</ele>
        <time>2015-10-12T13:14:16.1Z</time>
      </trkpt>
      <trkpt lat="48.21073" lon="-3.08302">
        <ele>141</ele>
        <time>2015-10-12T13:14:19.1Z</time>
      </trkpt>
      <trkpt lat="48.21072" lon="-3.08305">
        <ele>141</ele>
        <time>2015-10-12T13:14:21.1Z</time>
      </trkpt>
      <trkpt lat="48.21071" lon="-3.08309">
        <ele>141</ele>
        <time>2015-10-12T13:14:24.1Z</time>
      </trkpt>
      <trkpt lat="48.21071" lon="-3.08312">
        <ele>141</ele>
        <time>2015-10-12T13:14:27.1Z</time>
      </trkpt>
      <trkpt lat="48.21071" lon="-3.08314">
        <ele>141</ele>
        <time>2015-10-12T13:14:30.1Z</time>
      </trkpt>
      <trkpt lat="48.21071" lon="-3.08317">
        <ele>141</ele>
        <time>2015-10-12T13:14:33.1Z</time>
      </trkpt>
      <trkpt lat="48.2107" lon="-3.0832">
        <ele>141</ele>
        <time>2015-10-12T13:14:35.1Z</time>
      </trkpt>
      <trkpt lat="48.21071" lon="-3.08323">
        <ele>142</ele>
        <time>2015-10-12T13:14:38.1Z</time>
      </trkpt>
      <trkpt lat="48.21071" lon="-3.08327">
        <ele>142</ele>
        <time>2015-10-12T13:14:41.1Z</time>
      </trkpt>
      <trkpt lat="48.21071" lon="-3.08329">
        <ele>142</ele>
        <time>2015-10-12T13:14:43.1Z</time>
      </trkpt>
      <trkpt lat="48.21071" lon="-3.08333">
        <ele>142</ele>
        <time>2015-10-12T13:14:46.1Z</time>
      </trkpt>
      <trkpt lat="48.2107" lon="-3.08336">
        <ele>142</ele>
        <time>2015-10-12T13:14:48.1Z</time>
      </trkpt>
      <trkpt lat="48.2107" lon="-3.08339">
        <ele>142</ele>
        <time>2015-10-12T13:14:50.1Z</time>
      </trkpt>
      <trkpt lat="48.2107" lon="-3.08344">
        <ele>142</ele>
        <time>2015-10-12T13:14:53.1Z</time>
      </trkpt>
      <trkpt lat="48.21071" lon="-3.08348">
        <ele>142</ele>
        <time>2015-10-12T13:14:56.1Z</time>
      </trkpt>
      <trkpt lat="48.2107" lon="-3.08352">
        <ele>142</ele>
        <time>2015-10-12T13:14:58.1Z</time>
      </trkpt>
      <trkpt lat="48.2107" lon="-3.08355">
        <ele>142</ele>
        <time>2015-10-12T13:15:00.1Z</time>
      </trkpt>
      <trkpt lat="48.2107" lon="-3.0836">
        <ele>141</ele>
        <time>2015-10-12T13:15:03.1Z</time>
      </trkpt>
      <trkpt lat="48.21069" lon="-3.08362">
        <ele>142</ele>
        <time>2015-10-12T13:15:05.1Z</time>
      </trkpt>
      <trkpt lat="48.21069" lon="-3.08366">
        <ele>142</ele>
        <time>2015-10-12T13:15:08.1Z</time>
      </trkpt>
      <trkpt lat="48.21069" lon="-3.08369">
        <ele>142</ele>
        <time>2015-10-12T13:15:10.1Z</time>
      </trkpt>
      <trkpt lat="48.21068" lon="-3.08372">
        <ele>142</ele>
        <time>2015-10-12T13:15:12.1Z</time>
      </trkpt>
      <trkpt lat="48.21068" lon="-3.08376">
        <ele>141</ele>
        <time>2015-10-12T13:15:15.1Z</time>
      </trkpt>
      <trkpt lat="48.21067" lon="-3.0838">
        <ele>142</ele>
        <time>2015-10-12T13:15:18.1Z</time>
      </trkpt>
      <trkpt lat="48.21067" lon="-3.08383">
        <ele>142</ele>
        <time>2015-10-12T13:15:20.1Z</time>
      </trkpt>
      <trkpt lat="48.21066" lon="-3.08386">
        <ele>142</ele>
        <time>2015-10-12T13:15:23.1Z</time>
      </trkpt>
      <trkpt lat="48.21067" lon="-3.08389">
        <ele>142</ele>
        <time>2015-10-12T13:15:25.1Z</time>
      </trkpt>
      <trkpt lat="48.21067" lon="-3.08391">
        <ele>142</ele>
        <time>2015-10-12T13:15:27.1Z</time>
      </trkpt>
      <trkpt lat="48.21068" lon="-3.08394">
        <ele>142</ele>
        <time>2015-10-12T13:15:30.1Z</time>
      </trkpt>
      <trkpt lat="48.21068" lon="-3.08395">
        <ele>142</ele>
        <time>2015-10-12T13:15:32.1Z</time>
      </trkpt>
      <trkpt lat="48.21068" lon="-3.08398">
        <ele>142</ele>
        <time>2015-10-12T13:15:35.1Z</time>
      </trkpt>
      <trkpt lat="48.21069" lon="-3.084">
        <ele>143</ele>
        <time>2015-10-12T13:15:37.1Z</time>
      </trkpt>
      <trkpt lat="48.21069" lon="-3.08401">
        <ele>143</ele>
        <time>2015-10-12T13:15:39.1Z</time>
      </trkpt>
      <trkpt lat="48.21069" lon="-3.08403">
        <ele>143</ele>
        <time>2015-10-12T13:15:41.1Z</time>
      </trkpt>
      <trkpt lat="48.2107" lon="-3.08405">
        <ele>144</ele>
        <time>2015-10-12T13:15:44.1Z</time>
      </trkpt>
      <trkpt lat="48.2107" lon="-3.08407">
        <ele>144</ele>
        <time>2015-10-12T13:15:46.1Z</time>
      </trkpt>
      <trkpt lat="48.2107" lon="-3.08409">
        <ele>145</ele>
        <time>2015-10-12T13:15:49.1Z</time>
      </trkpt>
      <trkpt lat="48.21071" lon="-3.08412">
        <ele>145</ele>
        <time>2015-10-12T13:15:52.1Z</time>
      </trkpt>
      <trkpt lat="48.21071" lon="-3.08413">
        <ele>145</ele>
        <time>2015-10-12T13:15:54.1Z</time>
      </trkpt>
      <trkpt lat="48.2107" lon="-3.08416">
        <ele>146</ele>
        <time>2015-10-12T13:15:56.1Z</time>
      </trkpt>
      <trkpt lat="48.2107" lon="-3.08419">
        <ele>146</ele>
        <time>2015-10-12T13:15:59.1Z</time>
      </trkpt>
      <trkpt lat="48.2107" lon="-3.08421">
        <ele>146</ele>
        <time>2015-10-12T13:16:01.1Z</time>
      </trkpt>
      <trkpt lat="48.21069" lon="-3.08424">
        <ele>146</ele>
        <time>2015-10-12T13:16:04.1Z</time>
      </trkpt>
      <trkpt lat="48.21068" lon="-3.08427">
        <ele>146</ele>
        <time>2015-10-12T13:16:07.1Z</time>
      </trkpt>
      <trkpt lat="48.21068" lon="-3.08429">
        <ele>147</ele>
        <time>2015-10-12T13:16:09.1Z</time>
      </trkpt>
      <trkpt lat="48.21068" lon="-3.0843">
        <ele>147</ele>
        <time>2015-10-12T13:16:12.1Z</time>
      </trkpt>
      <trkpt lat="48.21067" lon="-3.08431">
        <ele>147</ele>
        <time>2015-10-12T13:16:15.1Z</time>
      </trkpt>
      <trkpt lat="48.21067" lon="-3.08431">
        <ele>148</ele>
        <time>2015-10-12T13:16:18.1Z</time>
      </trkpt>
      <trkpt lat="48.21067" lon="-3.08432">
        <ele>148</ele>
        <time>2015-10-12T13:16:21.1Z</time>
      </trkpt>
      <trkpt lat="48.21066" lon="-3.08432">
        <ele>149</ele>
        <time>2015-10-12T13:16:24.1Z</time>
      </trkpt>
      <trkpt lat="48.21066" lon="-3.08434">
        <ele>148</ele>
        <time>2015-10-12T13:16:26.1Z</time>
      </trkpt>
      <trkpt lat="48.21066" lon="-3.08437">
        <ele>148</ele>
        <time>2015-10-12T13:16:29.1Z</time>
      </trkpt>
      <trkpt lat="48.21066" lon="-3.0844">
        <ele>148</ele>
        <time>2015-10-12T13:16:31.1Z</time>
      </trkpt>
      <trkpt lat="48.21065" lon="-3.08443">
        <ele>149</ele>
        <time>2015-10-12T13:16:34.1Z</time>
      </trkpt>
      <trkpt lat="48.21064" lon="-3.08446">
        <ele>149</ele>
        <time>2015-10-12T13:16:36.1Z</time>
      </trkpt>
      <trkpt lat="48.21064" lon="-3.08451">
        <ele>150</ele>
        <time>2015-10-12T13:16:39.1Z</time>
      </trkpt>
      <trkpt lat="48.21064" lon="-3.08455">
        <ele>150</ele>
        <time>2015-10-12T13:16:42.1Z</time>
      </trkpt>
      <trkpt lat="48.21063" lon="-3.08457">
        <ele>151</ele>
        <time>2015-10-12T13:16:44.1Z</time>
      </trkpt>
      <trkpt lat="48.21063" lon="-3.0846">
        <ele>151</ele>
        <time>2015-10-12T13:16:47.1Z</time>
      </trkpt>
      <trkpt lat="48.21062" lon="-3.08463">
        <ele>152</ele>
        <time>2015-10-12T13:16:49.1Z</time>
      </trkpt>
      <trkpt lat="48.21062" lon="-3.08466">
        <ele>152</ele>
        <time>2015-10-12T13:16:52.1Z</time>
      </trkpt>
      <trkpt lat="48.21061" lon="-3.08469">
        <ele>153</ele>
        <time>2015-10-12T13:16:55.1Z</time>
      </trkpt>
      <trkpt lat="48.21061" lon="-3.08471">
        <ele>153</ele>
        <time>2015-10-12T13:16:57.1Z</time>
      </trkpt>
      <trkpt lat="48.2106" lon="-3.08473">
        <ele>153</ele>
        <time>2015-10-12T13:16:59.1Z</time>
      </trkpt>
      <trkpt lat="48.21059" lon="-3.08477">
        <ele>153</ele>
        <time>2015-10-12T13:17:02.1Z</time>
      </trkpt>
      <trkpt lat="48.21058" lon="-3.08479">
        <ele>153</ele>
        <time>2015-10-12T13:17:05.1Z</time>
      </trkpt>
      <trkpt lat="48.21058" lon="-3.08479">
        <ele>154</ele>
        <time>2015-10-12T13:17:08.1Z</time>
      </trkpt>
      <trkpt lat="48.21054" lon="-3.08481">
        <ele>153</ele>
        <time>2015-10-12T13:17:11.1Z</time>
      </trkpt>
      <trkpt lat="48.21052" lon="-3.08482">
        <ele>152</ele>
        <time>2015-10-12T13:17:13.1Z</time>
      </trkpt>
      <trkpt lat="48.21051" lon="-3.08483">
        <ele>150</ele>
        <time>2015-10-12T13:17:15.1Z</time>
      </trkpt>
      <trkpt lat="48.21049" lon="-3.08484">
        <ele>150</ele>
        <time>2015-10-12T13:17:18.1Z</time>
      </trkpt>
      <trkpt lat="48.21047" lon="-3.08485">
        <ele>149</ele>
        <time>2015-10-12T13:17:20.1Z</time>
      </trkpt>
      <trkpt lat="48.21045" lon="-3.08487">
        <ele>149</ele>
        <time>2015-10-12T13:17:22.1Z</time>
      </trkpt>
      <trkpt lat="48.21042" lon="-3.08489">
        <ele>148</ele>
        <time>2015-10-12T13:17:25.1Z</time>
      </trkpt>
      <trkpt lat="48.2104" lon="-3.0849">
        <ele>148</ele>
        <time>2015-10-12T13:17:28.1Z</time>
      </trkpt>
      <trkpt lat="48.21038" lon="-3.0849">
        <ele>148</ele>
        <time>2015-10-12T13:17:30.1Z</time>
      </trkpt>
      <trkpt lat="48.21036" lon="-3.08489">
        <ele>147</ele>
        <time>2015-10-12T13:17:33.1Z</time>
      </trkpt>
      <trkpt lat="48.21034" lon="-3.08488">
        <ele>147</ele>
        <time>2015-10-12T13:17:36.1Z</time>
      </trkpt>
      <trkpt lat="48.21032" lon="-3.08487">
        <ele>147</ele>
        <time>2015-10-12T13:17:38.1Z</time>
      </trkpt>
      <trkpt lat="48.2103" lon="-3.08488">
        <ele>146</ele>
        <time>2015-10-12T13:17:40.1Z</time>
      </trkpt>
      <trkpt lat="48.21028" lon="-3.0849">
        <ele>146</ele>
        <time>2015-10-12T13:17:43.1Z</time>
      </trkpt>
      <trkpt lat="48.21027" lon="-3.08491">
        <ele>145</ele>
        <time>2015-10-12T13:17:45.1Z</time>
      </trkpt>
      <trkpt lat="48.21025" lon="-3.08494">
        <ele>145</ele>
        <time>2015-10-12T13:17:48.1Z</time>
      </trkpt>
      <trkpt lat="48.21024" lon="-3.08495">
        <ele>145</ele>
        <time>2015-10-12T13:17:51.1Z</time>
      </trkpt>
      <trkpt lat="48.21023" lon="-3.08495">
        <ele>145</ele>
        <time>2015-10-12T13:17:54.1Z</time>
      </trkpt>
      <trkpt lat="48.21022" lon="-3.08496">
        <ele>145</ele>
        <time>2015-10-12T13:17:56.1Z</time>
      </trkpt>
      <trkpt lat="48.21022" lon="-3.08497">
        <ele>145</ele>
        <time>2015-10-12T13:17:59.1Z</time>
      </trkpt>
      <trkpt lat="48.21021" lon="-3.08496">
        <ele>144</ele>
        <time>2015-10-12T13:18:02.1Z</time>
      </trkpt>
      <trkpt lat="48.21019" lon="-3.08494">
        <ele>144</ele>
        <time>2015-10-12T13:18:05.1Z</time>
      </trkpt>
      <trkpt lat="48.21018" lon="-3.08491">
        <ele>143</ele>
        <time>2015-10-12T13:18:08.1Z</time>
      </trkpt>
      <trkpt lat="48.21018" lon="-3.08488">
        <ele>143</ele>
        <time>2015-10-12T13:18:11.1Z</time>
      </trkpt>
      <trkpt lat="48.21018" lon="-3.08488">
        <ele>143</ele>
        <time>2015-10-12T13:18:13.1Z</time>
      </trkpt>
      <trkpt lat="48.21018" lon="-3.08487">
        <ele>144</ele>
        <time>2015-10-12T13:18:16.1Z</time>
      </trkpt>
      <trkpt lat="48.21017" lon="-3.08485">
        <ele>144</ele>
        <time>2015-10-12T13:18:18.1Z</time>
      </trkpt>
      <trkpt lat="48.21016" lon="-3.08485">
        <ele>143</ele>
        <time>2015-10-12T13:18:25.1Z</time>
      </trkpt>
      <trkpt lat="48.21016" lon="-3.08485">
        <ele>143</ele>
        <time>2015-10-12T13:18:28.1Z</time>
      </trkpt>
      <trkpt lat="48.21017" lon="-3.08485">
        <ele>143</ele>
        <time>2015-10-12T13:18:30.1Z</time>
      </trkpt>
      <trkpt lat="48.21017" lon="-3.08486">
        <ele>143</ele>
        <time>2015-10-12T13:18:33.1Z</time>
      </trkpt>
      <trkpt lat="48.21017" lon="-3.08486">
        <ele>143</ele>
        <time>2015-10-12T13:18:36.1Z</time>
      </trkpt>
      <trkpt lat="48.21017" lon="-3.08486">
        <ele>143</ele>
        <time>2015-10-12T13:18:40.1Z</time>
      </trkpt>
      <trkpt lat="48.21017" lon="-3.08486">
        <ele>143</ele>
        <time>2015-10-12T13:18:42.1Z</time>
      </trkpt>
      <trkpt lat="48.21017" lon="-3.08486">
        <ele>143</ele>
        <time>2015-10-12T13:18:45.1Z</time>
      </trkpt>
      <trkpt lat="48.21017" lon="-3.08486">
        <ele>143</ele>
        <time>2015-10-12T13:18:48.1Z</time>
      </trkpt>
      <trkpt lat="48.21018" lon="-3.08486">
        <ele>143</ele>
        <time>2015-10-12T13:18:50.1Z</time>
      </trkpt>
      <trkpt lat="48.21018" lon="-3.08485">
        <ele>142</ele>
        <time>2015-10-12T13:18:53.1Z</time>
      </trkpt>
      <trkpt lat="48.21018" lon="-3.08485">
        <ele>142</ele>
        <time>2015-10-12T13:18:56.1Z</time>
      </trkpt>
      <trkpt lat="48.21018" lon="-3.08485">
        <ele>142</ele>
        <time>2015-10-12T13:18:58.1Z</time>
      </trkpt>
      <trkpt lat="48.21018" lon="-3.08485">
        <ele>142</ele>
        <time>2015-10-12T13:19:01.1Z</time>
      </trkpt>
      <trkpt lat="48.21018" lon="-3.08484">
        <ele>143</ele>
        <time>2015-10-12T13:19:04.1Z</time>
      </trkpt>
      <trkpt lat="48.21018" lon="-3.08484">
        <ele>143</ele>
        <time>2015-10-12T13:19:06.1Z</time>
      </trkpt>
      <trkpt lat="48.21017" lon="-3.08484">
        <ele>143</ele>
        <time>2015-10-12T13:19:10.1Z</time>
      </trkpt>
      <trkpt lat="48.21017" lon="-3.08484">
        <ele>143</ele>
        <time>2015-10-12T13:19:13.1Z</time>
      </trkpt>
      <trkpt lat="48.21017" lon="-3.08484">
        <ele>142</ele>
        <time>2015-10-12T13:19:16.1Z</time>
      </trkpt>
      <trkpt lat="48.21016" lon="-3.08484">
        <ele>142</ele>
        <time>2015-10-12T13:19:19.1Z</time>
      </trkpt>
      <trkpt lat="48.21016" lon="-3.08484">
        <ele>142</ele>
        <time>2015-10-12T13:19:23.1Z</time>
      </trkpt>
      <trkpt lat="48.21016" lon="-3.08484">
        <ele>142</ele>
        <time>2015-10-12T13:19:26.1Z</time>
      </trkpt>
      <trkpt lat="48.21016" lon="-3.08484">
        <ele>142</ele>
        <time>2015-10-12T13:19:28.1Z</time>
      </trkpt>
      <trkpt lat="48.21018" lon="-3.08485">
        <ele>142</ele>
        <time>2015-10-12T13:19:31.1Z</time>
      </trkpt>
      <trkpt lat="48.21018" lon="-3.08485">
        <ele>142</ele>
        <time>2015-10-12T13:19:33.1Z</time>
      </trkpt>
      <trkpt lat="48.21019" lon="-3.08485">
        <ele>143</ele>
        <time>2015-10-12T13:19:37.1Z</time>
      </trkpt>
      <trkpt lat="48.2102" lon="-3.08483">
        <ele>143</ele>
        <time>2015-10-12T13:19:40.1Z</time>
      </trkpt>
      <trkpt lat="48.2102" lon="-3.08481">
        <ele>143</ele>
        <time>2015-10-12T13:19:42.1Z</time>
      </trkpt>
      <trkpt lat="48.21021" lon="-3.08477">
        <ele>143</ele>
        <time>2015-10-12T13:19:45.1Z</time>
      </trkpt>
      <trkpt lat="48.21022" lon="-3.08474">
        <ele>143</ele>
        <time>2015-10-12T13:19:48.1Z</time>
      </trkpt>
      <trkpt lat="48.21021" lon="-3.0847">
        <ele>143</ele>
        <time>2015-10-12T13:19:50.1Z</time>
      </trkpt>
      <trkpt lat="48.21022" lon="-3.08466">
        <ele>143</ele>
        <time>2015-10-12T13:19:53.1Z</time>
      </trkpt>
      <trkpt lat="48.21022" lon="-3.08462">
        <ele>143</ele>
        <time>2015-10-12T13:19:55.1Z</time>
      </trkpt>
      <trkpt lat="48.21022" lon="-3.08459">
        <ele>143</ele>
        <time>2015-10-12T13:19:57.1Z</time>
      </trkpt>
      <trkpt lat="48.21021" lon="-3.08454">
        <ele>142</ele>
        <time>2015-10-12T13:20:00.1Z</time>
      </trkpt>
      <trkpt lat="48.2102" lon="-3.08448">
        <ele>142</ele>
        <time>2015-10-12T13:20:03.1Z</time>
      </trkpt>
      <trkpt lat="48.21018" lon="-3.08444">
        <ele>142</ele>
        <time>2015-10-12T13:20:06.1Z</time>
      </trkpt>
      <trkpt lat="48.21018" lon="-3.08444">
        <ele>142</ele>
        <time>2015-10-12T13:20:12.1Z</time>
      </trkpt>
      <trkpt lat="48.21019" lon="-3.08445">
        <ele>142</ele>
        <time>2015-10-12T13:20:15.1Z</time>
      </trkpt>
      <trkpt lat="48.21017" lon="-3.08447">
        <ele>142</ele>
        <time>2015-10-12T13:20:18.1Z</time>
      </trkpt>
      <trkpt lat="48.21013" lon="-3.08447">
        <ele>142</ele>
        <time>2015-10-12T13:20:21.1Z</time>
      </trkpt>
      <trkpt lat="48.2101" lon="-3.08449">
        <ele>142</ele>
        <time>2015-10-12T13:20:24.1Z</time>
      </trkpt>
      <trkpt lat="48.21006" lon="-3.08451">
        <ele>142</ele>
        <time>2015-10-12T13:20:27.1Z</time>
      </trkpt>
      <trkpt lat="48.21004" lon="-3.08452">
        <ele>143</ele>
        <time>2015-10-12T13:20:30.1Z</time>
      </trkpt>
      <trkpt lat="48.21004" lon="-3.08451">
        <ele>143</ele>
        <time>2015-10-12T13:20:32.1Z</time>
      </trkpt>
      <trkpt lat="48.21003" lon="-3.08452">
        <ele>143</ele>
        <time>2015-10-12T13:20:34.1Z</time>
      </trkpt>
      <trkpt lat="48.21003" lon="-3.08453">
        <ele>143</ele>
        <time>2015-10-12T13:20:37.1Z</time>
      </trkpt>
      <trkpt lat="48.21003" lon="-3.08453">
        <ele>143</ele>
        <time>2015-10-12T13:20:39.1Z</time>
      </trkpt>
      <trkpt lat="48.21003" lon="-3.0845">
        <ele>143</ele>
        <time>2015-10-12T13:20:42.1Z</time>
      </trkpt>
      <trkpt lat="48.21003" lon="-3.08451">
        <ele>143</ele>
        <time>2015-10-12T13:20:44.1Z</time>
      </trkpt>
      <trkpt lat="48.21003" lon="-3.08454">
        <ele>143</ele>
        <time>2015-10-12T13:20:47.1Z</time>
      </trkpt>
      <trkpt lat="48.21001" lon="-3.08455">
        <ele>142</ele>
        <time>2015-10-12T13:20:50.1Z</time>
      </trkpt>
      <trkpt lat="48.20998" lon="-3.08455">
        <ele>142</ele>
        <time>2015-10-12T13:20:53.1Z</time>
      </trkpt>
      <trkpt lat="48.20997" lon="-3.08455">
        <ele>142</ele>
        <time>2015-10-12T13:20:55.1Z</time>
      </trkpt>
      <trkpt lat="48.20996" lon="-3.08455">
        <ele>142</ele>
        <time>2015-10-12T13:20:58.1Z</time>
      </trkpt>
      <trkpt lat="48.20996" lon="-3.08455">
        <ele>142</ele>
        <time>2015-10-12T13:21:00.1Z</time>
      </trkpt>
      <trkpt lat="48.20996" lon="-3.08455">
        <ele>142</ele>
        <time>2015-10-12T13:21:03.1Z</time>
      </trkpt>
      <trkpt lat="48.20996" lon="-3.08455">
        <ele>142</ele>
        <time>2015-10-12T13:21:05.1Z</time>
      </trkpt>
      <trkpt lat="48.20996" lon="-3.08456">
        <ele>142</ele>
        <time>2015-10-12T13:21:08.1Z</time>
      </trkpt>
      <trkpt lat="48.20996" lon="-3.08456">
        <ele>142</ele>
        <time>2015-10-12T13:21:10.1Z</time>
      </trkpt>
      <trkpt lat="48.20996" lon="-3.08456">
        <ele>142</ele>
        <time>2015-10-12T13:21:13.1Z</time>
      </trkpt>
      <trkpt lat="48.20995" lon="-3.08457">
        <ele>142</ele>
        <time>2015-10-12T13:21:15.1Z</time>
      </trkpt>
      <trkpt lat="48.20995" lon="-3.08461">
        <ele>142</ele>
        <time>2015-10-12T13:21:18.1Z</time>
      </trkpt>
      <trkpt lat="48.20995" lon="-3.08463">
        <ele>143</ele>
        <time>2015-10-12T13:21:21.1Z</time>
      </trkpt>
      <trkpt lat="48.20995" lon="-3.08466">
        <ele>143</ele>
        <time>2015-10-12T13:21:24.1Z</time>
      </trkpt>
      <trkpt lat="48.20994" lon="-3.0847">
        <ele>143</ele>
        <time>2015-10-12T13:21:27.1Z</time>
      </trkpt>
      <trkpt lat="48.20992" lon="-3.08472">
        <ele>143</ele>
        <time>2015-10-12T13:21:30.1Z</time>
      </trkpt>
      <trkpt lat="48.20991" lon="-3.08472">
        <ele>143</ele>
        <time>2015-10-12T13:21:33.1Z</time>
      </trkpt>
      <trkpt lat="48.2099" lon="-3.08472">
        <ele>143</ele>
        <time>2015-10-12T13:21:36.1Z</time>
      </trkpt>
      <trkpt lat="48.20989" lon="-3.08473">
        <ele>143</ele>
        <time>2015-10-12T13:21:38.1Z</time>
      </trkpt>
      <trkpt lat="48.20986" lon="-3.08475">
        <ele>143</ele>
        <time>2015-10-12T13:21:41.1Z</time>
      </trkpt>
      <trkpt lat="48.20983" lon="-3.08477">
        <ele>142</ele>
        <time>2015-10-12T13:21:44.1Z</time>
      </trkpt>
      <trkpt lat="48.20981" lon="-3.08479">
        <ele>143</ele>
        <time>2015-10-12T13:21:46.1Z</time>
      </trkpt>
      <trkpt lat="48.20978" lon="-3.08481">
        <ele>143</ele>
        <time>2015-10-12T13:21:49.1Z</time>
      </trkpt>
      <trkpt lat="48.20975" lon="-3.08482">
        <ele>142</ele>
        <time>2015-10-12T13:21:52.1Z</time>
      </trkpt>
      <trkpt lat="48.20972" lon="-3.08484">
        <ele>142</ele>
        <time>2015-10-12T13:21:55.1Z</time>
      </trkpt>
      <trkpt lat="48.2097" lon="-3.08485">
        <ele>142</ele>
        <time>2015-10-12T13:21:58.1Z</time>
      </trkpt>
      <trkpt lat="48.20968" lon="-3.08487">
        <ele>142</ele>
        <time>2015-10-12T13:22:01.1Z</time>
      </trkpt>
      <trkpt lat="48.20966" lon="-3.08487">
        <ele>142</ele>
        <time>2015-10-12T13:22:03.1Z</time>
      </trkpt>
      <trkpt lat="48.20964" lon="-3.08487">
        <ele>143</ele>
        <time>2015-10-12T13:22:05.1Z</time>
      </trkpt>
      <trkpt lat="48.20962" lon="-3.08488">
        <ele>143</ele>
        <time>2015-10-12T13:22:07.1Z</time>
      </trkpt>
      <trkpt lat="48.2096" lon="-3.08488">
        <ele>142</ele>
        <time>2015-10-12T13:22:10.1Z</time>
      </trkpt>
      <trkpt lat="48.20957" lon="-3.08489">
        <ele>142</ele>
        <time>2015-10-12T13:22:13.1Z</time>
      </trkpt>
      <trkpt lat="48.20954" lon="-3.0849">
        <ele>142</ele>
        <time>2015-10-12T13:22:16.1Z</time>
      </trkpt>
      <trkpt lat="48.20952" lon="-3.08491">
        <ele>142</ele>
        <time>2015-10-12T13:22:18.1Z</time>
      </trkpt>
      <trkpt lat="48.2095" lon="-3.08491">
        <ele>142</ele>
        <time>2015-10-12T13:22:20.1Z</time>
      </trkpt>
      <trkpt lat="48.20947" lon="-3.08493">
        <ele>142</ele>
        <time>2015-10-12T13:22:23.1Z</time>
      </trkpt>
      <trkpt lat="48.20945" lon="-3.08493">
        <ele>143</ele>
        <time>2015-10-12T13:22:26.1Z</time>
      </trkpt>
      <trkpt lat="48.20944" lon="-3.08493">
        <ele>143</ele>
        <time>2015-10-12T13:22:29.1Z</time>
      </trkpt>
      <trkpt lat="48.20941" lon="-3.08494">
        <ele>143</ele>
        <time>2015-10-12T13:22:31.1Z</time>
      </trkpt>
      <trkpt lat="48.20938" lon="-3.08495">
        <ele>143</ele>
        <time>2015-10-12T13:22:34.1Z</time>
      </trkpt>
      <trkpt lat="48.20936" lon="-3.08495">
        <ele>143</ele>
        <time>2015-10-12T13:22:37.1Z</time>
      </trkpt>
      <trkpt lat="48.20935" lon="-3.08495">
        <ele>143</ele>
        <time>2015-10-12T13:22:39.1Z</time>
      </trkpt>
      <trkpt lat="48.20935" lon="-3.08495">
        <ele>143</ele>
        <time>2015-10-12T13:22:42.1Z</time>
      </trkpt>
      <trkpt lat="48.20934" lon="-3.08495">
        <ele>143</ele>
        <time>2015-10-12T13:22:44.1Z</time>
      </trkpt>
      <trkpt lat="48.20932" lon="-3.08496">
        <ele>143</ele>
        <time>2015-10-12T13:22:46.1Z</time>
      </trkpt>
      <trkpt lat="48.20929" lon="-3.08497">
        <ele>143</ele>
        <time>2015-10-12T13:22:49.1Z</time>
      </trkpt>
      <trkpt lat="48.20928" lon="-3.08498">
        <ele>142</ele>
        <time>2015-10-12T13:22:51.1Z</time>
      </trkpt>
      <trkpt lat="48.20925" lon="-3.08499">
        <ele>142</ele>
        <time>2015-10-12T13:22:53.1Z</time>
      </trkpt>
      <trkpt lat="48.20922" lon="-3.08501">
        <ele>142</ele>
        <time>2015-10-12T13:22:56.1Z</time>
      </trkpt>
      <trkpt lat="48.2092" lon="-3.08502">
        <ele>142</ele>
        <time>2015-10-12T13:22:58.1Z</time>
      </trkpt>
      <trkpt lat="48.20918" lon="-3.08504">
        <ele>143</ele>
        <time>2015-10-12T13:23:01.1Z</time>
      </trkpt>
      <trkpt lat="48.20915" lon="-3.08506">
        <ele>143</ele>
        <time>2015-10-12T13:23:04.1Z</time>
      </trkpt>
      <trkpt lat="48.20912" lon="-3.08508">
        <ele>142</ele>
        <time>2015-10-12T13:23:07.1Z</time>
      </trkpt>
      <trkpt lat="48.20909" lon="-3.08511">
        <ele>142</ele>
        <time>2015-10-12T13:23:10.1Z</time>
      </trkpt>
      <trkpt lat="48.20907" lon="-3.08513">
        <ele>142</ele>
        <time>2015-10-12T13:23:12.1Z</time>
      </trkpt>
      <trkpt lat="48.20906" lon="-3.08514">
        <ele>143</ele>
        <time>2015-10-12T13:23:14.1Z</time>
      </trkpt>
      <trkpt lat="48.20904" lon="-3.08516">
        <ele>143</ele>
        <time>2015-10-12T13:23:17.1Z</time>
      </trkpt>
      <trkpt lat="48.20903" lon="-3.08518">
        <ele>143</ele>
        <time>2015-10-12T13:23:19.1Z</time>
      </trkpt>
      <trkpt lat="48.20902" lon="-3.0852">
        <ele>143</ele>
        <time>2015-10-12T13:23:22.1Z</time>
      </trkpt>
      <trkpt lat="48.209" lon="-3.08521">
        <ele>143</ele>
        <time>2015-10-12T13:23:24.1Z</time>
      </trkpt>
      <trkpt lat="48.20898" lon="-3.08523">
        <ele>142</ele>
        <time>2015-10-12T13:23:26.1Z</time>
      </trkpt>
      <trkpt lat="48.20896" lon="-3.08526">
        <ele>142</ele>
        <time>2015-10-12T13:23:29.1Z</time>
      </trkpt>
      <trkpt lat="48.20896" lon="-3.08529">
        <ele>142</ele>
        <time>2015-10-12T13:23:33.1Z</time>
      </trkpt>
      <trkpt lat="48.20893" lon="-3.08531">
        <ele>142</ele>
        <time>2015-10-12T13:23:36.1Z</time>
      </trkpt>
      <trkpt lat="48.20892" lon="-3.08533">
        <ele>142</ele>
        <time>2015-10-12T13:23:38.1Z</time>
      </trkpt>
      <trkpt lat="48.20889" lon="-3.08536">
        <ele>142</ele>
        <time>2015-10-12T13:23:41.1Z</time>
      </trkpt>
      <trkpt lat="48.20887" lon="-3.08538">
        <ele>142</ele>
        <time>2015-10-12T13:23:43.1Z</time>
      </trkpt>
      <trkpt lat="48.20885" lon="-3.08541">
        <ele>142</ele>
        <time>2015-10-12T13:23:46.1Z</time>
      </trkpt>
      <trkpt lat="48.20883" lon="-3.08543">
        <ele>142</ele>
        <time>2015-10-12T13:23:48.1Z</time>
      </trkpt>
      <trkpt lat="48.20881" lon="-3.08544">
        <ele>142</ele>
        <time>2015-10-12T13:23:50.1Z</time>
      </trkpt>
      <trkpt lat="48.20879" lon="-3.08546">
        <ele>143</ele>
        <time>2015-10-12T13:23:52.1Z</time>
      </trkpt>
      <trkpt lat="48.20876" lon="-3.08548">
        <ele>143</ele>
        <time>2015-10-12T13:23:55.1Z</time>
      </trkpt>
      <trkpt lat="48.20875" lon="-3.0855">
        <ele>142</ele>
        <time>2015-10-12T13:23:57.1Z</time>
      </trkpt>
      <trkpt lat="48.20872" lon="-3.08553">
        <ele>142</ele>
        <time>2015-10-12T13:24:00.1Z</time>
      </trkpt>
      <trkpt lat="48.2087" lon="-3.08556">
        <ele>142</ele>
        <time>2015-10-12T13:24:03.1Z</time>
      </trkpt>
      <trkpt lat="48.20867" lon="-3.08559">
        <ele>142</ele>
        <time>2015-10-12T13:24:06.1Z</time>
      </trkpt>
      <trkpt lat="48.20864" lon="-3.0856">
        <ele>142</ele>
        <time>2015-10-12T13:24:09.1Z</time>
      </trkpt>
      <trkpt lat="48.20862" lon="-3.08562">
        <ele>142</ele>
        <time>2015-10-12T13:24:12.1Z</time>
      </trkpt>
      <trkpt lat="48.20861" lon="-3.08562">
        <ele>142</ele>
        <time>2015-10-12T13:24:14.1Z</time>
      </trkpt>
      <trkpt lat="48.20861" lon="-3.08562">
        <ele>142</ele>
        <time>2015-10-12T13:24:16.1Z</time>
      </trkpt>
      <trkpt lat="48.2086" lon="-3.08563">
        <ele>143</ele>
        <time>2015-10-12T13:24:18.1Z</time>
      </trkpt>
      <trkpt lat="48.20858" lon="-3.08565">
        <ele>143</ele>
        <time>2015-10-12T13:24:21.1Z</time>
      </trkpt>
      <trkpt lat="48.20855" lon="-3.08566">
        <ele>143</ele>
        <time>2015-10-12T13:24:24.1Z</time>
      </trkpt>
      <trkpt lat="48.20854" lon="-3.08568">
        <ele>142</ele>
        <time>2015-10-12T13:24:26.1Z</time>
      </trkpt>
      <trkpt lat="48.20851" lon="-3.0857">
        <ele>142</ele>
        <time>2015-10-12T13:24:29.1Z</time>
      </trkpt>
      <trkpt lat="48.20849" lon="-3.08571">
        <ele>143</ele>
        <time>2015-10-12T13:24:31.1Z</time>
      </trkpt>
      <trkpt lat="48.20848" lon="-3.08572">
        <ele>143</ele>
        <time>2015-10-12T13:24:33.1Z</time>
      </trkpt>
      <trkpt lat="48.20845" lon="-3.08574">
        <ele>144</ele>
        <time>2015-10-12T13:24:36.1Z</time>
      </trkpt>
      <trkpt lat="48.20844" lon="-3.08575">
        <ele>144</ele>
        <time>2015-10-12T13:24:38.1Z</time>
      </trkpt>
      <trkpt lat="48.20843" lon="-3.08576">
        <ele>144</ele>
        <time>2015-10-12T13:24:41.1Z</time>
      </trkpt>
      <trkpt lat="48.2084" lon="-3.08575">
        <ele>144</ele>
        <time>2015-10-12T13:24:44.1Z</time>
      </trkpt>
      <trkpt lat="48.2084" lon="-3.08575">
        <ele>144</ele>
        <time>2015-10-12T13:24:46.1Z</time>
      </trkpt>
      <trkpt lat="48.20839" lon="-3.08575">
        <ele>144</ele>
        <time>2015-10-12T13:24:49.1Z</time>
      </trkpt>
      <trkpt lat="48.20839" lon="-3.08575">
        <ele>144</ele>
        <time>2015-10-12T13:24:51.1Z</time>
      </trkpt>
      <trkpt lat="48.20839" lon="-3.08576">
        <ele>144</ele>
        <time>2015-10-12T13:24:54.1Z</time>
      </trkpt>
      <trkpt lat="48.20837" lon="-3.08576">
        <ele>144</ele>
        <time>2015-10-12T13:24:57.1Z</time>
      </trkpt>
      <trkpt lat="48.20837" lon="-3.08576">
        <ele>144</ele>
        <time>2015-10-12T13:25:02.1Z</time>
      </trkpt>
      <trkpt lat="48.20837" lon="-3.08576">
        <ele>145</ele>
        <time>2015-10-12T13:25:05.1Z</time>
      </trkpt>
      <trkpt lat="48.20835" lon="-3.08578">
        <ele>145</ele>
        <time>2015-10-12T13:25:08.1Z</time>
      </trkpt>
      <trkpt lat="48.20836" lon="-3.08581">
        <ele>144</ele>
        <time>2015-10-12T13:25:11.1Z</time>
      </trkpt>
      <trkpt lat="48.20837" lon="-3.08581">
        <ele>144</ele>
        <time>2015-10-12T13:25:13.1Z</time>
      </trkpt>
      <trkpt lat="48.20837" lon="-3.08582">
        <ele>144</ele>
        <time>2015-10-12T13:25:15.1Z</time>
      </trkpt>
      <trkpt lat="48.20837" lon="-3.08583">
        <ele>144</ele>
        <time>2015-10-12T13:25:18.1Z</time>
      </trkpt>
      <trkpt lat="48.20837" lon="-3.08583">
        <ele>145</ele>
        <time>2015-10-12T13:25:20.1Z</time>
      </trkpt>
      <trkpt lat="48.20837" lon="-3.08583">
        <ele>145</ele>
        <time>2015-10-12T13:25:23.1Z</time>
      </trkpt>
      <trkpt lat="48.20838" lon="-3.08584">
        <ele>145</ele>
        <time>2015-10-12T13:25:26.1Z</time>
      </trkpt>
      <trkpt lat="48.20838" lon="-3.08584">
        <ele>145</ele>
        <time>2015-10-12T13:25:29.1Z</time>
      </trkpt>
      <trkpt lat="48.20839" lon="-3.08585">
        <ele>145</ele>
        <time>2015-10-12T13:25:31.1Z</time>
      </trkpt>
      <trkpt lat="48.20839" lon="-3.08585">
        <ele>145</ele>
        <time>2015-10-12T13:25:34.1Z</time>
      </trkpt>
      <trkpt lat="48.20839" lon="-3.08585">
        <ele>145</ele>
        <time>2015-10-12T13:25:37.1Z</time>
      </trkpt>
      <trkpt lat="48.20839" lon="-3.08584">
        <ele>145</ele>
        <time>2015-10-12T13:25:40.1Z</time>
      </trkpt>
      <trkpt lat="48.20838" lon="-3.08582">
        <ele>145</ele>
        <time>2015-10-12T13:25:43.1Z</time>
      </trkpt>
      <trkpt lat="48.20837" lon="-3.08581">
        <ele>144</ele>
        <time>2015-10-12T13:25:45.1Z</time>
      </trkpt>
      <trkpt lat="48.20836" lon="-3.08581">
        <ele>144</ele>
        <time>2015-10-12T13:25:47.1Z</time>
      </trkpt>
      <trkpt lat="48.20836" lon="-3.08582">
        <ele>144</ele>
        <time>2015-10-12T13:25:50.1Z</time>
      </trkpt>
      <trkpt lat="48.20835" lon="-3.08582">
        <ele>144</ele>
        <time>2015-10-12T13:25:52.1Z</time>
      </trkpt>
      <trkpt lat="48.20836" lon="-3.08583">
        <ele>144</ele>
        <time>2015-10-12T13:25:55.1Z</time>
      </trkpt>
      <trkpt lat="48.20835" lon="-3.08584">
        <ele>144</ele>
        <time>2015-10-12T13:25:58.1Z</time>
      </trkpt>
      <trkpt lat="48.20835" lon="-3.08585">
        <ele>144</ele>
        <time>2015-10-12T13:26:01.1Z</time>
      </trkpt>
      <trkpt lat="48.20835" lon="-3.08585">
        <ele>144</ele>
        <time>2015-10-12T13:26:05.1Z</time>
      </trkpt>
      <trkpt lat="48.20835" lon="-3.08586">
        <ele>144</ele>
        <time>2015-10-12T13:26:08.1Z</time>
      </trkpt>
      <trkpt lat="48.20834" lon="-3.08586">
        <ele>144</ele>
        <time>2015-10-12T13:26:10.1Z</time>
      </trkpt>
      <trkpt lat="48.20833" lon="-3.08588">
        <ele>143</ele>
        <time>2015-10-12T13:26:13.1Z</time>
      </trkpt>
      <trkpt lat="48.20831" lon="-3.08589">
        <ele>143</ele>
        <time>2015-10-12T13:26:15.1Z</time>
      </trkpt>
      <trkpt lat="48.20828" lon="-3.0859">
        <ele>143</ele>
        <time>2015-10-12T13:26:18.1Z</time>
      </trkpt>
      <trkpt lat="48.20826" lon="-3.08592">
        <ele>142</ele>
        <time>2015-10-12T13:26:21.1Z</time>
      </trkpt>
      <trkpt lat="48.20823" lon="-3.08593">
        <ele>143</ele>
        <time>2015-10-12T13:26:24.1Z</time>
      </trkpt>
      <trkpt lat="48.2082" lon="-3.08594">
        <ele>142</ele>
        <time>2015-10-12T13:26:27.1Z</time>
      </trkpt>
      <trkpt lat="48.20818" lon="-3.08595">
        <ele>143</ele>
        <time>2015-10-12T13:26:30.1Z</time>
      </trkpt>
      <trkpt lat="48.20817" lon="-3.08596">
        <ele>143</ele>
        <time>2015-10-12T13:26:33.1Z</time>
      </trkpt>
      <trkpt lat="48.20814" lon="-3.08596">
        <ele>143</ele>
        <time>2015-10-12T13:26:36.1Z</time>
      </trkpt>
      <trkpt lat="48.20812" lon="-3.08597">
        <ele>143</ele>
        <time>2015-10-12T13:26:39.1Z</time>
      </trkpt>
      <trkpt lat="48.2081" lon="-3.08598">
        <ele>143</ele>
        <time>2015-10-12T13:26:41.1Z</time>
      </trkpt>
      <trkpt lat="48.20807" lon="-3.08599">
        <ele>143</ele>
        <time>2015-10-12T13:26:44.1Z</time>
      </trkpt>
      <trkpt lat="48.20805" lon="-3.086">
        <ele>143</ele>
        <time>2015-10-12T13:26:46.1Z</time>
      </trkpt>
      <trkpt lat="48.20803" lon="-3.086">
        <ele>143</ele>
        <time>2015-10-12T13:26:48.1Z</time>
      </trkpt>
      <trkpt lat="48.208" lon="-3.08601">
        <ele>144</ele>
        <time>2015-10-12T13:26:51.1Z</time>
      </trkpt>
      <trkpt lat="48.20797" lon="-3.08602">
        <ele>144</ele>
        <time>2015-10-12T13:26:54.1Z</time>
      </trkpt>
      <trkpt lat="48.20794" lon="-3.08602">
        <ele>144</ele>
        <time>2015-10-12T13:26:57.1Z</time>
      </trkpt>
      <trkpt lat="48.20791" lon="-3.08602">
        <ele>144</ele>
        <time>2015-10-12T13:27:00.1Z</time>
      </trkpt>
      <trkpt lat="48.20789" lon="-3.08602">
        <ele>143</ele>
        <time>2015-10-12T13:27:02.1Z</time>
      </trkpt>
      <trkpt lat="48.20786" lon="-3.08602">
        <ele>143</ele>
        <time>2015-10-12T13:27:05.1Z</time>
      </trkpt>
      <trkpt lat="48.20784" lon="-3.08602">
        <ele>143</ele>
        <time>2015-10-12T13:27:07.1Z</time>
      </trkpt>
      <trkpt lat="48.20781" lon="-3.08601">
        <ele>143</ele>
        <time>2015-10-12T13:27:10.1Z</time>
      </trkpt>
      <trkpt lat="48.20778" lon="-3.08601">
        <ele>144</ele>
        <time>2015-10-12T13:27:13.1Z</time>
      </trkpt>
      <trkpt lat="48.20776" lon="-3.08599">
        <ele>144</ele>
        <time>2015-10-12T13:27:15.1Z</time>
      </trkpt>
      <trkpt lat="48.20773" lon="-3.08599">
        <ele>145</ele>
        <time>2015-10-12T13:27:18.1Z</time>
      </trkpt>
      <trkpt lat="48.2077" lon="-3.08598">
        <ele>145</ele>
        <time>2015-10-12T13:27:21.1Z</time>
      </trkpt>
      <trkpt lat="48.20766" lon="-3.08598">
        <ele>144</ele>
        <time>2015-10-12T13:27:24.1Z</time>
      </trkpt>
      <trkpt lat="48.20764" lon="-3.08598">
        <ele>144</ele>
        <time>2015-10-12T13:27:26.1Z</time>
      </trkpt>
      <trkpt lat="48.20761" lon="-3.08598">
        <ele>144</ele>
        <time>2015-10-12T13:27:29.1Z</time>
      </trkpt>
      <trkpt lat="48.20759" lon="-3.08598">
        <ele>144</ele>
        <time>2015-10-12T13:27:32.1Z</time>
      </trkpt>
      <trkpt lat="48.20756" lon="-3.08598">
        <ele>145</ele>
        <time>2015-10-12T13:27:35.1Z</time>
      </trkpt>
      <trkpt lat="48.20753" lon="-3.08598">
        <ele>145</ele>
        <time>2015-10-12T13:27:38.1Z</time>
      </trkpt>
      <trkpt lat="48.20751" lon="-3.08597">
        <ele>145</ele>
        <time>2015-10-12T13:27:40.1Z</time>
      </trkpt>
      <trkpt lat="48.20748" lon="-3.08596">
        <ele>146</ele>
        <time>2015-10-12T13:27:43.1Z</time>
      </trkpt>
      <trkpt lat="48.20745" lon="-3.08596">
        <ele>146</ele>
        <time>2015-10-12T13:27:46.1Z</time>
      </trkpt>
      <trkpt lat="48.20743" lon="-3.08595">
        <ele>146</ele>
        <time>2015-10-12T13:27:49.1Z</time>
      </trkpt>
      <trkpt lat="48.2074" lon="-3.08595">
        <ele>145</ele>
        <time>2015-10-12T13:27:52.1Z</time>
      </trkpt>
      <trkpt lat="48.20739" lon="-3.08595">
        <ele>145</ele>
        <time>2015-10-12T13:27:54.1Z</time>
      </trkpt>
      <trkpt lat="48.20736" lon="-3.08596">
        <ele>145</ele>
        <time>2015-10-12T13:27:57.1Z</time>
      </trkpt>
      <trkpt lat="48.20734" lon="-3.08596">
        <ele>145</ele>
        <time>2015-10-12T13:27:59.1Z</time>
      </trkpt>
      <trkpt lat="48.20732" lon="-3.08596">
        <ele>145</ele>
        <time>2015-10-12T13:28:02.1Z</time>
      </trkpt>
      <trkpt lat="48.20729" lon="-3.08597">
        <ele>145</ele>
        <time>2015-10-12T13:28:05.1Z</time>
      </trkpt>
      <trkpt lat="48.20727" lon="-3.08597">
        <ele>146</ele>
        <time>2015-10-12T13:28:07.1Z</time>
      </trkpt>
      <trkpt lat="48.20724" lon="-3.08598">
        <ele>146</ele>
        <time>2015-10-12T13:28:10.1Z</time>
      </trkpt>
      <trkpt lat="48.20721" lon="-3.086">
        <ele>145</ele>
        <time>2015-10-12T13:28:13.1Z</time>
      </trkpt>
      <trkpt lat="48.20719" lon="-3.08601">
        <ele>145</ele>
        <time>2015-10-12T13:28:16.1Z</time>
      </trkpt>
      <trkpt lat="48.20716" lon="-3.08602">
        <ele>145</ele>
        <time>2015-10-12T13:28:19.1Z</time>
      </trkpt>
      <trkpt lat="48.20714" lon="-3.08602">
        <ele>145</ele>
        <time>2015-10-12T13:28:22.1Z</time>
      </trkpt>
      <trkpt lat="48.20711" lon="-3.08603">
        <ele>145</ele>
        <time>2015-10-12T13:28:25.1Z</time>
      </trkpt>
      <trkpt lat="48.20708" lon="-3.08603">
        <ele>145</ele>
        <time>2015-10-12T13:28:28.1Z</time>
      </trkpt>
      <trkpt lat="48.20705" lon="-3.08602">
        <ele>145</ele>
        <time>2015-10-12T13:28:31.1Z</time>
      </trkpt>
      <trkpt lat="48.20703" lon="-3.08602">
        <ele>145</ele>
        <time>2015-10-12T13:28:33.1Z</time>
      </trkpt>
      <trkpt lat="48.207" lon="-3.08602">
        <ele>144</ele>
        <time>2015-10-12T13:28:36.1Z</time>
      </trkpt>
      <trkpt lat="48.20698" lon="-3.08602">
        <ele>144</ele>
        <time>2015-10-12T13:28:38.1Z</time>
      </trkpt>
      <trkpt lat="48.20695" lon="-3.08601">
        <ele>145</ele>
        <time>2015-10-12T13:28:41.1Z</time>
      </trkpt>
      <trkpt lat="48.20692" lon="-3.08601">
        <ele>145</ele>
        <time>2015-10-12T13:28:44.1Z</time>
      </trkpt>
      <trkpt lat="48.20688" lon="-3.086">
        <ele>145</ele>
        <time>2015-10-12T13:28:47.1Z</time>
      </trkpt>
      <trkpt lat="48.20686" lon="-3.086">
        <ele>145</ele>
        <time>2015-10-12T13:28:49.1Z</time>
      </trkpt>
      <trkpt lat="48.20684" lon="-3.086">
        <ele>145</ele>
        <time>2015-10-12T13:28:52.1Z</time>
      </trkpt>
      <trkpt lat="48.20681" lon="-3.086">
        <ele>145</ele>
        <time>2015-10-12T13:28:55.1Z</time>
      </trkpt>
      <trkpt lat="48.20678" lon="-3.08599">
        <ele>145</ele>
        <time>2015-10-12T13:28:58.1Z</time>
      </trkpt>
      <trkpt lat="48.20675" lon="-3.08599">
        <ele>145</ele>
        <time>2015-10-12T13:29:01.1Z</time>
      </trkpt>
      <trkpt lat="48.20673" lon="-3.08598">
        <ele>145</ele>
        <time>2015-10-12T13:29:03.1Z</time>
      </trkpt>
      <trkpt lat="48.20671" lon="-3.08598">
        <ele>146</ele>
        <time>2015-10-12T13:29:05.1Z</time>
      </trkpt>
      <trkpt lat="48.20669" lon="-3.08597">
        <ele>146</ele>
        <time>2015-10-12T13:29:08.1Z</time>
      </trkpt>
      <trkpt lat="48.20667" lon="-3.08596">
        <ele>146</ele>
        <time>2015-10-12T13:29:10.1Z</time>
      </trkpt>
      <trkpt lat="48.20665" lon="-3.08596">
        <ele>146</ele>
        <time>2015-10-12T13:29:13.1Z</time>
      </trkpt>
      <trkpt lat="48.20662" lon="-3.08595">
        <ele>146</ele>
        <time>2015-10-12T13:29:16.1Z</time>
      </trkpt>
      <trkpt lat="48.20659" lon="-3.08594">
        <ele>146</ele>
        <time>2015-10-12T13:29:19.1Z</time>
      </trkpt>
      <trkpt lat="48.20657" lon="-3.08593">
        <ele>146</ele>
        <time>2015-10-12T13:29:22.1Z</time>
      </trkpt>
      <trkpt lat="48.20654" lon="-3.08592">
        <ele>146</ele>
        <time>2015-10-12T13:29:25.1Z</time>
      </trkpt>
      <trkpt lat="48.20652" lon="-3.08592">
        <ele>146</ele>
        <time>2015-10-12T13:29:27.1Z</time>
      </trkpt>
      <trkpt lat="48.2065" lon="-3.08591">
        <ele>146</ele>
        <time>2015-10-12T13:29:29.1Z</time>
      </trkpt>
      <trkpt lat="48.20647" lon="-3.08589">
        <ele>146</ele>
        <time>2015-10-12T13:29:32.1Z</time>
      </trkpt>
      <trkpt lat="48.20646" lon="-3.08588">
        <ele>146</ele>
        <time>2015-10-12T13:29:34.1Z</time>
      </trkpt>
      <trkpt lat="48.20643" lon="-3.08587">
        <ele>147</ele>
        <time>2015-10-12T13:29:37.1Z</time>
      </trkpt>
      <trkpt lat="48.20641" lon="-3.08586">
        <ele>147</ele>
        <time>2015-10-12T13:29:39.1Z</time>
      </trkpt>
      <trkpt lat="48.20639" lon="-3.08585">
        <ele>147</ele>
        <time>2015-10-12T13:29:41.1Z</time>
      </trkpt>
      <trkpt lat="48.20636" lon="-3.08584">
        <ele>146</ele>
        <time>2015-10-12T13:29:44.1Z</time>
      </trkpt>
      <trkpt lat="48.20633" lon="-3.08583">
        <ele>146</ele>
        <time>2015-10-12T13:29:47.1Z</time>
      </trkpt>
      <trkpt lat="48.20631" lon="-3.08582">
        <ele>146</ele>
        <time>2015-10-12T13:29:50.1Z</time>
      </trkpt>
      <trkpt lat="48.20629" lon="-3.08581">
        <ele>146</ele>
        <time>2015-10-12T13:29:52.1Z</time>
      </trkpt>
      <trkpt lat="48.20628" lon="-3.0858">
        <ele>146</ele>
        <time>2015-10-12T13:29:54.1Z</time>
      </trkpt>
      <trkpt lat="48.20625" lon="-3.08579">
        <ele>146</ele>
        <time>2015-10-12T13:29:57.1Z</time>
      </trkpt>
      <trkpt lat="48.20623" lon="-3.08578">
        <ele>146</ele>
        <time>2015-10-12T13:30:00.1Z</time>
      </trkpt>
      <trkpt lat="48.20621" lon="-3.08577">
        <ele>146</ele>
        <time>2015-10-12T13:30:02.1Z</time>
      </trkpt>
      <trkpt lat="48.20619" lon="-3.08576">
        <ele>146</ele>
        <time>2015-10-12T13:30:05.1Z</time>
      </trkpt>
      <trkpt lat="48.20617" lon="-3.08575">
        <ele>146</ele>
        <time>2015-10-12T13:30:07.1Z</time>
      </trkpt>
      <trkpt lat="48.20615" lon="-3.08574">
        <ele>146</ele>
        <time>2015-10-12T13:30:09.1Z</time>
      </trkpt>
      <trkpt lat="48.20613" lon="-3.08572">
        <ele>146</ele>
        <time>2015-10-12T13:30:12.1Z</time>
      </trkpt>
      <trkpt lat="48.20611" lon="-3.08572">
        <ele>146</ele>
        <time>2015-10-12T13:30:14.1Z</time>
      </trkpt>
      <trkpt lat="48.20609" lon="-3.08571">
        <ele>146</ele>
        <time>2015-10-12T13:30:17.1Z</time>
      </trkpt>
      <trkpt lat="48.20606" lon="-3.08569">
        <ele>146</ele>
        <time>2015-10-12T13:30:20.1Z</time>
      </trkpt>
      <trkpt lat="48.20603" lon="-3.08568">
        <ele>146</ele>
        <time>2015-10-12T13:30:23.1Z</time>
      </trkpt>
      <trkpt lat="48.20601" lon="-3.08566">
        <ele>146</ele>
        <time>2015-10-12T13:30:26.1Z</time>
      </trkpt>
      <trkpt lat="48.20599" lon="-3.08565">
        <ele>147</ele>
        <time>2015-10-12T13:30:28.1Z</time>
      </trkpt>
      <trkpt lat="48.20596" lon="-3.08564">
        <ele>147</ele>
        <time>2015-10-12T13:30:31.1Z</time>
      </trkpt>
      <trkpt lat="48.20595" lon="-3.08563">
        <ele>148</ele>
        <time>2015-10-12T13:30:33.1Z</time>
      </trkpt>
      <trkpt lat="48.20592" lon="-3.08562">
        <ele>148</ele>
        <time>2015-10-12T13:30:36.1Z</time>
      </trkpt>
      <trkpt lat="48.20589" lon="-3.08561">
        <ele>148</ele>
        <time>2015-10-12T13:30:39.1Z</time>
      </trkpt>
      <trkpt lat="48.20588" lon="-3.0856">
        <ele>147</ele>
        <time>2015-10-12T13:30:41.1Z</time>
      </trkpt>
      <trkpt lat="48.20585" lon="-3.08559">
        <ele>148</ele>
        <time>2015-10-12T13:30:44.1Z</time>
      </trkpt>
      <trkpt lat="48.20583" lon="-3.08559">
        <ele>148</ele>
        <time>2015-10-12T13:30:46.1Z</time>
      </trkpt>
      <trkpt lat="48.2058" lon="-3.08557">
        <ele>148</ele>
        <time>2015-10-12T13:30:49.1Z</time>
      </trkpt>
      <trkpt lat="48.20578" lon="-3.08557">
        <ele>148</ele>
        <time>2015-10-12T13:30:51.1Z</time>
      </trkpt>
      <trkpt lat="48.20576" lon="-3.08556">
        <ele>149</ele>
        <time>2015-10-12T13:30:54.1Z</time>
      </trkpt>
      <trkpt lat="48.20575" lon="-3.08555">
        <ele>149</ele>
        <time>2015-10-12T13:30:57.1Z</time>
      </trkpt>
      <trkpt lat="48.20573" lon="-3.08554">
        <ele>148</ele>
        <time>2015-10-12T13:31:00.1Z</time>
      </trkpt>
      <trkpt lat="48.20572" lon="-3.08554">
        <ele>148</ele>
        <time>2015-10-12T13:31:02.1Z</time>
      </trkpt>
      <trkpt lat="48.20569" lon="-3.08554">
        <ele>148</ele>
        <time>2015-10-12T13:31:05.1Z</time>
      </trkpt>
      <trkpt lat="48.20567" lon="-3.08553">
        <ele>148</ele>
        <time>2015-10-12T13:31:07.1Z</time>
      </trkpt>
      <trkpt lat="48.20566" lon="-3.08552">
        <ele>148</ele>
        <time>2015-10-12T13:31:09.1Z</time>
      </trkpt>
      <trkpt lat="48.20564" lon="-3.08551">
        <ele>148</ele>
        <time>2015-10-12T13:31:12.1Z</time>
      </trkpt>
      <trkpt lat="48.20562" lon="-3.08551">
        <ele>148</ele>
        <time>2015-10-12T13:31:14.1Z</time>
      </trkpt>
      <trkpt lat="48.20561" lon="-3.0855">
        <ele>148</ele>
        <time>2015-10-12T13:31:17.1Z</time>
      </trkpt>
      <trkpt lat="48.2056" lon="-3.08549">
        <ele>148</ele>
        <time>2015-10-12T13:31:20.1Z</time>
      </trkpt>
      <trkpt lat="48.20559" lon="-3.08549">
        <ele>149</ele>
        <time>2015-10-12T13:31:22.1Z</time>
      </trkpt>
      <trkpt lat="48.20559" lon="-3.08549">
        <ele>150</ele>
        <time>2015-10-12T13:31:25.1Z</time>
      </trkpt>
      <trkpt lat="48.20559" lon="-3.08549">
        <ele>150</ele>
        <time>2015-10-12T13:31:28.1Z</time>
      </trkpt>
      <trkpt lat="48.20559" lon="-3.08549">
        <ele>151</ele>
        <time>2015-10-12T13:31:37.1Z</time>
      </trkpt>
      <trkpt lat="48.20559" lon="-3.08549">
        <ele>150</ele>
        <time>2015-10-12T13:31:39.1Z</time>
      </trkpt>
      <trkpt lat="48.20559" lon="-3.08549">
        <ele>150</ele>
        <time>2015-10-12T13:31:41.1Z</time>
      </trkpt>
      <trkpt lat="48.20559" lon="-3.08549">
        <ele>150</ele>
        <time>2015-10-12T13:31:44.1Z</time>
      </trkpt>
      <trkpt lat="48.20558" lon="-3.0855">
        <ele>150</ele>
        <time>2015-10-12T13:31:48.1Z</time>
      </trkpt>
      <trkpt lat="48.20557" lon="-3.08549">
        <ele>149</ele>
        <time>2015-10-12T13:31:51.1Z</time>
      </trkpt>
      <trkpt lat="48.20555" lon="-3.08548">
        <ele>149</ele>
        <time>2015-10-12T13:31:53.1Z</time>
      </trkpt>
      <trkpt lat="48.20554" lon="-3.08548">
        <ele>148</ele>
        <time>2015-10-12T13:31:56.1Z</time>
      </trkpt>
      <trkpt lat="48.20552" lon="-3.08547">
        <ele>148</ele>
        <time>2015-10-12T13:31:58.1Z</time>
      </trkpt>
      <trkpt lat="48.2055" lon="-3.08546">
        <ele>148</ele>
        <time>2015-10-12T13:32:01.1Z</time>
      </trkpt>
      <trkpt lat="48.2055" lon="-3.08546">
        <ele>148</ele>
        <time>2015-10-12T13:32:03.1Z</time>
      </trkpt>
      <trkpt lat="48.20548" lon="-3.08545">
        <ele>148</ele>
        <time>2015-10-12T13:32:06.1Z</time>
      </trkpt>
      <trkpt lat="48.20546" lon="-3.08544">
        <ele>148</ele>
        <time>2015-10-12T13:32:09.1Z</time>
      </trkpt>
      <trkpt lat="48.20545" lon="-3.08542">
        <ele>148</ele>
        <time>2015-10-12T13:32:11.1Z</time>
      </trkpt>
      <trkpt lat="48.20543" lon="-3.0854">
        <ele>148</ele>
        <time>2015-10-12T13:32:14.1Z</time>
      </trkpt>
      <trkpt lat="48.20541" lon="-3.08538">
        <ele>148</ele>
        <time>2015-10-12T13:32:16.1Z</time>
      </trkpt>
      <trkpt lat="48.20538" lon="-3.08536">
        <ele>148</ele>
        <time>2015-10-12T13:32:19.1Z</time>
      </trkpt>
      <trkpt lat="48.20535" lon="-3.08534">
        <ele>148</ele>
        <time>2015-10-12T13:32:22.1Z</time>
      </trkpt>
      <trkpt lat="48.20531" lon="-3.08532">
        <ele>148</ele>
        <time>2015-10-12T13:32:25.1Z</time>
      </trkpt>
      <trkpt lat="48.20528" lon="-3.0853">
        <ele>148</ele>
        <time>2015-10-12T13:32:27.1Z</time>
      </trkpt>
      <trkpt lat="48.20525" lon="-3.08528">
        <ele>148</ele>
        <time>2015-10-12T13:32:30.1Z</time>
      </trkpt>
      <trkpt lat="48.20521" lon="-3.08526">
        <ele>148</ele>
        <time>2015-10-12T13:32:33.1Z</time>
      </trkpt>
      <trkpt lat="48.20518" lon="-3.08524">
        <ele>148</ele>
        <time>2015-10-12T13:32:36.1Z</time>
      </trkpt>
      <trkpt lat="48.20516" lon="-3.08524">
        <ele>148</ele>
        <time>2015-10-12T13:32:38.1Z</time>
      </trkpt>
      <trkpt lat="48.20512" lon="-3.08523">
        <ele>148</ele>
        <time>2015-10-12T13:32:41.1Z</time>
      </trkpt>
      <trkpt lat="48.20509" lon="-3.08523">
        <ele>148</ele>
        <time>2015-10-12T13:32:44.1Z</time>
      </trkpt>
      <trkpt lat="48.20506" lon="-3.08523">
        <ele>148</ele>
        <time>2015-10-12T13:32:46.1Z</time>
      </trkpt>
      <trkpt lat="48.20504" lon="-3.08523">
        <ele>148</ele>
        <time>2015-10-12T13:32:48.1Z</time>
      </trkpt>
      <trkpt lat="48.205" lon="-3.08525">
        <ele>148</ele>
        <time>2015-10-12T13:32:51.1Z</time>
      </trkpt>
      <trkpt lat="48.20497" lon="-3.08526">
        <ele>148</ele>
        <time>2015-10-12T13:32:53.1Z</time>
      </trkpt>
      <trkpt lat="48.20495" lon="-3.08527">
        <ele>148</ele>
        <time>2015-10-12T13:32:55.1Z</time>
      </trkpt>
      <trkpt lat="48.20491" lon="-3.08529">
        <ele>148</ele>
        <time>2015-10-12T13:32:58.1Z</time>
      </trkpt>
      <trkpt lat="48.2049" lon="-3.08529">
        <ele>148</ele>
        <time>2015-10-12T13:33:00.1Z</time>
      </trkpt>
      <trkpt lat="48.20486" lon="-3.08531">
        <ele>148</ele>
        <time>2015-10-12T13:33:03.1Z</time>
      </trkpt>
      <trkpt lat="48.20483" lon="-3.08533">
        <ele>148</ele>
        <time>2015-10-12T13:33:06.1Z</time>
      </trkpt>
      <trkpt lat="48.20479" lon="-3.08535">
        <ele>148</ele>
        <time>2015-10-12T13:33:09.1Z</time>
      </trkpt>
      <trkpt lat="48.20477" lon="-3.08536">
        <ele>148</ele>
        <time>2015-10-12T13:33:11.1Z</time>
      </trkpt>
      <trkpt lat="48.20475" lon="-3.08537">
        <ele>148</ele>
        <time>2015-10-12T13:33:13.1Z</time>
      </trkpt>
      <trkpt lat="48.20472" lon="-3.08538">
        <ele>148</ele>
        <time>2015-10-12T13:33:16.1Z</time>
      </trkpt>
      <trkpt lat="48.20468" lon="-3.0854">
        <ele>148</ele>
        <time>2015-10-12T13:33:19.1Z</time>
      </trkpt>
      <trkpt lat="48.20466" lon="-3.08541">
        <ele>148</ele>
        <time>2015-10-12T13:33:21.1Z</time>
      </trkpt>
      <trkpt lat="48.20464" lon="-3.08542">
        <ele>148</ele>
        <time>2015-10-12T13:33:23.1Z</time>
      </trkpt>
      <trkpt lat="48.2046" lon="-3.08544">
        <ele>147</ele>
        <time>2015-10-12T13:33:26.1Z</time>
      </trkpt>
      <trkpt lat="48.20459" lon="-3.08545">
        <ele>147</ele>
        <time>2015-10-12T13:33:28.1Z</time>
      </trkpt>
      <trkpt lat="48.20455" lon="-3.08547">
        <ele>147</ele>
        <time>2015-10-12T13:33:31.1Z</time>
      </trkpt>
      <trkpt lat="48.20453" lon="-3.08548">
        <ele>147</ele>
        <time>2015-10-12T13:33:33.1Z</time>
      </trkpt>
      <trkpt lat="48.2045" lon="-3.08551">
        <ele>147</ele>
        <time>2015-10-12T13:33:36.1Z</time>
      </trkpt>
      <trkpt lat="48.20448" lon="-3.08552">
        <ele>147</ele>
        <time>2015-10-12T13:33:38.1Z</time>
      </trkpt>
      <trkpt lat="48.20446" lon="-3.08552">
        <ele>147</ele>
        <time>2015-10-12T13:33:40.1Z</time>
      </trkpt>
      <trkpt lat="48.20442" lon="-3.08554">
        <ele>147</ele>
        <time>2015-10-12T13:33:43.1Z</time>
      </trkpt>
      <trkpt lat="48.2044" lon="-3.08555">
        <ele>148</ele>
        <time>2015-10-12T13:33:45.1Z</time>
      </trkpt>
      <trkpt lat="48.20436" lon="-3.08556">
        <ele>148</ele>
        <time>2015-10-12T13:33:48.1Z</time>
      </trkpt>
      <trkpt lat="48.20433" lon="-3.08557">
        <ele>147</ele>
        <time>2015-10-12T13:33:51.1Z</time>
      </trkpt>
      <trkpt lat="48.20431" lon="-3.08558">
        <ele>147</ele>
        <time>2015-10-12T13:33:53.1Z</time>
      </trkpt>
      <trkpt lat="48.20428" lon="-3.0856">
        <ele>147</ele>
        <time>2015-10-12T13:33:56.1Z</time>
      </trkpt>
      <trkpt lat="48.20425" lon="-3.08561">
        <ele>147</ele>
        <time>2015-10-12T13:33:58.1Z</time>
      </trkpt>
      <trkpt lat="48.20422" lon="-3.08563">
        <ele>147</ele>
        <time>2015-10-12T13:34:01.1Z</time>
      </trkpt>
      <trkpt lat="48.20419" lon="-3.08565">
        <ele>147</ele>
        <time>2015-10-12T13:34:04.1Z</time>
      </trkpt>
      <trkpt lat="48.20416" lon="-3.08568">
        <ele>148</ele>
        <time>2015-10-12T13:34:07.1Z</time>
      </trkpt>
      <trkpt lat="48.20413" lon="-3.08571">
        <ele>148</ele>
        <time>2015-10-12T13:34:10.1Z</time>
      </trkpt>
      <trkpt lat="48.20411" lon="-3.08574">
        <ele>149</ele>
        <time>2015-10-12T13:34:13.1Z</time>
      </trkpt>
      <trkpt lat="48.20409" lon="-3.08576">
        <ele>149</ele>
        <time>2015-10-12T13:34:15.1Z</time>
      </trkpt>
      <trkpt lat="48.20406" lon="-3.08579">
        <ele>148</ele>
        <time>2015-10-12T13:34:18.1Z</time>
      </trkpt>
      <trkpt lat="48.20404" lon="-3.08581">
        <ele>148</ele>
        <time>2015-10-12T13:34:20.1Z</time>
      </trkpt>
      <trkpt lat="48.20402" lon="-3.08585">
        <ele>149</ele>
        <time>2015-10-12T13:34:23.1Z</time>
      </trkpt>
      <trkpt lat="48.20401" lon="-3.08588">
        <ele>149</ele>
        <time>2015-10-12T13:34:25.1Z</time>
      </trkpt>
      <trkpt lat="48.20399" lon="-3.08591">
        <ele>149</ele>
        <time>2015-10-12T13:34:28.1Z</time>
      </trkpt>
      <trkpt lat="48.20398" lon="-3.08594">
        <ele>149</ele>
        <time>2015-10-12T13:34:30.1Z</time>
      </trkpt>
      <trkpt lat="48.20396" lon="-3.08597">
        <ele>148</ele>
        <time>2015-10-12T13:34:33.1Z</time>
      </trkpt>
      <trkpt lat="48.20395" lon="-3.08601">
        <ele>148</ele>
        <time>2015-10-12T13:34:35.1Z</time>
      </trkpt>
      <trkpt lat="48.20394" lon="-3.08604">
        <ele>149</ele>
        <time>2015-10-12T13:34:38.1Z</time>
      </trkpt>
      <trkpt lat="48.20393" lon="-3.08607">
        <ele>149</ele>
        <time>2015-10-12T13:34:40.1Z</time>
      </trkpt>
      <trkpt lat="48.20392" lon="-3.08611">
        <ele>150</ele>
        <time>2015-10-12T13:34:43.1Z</time>
      </trkpt>
      <trkpt lat="48.20391" lon="-3.08614">
        <ele>150</ele>
        <time>2015-10-12T13:34:45.1Z</time>
      </trkpt>
      <trkpt lat="48.2039" lon="-3.08618">
        <ele>150</ele>
        <time>2015-10-12T13:34:48.1Z</time>
      </trkpt>
      <trkpt lat="48.20389" lon="-3.08623">
        <ele>150</ele>
        <time>2015-10-12T13:34:51.1Z</time>
      </trkpt>
      <trkpt lat="48.20388" lon="-3.08626">
        <ele>150</ele>
        <time>2015-10-12T13:34:53.1Z</time>
      </trkpt>
      <trkpt lat="48.20388" lon="-3.08629">
        <ele>150</ele>
        <time>2015-10-12T13:34:55.1Z</time>
      </trkpt>
      <trkpt lat="48.20387" lon="-3.08632">
        <ele>150</ele>
        <time>2015-10-12T13:34:57.1Z</time>
      </trkpt>
      <trkpt lat="48.20386" lon="-3.08636">
        <ele>151</ele>
        <time>2015-10-12T13:34:59.1Z</time>
      </trkpt>
      <trkpt lat="48.20385" lon="-3.0864">
        <ele>151</ele>
        <time>2015-10-12T13:35:02.1Z</time>
      </trkpt>
      <trkpt lat="48.20384" lon="-3.08645">
        <ele>151</ele>
        <time>2015-10-12T13:35:05.1Z</time>
      </trkpt>
      <trkpt lat="48.20383" lon="-3.0865">
        <ele>152</ele>
        <time>2015-10-12T13:35:08.1Z</time>
      </trkpt>
      <trkpt lat="48.20382" lon="-3.08654">
        <ele>152</ele>
        <time>2015-10-12T13:35:11.1Z</time>
      </trkpt>
      <trkpt lat="48.20381" lon="-3.08658">
        <ele>152</ele>
        <time>2015-10-12T13:35:13.1Z</time>
      </trkpt>
      <trkpt lat="48.2038" lon="-3.08662">
        <ele>152</ele>
        <time>2015-10-12T13:35:16.1Z</time>
      </trkpt>
      <trkpt lat="48.2038" lon="-3.08667">
        <ele>152</ele>
        <time>2015-10-12T13:35:19.1Z</time>
      </trkpt>
      <trkpt lat="48.20379" lon="-3.08672">
        <ele>151</ele>
        <time>2015-10-12T13:35:22.1Z</time>
      </trkpt>
      <trkpt lat="48.20379" lon="-3.08675">
        <ele>151</ele>
        <time>2015-10-12T13:35:24.1Z</time>
      </trkpt>
      <trkpt lat="48.20379" lon="-3.0868">
        <ele>151</ele>
        <time>2015-10-12T13:35:27.1Z</time>
      </trkpt>
      <trkpt lat="48.2038" lon="-3.08683">
        <ele>151</ele>
        <time>2015-10-12T13:35:30.1Z</time>
      </trkpt>
      <trkpt lat="48.20379" lon="-3.08685">
        <ele>151</ele>
        <time>2015-10-12T13:35:32.1Z</time>
      </trkpt>
      <trkpt lat="48.20379" lon="-3.08686">
        <ele>151</ele>
        <time>2015-10-12T13:35:35.1Z</time>
      </trkpt>
      <trkpt lat="48.20379" lon="-3.08689">
        <ele>151</ele>
        <time>2015-10-12T13:35:37.1Z</time>
      </trkpt>
      <trkpt lat="48.20379" lon="-3.08694">
        <ele>151</ele>
        <time>2015-10-12T13:35:39.1Z</time>
      </trkpt>
      <trkpt lat="48.20378" lon="-3.08699">
        <ele>151</ele>
        <time>2015-10-12T13:35:42.1Z</time>
      </trkpt>
      <trkpt lat="48.20378" lon="-3.08705">
        <ele>151</ele>
        <time>2015-10-12T13:35:45.1Z</time>
      </trkpt>
      <trkpt lat="48.20377" lon="-3.08709">
        <ele>151</ele>
        <time>2015-10-12T13:35:48.1Z</time>
      </trkpt>
      <trkpt lat="48.20377" lon="-3.08713">
        <ele>151</ele>
        <time>2015-10-12T13:35:50.1Z</time>
      </trkpt>
      <trkpt lat="48.20376" lon="-3.08718">
        <ele>151</ele>
        <time>2015-10-12T13:35:53.1Z</time>
      </trkpt>
      <trkpt lat="48.20375" lon="-3.08723">
        <ele>151</ele>
        <time>2015-10-12T13:35:56.1Z</time>
      </trkpt>
      <trkpt lat="48.20375" lon="-3.08728">
        <ele>151</ele>
        <time>2015-10-12T13:35:59.1Z</time>
      </trkpt>
      <trkpt lat="48.20374" lon="-3.08732">
        <ele>151</ele>
        <time>2015-10-12T13:36:02.1Z</time>
      </trkpt>
      <trkpt lat="48.20374" lon="-3.08736">
        <ele>150</ele>
        <time>2015-10-12T13:36:05.1Z</time>
      </trkpt>
      <trkpt lat="48.20374" lon="-3.08739">
        <ele>151</ele>
        <time>2015-10-12T13:36:07.1Z</time>
      </trkpt>
      <trkpt lat="48.20374" lon="-3.08743">
        <ele>151</ele>
        <time>2015-10-12T13:36:10.1Z</time>
      </trkpt>
      <trkpt lat="48.20373" lon="-3.08746">
        <ele>151</ele>
        <time>2015-10-12T13:36:12.1Z</time>
      </trkpt>
      <trkpt lat="48.20373" lon="-3.08747">
        <ele>150</ele>
        <time>2015-10-12T13:36:15.1Z</time>
      </trkpt>
      <trkpt lat="48.20372" lon="-3.08751">
        <ele>150</ele>
        <time>2015-10-12T13:36:17.1Z</time>
      </trkpt>
      <trkpt lat="48.20372" lon="-3.08756">
        <ele>150</ele>
        <time>2015-10-12T13:36:20.1Z</time>
      </trkpt>
      <trkpt lat="48.20372" lon="-3.0876">
        <ele>150</ele>
        <time>2015-10-12T13:36:22.1Z</time>
      </trkpt>
      <trkpt lat="48.20372" lon="-3.08765">
        <ele>150</ele>
        <time>2015-10-12T13:36:25.1Z</time>
      </trkpt>
      <trkpt lat="48.20371" lon="-3.08768">
        <ele>150</ele>
        <time>2015-10-12T13:36:27.1Z</time>
      </trkpt>
      <trkpt lat="48.2037" lon="-3.08774">
        <ele>151</ele>
        <time>2015-10-12T13:36:30.1Z</time>
      </trkpt>
      <trkpt lat="48.20369" lon="-3.08777">
        <ele>151</ele>
        <time>2015-10-12T13:36:32.1Z</time>
      </trkpt>
      <trkpt lat="48.20369" lon="-3.08783">
        <ele>151</ele>
        <time>2015-10-12T13:36:35.1Z</time>
      </trkpt>
      <trkpt lat="48.20369" lon="-3.08788">
        <ele>151</ele>
        <time>2015-10-12T13:36:38.1Z</time>
      </trkpt>
      <trkpt lat="48.20368" lon="-3.08791">
        <ele>151</ele>
        <time>2015-10-12T13:36:40.1Z</time>
      </trkpt>
      <trkpt lat="48.20368" lon="-3.08793">
        <ele>151</ele>
        <time>2015-10-12T13:36:43.1Z</time>
      </trkpt>
      <trkpt lat="48.20368" lon="-3.08794">
        <ele>151</ele>
        <time>2015-10-12T13:36:46.1Z</time>
      </trkpt>
      <trkpt lat="48.20367" lon="-3.08798">
        <ele>151</ele>
        <time>2015-10-12T13:36:49.1Z</time>
      </trkpt>
      <trkpt lat="48.20366" lon="-3.08801">
        <ele>151</ele>
        <time>2015-10-12T13:36:51.1Z</time>
      </trkpt>
      <trkpt lat="48.20366" lon="-3.08805">
        <ele>151</ele>
        <time>2015-10-12T13:36:54.1Z</time>
      </trkpt>
      <trkpt lat="48.20365" lon="-3.08809">
        <ele>151</ele>
        <time>2015-10-12T13:36:56.1Z</time>
      </trkpt>
      <trkpt lat="48.20364" lon="-3.08812">
        <ele>151</ele>
        <time>2015-10-12T13:36:58.1Z</time>
      </trkpt>
      <trkpt lat="48.20363" lon="-3.08818">
        <ele>151</ele>
        <time>2015-10-12T13:37:01.1Z</time>
      </trkpt>
      <trkpt lat="48.20363" lon="-3.08822">
        <ele>151</ele>
        <time>2015-10-12T13:37:03.1Z</time>
      </trkpt>
      <trkpt lat="48.20362" lon="-3.08827">
        <ele>151</ele>
        <time>2015-10-12T13:37:06.1Z</time>
      </trkpt>
      <trkpt lat="48.20361" lon="-3.08832">
        <ele>151</ele>
        <time>2015-10-12T13:37:09.1Z</time>
      </trkpt>
      <trkpt lat="48.20361" lon="-3.08837">
        <ele>151</ele>
        <time>2015-10-12T13:37:12.1Z</time>
      </trkpt>
      <trkpt lat="48.20361" lon="-3.0884">
        <ele>151</ele>
        <time>2015-10-12T13:37:14.1Z</time>
      </trkpt>
      <trkpt lat="48.2036" lon="-3.08842">
        <ele>151</ele>
        <time>2015-10-12T13:37:16.1Z</time>
      </trkpt>
      <trkpt lat="48.20359" lon="-3.08846">
        <ele>151</ele>
        <time>2015-10-12T13:37:19.1Z</time>
      </trkpt>
      <trkpt lat="48.20358" lon="-3.08851">
        <ele>152</ele>
        <time>2015-10-12T13:37:22.1Z</time>
      </trkpt>
      <trkpt lat="48.20357" lon="-3.08853">
        <ele>151</ele>
        <time>2015-10-12T13:37:24.1Z</time>
      </trkpt>
      <trkpt lat="48.20356" lon="-3.08857">
        <ele>151</ele>
        <time>2015-10-12T13:37:27.1Z</time>
      </trkpt>
      <trkpt lat="48.20356" lon="-3.0886">
        <ele>151</ele>
        <time>2015-10-12T13:37:29.1Z</time>
      </trkpt>
      <trkpt lat="48.20355" lon="-3.08865">
        <ele>151</ele>
        <time>2015-10-12T13:37:32.1Z</time>
      </trkpt>
      <trkpt lat="48.20354" lon="-3.08867">
        <ele>151</ele>
        <time>2015-10-12T13:37:34.1Z</time>
      </trkpt>
      <trkpt lat="48.20354" lon="-3.08871">
        <ele>152</ele>
        <time>2015-10-12T13:37:37.1Z</time>
      </trkpt>
      <trkpt lat="48.20353" lon="-3.08875">
        <ele>152</ele>
        <time>2015-10-12T13:37:40.1Z</time>
      </trkpt>
      <trkpt lat="48.20353" lon="-3.08877">
        <ele>152</ele>
        <time>2015-10-12T13:37:42.1Z</time>
      </trkpt>
      <trkpt lat="48.20352" lon="-3.08879">
        <ele>151</ele>
        <time>2015-10-12T13:37:45.1Z</time>
      </trkpt>
      <trkpt lat="48.20351" lon="-3.08882">
        <ele>151</ele>
        <time>2015-10-12T13:37:47.1Z</time>
      </trkpt>
      <trkpt lat="48.20351" lon="-3.08886">
        <ele>152</ele>
        <time>2015-10-12T13:37:50.1Z</time>
      </trkpt>
      <trkpt lat="48.2035" lon="-3.08889">
        <ele>152</ele>
        <time>2015-10-12T13:37:52.1Z</time>
      </trkpt>
      <trkpt lat="48.2035" lon="-3.08892">
        <ele>152</ele>
        <time>2015-10-12T13:37:54.1Z</time>
      </trkpt>
      <trkpt lat="48.20348" lon="-3.08896">
        <ele>152</ele>
        <time>2015-10-12T13:37:57.1Z</time>
      </trkpt>
      <trkpt lat="48.20347" lon="-3.08898">
        <ele>152</ele>
        <time>2015-10-12T13:37:59.1Z</time>
      </trkpt>
      <trkpt lat="48.20345" lon="-3.08902">
        <ele>152</ele>
        <time>2015-10-12T13:38:02.1Z</time>
      </trkpt>
      <trkpt lat="48.20345" lon="-3.08904">
        <ele>152</ele>
        <time>2015-10-12T13:38:04.1Z</time>
      </trkpt>
      <trkpt lat="48.20344" lon="-3.08908">
        <ele>152</ele>
        <time>2015-10-12T13:38:07.1Z</time>
      </trkpt>
      <trkpt lat="48.20344" lon="-3.0891">
        <ele>152</ele>
        <time>2015-10-12T13:38:09.1Z</time>
      </trkpt>
      <trkpt lat="48.20341" lon="-3.08912">
        <ele>152</ele>
        <time>2015-10-12T13:38:12.1Z</time>
      </trkpt>
      <trkpt lat="48.2034" lon="-3.08915">
        <ele>152</ele>
        <time>2015-10-12T13:38:15.1Z</time>
      </trkpt>
      <trkpt lat="48.20339" lon="-3.08918">
        <ele>152</ele>
        <time>2015-10-12T13:38:17.1Z</time>
      </trkpt>
      <trkpt lat="48.20339" lon="-3.08923">
        <ele>152</ele>
        <time>2015-10-12T13:38:20.1Z</time>
      </trkpt>
      <trkpt lat="48.20338" lon="-3.08925">
        <ele>152</ele>
        <time>2015-10-12T13:38:22.1Z</time>
      </trkpt>
      <trkpt lat="48.20337" lon="-3.08929">
        <ele>152</ele>
        <time>2015-10-12T13:38:25.1Z</time>
      </trkpt>
      <trkpt lat="48.20337" lon="-3.08932">
        <ele>152</ele>
        <time>2015-10-12T13:38:28.1Z</time>
      </trkpt>
      <trkpt lat="48.20336" lon="-3.08936">
        <ele>153</ele>
        <time>2015-10-12T13:38:31.1Z</time>
      </trkpt>
      <trkpt lat="48.20335" lon="-3.08939">
        <ele>153</ele>
        <time>2015-10-12T13:38:33.1Z</time>
      </trkpt>
      <trkpt lat="48.20334" lon="-3.08943">
        <ele>153</ele>
        <time>2015-10-12T13:38:36.1Z</time>
      </trkpt>
      <trkpt lat="48.20333" lon="-3.08945">
        <ele>153</ele>
        <time>2015-10-12T13:38:38.1Z</time>
      </trkpt>
      <trkpt lat="48.20332" lon="-3.08948">
        <ele>153</ele>
        <time>2015-10-12T13:38:40.1Z</time>
      </trkpt>
      <trkpt lat="48.20332" lon="-3.08953">
        <ele>153</ele>
        <time>2015-10-12T13:38:43.1Z</time>
      </trkpt>
      <trkpt lat="48.20332" lon="-3.08958">
        <ele>153</ele>
        <time>2015-10-12T13:38:46.1Z</time>
      </trkpt>
      <trkpt lat="48.20331" lon="-3.08962">
        <ele>154</ele>
        <time>2015-10-12T13:38:48.1Z</time>
      </trkpt>
      <trkpt lat="48.2033" lon="-3.08967">
        <ele>154</ele>
        <time>2015-10-12T13:38:51.1Z</time>
      </trkpt>
      <trkpt lat="48.20329" lon="-3.0897">
        <ele>154</ele>
        <time>2015-10-12T13:38:53.1Z</time>
      </trkpt>
      <trkpt lat="48.20328" lon="-3.08974">
        <ele>154</ele>
        <time>2015-10-12T13:38:56.1Z</time>
      </trkpt>
      <trkpt lat="48.20328" lon="-3.08974">
        <ele>154</ele>
        <time>2015-10-12T13:38:58.1Z</time>
      </trkpt>
      <trkpt lat="48.20326" lon="-3.08978">
        <ele>153</ele>
        <time>2015-10-12T13:39:01.1Z</time>
      </trkpt>
      <trkpt lat="48.20325" lon="-3.08981">
        <ele>154</ele>
        <time>2015-10-12T13:39:03.1Z</time>
      </trkpt>
      <trkpt lat="48.20323" lon="-3.08985">
        <ele>154</ele>
        <time>2015-10-12T13:39:06.1Z</time>
      </trkpt>
      <trkpt lat="48.2032" lon="-3.08989">
        <ele>154</ele>
        <time>2015-10-12T13:39:09.1Z</time>
      </trkpt>
      <trkpt lat="48.20317" lon="-3.08994">
        <ele>154</ele>
        <time>2015-10-12T13:39:12.1Z</time>
      </trkpt>
      <trkpt lat="48.20316" lon="-3.08999">
        <ele>154</ele>
        <time>2015-10-12T13:39:15.1Z</time>
      </trkpt>
      <trkpt lat="48.20315" lon="-3.09003">
        <ele>154</ele>
        <time>2015-10-12T13:39:18.1Z</time>
      </trkpt>
      <trkpt lat="48.20314" lon="-3.09007">
        <ele>154</ele>
        <time>2015-10-12T13:39:20.1Z</time>
      </trkpt>
      <trkpt lat="48.20314" lon="-3.0901">
        <ele>154</ele>
        <time>2015-10-12T13:39:22.1Z</time>
      </trkpt>
      <trkpt lat="48.20312" lon="-3.09014">
        <ele>154</ele>
        <time>2015-10-12T13:39:25.1Z</time>
      </trkpt>
      <trkpt lat="48.2031" lon="-3.09015">
        <ele>154</ele>
        <time>2015-10-12T13:39:27.1Z</time>
      </trkpt>
      <trkpt lat="48.20308" lon="-3.09017">
        <ele>154</ele>
        <time>2015-10-12T13:39:29.1Z</time>
      </trkpt>
      <trkpt lat="48.20306" lon="-3.09019">
        <ele>154</ele>
        <time>2015-10-12T13:39:32.1Z</time>
      </trkpt>
      <trkpt lat="48.20304" lon="-3.09022">
        <ele>154</ele>
        <time>2015-10-12T13:39:35.1Z</time>
      </trkpt>
      <trkpt lat="48.20303" lon="-3.09026">
        <ele>155</ele>
        <time>2015-10-12T13:39:38.1Z</time>
      </trkpt>
      <trkpt lat="48.20303" lon="-3.09029">
        <ele>155</ele>
        <time>2015-10-12T13:39:40.1Z</time>
      </trkpt>
      <trkpt lat="48.20301" lon="-3.09033">
        <ele>154</ele>
        <time>2015-10-12T13:39:43.1Z</time>
      </trkpt>
      <trkpt lat="48.203" lon="-3.09036">
        <ele>154</ele>
        <time>2015-10-12T13:39:45.1Z</time>
      </trkpt>
      <trkpt lat="48.20299" lon="-3.0904">
        <ele>154</ele>
        <time>2015-10-12T13:39:48.1Z</time>
      </trkpt>
      <trkpt lat="48.20298" lon="-3.09045">
        <ele>154</ele>
        <time>2015-10-12T13:39:51.1Z</time>
      </trkpt>
      <trkpt lat="48.20297" lon="-3.09049">
        <ele>154</ele>
        <time>2015-10-12T13:39:53.1Z</time>
      </trkpt>
      <trkpt lat="48.20295" lon="-3.09052">
        <ele>154</ele>
        <time>2015-10-12T13:39:56.1Z</time>
      </trkpt>
      <trkpt lat="48.20294" lon="-3.09055">
        <ele>154</ele>
        <time>2015-10-12T13:39:58.1Z</time>
      </trkpt>
      <trkpt lat="48.20293" lon="-3.09057">
        <ele>154</ele>
        <time>2015-10-12T13:40:00.1Z</time>
      </trkpt>
      <trkpt lat="48.20291" lon="-3.09062">
        <ele>154</ele>
        <time>2015-10-12T13:40:03.1Z</time>
      </trkpt>
      <trkpt lat="48.2029" lon="-3.09063">
        <ele>154</ele>
        <time>2015-10-12T13:40:06.1Z</time>
      </trkpt>
      <trkpt lat="48.2029" lon="-3.09064">
        <ele>154</ele>
        <time>2015-10-12T13:40:08.1Z</time>
      </trkpt>
      <trkpt lat="48.2029" lon="-3.09064">
        <ele>154</ele>
        <time>2015-10-12T13:40:11.1Z</time>
      </trkpt>
      <trkpt lat="48.20289" lon="-3.09067">
        <ele>154</ele>
        <time>2015-10-12T13:40:13.1Z</time>
      </trkpt>
      <trkpt lat="48.20287" lon="-3.09071">
        <ele>154</ele>
        <time>2015-10-12T13:40:16.1Z</time>
      </trkpt>
      <trkpt lat="48.20286" lon="-3.09074">
        <ele>154</ele>
        <time>2015-10-12T13:40:18.1Z</time>
      </trkpt>
      <trkpt lat="48.20284" lon="-3.09078">
        <ele>154</ele>
        <time>2015-10-12T13:40:21.1Z</time>
      </trkpt>
      <trkpt lat="48.20282" lon="-3.09081">
        <ele>154</ele>
        <time>2015-10-12T13:40:23.1Z</time>
      </trkpt>
      <trkpt lat="48.20281" lon="-3.09084">
        <ele>154</ele>
        <time>2015-10-12T13:40:25.1Z</time>
      </trkpt>
      <trkpt lat="48.20279" lon="-3.09088">
        <ele>154</ele>
        <time>2015-10-12T13:40:28.1Z</time>
      </trkpt>
      <trkpt lat="48.20277" lon="-3.09092">
        <ele>154</ele>
        <time>2015-10-12T13:40:31.1Z</time>
      </trkpt>
      <trkpt lat="48.20277" lon="-3.09094">
        <ele>154</ele>
        <time>2015-10-12T13:40:33.1Z</time>
      </trkpt>
      <trkpt lat="48.20275" lon="-3.09098">
        <ele>154</ele>
        <time>2015-10-12T13:40:36.1Z</time>
      </trkpt>
      <trkpt lat="48.20273" lon="-3.09102">
        <ele>154</ele>
        <time>2015-10-12T13:40:38.1Z</time>
      </trkpt>
      <trkpt lat="48.20271" lon="-3.09106">
        <ele>154</ele>
        <time>2015-10-12T13:40:41.1Z</time>
      </trkpt>
      <trkpt lat="48.20269" lon="-3.0911">
        <ele>154</ele>
        <time>2015-10-12T13:40:43.1Z</time>
      </trkpt>
      <trkpt lat="48.20266" lon="-3.09116">
        <ele>154</ele>
        <time>2015-10-12T13:40:46.1Z</time>
      </trkpt>
      <trkpt lat="48.20266" lon="-3.09119">
        <ele>154</ele>
        <time>2015-10-12T13:40:48.1Z</time>
      </trkpt>
      <trkpt lat="48.20264" lon="-3.09122">
        <ele>154</ele>
        <time>2015-10-12T13:40:50.1Z</time>
      </trkpt>
      <trkpt lat="48.20263" lon="-3.09127">
        <ele>154</ele>
        <time>2015-10-12T13:40:53.1Z</time>
      </trkpt>
      <trkpt lat="48.20261" lon="-3.09134">
        <ele>154</ele>
        <time>2015-10-12T13:40:56.1Z</time>
      </trkpt>
      <trkpt lat="48.2026" lon="-3.09137">
        <ele>154</ele>
        <time>2015-10-12T13:40:59.1Z</time>
      </trkpt>
      <trkpt lat="48.20259" lon="-3.09141">
        <ele>154</ele>
        <time>2015-10-12T13:41:02.1Z</time>
      </trkpt>
      <trkpt lat="48.20258" lon="-3.09144">
        <ele>154</ele>
        <time>2015-10-12T13:41:04.1Z</time>
      </trkpt>
      <trkpt lat="48.20257" lon="-3.09149">
        <ele>154</ele>
        <time>2015-10-12T13:41:07.1Z</time>
      </trkpt>
      <trkpt lat="48.20256" lon="-3.09153">
        <ele>154</ele>
        <time>2015-10-12T13:41:10.1Z</time>
      </trkpt>
      <trkpt lat="48.20255" lon="-3.09156">
        <ele>154</ele>
        <time>2015-10-12T13:41:12.1Z</time>
      </trkpt>
      <trkpt lat="48.20254" lon="-3.0916">
        <ele>154</ele>
        <time>2015-10-12T13:41:15.1Z</time>
      </trkpt>
      <trkpt lat="48.20253" lon="-3.09162">
        <ele>154</ele>
        <time>2015-10-12T13:41:17.1Z</time>
      </trkpt>
      <trkpt lat="48.20252" lon="-3.09166">
        <ele>154</ele>
        <time>2015-10-12T13:41:20.1Z</time>
      </trkpt>
      <trkpt lat="48.2025" lon="-3.0917">
        <ele>154</ele>
        <time>2015-10-12T13:41:23.1Z</time>
      </trkpt>
      <trkpt lat="48.2025" lon="-3.09172">
        <ele>154</ele>
        <time>2015-10-12T13:41:25.1Z</time>
      </trkpt>
      <trkpt lat="48.20248" lon="-3.09175">
        <ele>155</ele>
        <time>2015-10-12T13:41:28.1Z</time>
      </trkpt>
      <trkpt lat="48.20248" lon="-3.09175">
        <ele>155</ele>
        <time>2015-10-12T13:41:30.1Z</time>
      </trkpt>
      <trkpt lat="48.20246" lon="-3.09175">
        <ele>155</ele>
        <time>2015-10-12T13:41:33.1Z</time>
      </trkpt>
      <trkpt lat="48.20246" lon="-3.09175">
        <ele>154</ele>
        <time>2015-10-12T13:41:35.1Z</time>
      </trkpt>
      <trkpt lat="48.20246" lon="-3.09177">
        <ele>154</ele>
        <time>2015-10-12T13:41:38.1Z</time>
      </trkpt>
      <trkpt lat="48.20247" lon="-3.09179">
        <ele>154</ele>
        <time>2015-10-12T13:41:41.1Z</time>
      </trkpt>
      <trkpt lat="48.20247" lon="-3.09182">
        <ele>155</ele>
        <time>2015-10-12T13:41:43.1Z</time>
      </trkpt>
      <trkpt lat="48.20246" lon="-3.09187">
        <ele>155</ele>
        <time>2015-10-12T13:41:46.1Z</time>
      </trkpt>
      <trkpt lat="48.20245" lon="-3.09189">
        <ele>155</ele>
        <time>2015-10-12T13:41:48.1Z</time>
      </trkpt>
      <trkpt lat="48.20244" lon="-3.09193">
        <ele>155</ele>
        <time>2015-10-12T13:41:50.1Z</time>
      </trkpt>
      <trkpt lat="48.20243" lon="-3.09198">
        <ele>155</ele>
        <time>2015-10-12T13:41:53.1Z</time>
      </trkpt>
      <trkpt lat="48.20243" lon="-3.09199">
        <ele>155</ele>
        <time>2015-10-12T13:41:56.1Z</time>
      </trkpt>
      <trkpt lat="48.20243" lon="-3.092">
        <ele>155</ele>
        <time>2015-10-12T13:41:58.1Z</time>
      </trkpt>
      <trkpt lat="48.20243" lon="-3.092">
        <ele>155</ele>
        <time>2015-10-12T13:42:01.1Z</time>
      </trkpt>
      <trkpt lat="48.20243" lon="-3.092">
        <ele>155</ele>
        <time>2015-10-12T13:42:04.1Z</time>
      </trkpt>
      <trkpt lat="48.20243" lon="-3.092">
        <ele>155</ele>
        <time>2015-10-12T13:42:07.1Z</time>
      </trkpt>
      <trkpt lat="48.20242" lon="-3.092">
        <ele>155</ele>
        <time>2015-10-12T13:42:10.1Z</time>
      </trkpt>
      <trkpt lat="48.2024" lon="-3.09199">
        <ele>154</ele>
        <time>2015-10-12T13:42:12.1Z</time>
      </trkpt>
      <trkpt lat="48.20238" lon="-3.09197">
        <ele>154</ele>
        <time>2015-10-12T13:42:15.1Z</time>
      </trkpt>
      <trkpt lat="48.20238" lon="-3.09197">
        <ele>154</ele>
        <time>2015-10-12T13:42:17.1Z</time>
      </trkpt>
      <trkpt lat="48.20237" lon="-3.09196">
        <ele>154</ele>
        <time>2015-10-12T13:42:20.1Z</time>
      </trkpt>
      <trkpt lat="48.20237" lon="-3.09197">
        <ele>155</ele>
        <time>2015-10-12T13:42:23.1Z</time>
      </trkpt>
      <trkpt lat="48.20237" lon="-3.09196">
        <ele>156</ele>
        <time>2015-10-12T13:42:25.1Z</time>
      </trkpt>
      <trkpt lat="48.20237" lon="-3.09196">
        <ele>156</ele>
        <time>2015-10-12T13:42:27.1Z</time>
      </trkpt>
      <trkpt lat="48.20237" lon="-3.09197">
        <ele>156</ele>
        <time>2015-10-12T13:42:30.1Z</time>
      </trkpt>
      <trkpt lat="48.20237" lon="-3.09197">
        <ele>156</ele>
        <time>2015-10-12T13:42:33.1Z</time>
      </trkpt>
      <trkpt lat="48.20237" lon="-3.09198">
        <ele>156</ele>
        <time>2015-10-12T13:42:35.1Z</time>
      </trkpt>
      <trkpt lat="48.20238" lon="-3.09199">
        <ele>156</ele>
        <time>2015-10-12T13:42:39.1Z</time>
      </trkpt>
      <trkpt lat="48.20238" lon="-3.09201">
        <ele>155</ele>
        <time>2015-10-12T13:42:41.1Z</time>
      </trkpt>
      <trkpt lat="48.20237" lon="-3.09205">
        <ele>155</ele>
        <time>2015-10-12T13:42:44.1Z</time>
      </trkpt>
      <trkpt lat="48.20236" lon="-3.09207">
        <ele>155</ele>
        <time>2015-10-12T13:42:46.1Z</time>
      </trkpt>
      <trkpt lat="48.20235" lon="-3.0921">
        <ele>155</ele>
        <time>2015-10-12T13:42:48.1Z</time>
      </trkpt>
      <trkpt lat="48.20234" lon="-3.09214">
        <ele>156</ele>
        <time>2015-10-12T13:42:50.1Z</time>
      </trkpt>
      <trkpt lat="48.20233" lon="-3.0922">
        <ele>155</ele>
        <time>2015-10-12T13:42:53.1Z</time>
      </trkpt>
      <trkpt lat="48.20232" lon="-3.09224">
        <ele>155</ele>
        <time>2015-10-12T13:42:55.1Z</time>
      </trkpt>
      <trkpt lat="48.20231" lon="-3.09228">
        <ele>155</ele>
        <time>2015-10-12T13:42:58.1Z</time>
      </trkpt>
      <trkpt lat="48.20229" lon="-3.09234">
        <ele>155</ele>
        <time>2015-10-12T13:43:01.1Z</time>
      </trkpt>
      <trkpt lat="48.20228" lon="-3.09238">
        <ele>155</ele>
        <time>2015-10-12T13:43:04.1Z</time>
      </trkpt>
      <trkpt lat="48.20227" lon="-3.09243">
        <ele>155</ele>
        <time>2015-10-12T13:43:07.1Z</time>
      </trkpt>
      <trkpt lat="48.20226" lon="-3.09247">
        <ele>155</ele>
        <time>2015-10-12T13:43:10.1Z</time>
      </trkpt>
      <trkpt lat="48.20227" lon="-3.09247">
        <ele>156</ele>
        <time>2015-10-12T13:43:13.1Z</time>
      </trkpt>
      <trkpt lat="48.20228" lon="-3.09247">
        <ele>156</ele>
        <time>2015-10-12T13:43:15.1Z</time>
      </trkpt>
      <trkpt lat="48.2023" lon="-3.09248">
        <ele>156</ele>
        <time>2015-10-12T13:43:18.1Z</time>
      </trkpt>
      <trkpt lat="48.20233" lon="-3.0925">
        <ele>156</ele>
        <time>2015-10-12T13:43:21.1Z</time>
      </trkpt>
      <trkpt lat="48.20235" lon="-3.09252">
        <ele>156</ele>
        <time>2015-10-12T13:43:23.1Z</time>
      </trkpt>
      <trkpt lat="48.20237" lon="-3.09255">
        <ele>156</ele>
        <time>2015-10-12T13:43:26.1Z</time>
      </trkpt>
      <trkpt lat="48.20238" lon="-3.09256">
        <ele>156</ele>
        <time>2015-10-12T13:43:28.1Z</time>
      </trkpt>
      <trkpt lat="48.20238" lon="-3.09257">
        <ele>156</ele>
        <time>2015-10-12T13:43:30.1Z</time>
      </trkpt>
      <trkpt lat="48.20239" lon="-3.09258">
        <ele>156</ele>
        <time>2015-10-12T13:43:33.1Z</time>
      </trkpt>
      <trkpt lat="48.2024" lon="-3.09258">
        <ele>156</ele>
        <time>2015-10-12T13:43:36.1Z</time>
      </trkpt>
      <trkpt lat="48.2024" lon="-3.09259">
        <ele>156</ele>
        <time>2015-10-12T13:43:39.1Z</time>
      </trkpt>
      <trkpt lat="48.2024" lon="-3.09259">
        <ele>156</ele>
        <time>2015-10-12T13:43:41.1Z</time>
      </trkpt>
      <trkpt lat="48.2024" lon="-3.0926">
        <ele>156</ele>
        <time>2015-10-12T13:43:44.1Z</time>
      </trkpt>
      <trkpt lat="48.2024" lon="-3.0926">
        <ele>157</ele>
        <time>2015-10-12T13:43:46.1Z</time>
      </trkpt>
      <trkpt lat="48.2024" lon="-3.0926">
        <ele>156</ele>
        <time>2015-10-12T13:43:49.1Z</time>
      </trkpt>
      <trkpt lat="48.2024" lon="-3.0926">
        <ele>156</ele>
        <time>2015-10-12T13:43:51.1Z</time>
      </trkpt>
      <trkpt lat="48.2024" lon="-3.0926">
        <ele>156</ele>
        <time>2015-10-12T13:43:53.1Z</time>
      </trkpt>
      <trkpt lat="48.2024" lon="-3.0926">
        <ele>155</ele>
        <time>2015-10-12T13:43:57.1Z</time>
      </trkpt>
      <trkpt lat="48.2024" lon="-3.0926">
        <ele>155</ele>
        <time>2015-10-12T13:43:59.1Z</time>
      </trkpt>
      <trkpt lat="48.20241" lon="-3.0926">
        <ele>155</ele>
        <time>2015-10-12T13:44:03.1Z</time>
      </trkpt>
      <trkpt lat="48.20241" lon="-3.0926">
        <ele>155</ele>
        <time>2015-10-12T13:44:05.1Z</time>
      </trkpt>
      <trkpt lat="48.20241" lon="-3.09261">
        <ele>156</ele>
        <time>2015-10-12T13:44:08.1Z</time>
      </trkpt>
      <trkpt lat="48.2024" lon="-3.09264">
        <ele>156</ele>
        <time>2015-10-12T13:44:11.1Z</time>
      </trkpt>
      <trkpt lat="48.2024" lon="-3.09266">
        <ele>156</ele>
        <time>2015-10-12T13:44:13.1Z</time>
      </trkpt>
      <trkpt lat="48.2024" lon="-3.09268">
        <ele>156</ele>
        <time>2015-10-12T13:44:15.1Z</time>
      </trkpt>
      <trkpt lat="48.20239" lon="-3.09269">
        <ele>156</ele>
        <time>2015-10-12T13:44:17.1Z</time>
      </trkpt>
      <trkpt lat="48.20239" lon="-3.09271">
        <ele>156</ele>
        <time>2015-10-12T13:44:20.1Z</time>
      </trkpt>
      <trkpt lat="48.20239" lon="-3.09272">
        <ele>156</ele>
        <time>2015-10-12T13:44:22.1Z</time>
      </trkpt>
      <trkpt lat="48.20238" lon="-3.09275">
        <ele>156</ele>
        <time>2015-10-12T13:44:25.1Z</time>
      </trkpt>
      <trkpt lat="48.20238" lon="-3.09276">
        <ele>156</ele>
        <time>2015-10-12T13:44:27.1Z</time>
      </trkpt>
      <trkpt lat="48.20237" lon="-3.09279">
        <ele>156</ele>
        <time>2015-10-12T13:44:30.1Z</time>
      </trkpt>
      <trkpt lat="48.20237" lon="-3.09281">
        <ele>156</ele>
        <time>2015-10-12T13:44:33.1Z</time>
      </trkpt>
      <trkpt lat="48.20235" lon="-3.09284">
        <ele>156</ele>
        <time>2015-10-12T13:44:36.1Z</time>
      </trkpt>
      <trkpt lat="48.20235" lon="-3.09286">
        <ele>156</ele>
        <time>2015-10-12T13:44:38.1Z</time>
      </trkpt>
      <trkpt lat="48.20235" lon="-3.09289">
        <ele>156</ele>
        <time>2015-10-12T13:44:40.1Z</time>
      </trkpt>
      <trkpt lat="48.20234" lon="-3.09293">
        <ele>156</ele>
        <time>2015-10-12T13:44:43.1Z</time>
      </trkpt>
      <trkpt lat="48.20233" lon="-3.09294">
        <ele>156</ele>
        <time>2015-10-12T13:44:45.1Z</time>
      </trkpt>
      <trkpt lat="48.20232" lon="-3.09297">
        <ele>156</ele>
        <time>2015-10-12T13:44:48.1Z</time>
      </trkpt>
      <trkpt lat="48.20232" lon="-3.093">
        <ele>156</ele>
        <time>2015-10-12T13:44:51.1Z</time>
      </trkpt>
      <trkpt lat="48.20232" lon="-3.09302">
        <ele>156</ele>
        <time>2015-10-12T13:44:53.1Z</time>
      </trkpt>
      <trkpt lat="48.20232" lon="-3.09303">
        <ele>156</ele>
        <time>2015-10-12T13:44:55.1Z</time>
      </trkpt>
      <trkpt lat="48.20232" lon="-3.09306">
        <ele>157</ele>
        <time>2015-10-12T13:44:58.1Z</time>
      </trkpt>
      <trkpt lat="48.20232" lon="-3.09306">
        <ele>157</ele>
        <time>2015-10-12T13:45:00.1Z</time>
      </trkpt>
      <trkpt lat="48.20232" lon="-3.09307">
        <ele>157</ele>
        <time>2015-10-12T13:45:03.1Z</time>
      </trkpt>
      <trkpt lat="48.20232" lon="-3.0931">
        <ele>157</ele>
        <time>2015-10-12T13:45:05.1Z</time>
      </trkpt>
      <trkpt lat="48.20232" lon="-3.09313">
        <ele>157</ele>
        <time>2015-10-12T13:45:08.1Z</time>
      </trkpt>
      <trkpt lat="48.20232" lon="-3.09316">
        <ele>157</ele>
        <time>2015-10-12T13:45:11.1Z</time>
      </trkpt>
      <trkpt lat="48.20231" lon="-3.09318">
        <ele>156</ele>
        <time>2015-10-12T13:45:14.1Z</time>
      </trkpt>
      <trkpt lat="48.2023" lon="-3.09321">
        <ele>156</ele>
        <time>2015-10-12T13:45:16.1Z</time>
      </trkpt>
      <trkpt lat="48.20229" lon="-3.09325">
        <ele>156</ele>
        <time>2015-10-12T13:45:19.1Z</time>
      </trkpt>
      <trkpt lat="48.20228" lon="-3.09328">
        <ele>156</ele>
        <time>2015-10-12T13:45:21.1Z</time>
      </trkpt>
      <trkpt lat="48.20228" lon="-3.0933">
        <ele>157</ele>
        <time>2015-10-12T13:45:23.1Z</time>
      </trkpt>
      <trkpt lat="48.20227" lon="-3.09334">
        <ele>157</ele>
        <time>2015-10-12T13:45:26.1Z</time>
      </trkpt>
      <trkpt lat="48.20227" lon="-3.09338">
        <ele>157</ele>
        <time>2015-10-12T13:45:29.1Z</time>
      </trkpt>
      <trkpt lat="48.20227" lon="-3.09343">
        <ele>156</ele>
        <time>2015-10-12T13:45:32.1Z</time>
      </trkpt>
      <trkpt lat="48.20227" lon="-3.09346">
        <ele>157</ele>
        <time>2015-10-12T13:45:35.1Z</time>
      </trkpt>
      <trkpt lat="48.20227" lon="-3.09349">
        <ele>157</ele>
        <time>2015-10-12T13:45:38.1Z</time>
      </trkpt>
      <trkpt lat="48.20225" lon="-3.09354">
        <ele>157</ele>
        <time>2015-10-12T13:45:41.1Z</time>
      </trkpt>
      <trkpt lat="48.20225" lon="-3.09356">
        <ele>157</ele>
        <time>2015-10-12T13:45:43.1Z</time>
      </trkpt>
      <trkpt lat="48.20225" lon="-3.09358">
        <ele>156</ele>
        <time>2015-10-12T13:45:46.1Z</time>
      </trkpt>
      <trkpt lat="48.20225" lon="-3.0936">
        <ele>157</ele>
        <time>2015-10-12T13:45:49.1Z</time>
      </trkpt>
      <trkpt lat="48.20225" lon="-3.09361">
        <ele>157</ele>
        <time>2015-10-12T13:45:52.1Z</time>
      </trkpt>
      <trkpt lat="48.20225" lon="-3.09364">
        <ele>157</ele>
        <time>2015-10-12T13:45:54.1Z</time>
      </trkpt>
      <trkpt lat="48.20226" lon="-3.0937">
        <ele>157</ele>
        <time>2015-10-12T13:45:57.1Z</time>
      </trkpt>
      <trkpt lat="48.20226" lon="-3.09373">
        <ele>157</ele>
        <time>2015-10-12T13:45:59.1Z</time>
      </trkpt>
      <trkpt lat="48.20226" lon="-3.09377">
        <ele>157</ele>
        <time>2015-10-12T13:46:02.1Z</time>
      </trkpt>
      <trkpt lat="48.20225" lon="-3.0938">
        <ele>157</ele>
        <time>2015-10-12T13:46:05.1Z</time>
      </trkpt>
      <trkpt lat="48.20225" lon="-3.09384">
        <ele>156</ele>
        <time>2015-10-12T13:46:08.1Z</time>
      </trkpt>
      <trkpt lat="48.20225" lon="-3.09387">
        <ele>157</ele>
        <time>2015-10-12T13:46:10.1Z</time>
      </trkpt>
      <trkpt lat="48.20224" lon="-3.0939">
        <ele>158</ele>
        <time>2015-10-12T13:46:13.1Z</time>
      </trkpt>
      <trkpt lat="48.20224" lon="-3.09391">
        <ele>159</ele>
        <time>2015-10-12T13:46:17.1Z</time>
      </trkpt>
      <trkpt lat="48.20224" lon="-3.09391">
        <ele>158</ele>
        <time>2015-10-12T13:46:20.1Z</time>
      </trkpt>
      <trkpt lat="48.20224" lon="-3.09393">
        <ele>158</ele>
        <time>2015-10-12T13:46:23.1Z</time>
      </trkpt>
      <trkpt lat="48.20224" lon="-3.09394">
        <ele>157</ele>
        <time>2015-10-12T13:46:26.1Z</time>
      </trkpt>
      <trkpt lat="48.20224" lon="-3.09394">
        <ele>157</ele>
        <time>2015-10-12T13:46:28.1Z</time>
      </trkpt>
      <trkpt lat="48.20224" lon="-3.09395">
        <ele>156</ele>
        <time>2015-10-12T13:46:31.1Z</time>
      </trkpt>
      <trkpt lat="48.20224" lon="-3.09396">
        <ele>156</ele>
        <time>2015-10-12T13:46:33.1Z</time>
      </trkpt>
      <trkpt lat="48.20224" lon="-3.09396">
        <ele>156</ele>
        <time>2015-10-12T13:46:35.1Z</time>
      </trkpt>
      <trkpt lat="48.20225" lon="-3.09399">
        <ele>156</ele>
        <time>2015-10-12T13:46:38.1Z</time>
      </trkpt>
      <trkpt lat="48.20225" lon="-3.09402">
        <ele>156</ele>
        <time>2015-10-12T13:46:41.1Z</time>
      </trkpt>
      <trkpt lat="48.20225" lon="-3.09405">
        <ele>155</ele>
        <time>2015-10-12T13:46:43.1Z</time>
      </trkpt>
      <trkpt lat="48.20225" lon="-3.09407">
        <ele>155</ele>
        <time>2015-10-12T13:46:45.1Z</time>
      </trkpt>
      <trkpt lat="48.20225" lon="-3.09409">
        <ele>156</ele>
        <time>2015-10-12T13:46:47.1Z</time>
      </trkpt>
      <trkpt lat="48.20225" lon="-3.09412">
        <ele>156</ele>
        <time>2015-10-12T13:46:50.1Z</time>
      </trkpt>
      <trkpt lat="48.20226" lon="-3.09413">
        <ele>156</ele>
        <time>2015-10-12T13:46:52.1Z</time>
      </trkpt>
      <trkpt lat="48.20227" lon="-3.09417">
        <ele>156</ele>
        <time>2015-10-12T13:46:55.1Z</time>
      </trkpt>
      <trkpt lat="48.20228" lon="-3.09421">
        <ele>156</ele>
        <time>2015-10-12T13:46:58.1Z</time>
      </trkpt>
      <trkpt lat="48.20228" lon="-3.09424">
        <ele>156</ele>
        <time>2015-10-12T13:47:00.1Z</time>
      </trkpt>
      <trkpt lat="48.20228" lon="-3.09428">
        <ele>156</ele>
        <time>2015-10-12T13:47:03.1Z</time>
      </trkpt>
      <trkpt lat="48.20228" lon="-3.0943">
        <ele>156</ele>
        <time>2015-10-12T13:47:05.1Z</time>
      </trkpt>
      <trkpt lat="48.20228" lon="-3.09433">
        <ele>156</ele>
        <time>2015-10-12T13:47:08.1Z</time>
      </trkpt>
      <trkpt lat="48.20229" lon="-3.09437">
        <ele>156</ele>
        <time>2015-10-12T13:47:11.1Z</time>
      </trkpt>
      <trkpt lat="48.2023" lon="-3.09438">
        <ele>156</ele>
        <time>2015-10-12T13:47:14.1Z</time>
      </trkpt>
      <trkpt lat="48.20231" lon="-3.0944">
        <ele>155</ele>
        <time>2015-10-12T13:47:17.1Z</time>
      </trkpt>
      <trkpt lat="48.20232" lon="-3.09443">
        <ele>156</ele>
        <time>2015-10-12T13:47:19.1Z</time>
      </trkpt>
      <trkpt lat="48.20235" lon="-3.09447">
        <ele>156</ele>
        <time>2015-10-12T13:47:22.1Z</time>
      </trkpt>
      <trkpt lat="48.20237" lon="-3.0945">
        <ele>156</ele>
        <time>2015-10-12T13:47:24.1Z</time>
      </trkpt>
      <trkpt lat="48.2024" lon="-3.09454">
        <ele>156</ele>
        <time>2015-10-12T13:47:27.1Z</time>
      </trkpt>
      <trkpt lat="48.20242" lon="-3.09455">
        <ele>156</ele>
        <time>2015-10-12T13:47:29.1Z</time>
      </trkpt>
      <trkpt lat="48.20244" lon="-3.09457">
        <ele>156</ele>
        <time>2015-10-12T13:47:32.1Z</time>
      </trkpt>
      <trkpt lat="48.20246" lon="-3.09458">
        <ele>156</ele>
        <time>2015-10-12T13:47:34.1Z</time>
      </trkpt>
      <trkpt lat="48.20249" lon="-3.0946">
        <ele>156</ele>
        <time>2015-10-12T13:47:37.1Z</time>
      </trkpt>
      <trkpt lat="48.20252" lon="-3.09461">
        <ele>157</ele>
        <time>2015-10-12T13:47:40.1Z</time>
      </trkpt>
      <trkpt lat="48.20255" lon="-3.09461">
        <ele>156</ele>
        <time>2015-10-12T13:47:43.1Z</time>
      </trkpt>
      <trkpt lat="48.20256" lon="-3.09461">
        <ele>157</ele>
        <time>2015-10-12T13:47:45.1Z</time>
      </trkpt>
      <trkpt lat="48.20259" lon="-3.09462">
        <ele>157</ele>
        <time>2015-10-12T13:47:47.1Z</time>
      </trkpt>
      <trkpt lat="48.20262" lon="-3.09461">
        <ele>157</ele>
        <time>2015-10-12T13:47:50.1Z</time>
      </trkpt>
      <trkpt lat="48.20264" lon="-3.0946">
        <ele>156</ele>
        <time>2015-10-12T13:47:53.1Z</time>
      </trkpt>
      <trkpt lat="48.20268" lon="-3.0946">
        <ele>156</ele>
        <time>2015-10-12T13:47:56.1Z</time>
      </trkpt>
      <trkpt lat="48.2027" lon="-3.0946">
        <ele>157</ele>
        <time>2015-10-12T13:47:58.1Z</time>
      </trkpt>
      <trkpt lat="48.20272" lon="-3.09461">
        <ele>157</ele>
        <time>2015-10-12T13:48:00.1Z</time>
      </trkpt>
      <trkpt lat="48.20273" lon="-3.09463">
        <ele>158</ele>
        <time>2015-10-12T13:48:02.1Z</time>
      </trkpt>
      <trkpt lat="48.20277" lon="-3.09465">
        <ele>158</ele>
        <time>2015-10-12T13:48:05.1Z</time>
      </trkpt>
      <trkpt lat="48.2028" lon="-3.09466">
        <ele>158</ele>
        <time>2015-10-12T13:48:08.1Z</time>
      </trkpt>
      <trkpt lat="48.20283" lon="-3.09467">
        <ele>157</ele>
        <time>2015-10-12T13:48:11.1Z</time>
      </trkpt>
      <trkpt lat="48.20285" lon="-3.09467">
        <ele>157</ele>
        <time>2015-10-12T13:48:13.1Z</time>
      </trkpt>
      <trkpt lat="48.20287" lon="-3.09466">
        <ele>157</ele>
        <time>2015-10-12T13:48:16.1Z</time>
      </trkpt>
      <trkpt lat="48.20289" lon="-3.09466">
        <ele>157</ele>
        <time>2015-10-12T13:48:18.1Z</time>
      </trkpt>
      <trkpt lat="48.20292" lon="-3.09466">
        <ele>157</ele>
        <time>2015-10-12T13:48:21.1Z</time>
      </trkpt>
      <trkpt lat="48.20295" lon="-3.09464">
        <ele>157</ele>
        <time>2015-10-12T13:48:24.1Z</time>
      </trkpt>
      <trkpt lat="48.20297" lon="-3.09464">
        <ele>157</ele>
        <time>2015-10-12T13:48:26.1Z</time>
      </trkpt>
      <trkpt lat="48.20298" lon="-3.09462">
        <ele>157</ele>
        <time>2015-10-12T13:48:28.1Z</time>
      </trkpt>
      <trkpt lat="48.20301" lon="-3.0946">
        <ele>157</ele>
        <time>2015-10-12T13:48:31.1Z</time>
      </trkpt>
      <trkpt lat="48.20303" lon="-3.09457">
        <ele>156</ele>
        <time>2015-10-12T13:48:34.1Z</time>
      </trkpt>
      <trkpt lat="48.20305" lon="-3.09454">
        <ele>156</ele>
        <time>2015-10-12T13:48:37.1Z</time>
      </trkpt>
      <trkpt lat="48.20306" lon="-3.09452">
        <ele>156</ele>
        <time>2015-10-12T13:48:40.1Z</time>
      </trkpt>
      <trkpt lat="48.20308" lon="-3.09452">
        <ele>156</ele>
        <time>2015-10-12T13:48:42.1Z</time>
      </trkpt>
      <trkpt lat="48.20309" lon="-3.09451">
        <ele>157</ele>
        <time>2015-10-12T13:48:45.1Z</time>
      </trkpt>
      <trkpt lat="48.2031" lon="-3.09451">
        <ele>157</ele>
        <time>2015-10-12T13:48:48.1Z</time>
      </trkpt>
      <trkpt lat="48.20313" lon="-3.09449">
        <ele>157</ele>
        <time>2015-10-12T13:48:50.1Z</time>
      </trkpt>
      <trkpt lat="48.20316" lon="-3.09448">
        <ele>157</ele>
        <time>2015-10-12T13:48:53.1Z</time>
      </trkpt>
      <trkpt lat="48.2032" lon="-3.09447">
        <ele>157</ele>
        <time>2015-10-12T13:48:56.1Z</time>
      </trkpt>
      <trkpt lat="48.20322" lon="-3.09449">
        <ele>157</ele>
        <time>2015-10-12T13:48:58.1Z</time>
      </trkpt>
      <trkpt lat="48.20324" lon="-3.0945">
        <ele>157</ele>
        <time>2015-10-12T13:49:00.1Z</time>
      </trkpt>
      <trkpt lat="48.20327" lon="-3.09451">
        <ele>157</ele>
        <time>2015-10-12T13:49:03.1Z</time>
      </trkpt>
      <trkpt lat="48.2033" lon="-3.09451">
        <ele>157</ele>
        <time>2015-10-12T13:49:06.1Z</time>
      </trkpt>
      <trkpt lat="48.20334" lon="-3.0945">
        <ele>157</ele>
        <time>2015-10-12T13:49:09.1Z</time>
      </trkpt>
      <trkpt lat="48.20336" lon="-3.09449">
        <ele>156</ele>
        <time>2015-10-12T13:49:11.1Z</time>
      </trkpt>
      <trkpt lat="48.20339" lon="-3.09447">
        <ele>157</ele>
        <time>2015-10-12T13:49:14.1Z</time>
      </trkpt>
      <trkpt lat="48.20342" lon="-3.09445">
        <ele>156</ele>
        <time>2015-10-12T13:49:17.1Z</time>
      </trkpt>
      <trkpt lat="48.20343" lon="-3.09444">
        <ele>156</ele>
        <time>2015-10-12T13:49:19.1Z</time>
      </trkpt>
      <trkpt lat="48.20347" lon="-3.09441">
        <ele>156</ele>
        <time>2015-10-12T13:49:22.1Z</time>
      </trkpt>
      <trkpt lat="48.20349" lon="-3.09439">
        <ele>156</ele>
        <time>2015-10-12T13:49:25.1Z</time>
      </trkpt>
      <trkpt lat="48.20351" lon="-3.09438">
        <ele>156</ele>
        <time>2015-10-12T13:49:27.1Z</time>
      </trkpt>
      <trkpt lat="48.20353" lon="-3.09436">
        <ele>156</ele>
        <time>2015-10-12T13:49:30.1Z</time>
      </trkpt>
      <trkpt lat="48.20353" lon="-3.09436">
        <ele>157</ele>
        <time>2015-10-12T13:49:32.1Z</time>
      </trkpt>
      <trkpt lat="48.20356" lon="-3.09433">
        <ele>157</ele>
        <time>2015-10-12T13:49:35.1Z</time>
      </trkpt>
      <trkpt lat="48.20359" lon="-3.0943">
        <ele>157</ele>
        <time>2015-10-12T13:49:38.1Z</time>
      </trkpt>
      <trkpt lat="48.20361" lon="-3.09428">
        <ele>157</ele>
        <time>2015-10-12T13:49:40.1Z</time>
      </trkpt>
      <trkpt lat="48.20364" lon="-3.09427">
        <ele>157</ele>
        <time>2015-10-12T13:49:43.1Z</time>
      </trkpt>
      <trkpt lat="48.20367" lon="-3.09426">
        <ele>156</ele>
        <time>2015-10-12T13:49:46.1Z</time>
      </trkpt>
      <trkpt lat="48.20369" lon="-3.09425">
        <ele>156</ele>
        <time>2015-10-12T13:49:48.1Z</time>
      </trkpt>
      <trkpt lat="48.20372" lon="-3.09423">
        <ele>156</ele>
        <time>2015-10-12T13:49:51.1Z</time>
      </trkpt>
      <trkpt lat="48.20375" lon="-3.09422">
        <ele>156</ele>
        <time>2015-10-12T13:49:53.1Z</time>
      </trkpt>
      <trkpt lat="48.20378" lon="-3.09422">
        <ele>156</ele>
        <time>2015-10-12T13:49:56.1Z</time>
      </trkpt>
      <trkpt lat="48.2038" lon="-3.09422">
        <ele>157</ele>
        <time>2015-10-12T13:49:58.1Z</time>
      </trkpt>
      <trkpt lat="48.20383" lon="-3.09422">
        <ele>157</ele>
        <time>2015-10-12T13:50:01.1Z</time>
      </trkpt>
      <trkpt lat="48.20387" lon="-3.09422">
        <ele>157</ele>
        <time>2015-10-12T13:50:04.1Z</time>
      </trkpt>
      <trkpt lat="48.2039" lon="-3.09424">
        <ele>157</ele>
        <time>2015-10-12T13:50:07.1Z</time>
      </trkpt>
      <trkpt lat="48.20393" lon="-3.09424">
        <ele>157</ele>
        <time>2015-10-12T13:50:09.1Z</time>
      </trkpt>
      <trkpt lat="48.20396" lon="-3.09424">
        <ele>156</ele>
        <time>2015-10-12T13:50:12.1Z</time>
      </trkpt>
      <trkpt lat="48.20398" lon="-3.09424">
        <ele>157</ele>
        <time>2015-10-12T13:50:14.1Z</time>
      </trkpt>
      <trkpt lat="48.20401" lon="-3.09424">
        <ele>156</ele>
        <time>2015-10-12T13:50:17.1Z</time>
      </trkpt>
      <trkpt lat="48.20403" lon="-3.09424">
        <ele>156</ele>
        <time>2015-10-12T13:50:19.1Z</time>
      </trkpt>
      <trkpt lat="48.20406" lon="-3.09424">
        <ele>156</ele>
        <time>2015-10-12T13:50:22.1Z</time>
      </trkpt>
      <trkpt lat="48.20409" lon="-3.09424">
        <ele>156</ele>
        <time>2015-10-12T13:50:24.1Z</time>
      </trkpt>
      <trkpt lat="48.20412" lon="-3.09425">
        <ele>157</ele>
        <time>2015-10-12T13:50:27.1Z</time>
      </trkpt>
      <trkpt lat="48.20415" lon="-3.09425">
        <ele>157</ele>
        <time>2015-10-12T13:50:30.1Z</time>
      </trkpt>
      <trkpt lat="48.20418" lon="-3.09425">
        <ele>157</ele>
        <time>2015-10-12T13:50:33.1Z</time>
      </trkpt>
      <trkpt lat="48.20421" lon="-3.09425">
        <ele>157</ele>
        <time>2015-10-12T13:50:36.1Z</time>
      </trkpt>
      <trkpt lat="48.20423" lon="-3.09425">
        <ele>157</ele>
        <time>2015-10-12T13:50:38.1Z</time>
      </trkpt>
      <trkpt lat="48.20425" lon="-3.09425">
        <ele>157</ele>
        <time>2015-10-12T13:50:40.1Z</time>
      </trkpt>
      <trkpt lat="48.20427" lon="-3.09425">
        <ele>157</ele>
        <time>2015-10-12T13:50:43.1Z</time>
      </trkpt>
      <trkpt lat="48.2043" lon="-3.09425">
        <ele>157</ele>
        <time>2015-10-12T13:50:46.1Z</time>
      </trkpt>
      <trkpt lat="48.20432" lon="-3.09426">
        <ele>158</ele>
        <time>2015-10-12T13:50:48.1Z</time>
      </trkpt>
      <trkpt lat="48.20434" lon="-3.09427">
        <ele>158</ele>
        <time>2015-10-12T13:50:51.1Z</time>
      </trkpt>
      <trkpt lat="48.20436" lon="-3.09429">
        <ele>158</ele>
        <time>2015-10-12T13:50:54.1Z</time>
      </trkpt>
      <trkpt lat="48.20438" lon="-3.0943">
        <ele>158</ele>
        <time>2015-10-12T13:50:56.1Z</time>
      </trkpt>
      <trkpt lat="48.2044" lon="-3.09431">
        <ele>157</ele>
        <time>2015-10-12T13:50:59.1Z</time>
      </trkpt>
      <trkpt lat="48.20442" lon="-3.09432">
        <ele>157</ele>
        <time>2015-10-12T13:51:02.1Z</time>
      </trkpt>
      <trkpt lat="48.20444" lon="-3.09433">
        <ele>158</ele>
        <time>2015-10-12T13:51:04.1Z</time>
      </trkpt>
      <trkpt lat="48.20447" lon="-3.09433">
        <ele>158</ele>
        <time>2015-10-12T13:51:07.1Z</time>
      </trkpt>
      <trkpt lat="48.20449" lon="-3.09433">
        <ele>158</ele>
        <time>2015-10-12T13:51:09.1Z</time>
      </trkpt>
      <trkpt lat="48.2045" lon="-3.09433">
        <ele>158</ele>
        <time>2015-10-12T13:51:11.1Z</time>
      </trkpt>
      <trkpt lat="48.20452" lon="-3.09434">
        <ele>158</ele>
        <time>2015-10-12T13:51:14.1Z</time>
      </trkpt>
      <trkpt lat="48.20454" lon="-3.09435">
        <ele>158</ele>
        <time>2015-10-12T13:51:17.1Z</time>
      </trkpt>
      <trkpt lat="48.20455" lon="-3.09435">
        <ele>158</ele>
        <time>2015-10-12T13:51:19.1Z</time>
      </trkpt>
      <trkpt lat="48.20458" lon="-3.09436">
        <ele>158</ele>
        <time>2015-10-12T13:51:22.1Z</time>
      </trkpt>
      <trkpt lat="48.20459" lon="-3.09437">
        <ele>159</ele>
        <time>2015-10-12T13:51:24.1Z</time>
      </trkpt>
      <trkpt lat="48.20461" lon="-3.09439">
        <ele>159</ele>
        <time>2015-10-12T13:51:26.1Z</time>
      </trkpt>
      <trkpt lat="48.20463" lon="-3.0944">
        <ele>159</ele>
        <time>2015-10-12T13:51:28.1Z</time>
      </trkpt>
      <trkpt lat="48.20465" lon="-3.09442">
        <ele>159</ele>
        <time>2015-10-12T13:51:31.1Z</time>
      </trkpt>
      <trkpt lat="48.20468" lon="-3.09443">
        <ele>159</ele>
        <time>2015-10-12T13:51:34.1Z</time>
      </trkpt>
      <trkpt lat="48.2047" lon="-3.09444">
        <ele>159</ele>
        <time>2015-10-12T13:51:37.1Z</time>
      </trkpt>
      <trkpt lat="48.20472" lon="-3.09445">
        <ele>159</ele>
        <time>2015-10-12T13:51:39.1Z</time>
      </trkpt>
      <trkpt lat="48.20474" lon="-3.09447">
        <ele>159</ele>
        <time>2015-10-12T13:51:42.1Z</time>
      </trkpt>
      <trkpt lat="48.20475" lon="-3.09448">
        <ele>159</ele>
        <time>2015-10-12T13:51:44.1Z</time>
      </trkpt>
      <trkpt lat="48.20478" lon="-3.09449">
        <ele>159</ele>
        <time>2015-10-12T13:51:47.1Z</time>
      </trkpt>
      <trkpt lat="48.2048" lon="-3.0945">
        <ele>159</ele>
        <time>2015-10-12T13:51:49.1Z</time>
      </trkpt>
      <trkpt lat="48.20482" lon="-3.0945">
        <ele>158</ele>
        <time>2015-10-12T13:51:52.1Z</time>
      </trkpt>
      <trkpt lat="48.20483" lon="-3.09451">
        <ele>159</ele>
        <time>2015-10-12T13:51:54.1Z</time>
      </trkpt>
      <trkpt lat="48.20483" lon="-3.0945">
        <ele>159</ele>
        <time>2015-10-12T13:51:57.1Z</time>
      </trkpt>
      <trkpt lat="48.20484" lon="-3.0945">
        <ele>159</ele>
        <time>2015-10-12T13:51:59.1Z</time>
      </trkpt>
      <trkpt lat="48.20486" lon="-3.09452">
        <ele>159</ele>
        <time>2015-10-12T13:52:02.1Z</time>
      </trkpt>
      <trkpt lat="48.20487" lon="-3.09453">
        <ele>159</ele>
        <time>2015-10-12T13:52:04.1Z</time>
      </trkpt>
      <trkpt lat="48.2049" lon="-3.09454">
        <ele>159</ele>
        <time>2015-10-12T13:52:07.1Z</time>
      </trkpt>
      <trkpt lat="48.20492" lon="-3.09455">
        <ele>159</ele>
        <time>2015-10-12T13:52:10.1Z</time>
      </trkpt>
      <trkpt lat="48.20493" lon="-3.09457">
        <ele>159</ele>
        <time>2015-10-12T13:52:12.1Z</time>
      </trkpt>
      <trkpt lat="48.20495" lon="-3.09457">
        <ele>159</ele>
        <time>2015-10-12T13:52:14.1Z</time>
      </trkpt>
      <trkpt lat="48.20496" lon="-3.09456">
        <ele>159</ele>
        <time>2015-10-12T13:52:16.1Z</time>
      </trkpt>
      <trkpt lat="48.20499" lon="-3.09457">
        <ele>159</ele>
        <time>2015-10-12T13:52:19.1Z</time>
      </trkpt>
      <trkpt lat="48.20502" lon="-3.09459">
        <ele>159</ele>
        <time>2015-10-12T13:52:22.1Z</time>
      </trkpt>
      <trkpt lat="48.20506" lon="-3.09462">
        <ele>160</ele>
        <time>2015-10-12T13:52:25.1Z</time>
      </trkpt>
      <trkpt lat="48.20509" lon="-3.09464">
        <ele>160</ele>
        <time>2015-10-12T13:52:28.1Z</time>
      </trkpt>
      <trkpt lat="48.20512" lon="-3.09467">
        <ele>160</ele>
        <time>2015-10-12T13:52:31.1Z</time>
      </trkpt>
      <trkpt lat="48.20515" lon="-3.09468">
        <ele>160</ele>
        <time>2015-10-12T13:52:34.1Z</time>
      </trkpt>
      <trkpt lat="48.20518" lon="-3.09471">
        <ele>160</ele>
        <time>2015-10-12T13:52:37.1Z</time>
      </trkpt>
      <trkpt lat="48.20521" lon="-3.09473">
        <ele>160</ele>
        <time>2015-10-12T13:52:39.1Z</time>
      </trkpt>
      <trkpt lat="48.20524" lon="-3.09475">
        <ele>160</ele>
        <time>2015-10-12T13:52:42.1Z</time>
      </trkpt>
      <trkpt lat="48.20525" lon="-3.09476">
        <ele>160</ele>
        <time>2015-10-12T13:52:45.1Z</time>
      </trkpt>
      <trkpt lat="48.20526" lon="-3.09476">
        <ele>160</ele>
        <time>2015-10-12T13:52:47.1Z</time>
      </trkpt>
      <trkpt lat="48.20528" lon="-3.09477">
        <ele>160</ele>
        <time>2015-10-12T13:52:49.1Z</time>
      </trkpt>
      <trkpt lat="48.20531" lon="-3.0948">
        <ele>160</ele>
        <time>2015-10-12T13:52:52.1Z</time>
      </trkpt>
      <trkpt lat="48.20534" lon="-3.09482">
        <ele>160</ele>
        <time>2015-10-12T13:52:54.1Z</time>
      </trkpt>
      <trkpt lat="48.20536" lon="-3.09487">
        <ele>161</ele>
        <time>2015-10-12T13:52:57.1Z</time>
      </trkpt>
      <trkpt lat="48.20538" lon="-3.09488">
        <ele>160</ele>
        <time>2015-10-12T13:52:59.1Z</time>
      </trkpt>
      <trkpt lat="48.20541" lon="-3.09489">
        <ele>160</ele>
        <time>2015-10-12T13:53:02.1Z</time>
      </trkpt>
      <trkpt lat="48.20544" lon="-3.0949">
        <ele>160</ele>
        <time>2015-10-12T13:53:05.1Z</time>
      </trkpt>
      <trkpt lat="48.20546" lon="-3.09493">
        <ele>160</ele>
        <time>2015-10-12T13:53:08.1Z</time>
      </trkpt>
      <trkpt lat="48.20548" lon="-3.09496">
        <ele>161</ele>
        <time>2015-10-12T13:53:11.1Z</time>
      </trkpt>
      <trkpt lat="48.2055" lon="-3.09499">
        <ele>161</ele>
        <time>2015-10-12T13:53:14.1Z</time>
      </trkpt>
      <trkpt lat="48.20552" lon="-3.09502">
        <ele>161</ele>
        <time>2015-10-12T13:53:17.1Z</time>
      </trkpt>
      <trkpt lat="48.20554" lon="-3.09505">
        <ele>161</ele>
        <time>2015-10-12T13:53:20.1Z</time>
      </trkpt>
      <trkpt lat="48.20555" lon="-3.09507">
        <ele>161</ele>
        <time>2015-10-12T13:53:22.1Z</time>
      </trkpt>
      <trkpt lat="48.20557" lon="-3.09509">
        <ele>160</ele>
        <time>2015-10-12T13:53:24.1Z</time>
      </trkpt>
      <trkpt lat="48.20559" lon="-3.09512">
        <ele>160</ele>
        <time>2015-10-12T13:53:27.1Z</time>
      </trkpt>
      <trkpt lat="48.20561" lon="-3.09516">
        <ele>160</ele>
        <time>2015-10-12T13:53:30.1Z</time>
      </trkpt>
      <trkpt lat="48.20563" lon="-3.09519">
        <ele>161</ele>
        <time>2015-10-12T13:53:33.1Z</time>
      </trkpt>
      <trkpt lat="48.20564" lon="-3.09522">
        <ele>161</ele>
        <time>2015-10-12T13:53:36.1Z</time>
      </trkpt>
      <trkpt lat="48.20565" lon="-3.09524">
        <ele>161</ele>
        <time>2015-10-12T13:53:39.1Z</time>
      </trkpt>
      <trkpt lat="48.20566" lon="-3.09525">
        <ele>161</ele>
        <time>2015-10-12T13:53:41.1Z</time>
      </trkpt>
      <trkpt lat="48.20567" lon="-3.09528">
        <ele>161</ele>
        <time>2015-10-12T13:53:44.1Z</time>
      </trkpt>
      <trkpt lat="48.20568" lon="-3.0953">
        <ele>161</ele>
        <time>2015-10-12T13:53:47.1Z</time>
      </trkpt>
      <trkpt lat="48.20568" lon="-3.09531">
        <ele>161</ele>
        <time>2015-10-12T13:53:49.1Z</time>
      </trkpt>
      <trkpt lat="48.20569" lon="-3.09532">
        <ele>161</ele>
        <time>2015-10-12T13:53:52.1Z</time>
      </trkpt>
      <trkpt lat="48.20569" lon="-3.09532">
        <ele>161</ele>
        <time>2015-10-12T13:53:54.1Z</time>
      </trkpt>
      <trkpt lat="48.2057" lon="-3.09532">
        <ele>161</ele>
        <time>2015-10-12T13:53:57.1Z</time>
      </trkpt>
      <trkpt lat="48.2057" lon="-3.09535">
        <ele>161</ele>
        <time>2015-10-12T13:54:00.1Z</time>
      </trkpt>
      <trkpt lat="48.20571" lon="-3.09537">
        <ele>161</ele>
        <time>2015-10-12T13:54:02.1Z</time>
      </trkpt>
      <trkpt lat="48.20572" lon="-3.09541">
        <ele>161</ele>
        <time>2015-10-12T13:54:05.1Z</time>
      </trkpt>
      <trkpt lat="48.20573" lon="-3.09544">
        <ele>161</ele>
        <time>2015-10-12T13:54:08.1Z</time>
      </trkpt>
      <trkpt lat="48.20573" lon="-3.09546">
        <ele>160</ele>
        <time>2015-10-12T13:54:10.1Z</time>
      </trkpt>
      <trkpt lat="48.20572" lon="-3.09547">
        <ele>160</ele>
        <time>2015-10-12T13:54:12.1Z</time>
      </trkpt>
      <trkpt lat="48.2057" lon="-3.0955">
        <ele>160</ele>
        <time>2015-10-12T13:54:15.1Z</time>
      </trkpt>
      <trkpt lat="48.2057" lon="-3.09552">
        <ele>159</ele>
        <time>2015-10-12T13:54:17.1Z</time>
      </trkpt>
      <trkpt lat="48.2057" lon="-3.09554">
        <ele>160</ele>
        <time>2015-10-12T13:54:20.1Z</time>
      </trkpt>
      <trkpt lat="48.2057" lon="-3.09555">
        <ele>160</ele>
        <time>2015-10-12T13:54:23.1Z</time>
      </trkpt>
      <trkpt lat="48.2057" lon="-3.09555">
        <ele>160</ele>
        <time>2015-10-12T13:54:25.1Z</time>
      </trkpt>
      <trkpt lat="48.20569" lon="-3.09556">
        <ele>159</ele>
        <time>2015-10-12T13:54:28.1Z</time>
      </trkpt>
      <trkpt lat="48.20568" lon="-3.09556">
        <ele>160</ele>
        <time>2015-10-12T13:54:30.1Z</time>
      </trkpt>
      <trkpt lat="48.20568" lon="-3.09556">
        <ele>161</ele>
        <time>2015-10-12T13:54:33.1Z</time>
      </trkpt>
      <trkpt lat="48.20568" lon="-3.09557">
        <ele>161</ele>
        <time>2015-10-12T13:54:35.1Z</time>
      </trkpt>
      <trkpt lat="48.20568" lon="-3.09557">
        <ele>162</ele>
        <time>2015-10-12T13:54:37.1Z</time>
      </trkpt>
      <trkpt lat="48.20567" lon="-3.09557">
        <ele>162</ele>
        <time>2015-10-12T13:54:40.1Z</time>
      </trkpt>
      <trkpt lat="48.20567" lon="-3.09557">
        <ele>162</ele>
        <time>2015-10-12T13:54:43.1Z</time>
      </trkpt>
      <trkpt lat="48.20567" lon="-3.09557">
        <ele>162</ele>
        <time>2015-10-12T13:54:45.1Z</time>
      </trkpt>
      <trkpt lat="48.20567" lon="-3.09558">
        <ele>162</ele>
        <time>2015-10-12T13:54:48.1Z</time>
      </trkpt>
      <trkpt lat="48.20566" lon="-3.09558">
        <ele>162</ele>
        <time>2015-10-12T13:54:50.1Z</time>
      </trkpt>
      <trkpt lat="48.20567" lon="-3.09558">
        <ele>162</ele>
        <time>2015-10-12T13:54:52.1Z</time>
      </trkpt>
      <trkpt lat="48.20567" lon="-3.09558">
        <ele>162</ele>
        <time>2015-10-12T13:54:58.1Z</time>
      </trkpt>
      <trkpt lat="48.20567" lon="-3.09558">
        <ele>161</ele>
        <time>2015-10-12T13:55:06.1Z</time>
      </trkpt>
      <trkpt lat="48.20566" lon="-3.09557">
        <ele>161</ele>
        <time>2015-10-12T13:55:09.1Z</time>
      </trkpt>
      <trkpt lat="48.20566" lon="-3.09556">
        <ele>161</ele>
        <time>2015-10-12T13:55:12.1Z</time>
      </trkpt>
      <trkpt lat="48.20566" lon="-3.09555">
        <ele>161</ele>
        <time>2015-10-12T13:55:14.1Z</time>
      </trkpt>
      <trkpt lat="48.20565" lon="-3.09554">
        <ele>161</ele>
        <time>2015-10-12T13:55:17.1Z</time>
      </trkpt>
      <trkpt lat="48.20564" lon="-3.09554">
        <ele>161</ele>
        <time>2015-10-12T13:55:20.1Z</time>
      </trkpt>
      <trkpt lat="48.20564" lon="-3.09553">
        <ele>161</ele>
        <time>2015-10-12T13:55:22.1Z</time>
      </trkpt>
      <trkpt lat="48.20564" lon="-3.09553">
        <ele>161</ele>
        <time>2015-10-12T13:55:24.1Z</time>
      </trkpt>
      <trkpt lat="48.20564" lon="-3.09552">
        <ele>161</ele>
        <time>2015-10-12T13:55:27.1Z</time>
      </trkpt>
      <trkpt lat="48.20565" lon="-3.09552">
        <ele>161</ele>
        <time>2015-10-12T13:55:30.1Z</time>
      </trkpt>
      <trkpt lat="48.20565" lon="-3.09552">
        <ele>161</ele>
        <time>2015-10-12T13:55:33.1Z</time>
      </trkpt>
      <trkpt lat="48.20565" lon="-3.09552">
        <ele>161</ele>
        <time>2015-10-12T13:55:36.1Z</time>
      </trkpt>
      <trkpt lat="48.20565" lon="-3.09553">
        <ele>161</ele>
        <time>2015-10-12T13:55:38.1Z</time>
      </trkpt>
      <trkpt lat="48.20566" lon="-3.09554">
        <ele>160</ele>
        <time>2015-10-12T13:55:41.1Z</time>
      </trkpt>
      <trkpt lat="48.20566" lon="-3.09555">
        <ele>160</ele>
        <time>2015-10-12T13:55:44.1Z</time>
      </trkpt>
      <trkpt lat="48.20567" lon="-3.09556">
        <ele>160</ele>
        <time>2015-10-12T13:55:46.1Z</time>
      </trkpt>
      <trkpt lat="48.20569" lon="-3.09557">
        <ele>160</ele>
        <time>2015-10-12T13:55:48.1Z</time>
      </trkpt>
      <trkpt lat="48.20573" lon="-3.09559">
        <ele>161</ele>
        <time>2015-10-12T13:55:51.1Z</time>
      </trkpt>
      <trkpt lat="48.20575" lon="-3.09561">
        <ele>161</ele>
        <time>2015-10-12T13:55:54.1Z</time>
      </trkpt>
      <trkpt lat="48.20576" lon="-3.09563">
        <ele>161</ele>
        <time>2015-10-12T13:55:56.1Z</time>
      </trkpt>
      <trkpt lat="48.20578" lon="-3.09565">
        <ele>161</ele>
        <time>2015-10-12T13:55:59.1Z</time>
      </trkpt>
      <trkpt lat="48.2058" lon="-3.09568">
        <ele>161</ele>
        <time>2015-10-12T13:56:02.1Z</time>
      </trkpt>
      <trkpt lat="48.20581" lon="-3.0957">
        <ele>161</ele>
        <time>2015-10-12T13:56:04.1Z</time>
      </trkpt>
      <trkpt lat="48.20581" lon="-3.09572">
        <ele>161</ele>
        <time>2015-10-12T13:56:06.1Z</time>
      </trkpt>
      <trkpt lat="48.20582" lon="-3.09575">
        <ele>161</ele>
        <time>2015-10-12T13:56:09.1Z</time>
      </trkpt>
      <trkpt lat="48.20583" lon="-3.09575">
        <ele>160</ele>
        <time>2015-10-12T13:56:12.1Z</time>
      </trkpt>
      <trkpt lat="48.20583" lon="-3.09575">
        <ele>160</ele>
        <time>2015-10-12T13:56:14.1Z</time>
      </trkpt>
      <trkpt lat="48.20583" lon="-3.09575">
        <ele>160</ele>
        <time>2015-10-12T13:56:17.1Z</time>
      </trkpt>
      <trkpt lat="48.20583" lon="-3.09576">
        <ele>160</ele>
        <time>2015-10-12T13:56:19.1Z</time>
      </trkpt>
      <trkpt lat="48.20583" lon="-3.09578">
        <ele>161</ele>
        <time>2015-10-12T13:56:22.1Z</time>
      </trkpt>
      <trkpt lat="48.20583" lon="-3.09578">
        <ele>160</ele>
        <time>2015-10-12T13:56:25.1Z</time>
      </trkpt>
      <trkpt lat="48.20583" lon="-3.09578">
        <ele>160</ele>
        <time>2015-10-12T13:56:28.1Z</time>
      </trkpt>
      <trkpt lat="48.20584" lon="-3.09577">
        <ele>159</ele>
        <time>2015-10-12T13:56:31.1Z</time>
      </trkpt>
      <trkpt lat="48.20584" lon="-3.09576">
        <ele>160</ele>
        <time>2015-10-12T13:56:34.1Z</time>
      </trkpt>
      <trkpt lat="48.20585" lon="-3.09575">
        <ele>160</ele>
        <time>2015-10-12T13:56:37.1Z</time>
      </trkpt>
      <trkpt lat="48.20586" lon="-3.09574">
        <ele>160</ele>
        <time>2015-10-12T13:56:39.1Z</time>
      </trkpt>
      <trkpt lat="48.20586" lon="-3.09573">
        <ele>160</ele>
        <time>2015-10-12T13:56:41.1Z</time>
      </trkpt>
      <trkpt lat="48.20587" lon="-3.09572">
        <ele>160</ele>
        <time>2015-10-12T13:56:44.1Z</time>
      </trkpt>
      <trkpt lat="48.20587" lon="-3.09571">
        <ele>160</ele>
        <time>2015-10-12T13:56:46.1Z</time>
      </trkpt>
      <trkpt lat="48.20587" lon="-3.09572">
        <ele>160</ele>
        <time>2015-10-12T13:56:49.1Z</time>
      </trkpt>
      <trkpt lat="48.20588" lon="-3.09571">
        <ele>160</ele>
        <time>2015-10-12T13:56:51.1Z</time>
      </trkpt>
      <trkpt lat="48.20588" lon="-3.09572">
        <ele>160</ele>
        <time>2015-10-12T13:56:53.1Z</time>
      </trkpt>
      <trkpt lat="48.20589" lon="-3.09575">
        <ele>160</ele>
        <time>2015-10-12T13:56:56.1Z</time>
      </trkpt>
      <trkpt lat="48.2059" lon="-3.09576">
        <ele>160</ele>
        <time>2015-10-12T13:56:58.1Z</time>
      </trkpt>
      <trkpt lat="48.2059" lon="-3.09576">
        <ele>160</ele>
        <time>2015-10-12T13:57:01.1Z</time>
      </trkpt>
      <trkpt lat="48.2059" lon="-3.09577">
        <ele>160</ele>
        <time>2015-10-12T13:57:04.1Z</time>
      </trkpt>
      <trkpt lat="48.20589" lon="-3.09578">
        <ele>160</ele>
        <time>2015-10-12T13:57:06.1Z</time>
      </trkpt>
      <trkpt lat="48.2059" lon="-3.09579">
        <ele>160</ele>
        <time>2015-10-12T13:57:08.1Z</time>
      </trkpt>
      <trkpt lat="48.20592" lon="-3.0958">
        <ele>160</ele>
        <time>2015-10-12T13:57:11.1Z</time>
      </trkpt>
      <trkpt lat="48.20594" lon="-3.09581">
        <ele>160</ele>
        <time>2015-10-12T13:57:14.1Z</time>
      </trkpt>
      <trkpt lat="48.20595" lon="-3.09581">
        <ele>159</ele>
        <time>2015-10-12T13:57:17.1Z</time>
      </trkpt>
      <trkpt lat="48.20594" lon="-3.09581">
        <ele>159</ele>
        <time>2015-10-12T13:57:19.1Z</time>
      </trkpt>
      <trkpt lat="48.20595" lon="-3.09582">
        <ele>159</ele>
        <time>2015-10-12T13:57:21.1Z</time>
      </trkpt>
      <trkpt lat="48.20595" lon="-3.09581">
        <ele>160</ele>
        <time>2015-10-12T13:57:24.1Z</time>
      </trkpt>
      <trkpt lat="48.20596" lon="-3.09582">
        <ele>160</ele>
        <time>2015-10-12T13:57:27.1Z</time>
      </trkpt>
      <trkpt lat="48.20597" lon="-3.09581">
        <ele>160</ele>
        <time>2015-10-12T13:57:29.1Z</time>
      </trkpt>
      <trkpt lat="48.20598" lon="-3.0958">
        <ele>160</ele>
        <time>2015-10-12T13:57:32.1Z</time>
      </trkpt>
      <trkpt lat="48.20598" lon="-3.09582">
        <ele>160</ele>
        <time>2015-10-12T13:57:35.1Z</time>
      </trkpt>
      <trkpt lat="48.20599" lon="-3.09583">
        <ele>160</ele>
        <time>2015-10-12T13:57:37.1Z</time>
      </trkpt>
      <trkpt lat="48.20599" lon="-3.09585">
        <ele>160</ele>
        <time>2015-10-12T13:57:40.1Z</time>
      </trkpt>
      <trkpt lat="48.20599" lon="-3.09585">
        <ele>160</ele>
        <time>2015-10-12T13:57:42.1Z</time>
      </trkpt>
      <trkpt lat="48.206" lon="-3.09585">
        <ele>159</ele>
        <time>2015-10-12T13:57:45.1Z</time>
      </trkpt>
      <trkpt lat="48.20601" lon="-3.09585">
        <ele>160</ele>
        <time>2015-10-12T13:57:47.1Z</time>
      </trkpt>
      <trkpt lat="48.20602" lon="-3.09586">
        <ele>160</ele>
        <time>2015-10-12T13:57:49.1Z</time>
      </trkpt>
      <trkpt lat="48.20604" lon="-3.09588">
        <ele>160</ele>
        <time>2015-10-12T13:57:52.1Z</time>
      </trkpt>
      <trkpt lat="48.20604" lon="-3.09592">
        <ele>161</ele>
        <time>2015-10-12T13:57:55.1Z</time>
      </trkpt>
      <trkpt lat="48.20605" lon="-3.09594">
        <ele>161</ele>
        <time>2015-10-12T13:57:57.1Z</time>
      </trkpt>
      <trkpt lat="48.20606" lon="-3.09595">
        <ele>161</ele>
        <time>2015-10-12T13:57:59.1Z</time>
      </trkpt>
      <trkpt lat="48.20609" lon="-3.09598">
        <ele>161</ele>
        <time>2015-10-12T13:58:02.1Z</time>
      </trkpt>
      <trkpt lat="48.2061" lon="-3.096">
        <ele>161</ele>
        <time>2015-10-12T13:58:04.1Z</time>
      </trkpt>
      <trkpt lat="48.20611" lon="-3.09602">
        <ele>161</ele>
        <time>2015-10-12T13:58:06.1Z</time>
      </trkpt>
      <trkpt lat="48.20613" lon="-3.09606">
        <ele>161</ele>
        <time>2015-10-12T13:58:09.1Z</time>
      </trkpt>
      <trkpt lat="48.20615" lon="-3.09609">
        <ele>161</ele>
        <time>2015-10-12T13:58:12.1Z</time>
      </trkpt>
      <trkpt lat="48.20617" lon="-3.09612">
        <ele>161</ele>
        <time>2015-10-12T13:58:15.1Z</time>
      </trkpt>
      <trkpt lat="48.20619" lon="-3.09616">
        <ele>161</ele>
        <time>2015-10-12T13:58:18.1Z</time>
      </trkpt>
      <trkpt lat="48.2062" lon="-3.09619">
        <ele>161</ele>
        <time>2015-10-12T13:58:21.1Z</time>
      </trkpt>
      <trkpt lat="48.20622" lon="-3.09623">
        <ele>162</ele>
        <time>2015-10-12T13:58:24.1Z</time>
      </trkpt>
      <trkpt lat="48.20624" lon="-3.09625">
        <ele>161</ele>
        <time>2015-10-12T13:58:26.1Z</time>
      </trkpt>
      <trkpt lat="48.20626" lon="-3.09629">
        <ele>161</ele>
        <time>2015-10-12T13:58:29.1Z</time>
      </trkpt>
      <trkpt lat="48.20627" lon="-3.09632">
        <ele>161</ele>
        <time>2015-10-12T13:58:32.1Z</time>
      </trkpt>
      <trkpt lat="48.20628" lon="-3.09634">
        <ele>161</ele>
        <time>2015-10-12T13:58:34.1Z</time>
      </trkpt>
      <trkpt lat="48.2063" lon="-3.09637">
        <ele>161</ele>
        <time>2015-10-12T13:58:36.1Z</time>
      </trkpt>
      <trkpt lat="48.20632" lon="-3.09641">
        <ele>161</ele>
        <time>2015-10-12T13:58:39.1Z</time>
      </trkpt>
      <trkpt lat="48.20632" lon="-3.09641">
        <ele>161</ele>
        <time>2015-10-12T13:58:41.1Z</time>
      </trkpt>
      <trkpt lat="48.20633" lon="-3.09644">
        <ele>161</ele>
        <time>2015-10-12T13:58:44.1Z</time>
      </trkpt>
      <trkpt lat="48.20636" lon="-3.09648">
        <ele>161</ele>
        <time>2015-10-12T13:58:47.1Z</time>
      </trkpt>
      <trkpt lat="48.20637" lon="-3.09652">
        <ele>161</ele>
        <time>2015-10-12T13:58:49.1Z</time>
      </trkpt>
      <trkpt lat="48.20638" lon="-3.09655">
        <ele>161</ele>
        <time>2015-10-12T13:58:51.1Z</time>
      </trkpt>
      <trkpt lat="48.20639" lon="-3.09661">
        <ele>161</ele>
        <time>2015-10-12T13:58:54.1Z</time>
      </trkpt>
      <trkpt lat="48.2064" lon="-3.09664">
        <ele>161</ele>
        <time>2015-10-12T13:58:56.1Z</time>
      </trkpt>
      <trkpt lat="48.20641" lon="-3.09668">
        <ele>161</ele>
        <time>2015-10-12T13:58:58.1Z</time>
      </trkpt>
      <trkpt lat="48.20641" lon="-3.09671">
        <ele>162</ele>
        <time>2015-10-12T13:59:00.1Z</time>
      </trkpt>
      <trkpt lat="48.20642" lon="-3.09674">
        <ele>162</ele>
        <time>2015-10-12T13:59:02.1Z</time>
      </trkpt>
      <trkpt lat="48.20643" lon="-3.09678">
        <ele>161</ele>
        <time>2015-10-12T13:59:05.1Z</time>
      </trkpt>
      <trkpt lat="48.20644" lon="-3.09681">
        <ele>161</ele>
        <time>2015-10-12T13:59:08.1Z</time>
      </trkpt>
      <trkpt lat="48.20645" lon="-3.09684">
        <ele>162</ele>
        <time>2015-10-12T13:59:11.1Z</time>
      </trkpt>
      <trkpt lat="48.20646" lon="-3.09687">
        <ele>162</ele>
        <time>2015-10-12T13:59:14.1Z</time>
      </trkpt>
      <trkpt lat="48.20647" lon="-3.09688">
        <ele>162</ele>
        <time>2015-10-12T13:59:16.1Z</time>
      </trkpt>
      <trkpt lat="48.20648" lon="-3.09691">
        <ele>162</ele>
        <time>2015-10-12T13:59:19.1Z</time>
      </trkpt>
      <trkpt lat="48.20649" lon="-3.09693">
        <ele>162</ele>
        <time>2015-10-12T13:59:21.1Z</time>
      </trkpt>
      <trkpt lat="48.20649" lon="-3.09694">
        <ele>162</ele>
        <time>2015-10-12T13:59:23.1Z</time>
      </trkpt>
      <trkpt lat="48.2065" lon="-3.09698">
        <ele>162</ele>
        <time>2015-10-12T13:59:26.1Z</time>
      </trkpt>
      <trkpt lat="48.20651" lon="-3.097">
        <ele>162</ele>
        <time>2015-10-12T13:59:28.1Z</time>
      </trkpt>
      <trkpt lat="48.20652" lon="-3.09702">
        <ele>162</ele>
        <time>2015-10-12T13:59:31.1Z</time>
      </trkpt>
      <trkpt lat="48.20653" lon="-3.09706">
        <ele>162</ele>
        <time>2015-10-12T13:59:34.1Z</time>
      </trkpt>
      <trkpt lat="48.20654" lon="-3.09709">
        <ele>162</ele>
        <time>2015-10-12T13:59:37.1Z</time>
      </trkpt>
      <trkpt lat="48.20655" lon="-3.09712">
        <ele>162</ele>
        <time>2015-10-12T13:59:40.1Z</time>
      </trkpt>
      <trkpt lat="48.20656" lon="-3.09715">
        <ele>162</ele>
        <time>2015-10-12T13:59:43.1Z</time>
      </trkpt>
      <trkpt lat="48.20657" lon="-3.09718">
        <ele>162</ele>
        <time>2015-10-12T13:59:46.1Z</time>
      </trkpt>
      <trkpt lat="48.20658" lon="-3.09721">
        <ele>162</ele>
        <time>2015-10-12T13:59:49.1Z</time>
      </trkpt>
      <trkpt lat="48.20658" lon="-3.09725">
        <ele>162</ele>
        <time>2015-10-12T13:59:52.1Z</time>
      </trkpt>
      <trkpt lat="48.20659" lon="-3.0973">
        <ele>162</ele>
        <time>2015-10-12T13:59:55.1Z</time>
      </trkpt>
      <trkpt lat="48.2066" lon="-3.09734">
        <ele>162</ele>
        <time>2015-10-12T13:59:58.1Z</time>
      </trkpt>
      <trkpt lat="48.2066" lon="-3.09738">
        <ele>163</ele>
        <time>2015-10-12T14:00:01.1Z</time>
      </trkpt>
      <trkpt lat="48.2066" lon="-3.09742">
        <ele>163</ele>
        <time>2015-10-12T14:00:03.1Z</time>
      </trkpt>
      <trkpt lat="48.2066" lon="-3.09745">
        <ele>163</ele>
        <time>2015-10-12T14:00:05.1Z</time>
      </trkpt>
      <trkpt lat="48.2066" lon="-3.0975">
        <ele>162</ele>
        <time>2015-10-12T14:00:08.1Z</time>
      </trkpt>
      <trkpt lat="48.2066" lon="-3.09752">
        <ele>162</ele>
        <time>2015-10-12T14:00:10.1Z</time>
      </trkpt>
      <trkpt lat="48.20659" lon="-3.09757">
        <ele>162</ele>
        <time>2015-10-12T14:00:13.1Z</time>
      </trkpt>
      <trkpt lat="48.20659" lon="-3.09761">
        <ele>162</ele>
        <time>2015-10-12T14:00:16.1Z</time>
      </trkpt>
      <trkpt lat="48.20658" lon="-3.09764">
        <ele>162</ele>
        <time>2015-10-12T14:00:18.1Z</time>
      </trkpt>
      <trkpt lat="48.20658" lon="-3.09767">
        <ele>162</ele>
        <time>2015-10-12T14:00:20.1Z</time>
      </trkpt>
      <trkpt lat="48.20658" lon="-3.0977">
        <ele>162</ele>
        <time>2015-10-12T14:00:23.1Z</time>
      </trkpt>
      <trkpt lat="48.20657" lon="-3.09774">
        <ele>161</ele>
        <time>2015-10-12T14:00:26.1Z</time>
      </trkpt>
      <trkpt lat="48.20657" lon="-3.09779">
        <ele>161</ele>
        <time>2015-10-12T14:00:29.1Z</time>
      </trkpt>
      <trkpt lat="48.20656" lon="-3.09783">
        <ele>162</ele>
        <time>2015-10-12T14:00:32.1Z</time>
      </trkpt>
      <trkpt lat="48.20656" lon="-3.09783">
        <ele>162</ele>
        <time>2015-10-12T14:00:34.1Z</time>
      </trkpt>
      <trkpt lat="48.20655" lon="-3.09784">
        <ele>161</ele>
        <time>2015-10-12T14:00:37.1Z</time>
      </trkpt>
      <trkpt lat="48.20656" lon="-3.09789">
        <ele>161</ele>
        <time>2015-10-12T14:00:40.1Z</time>
      </trkpt>
      <trkpt lat="48.20656" lon="-3.09795">
        <ele>162</ele>
        <time>2015-10-12T14:00:43.1Z</time>
      </trkpt>
      <trkpt lat="48.20657" lon="-3.09798">
        <ele>162</ele>
        <time>2015-10-12T14:00:45.1Z</time>
      </trkpt>
      <trkpt lat="48.20657" lon="-3.09804">
        <ele>162</ele>
        <time>2015-10-12T14:00:48.1Z</time>
      </trkpt>
      <trkpt lat="48.20656" lon="-3.09808">
        <ele>162</ele>
        <time>2015-10-12T14:00:50.1Z</time>
      </trkpt>
      <trkpt lat="48.20656" lon="-3.09813">
        <ele>162</ele>
        <time>2015-10-12T14:00:53.1Z</time>
      </trkpt>
      <trkpt lat="48.20656" lon="-3.09817">
        <ele>162</ele>
        <time>2015-10-12T14:00:56.1Z</time>
      </trkpt>
      <trkpt lat="48.20656" lon="-3.09821">
        <ele>162</ele>
        <time>2015-10-12T14:00:58.1Z</time>
      </trkpt>
      <trkpt lat="48.20656" lon="-3.09825">
        <ele>163</ele>
        <time>2015-10-12T14:01:01.1Z</time>
      </trkpt>
      <trkpt lat="48.20655" lon="-3.09828">
        <ele>163</ele>
        <time>2015-10-12T14:01:03.1Z</time>
      </trkpt>
      <trkpt lat="48.20655" lon="-3.09833">
        <ele>163</ele>
        <time>2015-10-12T14:01:06.1Z</time>
      </trkpt>
      <trkpt lat="48.20654" lon="-3.09837">
        <ele>162</ele>
        <time>2015-10-12T14:01:09.1Z</time>
      </trkpt>
      <trkpt lat="48.20654" lon="-3.09841">
        <ele>162</ele>
        <time>2015-10-12T14:01:12.1Z</time>
      </trkpt>
      <trkpt lat="48.20653" lon="-3.09845">
        <ele>162</ele>
        <time>2015-10-12T14:01:14.1Z</time>
      </trkpt>
      <trkpt lat="48.20652" lon="-3.0985">
        <ele>162</ele>
        <time>2015-10-12T14:01:17.1Z</time>
      </trkpt>
      <trkpt lat="48.20651" lon="-3.09855">
        <ele>162</ele>
        <time>2015-10-12T14:01:20.1Z</time>
      </trkpt>
      <trkpt lat="48.20651" lon="-3.09857">
        <ele>162</ele>
        <time>2015-10-12T14:01:22.1Z</time>
      </trkpt>
      <trkpt lat="48.20651" lon="-3.09862">
        <ele>162</ele>
        <time>2015-10-12T14:01:25.1Z</time>
      </trkpt>
      <trkpt lat="48.2065" lon="-3.09865">
        <ele>162</ele>
        <time>2015-10-12T14:01:28.1Z</time>
      </trkpt>
      <trkpt lat="48.2065" lon="-3.09869">
        <ele>162</ele>
        <time>2015-10-12T14:01:30.1Z</time>
      </trkpt>
      <trkpt lat="48.2065" lon="-3.09873">
        <ele>162</ele>
        <time>2015-10-12T14:01:33.1Z</time>
      </trkpt>
      <trkpt lat="48.20649" lon="-3.09876">
        <ele>161</ele>
        <time>2015-10-12T14:01:35.1Z</time>
      </trkpt>
      <trkpt lat="48.20649" lon="-3.09878">
        <ele>161</ele>
        <time>2015-10-12T14:01:37.1Z</time>
      </trkpt>
      <trkpt lat="48.20648" lon="-3.09883">
        <ele>161</ele>
        <time>2015-10-12T14:01:40.1Z</time>
      </trkpt>
      <trkpt lat="48.20648" lon="-3.09888">
        <ele>161</ele>
        <time>2015-10-12T14:01:43.1Z</time>
      </trkpt>
      <trkpt lat="48.20648" lon="-3.09891">
        <ele>161</ele>
        <time>2015-10-12T14:01:45.1Z</time>
      </trkpt>
      <trkpt lat="48.20648" lon="-3.09894">
        <ele>161</ele>
        <time>2015-10-12T14:01:47.1Z</time>
      </trkpt>
      <trkpt lat="48.20648" lon="-3.09898">
        <ele>162</ele>
        <time>2015-10-12T14:01:49.1Z</time>
      </trkpt>
      <trkpt lat="48.20647" lon="-3.09902">
        <ele>162</ele>
        <time>2015-10-12T14:01:52.1Z</time>
      </trkpt>
      <trkpt lat="48.20647" lon="-3.09906">
        <ele>162</ele>
        <time>2015-10-12T14:01:55.1Z</time>
      </trkpt>
      <trkpt lat="48.20647" lon="-3.09911">
        <ele>162</ele>
        <time>2015-10-12T14:01:58.1Z</time>
      </trkpt>
      <trkpt lat="48.20647" lon="-3.09914">
        <ele>162</ele>
        <time>2015-10-12T14:02:00.1Z</time>
      </trkpt>
      <trkpt lat="48.20646" lon="-3.09918">
        <ele>162</ele>
        <time>2015-10-12T14:02:03.1Z</time>
      </trkpt>
      <trkpt lat="48.20646" lon="-3.09924">
        <ele>162</ele>
        <time>2015-10-12T14:02:06.1Z</time>
      </trkpt>
      <trkpt lat="48.20647" lon="-3.09928">
        <ele>162</ele>
        <time>2015-10-12T14:02:09.1Z</time>
      </trkpt>
      <trkpt lat="48.20647" lon="-3.09932">
        <ele>162</ele>
        <time>2015-10-12T14:02:12.1Z</time>
      </trkpt>
      <trkpt lat="48.20647" lon="-3.09935">
        <ele>162</ele>
        <time>2015-10-12T14:02:14.1Z</time>
      </trkpt>
      <trkpt lat="48.20646" lon="-3.0994">
        <ele>162</ele>
        <time>2015-10-12T14:02:17.1Z</time>
      </trkpt>
      <trkpt lat="48.20646" lon="-3.09943">
        <ele>162</ele>
        <time>2015-10-12T14:02:19.1Z</time>
      </trkpt>
      <trkpt lat="48.20646" lon="-3.09948">
        <ele>162</ele>
        <time>2015-10-12T14:02:22.1Z</time>
      </trkpt>
      <trkpt lat="48.20645" lon="-3.09952">
        <ele>163</ele>
        <time>2015-10-12T14:02:24.1Z</time>
      </trkpt>
      <trkpt lat="48.20645" lon="-3.09956">
        <ele>163</ele>
        <time>2015-10-12T14:02:27.1Z</time>
      </trkpt>
      <trkpt lat="48.20644" lon="-3.09961">
        <ele>163</ele>
        <time>2015-10-12T14:02:30.1Z</time>
      </trkpt>
      <trkpt lat="48.20644" lon="-3.09965">
        <ele>163</ele>
        <time>2015-10-12T14:02:33.1Z</time>
      </trkpt>
      <trkpt lat="48.20644" lon="-3.09969">
        <ele>162</ele>
        <time>2015-10-12T14:02:35.1Z</time>
      </trkpt>
      <trkpt lat="48.20644" lon="-3.09973">
        <ele>162</ele>
        <time>2015-10-12T14:02:38.1Z</time>
      </trkpt>
      <trkpt lat="48.20644" lon="-3.09975">
        <ele>161</ele>
        <time>2015-10-12T14:02:40.1Z</time>
      </trkpt>
      <trkpt lat="48.20643" lon="-3.0998">
        <ele>161</ele>
        <time>2015-10-12T14:02:43.1Z</time>
      </trkpt>
      <trkpt lat="48.20643" lon="-3.09984">
        <ele>162</ele>
        <time>2015-10-12T14:02:46.1Z</time>
      </trkpt>
      <trkpt lat="48.20642" lon="-3.09986">
        <ele>162</ele>
        <time>2015-10-12T14:02:48.1Z</time>
      </trkpt>
      <trkpt lat="48.20641" lon="-3.09987">
        <ele>162</ele>
        <time>2015-10-12T14:02:51.1Z</time>
      </trkpt>
      <trkpt lat="48.20641" lon="-3.09989">
        <ele>162</ele>
        <time>2015-10-12T14:02:54.1Z</time>
      </trkpt>
      <trkpt lat="48.2064" lon="-3.09992">
        <ele>162</ele>
        <time>2015-10-12T14:02:56.1Z</time>
      </trkpt>
      <trkpt lat="48.20639" lon="-3.09997">
        <ele>162</ele>
        <time>2015-10-12T14:02:59.1Z</time>
      </trkpt>
      <trkpt lat="48.20639" lon="-3.1">
        <ele>162</ele>
        <time>2015-10-12T14:03:01.1Z</time>
      </trkpt>
      <trkpt lat="48.20638" lon="-3.10005">
        <ele>163</ele>
        <time>2015-10-12T14:03:03.1Z</time>
      </trkpt>
      <trkpt lat="48.20637" lon="-3.1001">
        <ele>163</ele>
        <time>2015-10-12T14:03:06.1Z</time>
      </trkpt>
      <trkpt lat="48.20637" lon="-3.10012">
        <ele>162</ele>
        <time>2015-10-12T14:03:08.1Z</time>
      </trkpt>
      <trkpt lat="48.20636" lon="-3.10016">
        <ele>161</ele>
        <time>2015-10-12T14:03:11.1Z</time>
      </trkpt>
      <trkpt lat="48.20636" lon="-3.10018">
        <ele>161</ele>
        <time>2015-10-12T14:03:13.1Z</time>
      </trkpt>
      <trkpt lat="48.20635" lon="-3.10022">
        <ele>161</ele>
        <time>2015-10-12T14:03:16.1Z</time>
      </trkpt>
      <trkpt lat="48.20635" lon="-3.10024">
        <ele>161</ele>
        <time>2015-10-12T14:03:18.1Z</time>
      </trkpt>
      <trkpt lat="48.20634" lon="-3.10028">
        <ele>161</ele>
        <time>2015-10-12T14:03:21.1Z</time>
      </trkpt>
      <trkpt lat="48.20633" lon="-3.1003">
        <ele>161</ele>
        <time>2015-10-12T14:03:23.1Z</time>
      </trkpt>
      <trkpt lat="48.20632" lon="-3.10034">
        <ele>161</ele>
        <time>2015-10-12T14:03:26.1Z</time>
      </trkpt>
      <trkpt lat="48.20631" lon="-3.10037">
        <ele>161</ele>
        <time>2015-10-12T14:03:29.1Z</time>
      </trkpt>
      <trkpt lat="48.20631" lon="-3.1004">
        <ele>161</ele>
        <time>2015-10-12T14:03:31.1Z</time>
      </trkpt>
      <trkpt lat="48.20631" lon="-3.10043">
        <ele>161</ele>
        <time>2015-10-12T14:03:33.1Z</time>
      </trkpt>
      <trkpt lat="48.20631" lon="-3.10048">
        <ele>161</ele>
        <time>2015-10-12T14:03:36.1Z</time>
      </trkpt>
      <trkpt lat="48.2063" lon="-3.10051">
        <ele>161</ele>
        <time>2015-10-12T14:03:39.1Z</time>
      </trkpt>
      <trkpt lat="48.2063" lon="-3.10054">
        <ele>162</ele>
        <time>2015-10-12T14:03:41.1Z</time>
      </trkpt>
      <trkpt lat="48.20629" lon="-3.10058">
        <ele>162</ele>
        <time>2015-10-12T14:03:44.1Z</time>
      </trkpt>
      <trkpt lat="48.20628" lon="-3.1006">
        <ele>162</ele>
        <time>2015-10-12T14:03:46.1Z</time>
      </trkpt>
      <trkpt lat="48.20628" lon="-3.10063">
        <ele>162</ele>
        <time>2015-10-12T14:03:48.1Z</time>
      </trkpt>
      <trkpt lat="48.20627" lon="-3.10067">
        <ele>162</ele>
        <time>2015-10-12T14:03:51.1Z</time>
      </trkpt>
      <trkpt lat="48.20626" lon="-3.1007">
        <ele>162</ele>
        <time>2015-10-12T14:03:54.1Z</time>
      </trkpt>
      <trkpt lat="48.20625" lon="-3.10073">
        <ele>162</ele>
        <time>2015-10-12T14:03:56.1Z</time>
      </trkpt>
      <trkpt lat="48.20624" lon="-3.10076">
        <ele>162</ele>
        <time>2015-10-12T14:03:58.1Z</time>
      </trkpt>
      <trkpt lat="48.20624" lon="-3.10079">
        <ele>162</ele>
        <time>2015-10-12T14:04:00.1Z</time>
      </trkpt>
      <trkpt lat="48.20623" lon="-3.10082">
        <ele>162</ele>
        <time>2015-10-12T14:04:02.1Z</time>
      </trkpt>
      <trkpt lat="48.20622" lon="-3.10086">
        <ele>162</ele>
        <time>2015-10-12T14:04:05.1Z</time>
      </trkpt>
      <trkpt lat="48.2062" lon="-3.1009">
        <ele>162</ele>
        <time>2015-10-12T14:04:08.1Z</time>
      </trkpt>
      <trkpt lat="48.20619" lon="-3.10093">
        <ele>162</ele>
        <time>2015-10-12T14:04:10.1Z</time>
      </trkpt>
      <trkpt lat="48.20618" lon="-3.10097">
        <ele>162</ele>
        <time>2015-10-12T14:04:13.1Z</time>
      </trkpt>
      <trkpt lat="48.20616" lon="-3.101">
        <ele>162</ele>
        <time>2015-10-12T14:04:15.1Z</time>
      </trkpt>
      <trkpt lat="48.20615" lon="-3.10103">
        <ele>162</ele>
        <time>2015-10-12T14:04:17.1Z</time>
      </trkpt>
      <trkpt lat="48.20614" lon="-3.10107">
        <ele>162</ele>
        <time>2015-10-12T14:04:20.1Z</time>
      </trkpt>
      <trkpt lat="48.20613" lon="-3.1011">
        <ele>162</ele>
        <time>2015-10-12T14:04:22.1Z</time>
      </trkpt>
      <trkpt lat="48.20612" lon="-3.10114">
        <ele>163</ele>
        <time>2015-10-12T14:04:25.1Z</time>
      </trkpt>
      <trkpt lat="48.2061" lon="-3.10119">
        <ele>163</ele>
        <time>2015-10-12T14:04:28.1Z</time>
      </trkpt>
      <trkpt lat="48.20609" lon="-3.10123">
        <ele>163</ele>
        <time>2015-10-12T14:04:31.1Z</time>
      </trkpt>
      <trkpt lat="48.20608" lon="-3.10126">
        <ele>163</ele>
        <time>2015-10-12T14:04:33.1Z</time>
      </trkpt>
      <trkpt lat="48.20607" lon="-3.10129">
        <ele>163</ele>
        <time>2015-10-12T14:04:35.1Z</time>
      </trkpt>
      <trkpt lat="48.20607" lon="-3.10132">
        <ele>163</ele>
        <time>2015-10-12T14:04:37.1Z</time>
      </trkpt>
      <trkpt lat="48.20606" lon="-3.10137">
        <ele>162</ele>
        <time>2015-10-12T14:04:40.1Z</time>
      </trkpt>
      <trkpt lat="48.20605" lon="-3.1014">
        <ele>162</ele>
        <time>2015-10-12T14:04:42.1Z</time>
      </trkpt>
      <trkpt lat="48.20604" lon="-3.10142">
        <ele>162</ele>
        <time>2015-10-12T14:04:44.1Z</time>
      </trkpt>
      <trkpt lat="48.20604" lon="-3.10146">
        <ele>162</ele>
        <time>2015-10-12T14:04:47.1Z</time>
      </trkpt>
      <trkpt lat="48.20603" lon="-3.10149">
        <ele>162</ele>
        <time>2015-10-12T14:04:49.1Z</time>
      </trkpt>
      <trkpt lat="48.20603" lon="-3.10153">
        <ele>163</ele>
        <time>2015-10-12T14:04:52.1Z</time>
      </trkpt>
      <trkpt lat="48.20602" lon="-3.10156">
        <ele>162</ele>
        <time>2015-10-12T14:04:54.1Z</time>
      </trkpt>
      <trkpt lat="48.20601" lon="-3.10159">
        <ele>162</ele>
        <time>2015-10-12T14:04:56.1Z</time>
      </trkpt>
      <trkpt lat="48.206" lon="-3.10162">
        <ele>162</ele>
        <time>2015-10-12T14:04:58.1Z</time>
      </trkpt>
      <trkpt lat="48.20599" lon="-3.10167">
        <ele>162</ele>
        <time>2015-10-12T14:05:01.1Z</time>
      </trkpt>
      <trkpt lat="48.20597" lon="-3.10172">
        <ele>162</ele>
        <time>2015-10-12T14:05:04.1Z</time>
      </trkpt>
      <trkpt lat="48.20596" lon="-3.10175">
        <ele>162</ele>
        <time>2015-10-12T14:05:07.1Z</time>
      </trkpt>
      <trkpt lat="48.20594" lon="-3.1018">
        <ele>162</ele>
        <time>2015-10-12T14:05:10.1Z</time>
      </trkpt>
      <trkpt lat="48.20593" lon="-3.10182">
        <ele>162</ele>
        <time>2015-10-12T14:05:12.1Z</time>
      </trkpt>
      <trkpt lat="48.20592" lon="-3.10185">
        <ele>162</ele>
        <time>2015-10-12T14:05:14.1Z</time>
      </trkpt>
      <trkpt lat="48.20591" lon="-3.10188">
        <ele>162</ele>
        <time>2015-10-12T14:05:16.1Z</time>
      </trkpt>
      <trkpt lat="48.2059" lon="-3.10191">
        <ele>162</ele>
        <time>2015-10-12T14:05:18.1Z</time>
      </trkpt>
      <trkpt lat="48.20589" lon="-3.10193">
        <ele>162</ele>
        <time>2015-10-12T14:05:20.1Z</time>
      </trkpt>
      <trkpt lat="48.20589" lon="-3.10196">
        <ele>162</ele>
        <time>2015-10-12T14:05:22.1Z</time>
      </trkpt>
      <trkpt lat="48.20588" lon="-3.10199">
        <ele>162</ele>
        <time>2015-10-12T14:05:24.1Z</time>
      </trkpt>
      <trkpt lat="48.20586" lon="-3.10203">
        <ele>162</ele>
        <time>2015-10-12T14:05:27.1Z</time>
      </trkpt>
      <trkpt lat="48.20585" lon="-3.10207">
        <ele>162</ele>
        <time>2015-10-12T14:05:30.1Z</time>
      </trkpt>
      <trkpt lat="48.20583" lon="-3.1021">
        <ele>162</ele>
        <time>2015-10-12T14:05:32.1Z</time>
      </trkpt>
      <trkpt lat="48.20582" lon="-3.10214">
        <ele>162</ele>
        <time>2015-10-12T14:05:34.1Z</time>
      </trkpt>
      <trkpt lat="48.20581" lon="-3.10218">
        <ele>162</ele>
        <time>2015-10-12T14:05:37.1Z</time>
      </trkpt>
      <trkpt lat="48.2058" lon="-3.10222">
        <ele>162</ele>
        <time>2015-10-12T14:05:39.1Z</time>
      </trkpt>
      <trkpt lat="48.2058" lon="-3.10225">
        <ele>162</ele>
        <time>2015-10-12T14:05:41.1Z</time>
      </trkpt>
      <trkpt lat="48.2058" lon="-3.10229">
        <ele>162</ele>
        <time>2015-10-12T14:05:44.1Z</time>
      </trkpt>
      <trkpt lat="48.20579" lon="-3.10232">
        <ele>162</ele>
        <time>2015-10-12T14:05:46.1Z</time>
      </trkpt>
      <trkpt lat="48.20578" lon="-3.10238">
        <ele>162</ele>
        <time>2015-10-12T14:05:49.1Z</time>
      </trkpt>
      <trkpt lat="48.20577" lon="-3.10242">
        <ele>162</ele>
        <time>2015-10-12T14:05:51.1Z</time>
      </trkpt>
      <trkpt lat="48.20576" lon="-3.10245">
        <ele>162</ele>
        <time>2015-10-12T14:05:53.1Z</time>
      </trkpt>
      <trkpt lat="48.20575" lon="-3.10249">
        <ele>162</ele>
        <time>2015-10-12T14:05:55.1Z</time>
      </trkpt>
      <trkpt lat="48.20574" lon="-3.10254">
        <ele>162</ele>
        <time>2015-10-12T14:05:58.1Z</time>
      </trkpt>
      <trkpt lat="48.20575" lon="-3.10256">
        <ele>162</ele>
        <time>2015-10-12T14:06:01.1Z</time>
      </trkpt>
      <trkpt lat="48.20574" lon="-3.10259">
        <ele>162</ele>
        <time>2015-10-12T14:06:03.1Z</time>
      </trkpt>
      <trkpt lat="48.20574" lon="-3.10262">
        <ele>162</ele>
        <time>2015-10-12T14:06:05.1Z</time>
      </trkpt>
      <trkpt lat="48.20573" lon="-3.10267">
        <ele>162</ele>
        <time>2015-10-12T14:06:08.1Z</time>
      </trkpt>
      <trkpt lat="48.20573" lon="-3.10272">
        <ele>162</ele>
        <time>2015-10-12T14:06:11.1Z</time>
      </trkpt>
      <trkpt lat="48.20572" lon="-3.10276">
        <ele>162</ele>
        <time>2015-10-12T14:06:14.1Z</time>
      </trkpt>
      <trkpt lat="48.20572" lon="-3.10278">
        <ele>162</ele>
        <time>2015-10-12T14:06:17.1Z</time>
      </trkpt>
      <trkpt lat="48.20572" lon="-3.10279">
        <ele>162</ele>
        <time>2015-10-12T14:06:20.1Z</time>
      </trkpt>
      <trkpt lat="48.20572" lon="-3.10279">
        <ele>162</ele>
        <time>2015-10-12T14:06:22.1Z</time>
      </trkpt>
      <trkpt lat="48.20572" lon="-3.1028">
        <ele>162</ele>
        <time>2015-10-12T14:06:25.1Z</time>
      </trkpt>
      <trkpt lat="48.20572" lon="-3.10282">
        <ele>163</ele>
        <time>2015-10-12T14:06:27.1Z</time>
      </trkpt>
      <trkpt lat="48.20572" lon="-3.10287">
        <ele>162</ele>
        <time>2015-10-12T14:06:30.1Z</time>
      </trkpt>
      <trkpt lat="48.20571" lon="-3.10291">
        <ele>162</ele>
        <time>2015-10-12T14:06:32.1Z</time>
      </trkpt>
      <trkpt lat="48.20571" lon="-3.10294">
        <ele>162</ele>
        <time>2015-10-12T14:06:34.1Z</time>
      </trkpt>
      <trkpt lat="48.2057" lon="-3.10299">
        <ele>162</ele>
        <time>2015-10-12T14:06:37.1Z</time>
      </trkpt>
      <trkpt lat="48.2057" lon="-3.10303">
        <ele>162</ele>
        <time>2015-10-12T14:06:39.1Z</time>
      </trkpt>
      <trkpt lat="48.2057" lon="-3.10308">
        <ele>162</ele>
        <time>2015-10-12T14:06:42.1Z</time>
      </trkpt>
      <trkpt lat="48.2057" lon="-3.10313">
        <ele>162</ele>
        <time>2015-10-12T14:06:45.1Z</time>
      </trkpt>
      <trkpt lat="48.2057" lon="-3.10316">
        <ele>162</ele>
        <time>2015-10-12T14:06:47.1Z</time>
      </trkpt>
      <trkpt lat="48.20569" lon="-3.10319">
        <ele>162</ele>
        <time>2015-10-12T14:06:49.1Z</time>
      </trkpt>
      <trkpt lat="48.20569" lon="-3.10324">
        <ele>162</ele>
        <time>2015-10-12T14:06:52.1Z</time>
      </trkpt>
      <trkpt lat="48.20569" lon="-3.10327">
        <ele>162</ele>
        <time>2015-10-12T14:06:54.1Z</time>
      </trkpt>
      <trkpt lat="48.20569" lon="-3.10332">
        <ele>162</ele>
        <time>2015-10-12T14:06:57.1Z</time>
      </trkpt>
      <trkpt lat="48.20569" lon="-3.10335">
        <ele>162</ele>
        <time>2015-10-12T14:06:59.1Z</time>
      </trkpt>
      <trkpt lat="48.20569" lon="-3.10339">
        <ele>162</ele>
        <time>2015-10-12T14:07:01.1Z</time>
      </trkpt>
      <trkpt lat="48.20569" lon="-3.10342">
        <ele>162</ele>
        <time>2015-10-12T14:07:03.1Z</time>
      </trkpt>
      <trkpt lat="48.20568" lon="-3.10347">
        <ele>162</ele>
        <time>2015-10-12T14:07:06.1Z</time>
      </trkpt>
      <trkpt lat="48.20568" lon="-3.1035">
        <ele>162</ele>
        <time>2015-10-12T14:07:08.1Z</time>
      </trkpt>
      <trkpt lat="48.20568" lon="-3.10356">
        <ele>162</ele>
        <time>2015-10-12T14:07:11.1Z</time>
      </trkpt>
      <trkpt lat="48.20568" lon="-3.10361">
        <ele>162</ele>
        <time>2015-10-12T14:07:14.1Z</time>
      </trkpt>
      <trkpt lat="48.20568" lon="-3.10366">
        <ele>162</ele>
        <time>2015-10-12T14:07:17.1Z</time>
      </trkpt>
      <trkpt lat="48.20567" lon="-3.10371">
        <ele>162</ele>
        <time>2015-10-12T14:07:20.1Z</time>
      </trkpt>
      <trkpt lat="48.20567" lon="-3.10375">
        <ele>163</ele>
        <time>2015-10-12T14:07:22.1Z</time>
      </trkpt>
      <trkpt lat="48.20566" lon="-3.1038">
        <ele>163</ele>
        <time>2015-10-12T14:07:25.1Z</time>
      </trkpt>
      <trkpt lat="48.20566" lon="-3.10384">
        <ele>163</ele>
        <time>2015-10-12T14:07:27.1Z</time>
      </trkpt>
      <trkpt lat="48.20565" lon="-3.10389">
        <ele>163</ele>
        <time>2015-10-12T14:07:30.1Z</time>
      </trkpt>
      <trkpt lat="48.20565" lon="-3.10394">
        <ele>163</ele>
        <time>2015-10-12T14:07:33.1Z</time>
      </trkpt>
      <trkpt lat="48.20565" lon="-3.104">
        <ele>164</ele>
        <time>2015-10-12T14:07:36.1Z</time>
      </trkpt>
      <trkpt lat="48.20564" lon="-3.10406">
        <ele>164</ele>
        <time>2015-10-12T14:07:39.1Z</time>
      </trkpt>
      <trkpt lat="48.20564" lon="-3.1041">
        <ele>164</ele>
        <time>2015-10-12T14:07:42.1Z</time>
      </trkpt>
      <trkpt lat="48.20563" lon="-3.10414">
        <ele>164</ele>
        <time>2015-10-12T14:07:44.1Z</time>
      </trkpt>
      <trkpt lat="48.20562" lon="-3.10418">
        <ele>164</ele>
        <time>2015-10-12T14:07:47.1Z</time>
      </trkpt>
      <trkpt lat="48.20559" lon="-3.1042">
        <ele>164</ele>
        <time>2015-10-12T14:07:49.1Z</time>
      </trkpt>
      <trkpt lat="48.20558" lon="-3.10422">
        <ele>164</ele>
        <time>2015-10-12T14:07:51.1Z</time>
      </trkpt>
      <trkpt lat="48.20557" lon="-3.10424">
        <ele>163</ele>
        <time>2015-10-12T14:07:53.1Z</time>
      </trkpt>
      <trkpt lat="48.20556" lon="-3.10426">
        <ele>164</ele>
        <time>2015-10-12T14:07:56.1Z</time>
      </trkpt>
      <trkpt lat="48.20556" lon="-3.10428">
        <ele>163</ele>
        <time>2015-10-12T14:07:59.1Z</time>
      </trkpt>
      <trkpt lat="48.20556" lon="-3.10431">
        <ele>164</ele>
        <time>2015-10-12T14:08:02.1Z</time>
      </trkpt>
      <trkpt lat="48.20556" lon="-3.10434">
        <ele>164</ele>
        <time>2015-10-12T14:08:04.1Z</time>
      </trkpt>
      <trkpt lat="48.20556" lon="-3.10437">
        <ele>164</ele>
        <time>2015-10-12T14:08:06.1Z</time>
      </trkpt>
      <trkpt lat="48.20556" lon="-3.1044">
        <ele>165</ele>
        <time>2015-10-12T14:08:08.1Z</time>
      </trkpt>
      <trkpt lat="48.20556" lon="-3.10442">
        <ele>164</ele>
        <time>2015-10-12T14:08:10.1Z</time>
      </trkpt>
      <trkpt lat="48.20557" lon="-3.10447">
        <ele>164</ele>
        <time>2015-10-12T14:08:13.1Z</time>
      </trkpt>
      <trkpt lat="48.20557" lon="-3.10452">
        <ele>164</ele>
        <time>2015-10-12T14:08:16.1Z</time>
      </trkpt>
      <trkpt lat="48.20559" lon="-3.10457">
        <ele>164</ele>
        <time>2015-10-12T14:08:19.1Z</time>
      </trkpt>
      <trkpt lat="48.20561" lon="-3.1046">
        <ele>164</ele>
        <time>2015-10-12T14:08:22.1Z</time>
      </trkpt>
      <trkpt lat="48.20562" lon="-3.10462">
        <ele>164</ele>
        <time>2015-10-12T14:08:24.1Z</time>
      </trkpt>
      <trkpt lat="48.20562" lon="-3.10467">
        <ele>164</ele>
        <time>2015-10-12T14:08:27.1Z</time>
      </trkpt>
      <trkpt lat="48.20561" lon="-3.1047">
        <ele>165</ele>
        <time>2015-10-12T14:08:29.1Z</time>
      </trkpt>
      <trkpt lat="48.20559" lon="-3.10475">
        <ele>164</ele>
        <time>2015-10-12T14:08:32.1Z</time>
      </trkpt>
      <trkpt lat="48.20558" lon="-3.10479">
        <ele>164</ele>
        <time>2015-10-12T14:08:34.1Z</time>
      </trkpt>
      <trkpt lat="48.20556" lon="-3.10483">
        <ele>164</ele>
        <time>2015-10-12T14:08:37.1Z</time>
      </trkpt>
      <trkpt lat="48.20554" lon="-3.10489">
        <ele>164</ele>
        <time>2015-10-12T14:08:40.1Z</time>
      </trkpt>
      <trkpt lat="48.20552" lon="-3.10492">
        <ele>164</ele>
        <time>2015-10-12T14:08:42.1Z</time>
      </trkpt>
      <trkpt lat="48.20551" lon="-3.10497">
        <ele>164</ele>
        <time>2015-10-12T14:08:45.1Z</time>
      </trkpt>
      <trkpt lat="48.20549" lon="-3.10502">
        <ele>164</ele>
        <time>2015-10-12T14:08:48.1Z</time>
      </trkpt>
      <trkpt lat="48.20546" lon="-3.10508">
        <ele>164</ele>
        <time>2015-10-12T14:08:51.1Z</time>
      </trkpt>
      <trkpt lat="48.20546" lon="-3.10512">
        <ele>165</ele>
        <time>2015-10-12T14:08:53.1Z</time>
      </trkpt>
      <trkpt lat="48.20544" lon="-3.10516">
        <ele>165</ele>
        <time>2015-10-12T14:08:55.1Z</time>
      </trkpt>
      <trkpt lat="48.20542" lon="-3.10523">
        <ele>165</ele>
        <time>2015-10-12T14:08:58.1Z</time>
      </trkpt>
      <trkpt lat="48.2054" lon="-3.10529">
        <ele>164</ele>
        <time>2015-10-12T14:09:01.1Z</time>
      </trkpt>
      <trkpt lat="48.20539" lon="-3.10534">
        <ele>164</ele>
        <time>2015-10-12T14:09:04.1Z</time>
      </trkpt>
      <trkpt lat="48.20538" lon="-3.10538">
        <ele>164</ele>
        <time>2015-10-12T14:09:06.1Z</time>
      </trkpt>
      <trkpt lat="48.20536" lon="-3.10545">
        <ele>163</ele>
        <time>2015-10-12T14:09:09.1Z</time>
      </trkpt>
      <trkpt lat="48.20535" lon="-3.10549">
        <ele>163</ele>
        <time>2015-10-12T14:09:11.1Z</time>
      </trkpt>
      <trkpt lat="48.20535" lon="-3.10555">
        <ele>164</ele>
        <time>2015-10-12T14:09:14.1Z</time>
      </trkpt>
      <trkpt lat="48.20535" lon="-3.1056">
        <ele>164</ele>
        <time>2015-10-12T14:09:16.1Z</time>
      </trkpt>
      <trkpt lat="48.20534" lon="-3.10564">
        <ele>165</ele>
        <time>2015-10-12T14:09:18.1Z</time>
      </trkpt>
      <trkpt lat="48.20535" lon="-3.1057">
        <ele>165</ele>
        <time>2015-10-12T14:09:21.1Z</time>
      </trkpt>
      <trkpt lat="48.20535" lon="-3.10574">
        <ele>164</ele>
        <time>2015-10-12T14:09:23.1Z</time>
      </trkpt>
      <trkpt lat="48.20536" lon="-3.1058">
        <ele>164</ele>
        <time>2015-10-12T14:09:26.1Z</time>
      </trkpt>
      <trkpt lat="48.20536" lon="-3.10584">
        <ele>165</ele>
        <time>2015-10-12T14:09:28.1Z</time>
      </trkpt>
      <trkpt lat="48.20538" lon="-3.1059">
        <ele>165</ele>
        <time>2015-10-12T14:09:31.1Z</time>
      </trkpt>
      <trkpt lat="48.20541" lon="-3.10595">
        <ele>165</ele>
        <time>2015-10-12T14:09:34.1Z</time>
      </trkpt>
      <trkpt lat="48.20543" lon="-3.10598">
        <ele>165</ele>
        <time>2015-10-12T14:09:36.1Z</time>
      </trkpt>
      <trkpt lat="48.20546" lon="-3.10602">
        <ele>165</ele>
        <time>2015-10-12T14:09:38.1Z</time>
      </trkpt>
      <trkpt lat="48.20548" lon="-3.10605">
        <ele>164</ele>
        <time>2015-10-12T14:09:40.1Z</time>
      </trkpt>
      <trkpt lat="48.20551" lon="-3.10608">
        <ele>164</ele>
        <time>2015-10-12T14:09:42.1Z</time>
      </trkpt>
      <trkpt lat="48.20554" lon="-3.10613">
        <ele>164</ele>
        <time>2015-10-12T14:09:45.1Z</time>
      </trkpt>
      <trkpt lat="48.20557" lon="-3.10617">
        <ele>164</ele>
        <time>2015-10-12T14:09:48.1Z</time>
      </trkpt>
      <trkpt lat="48.20561" lon="-3.10622">
        <ele>164</ele>
        <time>2015-10-12T14:09:51.1Z</time>
      </trkpt>
      <trkpt lat="48.20563" lon="-3.10624">
        <ele>164</ele>
        <time>2015-10-12T14:09:53.1Z</time>
      </trkpt>
      <trkpt lat="48.20567" lon="-3.10628">
        <ele>164</ele>
        <time>2015-10-12T14:09:56.1Z</time>
      </trkpt>
      <trkpt lat="48.2057" lon="-3.10632">
        <ele>163</ele>
        <time>2015-10-12T14:09:59.1Z</time>
      </trkpt>
      <trkpt lat="48.20572" lon="-3.10635">
        <ele>164</ele>
        <time>2015-10-12T14:10:01.1Z</time>
      </trkpt>
      <trkpt lat="48.20576" lon="-3.10638">
        <ele>164</ele>
        <time>2015-10-12T14:10:04.1Z</time>
      </trkpt>
      <trkpt lat="48.20579" lon="-3.10642">
        <ele>164</ele>
        <time>2015-10-12T14:10:07.1Z</time>
      </trkpt>
      <trkpt lat="48.20581" lon="-3.10644">
        <ele>163</ele>
        <time>2015-10-12T14:10:09.1Z</time>
      </trkpt>
      <trkpt lat="48.20584" lon="-3.10647">
        <ele>163</ele>
        <time>2015-10-12T14:10:12.1Z</time>
      </trkpt>
      <trkpt lat="48.20587" lon="-3.1065">
        <ele>164</ele>
        <time>2015-10-12T14:10:15.1Z</time>
      </trkpt>
      <trkpt lat="48.20589" lon="-3.10653">
        <ele>164</ele>
        <time>2015-10-12T14:10:17.1Z</time>
      </trkpt>
      <trkpt lat="48.20591" lon="-3.10655">
        <ele>164</ele>
        <time>2015-10-12T14:10:19.1Z</time>
      </trkpt>
      <trkpt lat="48.20595" lon="-3.10658">
        <ele>163</ele>
        <time>2015-10-12T14:10:22.1Z</time>
      </trkpt>
      <trkpt lat="48.20597" lon="-3.10659">
        <ele>163</ele>
        <time>2015-10-12T14:10:24.1Z</time>
      </trkpt>
      <trkpt lat="48.206" lon="-3.10662">
        <ele>163</ele>
        <time>2015-10-12T14:10:27.1Z</time>
      </trkpt>
      <trkpt lat="48.20602" lon="-3.10664">
        <ele>163</ele>
        <time>2015-10-12T14:10:29.1Z</time>
      </trkpt>
      <trkpt lat="48.20604" lon="-3.10665">
        <ele>163</ele>
        <time>2015-10-12T14:10:31.1Z</time>
      </trkpt>
      <trkpt lat="48.20608" lon="-3.10666">
        <ele>163</ele>
        <time>2015-10-12T14:10:34.1Z</time>
      </trkpt>
      <trkpt lat="48.2061" lon="-3.10667">
        <ele>163</ele>
        <time>2015-10-12T14:10:36.1Z</time>
      </trkpt>
      <trkpt lat="48.20613" lon="-3.10669">
        <ele>163</ele>
        <time>2015-10-12T14:10:39.1Z</time>
      </trkpt>
      <trkpt lat="48.20615" lon="-3.10669">
        <ele>163</ele>
        <time>2015-10-12T14:10:41.1Z</time>
      </trkpt>
      <trkpt lat="48.20617" lon="-3.1067">
        <ele>163</ele>
        <time>2015-10-12T14:10:43.1Z</time>
      </trkpt>
      <trkpt lat="48.2062" lon="-3.10671">
        <ele>163</ele>
        <time>2015-10-12T14:10:46.1Z</time>
      </trkpt>
      <trkpt lat="48.20624" lon="-3.10673">
        <ele>163</ele>
        <time>2015-10-12T14:10:49.1Z</time>
      </trkpt>
      <trkpt lat="48.20627" lon="-3.10674">
        <ele>163</ele>
        <time>2015-10-12T14:10:52.1Z</time>
      </trkpt>
      <trkpt lat="48.20631" lon="-3.10674">
        <ele>163</ele>
        <time>2015-10-12T14:10:55.1Z</time>
      </trkpt>
      <trkpt lat="48.20633" lon="-3.10675">
        <ele>163</ele>
        <time>2015-10-12T14:10:57.1Z</time>
      </trkpt>
      <trkpt lat="48.20637" lon="-3.10675">
        <ele>163</ele>
        <time>2015-10-12T14:11:00.1Z</time>
      </trkpt>
      <trkpt lat="48.20639" lon="-3.10675">
        <ele>163</ele>
        <time>2015-10-12T14:11:02.1Z</time>
      </trkpt>
      <trkpt lat="48.20643" lon="-3.10675">
        <ele>163</ele>
        <time>2015-10-12T14:11:05.1Z</time>
      </trkpt>
      <trkpt lat="48.20647" lon="-3.10675">
        <ele>163</ele>
        <time>2015-10-12T14:11:08.1Z</time>
      </trkpt>
      <trkpt lat="48.20649" lon="-3.10675">
        <ele>163</ele>
        <time>2015-10-12T14:11:10.1Z</time>
      </trkpt>
      <trkpt lat="48.20653" lon="-3.10675">
        <ele>163</ele>
        <time>2015-10-12T14:11:13.1Z</time>
      </trkpt>
      <trkpt lat="48.20655" lon="-3.10675">
        <ele>163</ele>
        <time>2015-10-12T14:11:15.1Z</time>
      </trkpt>
      <trkpt lat="48.20659" lon="-3.10675">
        <ele>163</ele>
        <time>2015-10-12T14:11:18.1Z</time>
      </trkpt>
      <trkpt lat="48.20662" lon="-3.10674">
        <ele>163</ele>
        <time>2015-10-12T14:11:21.1Z</time>
      </trkpt>
      <trkpt lat="48.20665" lon="-3.10673">
        <ele>163</ele>
        <time>2015-10-12T14:11:23.1Z</time>
      </trkpt>
      <trkpt lat="48.20667" lon="-3.10673">
        <ele>163</ele>
        <time>2015-10-12T14:11:25.1Z</time>
      </trkpt>
      <trkpt lat="48.2067" lon="-3.10672">
        <ele>163</ele>
        <time>2015-10-12T14:11:27.1Z</time>
      </trkpt>
      <trkpt lat="48.20674" lon="-3.10672">
        <ele>163</ele>
        <time>2015-10-12T14:11:30.1Z</time>
      </trkpt>
      <trkpt lat="48.20677" lon="-3.10672">
        <ele>163</ele>
        <time>2015-10-12T14:11:33.1Z</time>
      </trkpt>
      <trkpt lat="48.20681" lon="-3.10672">
        <ele>163</ele>
        <time>2015-10-12T14:11:36.1Z</time>
      </trkpt>
      <trkpt lat="48.20684" lon="-3.10671">
        <ele>163</ele>
        <time>2015-10-12T14:11:39.1Z</time>
      </trkpt>
      <trkpt lat="48.20688" lon="-3.10671">
        <ele>162</ele>
        <time>2015-10-12T14:11:42.1Z</time>
      </trkpt>
      <trkpt lat="48.2069" lon="-3.10671">
        <ele>162</ele>
        <time>2015-10-12T14:11:44.1Z</time>
      </trkpt>
      <trkpt lat="48.20693" lon="-3.10671">
        <ele>162</ele>
        <time>2015-10-12T14:11:47.1Z</time>
      </trkpt>
      <trkpt lat="48.20697" lon="-3.1067">
        <ele>162</ele>
        <time>2015-10-12T14:11:50.1Z</time>
      </trkpt>
      <trkpt lat="48.20699" lon="-3.1067">
        <ele>162</ele>
        <time>2015-10-12T14:11:52.1Z</time>
      </trkpt>
      <trkpt lat="48.20702" lon="-3.1067">
        <ele>162</ele>
        <time>2015-10-12T14:11:55.1Z</time>
      </trkpt>
      <trkpt lat="48.20705" lon="-3.10669">
        <ele>162</ele>
        <time>2015-10-12T14:11:57.1Z</time>
      </trkpt>
      <trkpt lat="48.20708" lon="-3.10669">
        <ele>163</ele>
        <time>2015-10-12T14:12:00.1Z</time>
      </trkpt>
      <trkpt lat="48.20711" lon="-3.10668">
        <ele>163</ele>
        <time>2015-10-12T14:12:02.1Z</time>
      </trkpt>
      <trkpt lat="48.20714" lon="-3.10668">
        <ele>163</ele>
        <time>2015-10-12T14:12:05.1Z</time>
      </trkpt>
      <trkpt lat="48.20718" lon="-3.10667">
        <ele>163</ele>
        <time>2015-10-12T14:12:08.1Z</time>
      </trkpt>
      <trkpt lat="48.2072" lon="-3.10667">
        <ele>163</ele>
        <time>2015-10-12T14:12:10.1Z</time>
      </trkpt>
      <trkpt lat="48.20722" lon="-3.10667">
        <ele>163</ele>
        <time>2015-10-12T14:12:12.1Z</time>
      </trkpt>
      <trkpt lat="48.20725" lon="-3.10666">
        <ele>163</ele>
        <time>2015-10-12T14:12:15.1Z</time>
      </trkpt>
      <trkpt lat="48.20728" lon="-3.10666">
        <ele>163</ele>
        <time>2015-10-12T14:12:18.1Z</time>
      </trkpt>
      <trkpt lat="48.2073" lon="-3.10666">
        <ele>163</ele>
        <time>2015-10-12T14:12:20.1Z</time>
      </trkpt>
      <trkpt lat="48.20731" lon="-3.10665">
        <ele>163</ele>
        <time>2015-10-12T14:12:22.1Z</time>
      </trkpt>
      <trkpt lat="48.20732" lon="-3.10665">
        <ele>163</ele>
        <time>2015-10-12T14:12:25.1Z</time>
      </trkpt>
      <trkpt lat="48.20732" lon="-3.10664">
        <ele>164</ele>
        <time>2015-10-12T14:12:28.1Z</time>
      </trkpt>
      <trkpt lat="48.20731" lon="-3.10664">
        <ele>163</ele>
        <time>2015-10-12T14:12:30.1Z</time>
      </trkpt>
      <trkpt lat="48.20732" lon="-3.10664">
        <ele>164</ele>
        <time>2015-10-12T14:12:33.1Z</time>
      </trkpt>
      <trkpt lat="48.20733" lon="-3.10663">
        <ele>163</ele>
        <time>2015-10-12T14:12:35.1Z</time>
      </trkpt>
      <trkpt lat="48.20737" lon="-3.10663">
        <ele>164</ele>
        <time>2015-10-12T14:12:38.1Z</time>
      </trkpt>
      <trkpt lat="48.20741" lon="-3.10662">
        <ele>164</ele>
        <time>2015-10-12T14:12:41.1Z</time>
      </trkpt>
      <trkpt lat="48.20745" lon="-3.10662">
        <ele>164</ele>
        <time>2015-10-12T14:12:44.1Z</time>
      </trkpt>
      <trkpt lat="48.20749" lon="-3.10661">
        <ele>164</ele>
        <time>2015-10-12T14:12:47.1Z</time>
      </trkpt>
      <trkpt lat="48.20752" lon="-3.10661">
        <ele>163</ele>
        <time>2015-10-12T14:12:49.1Z</time>
      </trkpt>
      <trkpt lat="48.20756" lon="-3.10661">
        <ele>163</ele>
        <time>2015-10-12T14:12:52.1Z</time>
      </trkpt>
      <trkpt lat="48.20758" lon="-3.10661">
        <ele>163</ele>
        <time>2015-10-12T14:12:54.1Z</time>
      </trkpt>
      <trkpt lat="48.20762" lon="-3.10661">
        <ele>163</ele>
        <time>2015-10-12T14:12:57.1Z</time>
      </trkpt>
      <trkpt lat="48.20764" lon="-3.10662">
        <ele>163</ele>
        <time>2015-10-12T14:12:59.1Z</time>
      </trkpt>
      <trkpt lat="48.20766" lon="-3.10662">
        <ele>163</ele>
        <time>2015-10-12T14:13:02.1Z</time>
      </trkpt>
      <trkpt lat="48.20768" lon="-3.10663">
        <ele>163</ele>
        <time>2015-10-12T14:13:05.1Z</time>
      </trkpt>
      <trkpt lat="48.20768" lon="-3.10663">
        <ele>163</ele>
        <time>2015-10-12T14:13:08.1Z</time>
      </trkpt>
      <trkpt lat="48.20768" lon="-3.10663">
        <ele>164</ele>
        <time>2015-10-12T14:13:10.1Z</time>
      </trkpt>
      <trkpt lat="48.20768" lon="-3.10665">
        <ele>164</ele>
        <time>2015-10-12T14:13:13.1Z</time>
      </trkpt>
      <trkpt lat="48.20769" lon="-3.10667">
        <ele>164</ele>
        <time>2015-10-12T14:13:16.1Z</time>
      </trkpt>
      <trkpt lat="48.20769" lon="-3.10668">
        <ele>163</ele>
        <time>2015-10-12T14:13:19.1Z</time>
      </trkpt>
      <trkpt lat="48.20769" lon="-3.10669">
        <ele>163</ele>
        <time>2015-10-12T14:13:21.1Z</time>
      </trkpt>
      <trkpt lat="48.20769" lon="-3.1067">
        <ele>163</ele>
        <time>2015-10-12T14:13:24.1Z</time>
      </trkpt>
      <trkpt lat="48.2077" lon="-3.10671">
        <ele>163</ele>
        <time>2015-10-12T14:13:26.1Z</time>
      </trkpt>
      <trkpt lat="48.20771" lon="-3.10672">
        <ele>163</ele>
        <time>2015-10-12T14:13:29.1Z</time>
      </trkpt>
      <trkpt lat="48.20772" lon="-3.10672">
        <ele>163</ele>
        <time>2015-10-12T14:13:31.1Z</time>
      </trkpt>
      <trkpt lat="48.20774" lon="-3.10673">
        <ele>163</ele>
        <time>2015-10-12T14:13:34.1Z</time>
      </trkpt>
      <trkpt lat="48.20776" lon="-3.10675">
        <ele>163</ele>
        <time>2015-10-12T14:13:37.1Z</time>
      </trkpt>
      <trkpt lat="48.20778" lon="-3.10676">
        <ele>163</ele>
        <time>2015-10-12T14:13:39.1Z</time>
      </trkpt>
      <trkpt lat="48.2078" lon="-3.10677">
        <ele>164</ele>
        <time>2015-10-12T14:13:42.1Z</time>
      </trkpt>
      <trkpt lat="48.20782" lon="-3.10677">
        <ele>164</ele>
        <time>2015-10-12T14:13:45.1Z</time>
      </trkpt>
      <trkpt lat="48.20784" lon="-3.10678">
        <ele>164</ele>
        <time>2015-10-12T14:13:47.1Z</time>
      </trkpt>
      <trkpt lat="48.20788" lon="-3.10679">
        <ele>163</ele>
        <time>2015-10-12T14:13:50.1Z</time>
      </trkpt>
      <trkpt lat="48.20789" lon="-3.1068">
        <ele>164</ele>
        <time>2015-10-12T14:13:53.1Z</time>
      </trkpt>
      <trkpt lat="48.2079" lon="-3.10682">
        <ele>164</ele>
        <time>2015-10-12T14:13:55.1Z</time>
      </trkpt>
      <trkpt lat="48.20791" lon="-3.10683">
        <ele>164</ele>
        <time>2015-10-12T14:13:57.1Z</time>
      </trkpt>
      <trkpt lat="48.20793" lon="-3.10685">
        <ele>164</ele>
        <time>2015-10-12T14:14:00.1Z</time>
      </trkpt>
      <trkpt lat="48.20794" lon="-3.10686">
        <ele>164</ele>
        <time>2015-10-12T14:14:02.1Z</time>
      </trkpt>
      <trkpt lat="48.20797" lon="-3.10688">
        <ele>164</ele>
        <time>2015-10-12T14:14:05.1Z</time>
      </trkpt>
      <trkpt lat="48.20798" lon="-3.10689">
        <ele>164</ele>
        <time>2015-10-12T14:14:07.1Z</time>
      </trkpt>
      <trkpt lat="48.208" lon="-3.10689">
        <ele>164</ele>
        <time>2015-10-12T14:14:10.1Z</time>
      </trkpt>
      <trkpt lat="48.20802" lon="-3.1069">
        <ele>164</ele>
        <time>2015-10-12T14:14:13.1Z</time>
      </trkpt>
      <trkpt lat="48.20804" lon="-3.1069">
        <ele>163</ele>
        <time>2015-10-12T14:14:16.1Z</time>
      </trkpt>
      <trkpt lat="48.20807" lon="-3.1069">
        <ele>163</ele>
        <time>2015-10-12T14:14:19.1Z</time>
      </trkpt>
      <trkpt lat="48.2081" lon="-3.1069">
        <ele>163</ele>
        <time>2015-10-12T14:14:22.1Z</time>
      </trkpt>
      <trkpt lat="48.20812" lon="-3.1069">
        <ele>163</ele>
        <time>2015-10-12T14:14:24.1Z</time>
      </trkpt>
      <trkpt lat="48.20815" lon="-3.10691">
        <ele>163</ele>
        <time>2015-10-12T14:14:26.1Z</time>
      </trkpt>
      <trkpt lat="48.20818" lon="-3.10692">
        <ele>163</ele>
        <time>2015-10-12T14:14:29.1Z</time>
      </trkpt>
      <trkpt lat="48.20821" lon="-3.10692">
        <ele>164</ele>
        <time>2015-10-12T14:14:31.1Z</time>
      </trkpt>
      <trkpt lat="48.20824" lon="-3.10693">
        <ele>164</ele>
        <time>2015-10-12T14:14:34.1Z</time>
      </trkpt>
      <trkpt lat="48.20826" lon="-3.10694">
        <ele>164</ele>
        <time>2015-10-12T14:14:36.1Z</time>
      </trkpt>
      <trkpt lat="48.2083" lon="-3.10695">
        <ele>164</ele>
        <time>2015-10-12T14:14:39.1Z</time>
      </trkpt>
      <trkpt lat="48.20832" lon="-3.10696">
        <ele>164</ele>
        <time>2015-10-12T14:14:41.1Z</time>
      </trkpt>
      <trkpt lat="48.20833" lon="-3.10698">
        <ele>164</ele>
        <time>2015-10-12T14:14:43.1Z</time>
      </trkpt>
      <trkpt lat="48.20836" lon="-3.107">
        <ele>164</ele>
        <time>2015-10-12T14:14:46.1Z</time>
      </trkpt>
      <trkpt lat="48.20839" lon="-3.10703">
        <ele>164</ele>
        <time>2015-10-12T14:14:49.1Z</time>
      </trkpt>
      <trkpt lat="48.20842" lon="-3.10706">
        <ele>165</ele>
        <time>2015-10-12T14:14:52.1Z</time>
      </trkpt>
      <trkpt lat="48.20844" lon="-3.10709">
        <ele>165</ele>
        <time>2015-10-12T14:14:55.1Z</time>
      </trkpt>
      <trkpt lat="48.20846" lon="-3.10712">
        <ele>165</ele>
        <time>2015-10-12T14:14:57.1Z</time>
      </trkpt>
      <trkpt lat="48.20847" lon="-3.10714">
        <ele>165</ele>
        <time>2015-10-12T14:14:59.1Z</time>
      </trkpt>
      <trkpt lat="48.20849" lon="-3.10718">
        <ele>165</ele>
        <time>2015-10-12T14:15:02.1Z</time>
      </trkpt>
      <trkpt lat="48.20851" lon="-3.10721">
        <ele>165</ele>
        <time>2015-10-12T14:15:05.1Z</time>
      </trkpt>
      <trkpt lat="48.20853" lon="-3.10725">
        <ele>165</ele>
        <time>2015-10-12T14:15:08.1Z</time>
      </trkpt>
      <trkpt lat="48.20854" lon="-3.10727">
        <ele>165</ele>
        <time>2015-10-12T14:15:10.1Z</time>
      </trkpt>
      <trkpt lat="48.20856" lon="-3.10731">
        <ele>165</ele>
        <time>2015-10-12T14:15:13.1Z</time>
      </trkpt>
      <trkpt lat="48.20858" lon="-3.10735">
        <ele>165</ele>
        <time>2015-10-12T14:15:16.1Z</time>
      </trkpt>
      <trkpt lat="48.2086" lon="-3.10738">
        <ele>165</ele>
        <time>2015-10-12T14:15:19.1Z</time>
      </trkpt>
      <trkpt lat="48.20861" lon="-3.10742">
        <ele>165</ele>
        <time>2015-10-12T14:15:22.1Z</time>
      </trkpt>
      <trkpt lat="48.20863" lon="-3.10744">
        <ele>165</ele>
        <time>2015-10-12T14:15:25.1Z</time>
      </trkpt>
      <trkpt lat="48.20864" lon="-3.10747">
        <ele>165</ele>
        <time>2015-10-12T14:15:28.1Z</time>
      </trkpt>
      <trkpt lat="48.20866" lon="-3.10751">
        <ele>165</ele>
        <time>2015-10-12T14:15:31.1Z</time>
      </trkpt>
      <trkpt lat="48.20867" lon="-3.10753">
        <ele>165</ele>
        <time>2015-10-12T14:15:33.1Z</time>
      </trkpt>
      <trkpt lat="48.20868" lon="-3.10756">
        <ele>166</ele>
        <time>2015-10-12T14:15:35.1Z</time>
      </trkpt>
      <trkpt lat="48.20869" lon="-3.10759">
        <ele>166</ele>
        <time>2015-10-12T14:15:37.1Z</time>
      </trkpt>
      <trkpt lat="48.2087" lon="-3.10763">
        <ele>166</ele>
        <time>2015-10-12T14:15:40.1Z</time>
      </trkpt>
      <trkpt lat="48.20871" lon="-3.10767">
        <ele>165</ele>
        <time>2015-10-12T14:15:43.1Z</time>
      </trkpt>
      <trkpt lat="48.20872" lon="-3.1077">
        <ele>165</ele>
        <time>2015-10-12T14:15:45.1Z</time>
      </trkpt>
      <trkpt lat="48.20873" lon="-3.10773">
        <ele>165</ele>
        <time>2015-10-12T14:15:48.1Z</time>
      </trkpt>
      <trkpt lat="48.20873" lon="-3.10777">
        <ele>166</ele>
        <time>2015-10-12T14:15:51.1Z</time>
      </trkpt>
      <trkpt lat="48.20873" lon="-3.10776">
        <ele>166</ele>
        <time>2015-10-12T14:15:53.1Z</time>
      </trkpt>
      <trkpt lat="48.20873" lon="-3.10778">
        <ele>165</ele>
        <time>2015-10-12T14:15:56.1Z</time>
      </trkpt>
      <trkpt lat="48.20874" lon="-3.10781">
        <ele>165</ele>
        <time>2015-10-12T14:15:58.1Z</time>
      </trkpt>
      <trkpt lat="48.20874" lon="-3.10783">
        <ele>166</ele>
        <time>2015-10-12T14:16:00.1Z</time>
      </trkpt>
      <trkpt lat="48.20874" lon="-3.10788">
        <ele>166</ele>
        <time>2015-10-12T14:16:03.1Z</time>
      </trkpt>
      <trkpt lat="48.20874" lon="-3.1079">
        <ele>165</ele>
        <time>2015-10-12T14:16:05.1Z</time>
      </trkpt>
      <trkpt lat="48.20874" lon="-3.10791">
        <ele>165</ele>
        <time>2015-10-12T14:16:07.1Z</time>
      </trkpt>
      <trkpt lat="48.20871" lon="-3.10794">
        <ele>165</ele>
        <time>2015-10-12T14:16:10.1Z</time>
      </trkpt>
      <trkpt lat="48.20871" lon="-3.10795">
        <ele>165</ele>
        <time>2015-10-12T14:16:13.1Z</time>
      </trkpt>
      <trkpt lat="48.2087" lon="-3.10796">
        <ele>165</ele>
        <time>2015-10-12T14:16:15.1Z</time>
      </trkpt>
      <trkpt lat="48.2087" lon="-3.10796">
        <ele>164</ele>
        <time>2015-10-12T14:16:17.1Z</time>
      </trkpt>
      <trkpt lat="48.20869" lon="-3.10796">
        <ele>164</ele>
        <time>2015-10-12T14:16:19.1Z</time>
      </trkpt>
      <trkpt lat="48.20869" lon="-3.10796">
        <ele>164</ele>
        <time>2015-10-12T14:16:22.1Z</time>
      </trkpt>
      <trkpt lat="48.20869" lon="-3.10796">
        <ele>165</ele>
        <time>2015-10-12T14:16:25.1Z</time>
      </trkpt>
      <trkpt lat="48.20869" lon="-3.10796">
        <ele>165</ele>
        <time>2015-10-12T14:16:27.1Z</time>
      </trkpt>
      <trkpt lat="48.2087" lon="-3.10795">
        <ele>165</ele>
        <time>2015-10-12T14:16:30.1Z</time>
      </trkpt>
      <trkpt lat="48.2087" lon="-3.10794">
        <ele>165</ele>
        <time>2015-10-12T14:16:33.1Z</time>
      </trkpt>
      <trkpt lat="48.20871" lon="-3.10794">
        <ele>165</ele>
        <time>2015-10-12T14:16:35.1Z</time>
      </trkpt>
      <trkpt lat="48.20871" lon="-3.10794">
        <ele>165</ele>
        <time>2015-10-12T14:16:38.1Z</time>
      </trkpt>
      <trkpt lat="48.20869" lon="-3.10796">
        <ele>165</ele>
        <time>2015-10-12T14:16:41.1Z</time>
      </trkpt>
      <trkpt lat="48.20869" lon="-3.10796">
        <ele>165</ele>
        <time>2015-10-12T14:16:43.1Z</time>
      </trkpt>
      <trkpt lat="48.20869" lon="-3.10795">
        <ele>165</ele>
        <time>2015-10-12T14:16:46.1Z</time>
      </trkpt>
      <trkpt lat="48.20869" lon="-3.10795">
        <ele>165</ele>
        <time>2015-10-12T14:16:48.1Z</time>
      </trkpt>
      <trkpt lat="48.20868" lon="-3.10793">
        <ele>165</ele>
        <time>2015-10-12T14:16:51.1Z</time>
      </trkpt>
      <trkpt lat="48.20868" lon="-3.10793">
        <ele>166</ele>
        <time>2015-10-12T14:16:53.1Z</time>
      </trkpt>
      <trkpt lat="48.20869" lon="-3.10793">
        <ele>166</ele>
        <time>2015-10-12T14:16:56.1Z</time>
      </trkpt>
      <trkpt lat="48.20869" lon="-3.10793">
        <ele>165</ele>
        <time>2015-10-12T14:16:58.1Z</time>
      </trkpt>
      <trkpt lat="48.20869" lon="-3.10793">
        <ele>165</ele>
        <time>2015-10-12T14:17:03.1Z</time>
      </trkpt>
      <trkpt lat="48.2087" lon="-3.10794">
        <ele>165</ele>
        <time>2015-10-12T14:17:06.1Z</time>
      </trkpt>
      <trkpt lat="48.2087" lon="-3.10797">
        <ele>166</ele>
        <time>2015-10-12T14:17:08.1Z</time>
      </trkpt>
      <trkpt lat="48.2087" lon="-3.10798">
        <ele>165</ele>
        <time>2015-10-12T14:17:10.1Z</time>
      </trkpt>
      <trkpt lat="48.2087" lon="-3.10798">
        <ele>165</ele>
        <time>2015-10-12T14:17:13.1Z</time>
      </trkpt>
      <trkpt lat="48.2087" lon="-3.10799">
        <ele>165</ele>
        <time>2015-10-12T14:17:16.1Z</time>
      </trkpt>
      <trkpt lat="48.20871" lon="-3.10798">
        <ele>164</ele>
        <time>2015-10-12T14:17:18.1Z</time>
      </trkpt>
      <trkpt lat="48.20872" lon="-3.10798">
        <ele>164</ele>
        <time>2015-10-12T14:17:21.1Z</time>
      </trkpt>
      <trkpt lat="48.20873" lon="-3.10798">
        <ele>164</ele>
        <time>2015-10-12T14:17:24.1Z</time>
      </trkpt>
      <trkpt lat="48.20872" lon="-3.10797">
        <ele>164</ele>
        <time>2015-10-12T14:17:27.1Z</time>
      </trkpt>
      <trkpt lat="48.20872" lon="-3.10798">
        <ele>164</ele>
        <time>2015-10-12T14:17:29.1Z</time>
      </trkpt>
      <trkpt lat="48.20872" lon="-3.10799">
        <ele>164</ele>
        <time>2015-10-12T14:17:32.1Z</time>
      </trkpt>
      <trkpt lat="48.20873" lon="-3.10801">
        <ele>165</ele>
        <time>2015-10-12T14:17:34.1Z</time>
      </trkpt>
      <trkpt lat="48.20872" lon="-3.10805">
        <ele>165</ele>
        <time>2015-10-12T14:17:37.1Z</time>
      </trkpt>
      <trkpt lat="48.20871" lon="-3.10808">
        <ele>165</ele>
        <time>2015-10-12T14:17:40.1Z</time>
      </trkpt>
      <trkpt lat="48.20869" lon="-3.10812">
        <ele>165</ele>
        <time>2015-10-12T14:17:43.1Z</time>
      </trkpt>
      <trkpt lat="48.20868" lon="-3.10816">
        <ele>165</ele>
        <time>2015-10-12T14:17:46.1Z</time>
      </trkpt>
      <trkpt lat="48.20867" lon="-3.10818">
        <ele>164</ele>
        <time>2015-10-12T14:17:48.1Z</time>
      </trkpt>
      <trkpt lat="48.20866" lon="-3.10822">
        <ele>164</ele>
        <time>2015-10-12T14:17:51.1Z</time>
      </trkpt>
      <trkpt lat="48.20865" lon="-3.10824">
        <ele>164</ele>
        <time>2015-10-12T14:17:53.1Z</time>
      </trkpt>
      <trkpt lat="48.20863" lon="-3.10828">
        <ele>164</ele>
        <time>2015-10-12T14:17:56.1Z</time>
      </trkpt>
      <trkpt lat="48.20861" lon="-3.10832">
        <ele>163</ele>
        <time>2015-10-12T14:17:59.1Z</time>
      </trkpt>
      <trkpt lat="48.2086" lon="-3.10833">
        <ele>163</ele>
        <time>2015-10-12T14:18:01.1Z</time>
      </trkpt>
      <trkpt lat="48.20859" lon="-3.10834">
        <ele>163</ele>
        <time>2015-10-12T14:18:05.1Z</time>
      </trkpt>
      <trkpt lat="48.20859" lon="-3.10837">
        <ele>164</ele>
        <time>2015-10-12T14:18:07.1Z</time>
      </trkpt>
      <trkpt lat="48.20858" lon="-3.1084">
        <ele>164</ele>
        <time>2015-10-12T14:18:10.1Z</time>
      </trkpt>
      <trkpt lat="48.20858" lon="-3.10841">
        <ele>164</ele>
        <time>2015-10-12T14:18:12.1Z</time>
      </trkpt>
      <trkpt lat="48.20858" lon="-3.1084">
        <ele>165</ele>
        <time>2015-10-12T14:18:14.1Z</time>
      </trkpt>
      <trkpt lat="48.20858" lon="-3.10842">
        <ele>165</ele>
        <time>2015-10-12T14:18:17.1Z</time>
      </trkpt>
      <trkpt lat="48.20858" lon="-3.10847">
        <ele>164</ele>
        <time>2015-10-12T14:18:20.1Z</time>
      </trkpt>
      <trkpt lat="48.20857" lon="-3.1085">
        <ele>164</ele>
        <time>2015-10-12T14:18:22.1Z</time>
      </trkpt>
      <trkpt lat="48.20855" lon="-3.10855">
        <ele>164</ele>
        <time>2015-10-12T14:18:25.1Z</time>
      </trkpt>
      <trkpt lat="48.20855" lon="-3.10858">
        <ele>164</ele>
        <time>2015-10-12T14:18:27.1Z</time>
      </trkpt>
      <trkpt lat="48.20853" lon="-3.10862">
        <ele>164</ele>
        <time>2015-10-12T14:18:30.1Z</time>
      </trkpt>
      <trkpt lat="48.20853" lon="-3.10865">
        <ele>163</ele>
        <time>2015-10-12T14:18:33.1Z</time>
      </trkpt>
      <trkpt lat="48.20852" lon="-3.10866">
        <ele>163</ele>
        <time>2015-10-12T14:18:35.1Z</time>
      </trkpt>
      <trkpt lat="48.20852" lon="-3.10868">
        <ele>163</ele>
        <time>2015-10-12T14:18:38.1Z</time>
      </trkpt>
      <trkpt lat="48.20851" lon="-3.10871">
        <ele>163</ele>
        <time>2015-10-12T14:18:40.1Z</time>
      </trkpt>
      <trkpt lat="48.20852" lon="-3.10872">
        <ele>163</ele>
        <time>2015-10-12T14:18:43.1Z</time>
      </trkpt>
      <trkpt lat="48.20851" lon="-3.10875">
        <ele>163</ele>
        <time>2015-10-12T14:18:46.1Z</time>
      </trkpt>
      <trkpt lat="48.2085" lon="-3.10877">
        <ele>163</ele>
        <time>2015-10-12T14:18:48.1Z</time>
      </trkpt>
      <trkpt lat="48.20848" lon="-3.10881">
        <ele>163</ele>
        <time>2015-10-12T14:18:51.1Z</time>
      </trkpt>
      <trkpt lat="48.20846" lon="-3.10886">
        <ele>163</ele>
        <time>2015-10-12T14:18:54.1Z</time>
      </trkpt>
      <trkpt lat="48.20845" lon="-3.10888">
        <ele>163</ele>
        <time>2015-10-12T14:18:56.1Z</time>
      </trkpt>
      <trkpt lat="48.20843" lon="-3.1089">
        <ele>163</ele>
        <time>2015-10-12T14:18:58.1Z</time>
      </trkpt>
      <trkpt lat="48.20841" lon="-3.10892">
        <ele>163</ele>
        <time>2015-10-12T14:19:01.1Z</time>
      </trkpt>
      <trkpt lat="48.20838" lon="-3.10895">
        <ele>163</ele>
        <time>2015-10-12T14:19:04.1Z</time>
      </trkpt>
      <trkpt lat="48.20837" lon="-3.10897">
        <ele>163</ele>
        <time>2015-10-12T14:19:06.1Z</time>
      </trkpt>
      <trkpt lat="48.20834" lon="-3.109">
        <ele>163</ele>
        <time>2015-10-12T14:19:09.1Z</time>
      </trkpt>
      <trkpt lat="48.20831" lon="-3.10905">
        <ele>163</ele>
        <time>2015-10-12T14:19:12.1Z</time>
      </trkpt>
      <trkpt lat="48.20829" lon="-3.10907">
        <ele>163</ele>
        <time>2015-10-12T14:19:15.1Z</time>
      </trkpt>
      <trkpt lat="48.20826" lon="-3.10909">
        <ele>163</ele>
        <time>2015-10-12T14:19:17.1Z</time>
      </trkpt>
      <trkpt lat="48.20824" lon="-3.10911">
        <ele>163</ele>
        <time>2015-10-12T14:19:19.1Z</time>
      </trkpt>
      <trkpt lat="48.20821" lon="-3.10913">
        <ele>163</ele>
        <time>2015-10-12T14:19:22.1Z</time>
      </trkpt>
      <trkpt lat="48.20818" lon="-3.10915">
        <ele>163</ele>
        <time>2015-10-12T14:19:25.1Z</time>
      </trkpt>
      <trkpt lat="48.20814" lon="-3.10917">
        <ele>163</ele>
        <time>2015-10-12T14:19:28.1Z</time>
      </trkpt>
      <trkpt lat="48.20811" lon="-3.10919">
        <ele>163</ele>
        <time>2015-10-12T14:19:31.1Z</time>
      </trkpt>
      <trkpt lat="48.20808" lon="-3.10919">
        <ele>163</ele>
        <time>2015-10-12T14:19:33.1Z</time>
      </trkpt>
      <trkpt lat="48.20806" lon="-3.10921">
        <ele>163</ele>
        <time>2015-10-12T14:19:35.1Z</time>
      </trkpt>
      <trkpt lat="48.20803" lon="-3.10922">
        <ele>163</ele>
        <time>2015-10-12T14:19:38.1Z</time>
      </trkpt>
      <trkpt lat="48.20801" lon="-3.10922">
        <ele>163</ele>
        <time>2015-10-12T14:19:40.1Z</time>
      </trkpt>
      <trkpt lat="48.20798" lon="-3.10923">
        <ele>163</ele>
        <time>2015-10-12T14:19:43.1Z</time>
      </trkpt>
      <trkpt lat="48.20795" lon="-3.10924">
        <ele>163</ele>
        <time>2015-10-12T14:19:46.1Z</time>
      </trkpt>
      <trkpt lat="48.20791" lon="-3.10925">
        <ele>163</ele>
        <time>2015-10-12T14:19:49.1Z</time>
      </trkpt>
      <trkpt lat="48.20789" lon="-3.10926">
        <ele>163</ele>
        <time>2015-10-12T14:19:51.1Z</time>
      </trkpt>
      <trkpt lat="48.20785" lon="-3.10927">
        <ele>163</ele>
        <time>2015-10-12T14:19:54.1Z</time>
      </trkpt>
      <trkpt lat="48.2078" lon="-3.10927">
        <ele>163</ele>
        <time>2015-10-12T14:19:57.1Z</time>
      </trkpt>
      <trkpt lat="48.20778" lon="-3.10927">
        <ele>163</ele>
        <time>2015-10-12T14:19:59.1Z</time>
      </trkpt>
      <trkpt lat="48.20775" lon="-3.10927">
        <ele>163</ele>
        <time>2015-10-12T14:20:01.1Z</time>
      </trkpt>
      <trkpt lat="48.20772" lon="-3.10927">
        <ele>163</ele>
        <time>2015-10-12T14:20:04.1Z</time>
      </trkpt>
      <trkpt lat="48.20769" lon="-3.10927">
        <ele>163</ele>
        <time>2015-10-12T14:20:07.1Z</time>
      </trkpt>
      <trkpt lat="48.20767" lon="-3.10928">
        <ele>163</ele>
        <time>2015-10-12T14:20:09.1Z</time>
      </trkpt>
      <trkpt lat="48.20765" lon="-3.10929">
        <ele>163</ele>
        <time>2015-10-12T14:20:11.1Z</time>
      </trkpt>
      <trkpt lat="48.20762" lon="-3.1093">
        <ele>163</ele>
        <time>2015-10-12T14:20:14.1Z</time>
      </trkpt>
      <trkpt lat="48.2076" lon="-3.10931">
        <ele>163</ele>
        <time>2015-10-12T14:20:16.1Z</time>
      </trkpt>
      <trkpt lat="48.20757" lon="-3.10933">
        <ele>163</ele>
        <time>2015-10-12T14:20:19.1Z</time>
      </trkpt>
      <trkpt lat="48.20755" lon="-3.10934">
        <ele>163</ele>
        <time>2015-10-12T14:20:21.1Z</time>
      </trkpt>
      <trkpt lat="48.20751" lon="-3.10935">
        <ele>163</ele>
        <time>2015-10-12T14:20:24.1Z</time>
      </trkpt>
      <trkpt lat="48.20749" lon="-3.10935">
        <ele>163</ele>
        <time>2015-10-12T14:20:27.1Z</time>
      </trkpt>
      <trkpt lat="48.20747" lon="-3.10935">
        <ele>163</ele>
        <time>2015-10-12T14:20:29.1Z</time>
      </trkpt>
      <trkpt lat="48.20745" lon="-3.10937">
        <ele>163</ele>
        <time>2015-10-12T14:20:32.1Z</time>
      </trkpt>
      <trkpt lat="48.20744" lon="-3.10937">
        <ele>163</ele>
        <time>2015-10-12T14:20:34.1Z</time>
      </trkpt>
      <trkpt lat="48.20743" lon="-3.10939">
        <ele>163</ele>
        <time>2015-10-12T14:20:36.1Z</time>
      </trkpt>
      <trkpt lat="48.20742" lon="-3.10941">
        <ele>163</ele>
        <time>2015-10-12T14:20:38.1Z</time>
      </trkpt>
      <trkpt lat="48.20742" lon="-3.10943">
        <ele>163</ele>
        <time>2015-10-12T14:20:40.1Z</time>
      </trkpt>
      <trkpt lat="48.20741" lon="-3.10948">
        <ele>164</ele>
        <time>2015-10-12T14:20:43.1Z</time>
      </trkpt>
      <trkpt lat="48.20741" lon="-3.1095">
        <ele>164</ele>
        <time>2015-10-12T14:20:45.1Z</time>
      </trkpt>
      <trkpt lat="48.20741" lon="-3.10952">
        <ele>164</ele>
        <time>2015-10-12T14:20:47.1Z</time>
      </trkpt>
      <trkpt lat="48.20741" lon="-3.10957">
        <ele>164</ele>
        <time>2015-10-12T14:20:49.1Z</time>
      </trkpt>
      <trkpt lat="48.20743" lon="-3.10962">
        <ele>165</ele>
        <time>2015-10-12T14:20:52.1Z</time>
      </trkpt>
      <trkpt lat="48.20744" lon="-3.10967">
        <ele>165</ele>
        <time>2015-10-12T14:20:54.1Z</time>
      </trkpt>
      <trkpt lat="48.20747" lon="-3.10972">
        <ele>165</ele>
        <time>2015-10-12T14:20:57.1Z</time>
      </trkpt>
      <trkpt lat="48.20749" lon="-3.10977">
        <ele>165</ele>
        <time>2015-10-12T14:21:00.1Z</time>
      </trkpt>
      <trkpt lat="48.2075" lon="-3.10979">
        <ele>165</ele>
        <time>2015-10-12T14:21:02.1Z</time>
      </trkpt>
      <trkpt lat="48.20752" lon="-3.10983">
        <ele>165</ele>
        <time>2015-10-12T14:21:05.1Z</time>
      </trkpt>
      <trkpt lat="48.20753" lon="-3.10987">
        <ele>166</ele>
        <time>2015-10-12T14:21:08.1Z</time>
      </trkpt>
      <trkpt lat="48.20757" lon="-3.10989">
        <ele>166</ele>
        <time>2015-10-12T14:21:11.1Z</time>
      </trkpt>
      <trkpt lat="48.20759" lon="-3.10992">
        <ele>166</ele>
        <time>2015-10-12T14:21:14.1Z</time>
      </trkpt>
      <trkpt lat="48.20761" lon="-3.10993">
        <ele>167</ele>
        <time>2015-10-12T14:21:16.1Z</time>
      </trkpt>
      <trkpt lat="48.20763" lon="-3.10993">
        <ele>167</ele>
        <time>2015-10-12T14:21:18.1Z</time>
      </trkpt>
      <trkpt lat="48.20764" lon="-3.10994">
        <ele>167</ele>
        <time>2015-10-12T14:21:21.1Z</time>
      </trkpt>
      <trkpt lat="48.20766" lon="-3.10995">
        <ele>166</ele>
        <time>2015-10-12T14:21:24.1Z</time>
      </trkpt>
      <trkpt lat="48.20768" lon="-3.10994">
        <ele>166</ele>
        <time>2015-10-12T14:21:26.1Z</time>
      </trkpt>
      <trkpt lat="48.2077" lon="-3.10995">
        <ele>166</ele>
        <time>2015-10-12T14:21:28.1Z</time>
      </trkpt>
      <trkpt lat="48.20773" lon="-3.10997">
        <ele>166</ele>
        <time>2015-10-12T14:21:31.1Z</time>
      </trkpt>
      <trkpt lat="48.20773" lon="-3.10998">
        <ele>166</ele>
        <time>2015-10-12T14:21:33.1Z</time>
      </trkpt>
      <trkpt lat="48.20774" lon="-3.10999">
        <ele>167</ele>
        <time>2015-10-12T14:21:36.1Z</time>
      </trkpt>
      <trkpt lat="48.20774" lon="-3.11">
        <ele>167</ele>
        <time>2015-10-12T14:21:38.1Z</time>
      </trkpt>
      <trkpt lat="48.20774" lon="-3.11">
        <ele>167</ele>
        <time>2015-10-12T14:21:41.1Z</time>
      </trkpt>
      <trkpt lat="48.20774" lon="-3.11001">
        <ele>167</ele>
        <time>2015-10-12T14:21:43.1Z</time>
      </trkpt>
      <trkpt lat="48.20774" lon="-3.11002">
        <ele>167</ele>
        <time>2015-10-12T14:21:45.1Z</time>
      </trkpt>
      <trkpt lat="48.20774" lon="-3.11002">
        <ele>167</ele>
        <time>2015-10-12T14:21:48.1Z</time>
      </trkpt>
      <trkpt lat="48.20773" lon="-3.11001">
        <ele>167</ele>
        <time>2015-10-12T14:21:50.1Z</time>
      </trkpt>
      <trkpt lat="48.20773" lon="-3.11">
        <ele>167</ele>
        <time>2015-10-12T14:21:52.1Z</time>
      </trkpt>
      <trkpt lat="48.20773" lon="-3.11001">
        <ele>167</ele>
        <time>2015-10-12T14:21:55.1Z</time>
      </trkpt>
      <trkpt lat="48.20774" lon="-3.11002">
        <ele>166</ele>
        <time>2015-10-12T14:21:58.1Z</time>
      </trkpt>
      <trkpt lat="48.20775" lon="-3.11001">
        <ele>166</ele>
        <time>2015-10-12T14:22:00.1Z</time>
      </trkpt>
      <trkpt lat="48.20775" lon="-3.11001">
        <ele>166</ele>
        <time>2015-10-12T14:22:02.1Z</time>
      </trkpt>
      <trkpt lat="48.20776" lon="-3.11">
        <ele>166</ele>
        <time>2015-10-12T14:22:05.1Z</time>
      </trkpt>
      <trkpt lat="48.20776" lon="-3.10999">
        <ele>166</ele>
        <time>2015-10-12T14:22:08.1Z</time>
      </trkpt>
      <trkpt lat="48.20777" lon="-3.10998">
        <ele>166</ele>
        <time>2015-10-12T14:22:10.1Z</time>
      </trkpt>
      <trkpt lat="48.2078" lon="-3.10998">
        <ele>166</ele>
        <time>2015-10-12T14:22:12.1Z</time>
      </trkpt>
      <trkpt lat="48.20784" lon="-3.10998">
        <ele>166</ele>
        <time>2015-10-12T14:22:15.1Z</time>
      </trkpt>
      <trkpt lat="48.20786" lon="-3.10998">
        <ele>166</ele>
        <time>2015-10-12T14:22:17.1Z</time>
      </trkpt>
      <trkpt lat="48.20789" lon="-3.10997">
        <ele>167</ele>
        <time>2015-10-12T14:22:20.1Z</time>
      </trkpt>
      <trkpt lat="48.20791" lon="-3.10997">
        <ele>167</ele>
        <time>2015-10-12T14:22:22.1Z</time>
      </trkpt>
      <trkpt lat="48.20793" lon="-3.10997">
        <ele>167</ele>
        <time>2015-10-12T14:22:25.1Z</time>
      </trkpt>
      <trkpt lat="48.20795" lon="-3.10996">
        <ele>167</ele>
        <time>2015-10-12T14:22:27.1Z</time>
      </trkpt>
      <trkpt lat="48.20798" lon="-3.10995">
        <ele>167</ele>
        <time>2015-10-12T14:22:30.1Z</time>
      </trkpt>
      <trkpt lat="48.208" lon="-3.10994">
        <ele>167</ele>
        <time>2015-10-12T14:22:32.1Z</time>
      </trkpt>
      <trkpt lat="48.20801" lon="-3.10993">
        <ele>167</ele>
        <time>2015-10-12T14:22:34.1Z</time>
      </trkpt>
      <trkpt lat="48.20803" lon="-3.10992">
        <ele>167</ele>
        <time>2015-10-12T14:22:37.1Z</time>
      </trkpt>
      <trkpt lat="48.20804" lon="-3.10991">
        <ele>167</ele>
        <time>2015-10-12T14:22:39.1Z</time>
      </trkpt>
      <trkpt lat="48.20805" lon="-3.1099">
        <ele>167</ele>
        <time>2015-10-12T14:22:41.1Z</time>
      </trkpt>
      <trkpt lat="48.20807" lon="-3.10989">
        <ele>167</ele>
        <time>2015-10-12T14:22:44.1Z</time>
      </trkpt>
      <trkpt lat="48.20809" lon="-3.10988">
        <ele>167</ele>
        <time>2015-10-12T14:22:46.1Z</time>
      </trkpt>
      <trkpt lat="48.20812" lon="-3.10986">
        <ele>167</ele>
        <time>2015-10-12T14:22:49.1Z</time>
      </trkpt>
      <trkpt lat="48.20813" lon="-3.10985">
        <ele>167</ele>
        <time>2015-10-12T14:22:51.1Z</time>
      </trkpt>
      <trkpt lat="48.20815" lon="-3.10983">
        <ele>167</ele>
        <time>2015-10-12T14:22:54.1Z</time>
      </trkpt>
      <trkpt lat="48.20816" lon="-3.10983">
        <ele>168</ele>
        <time>2015-10-12T14:22:56.1Z</time>
      </trkpt>
      <trkpt lat="48.20819" lon="-3.10983">
        <ele>168</ele>
        <time>2015-10-12T14:22:59.1Z</time>
      </trkpt>
      <trkpt lat="48.20822" lon="-3.10982">
        <ele>168</ele>
        <time>2015-10-12T14:23:02.1Z</time>
      </trkpt>
      <trkpt lat="48.20825" lon="-3.10981">
        <ele>168</ele>
        <time>2015-10-12T14:23:05.1Z</time>
      </trkpt>
      <trkpt lat="48.20826" lon="-3.10981">
        <ele>168</ele>
        <time>2015-10-12T14:23:07.1Z</time>
      </trkpt>
      <trkpt lat="48.20827" lon="-3.10981">
        <ele>168</ele>
        <time>2015-10-12T14:23:09.1Z</time>
      </trkpt>
      <trkpt lat="48.20829" lon="-3.10981">
        <ele>168</ele>
        <time>2015-10-12T14:23:12.1Z</time>
      </trkpt>
      <trkpt lat="48.20831" lon="-3.10982">
        <ele>168</ele>
        <time>2015-10-12T14:23:15.1Z</time>
      </trkpt>
      <trkpt lat="48.20832" lon="-3.10982">
        <ele>168</ele>
        <time>2015-10-12T14:23:17.1Z</time>
      </trkpt>
      <trkpt lat="48.20833" lon="-3.10981">
        <ele>168</ele>
        <time>2015-10-12T14:23:20.1Z</time>
      </trkpt>
      <trkpt lat="48.20834" lon="-3.10982">
        <ele>168</ele>
        <time>2015-10-12T14:23:22.1Z</time>
      </trkpt>
      <trkpt lat="48.20834" lon="-3.10982">
        <ele>168</ele>
        <time>2015-10-12T14:23:24.1Z</time>
      </trkpt>
      <trkpt lat="48.20835" lon="-3.10981">
        <ele>168</ele>
        <time>2015-10-12T14:23:27.1Z</time>
      </trkpt>
      <trkpt lat="48.20836" lon="-3.10981">
        <ele>168</ele>
        <time>2015-10-12T14:23:30.1Z</time>
      </trkpt>
      <trkpt lat="48.20836" lon="-3.10982">
        <ele>168</ele>
        <time>2015-10-12T14:23:32.1Z</time>
      </trkpt>
      <trkpt lat="48.20837" lon="-3.10981">
        <ele>168</ele>
        <time>2015-10-12T14:23:34.1Z</time>
      </trkpt>
      <trkpt lat="48.20838" lon="-3.10978">
        <ele>167</ele>
        <time>2015-10-12T14:23:37.1Z</time>
      </trkpt>
      <trkpt lat="48.20839" lon="-3.10975">
        <ele>167</ele>
        <time>2015-10-12T14:23:39.1Z</time>
      </trkpt>
      <trkpt lat="48.20841" lon="-3.10973">
        <ele>167</ele>
        <time>2015-10-12T14:23:41.1Z</time>
      </trkpt>
      <trkpt lat="48.20843" lon="-3.10971">
        <ele>167</ele>
        <time>2015-10-12T14:23:44.1Z</time>
      </trkpt>
      <trkpt lat="48.20844" lon="-3.10969">
        <ele>167</ele>
        <time>2015-10-12T14:23:46.1Z</time>
      </trkpt>
      <trkpt lat="48.20845" lon="-3.10967">
        <ele>167</ele>
        <time>2015-10-12T14:23:49.1Z</time>
      </trkpt>
      <trkpt lat="48.20847" lon="-3.10964">
        <ele>167</ele>
        <time>2015-10-12T14:23:51.1Z</time>
      </trkpt>
      <trkpt lat="48.20849" lon="-3.10961">
        <ele>167</ele>
        <time>2015-10-12T14:23:54.1Z</time>
      </trkpt>
      <trkpt lat="48.2085" lon="-3.10959">
        <ele>167</ele>
        <time>2015-10-12T14:23:56.1Z</time>
      </trkpt>
      <trkpt lat="48.20852" lon="-3.10957">
        <ele>168</ele>
        <time>2015-10-12T14:23:58.1Z</time>
      </trkpt>
      <trkpt lat="48.20853" lon="-3.10954">
        <ele>168</ele>
        <time>2015-10-12T14:24:01.1Z</time>
      </trkpt>
      <trkpt lat="48.20856" lon="-3.10952">
        <ele>168</ele>
        <time>2015-10-12T14:24:04.1Z</time>
      </trkpt>
      <trkpt lat="48.20858" lon="-3.10949">
        <ele>168</ele>
        <time>2015-10-12T14:24:07.1Z</time>
      </trkpt>
      <trkpt lat="48.20861" lon="-3.10946">
        <ele>168</ele>
        <time>2015-10-12T14:24:10.1Z</time>
      </trkpt>
      <trkpt lat="48.20864" lon="-3.10944">
        <ele>168</ele>
        <time>2015-10-12T14:24:13.1Z</time>
      </trkpt>
      <trkpt lat="48.20867" lon="-3.10941">
        <ele>168</ele>
        <time>2015-10-12T14:24:16.1Z</time>
      </trkpt>
      <trkpt lat="48.20869" lon="-3.10939">
        <ele>169</ele>
        <time>2015-10-12T14:24:18.1Z</time>
      </trkpt>
      <trkpt lat="48.20871" lon="-3.10937">
        <ele>169</ele>
        <time>2015-10-12T14:24:20.1Z</time>
      </trkpt>
      <trkpt lat="48.20874" lon="-3.10934">
        <ele>169</ele>
        <time>2015-10-12T14:24:23.1Z</time>
      </trkpt>
      <trkpt lat="48.20875" lon="-3.10933">
        <ele>169</ele>
        <time>2015-10-12T14:24:25.1Z</time>
      </trkpt>
      <trkpt lat="48.20877" lon="-3.1093">
        <ele>169</ele>
        <time>2015-10-12T14:24:27.1Z</time>
      </trkpt>
      <trkpt lat="48.20881" lon="-3.10926">
        <ele>170</ele>
        <time>2015-10-12T14:24:30.1Z</time>
      </trkpt>
      <trkpt lat="48.20883" lon="-3.10923">
        <ele>170</ele>
        <time>2015-10-12T14:24:33.1Z</time>
      </trkpt>
      <trkpt lat="48.20885" lon="-3.10921">
        <ele>170</ele>
        <time>2015-10-12T14:24:35.1Z</time>
      </trkpt>
      <trkpt lat="48.20887" lon="-3.10918">
        <ele>171</ele>
        <time>2015-10-12T14:24:38.1Z</time>
      </trkpt>
      <trkpt lat="48.20889" lon="-3.10915">
        <ele>171</ele>
        <time>2015-10-12T14:24:41.1Z</time>
      </trkpt>
      <trkpt lat="48.2089" lon="-3.10913">
        <ele>171</ele>
        <time>2015-10-12T14:24:43.1Z</time>
      </trkpt>
      <trkpt lat="48.20892" lon="-3.10911">
        <ele>171</ele>
        <time>2015-10-12T14:24:45.1Z</time>
      </trkpt>
      <trkpt lat="48.20894" lon="-3.10909">
        <ele>171</ele>
        <time>2015-10-12T14:24:48.1Z</time>
      </trkpt>
      <trkpt lat="48.20896" lon="-3.10907">
        <ele>171</ele>
        <time>2015-10-12T14:24:51.1Z</time>
      </trkpt>
      <trkpt lat="48.20897" lon="-3.10906">
        <ele>171</ele>
        <time>2015-10-12T14:24:53.1Z</time>
      </trkpt>
      <trkpt lat="48.20899" lon="-3.10902">
        <ele>171</ele>
        <time>2015-10-12T14:24:55.1Z</time>
      </trkpt>
      <trkpt lat="48.20901" lon="-3.10898">
        <ele>172</ele>
        <time>2015-10-12T14:24:58.1Z</time>
      </trkpt>
      <trkpt lat="48.20904" lon="-3.10894">
        <ele>172</ele>
        <time>2015-10-12T14:25:01.1Z</time>
      </trkpt>
      <trkpt lat="48.20907" lon="-3.1089">
        <ele>172</ele>
        <time>2015-10-12T14:25:04.1Z</time>
      </trkpt>
      <trkpt lat="48.20908" lon="-3.10887">
        <ele>173</ele>
        <time>2015-10-12T14:25:06.1Z</time>
      </trkpt>
      <trkpt lat="48.2091" lon="-3.10885">
        <ele>173</ele>
        <time>2015-10-12T14:25:08.1Z</time>
      </trkpt>
      <trkpt lat="48.20912" lon="-3.10882">
        <ele>174</ele>
        <time>2015-10-12T14:25:11.1Z</time>
      </trkpt>
      <trkpt lat="48.20912" lon="-3.10881">
        <ele>174</ele>
        <time>2015-10-12T14:25:14.1Z</time>
      </trkpt>
      <trkpt lat="48.20913" lon="-3.10881">
        <ele>174</ele>
        <time>2015-10-12T14:25:16.1Z</time>
      </trkpt>
      <trkpt lat="48.20915" lon="-3.1088">
        <ele>175</ele>
        <time>2015-10-12T14:25:19.1Z</time>
      </trkpt>
      <trkpt lat="48.20916" lon="-3.10878">
        <ele>175</ele>
        <time>2015-10-12T14:25:21.1Z</time>
      </trkpt>
      <trkpt lat="48.20917" lon="-3.10875">
        <ele>175</ele>
        <time>2015-10-12T14:25:24.1Z</time>
      </trkpt>
      <trkpt lat="48.20919" lon="-3.10873">
        <ele>174</ele>
        <time>2015-10-12T14:25:26.1Z</time>
      </trkpt>
      <trkpt lat="48.20919" lon="-3.10871">
        <ele>175</ele>
        <time>2015-10-12T14:25:28.1Z</time>
      </trkpt>
      <trkpt lat="48.2092" lon="-3.10869">
        <ele>175</ele>
        <time>2015-10-12T14:25:30.1Z</time>
      </trkpt>
      <trkpt lat="48.20921" lon="-3.10868">
        <ele>175</ele>
        <time>2015-10-12T14:25:32.1Z</time>
      </trkpt>
      <trkpt lat="48.2092" lon="-3.10864">
        <ele>175</ele>
        <time>2015-10-12T14:25:35.1Z</time>
      </trkpt>
      <trkpt lat="48.2092" lon="-3.10861">
        <ele>175</ele>
        <time>2015-10-12T14:25:38.1Z</time>
      </trkpt>
      <trkpt lat="48.2092" lon="-3.10858">
        <ele>174</ele>
        <time>2015-10-12T14:25:41.1Z</time>
      </trkpt>
      <trkpt lat="48.2092" lon="-3.10856">
        <ele>174</ele>
        <time>2015-10-12T14:25:44.1Z</time>
      </trkpt>
      <trkpt lat="48.20919" lon="-3.10854">
        <ele>174</ele>
        <time>2015-10-12T14:25:46.1Z</time>
      </trkpt>
      <trkpt lat="48.20918" lon="-3.10851">
        <ele>173</ele>
        <time>2015-10-12T14:25:49.1Z</time>
      </trkpt>
      <trkpt lat="48.20916" lon="-3.10848">
        <ele>173</ele>
        <time>2015-10-12T14:25:52.1Z</time>
      </trkpt>
      <trkpt lat="48.20914" lon="-3.10845">
        <ele>172</ele>
        <time>2015-10-12T14:25:55.1Z</time>
      </trkpt>
      <trkpt lat="48.20912" lon="-3.10842">
        <ele>172</ele>
        <time>2015-10-12T14:25:57.1Z</time>
      </trkpt>
      <trkpt lat="48.2091" lon="-3.10838">
        <ele>170</ele>
        <time>2015-10-12T14:26:00.1Z</time>
      </trkpt>
      <trkpt lat="48.20909" lon="-3.10835">
        <ele>170</ele>
        <time>2015-10-12T14:26:02.1Z</time>
      </trkpt>
      <trkpt lat="48.20908" lon="-3.10831">
        <ele>169</ele>
        <time>2015-10-12T14:26:05.1Z</time>
      </trkpt>
      <trkpt lat="48.20907" lon="-3.10829">
        <ele>168</ele>
        <time>2015-10-12T14:26:07.1Z</time>
      </trkpt>
      <trkpt lat="48.20905" lon="-3.10827">
        <ele>168</ele>
        <time>2015-10-12T14:26:10.1Z</time>
      </trkpt>
      <trkpt lat="48.20905" lon="-3.10824">
        <ele>168</ele>
        <time>2015-10-12T14:26:12.1Z</time>
      </trkpt>
      <trkpt lat="48.20904" lon="-3.10821">
        <ele>167</ele>
        <time>2015-10-12T14:26:15.1Z</time>
      </trkpt>
      <trkpt lat="48.20903" lon="-3.1082">
        <ele>167</ele>
        <time>2015-10-12T14:26:17.1Z</time>
      </trkpt>
      <trkpt lat="48.20902" lon="-3.10816">
        <ele>167</ele>
        <time>2015-10-12T14:26:20.1Z</time>
      </trkpt>
      <trkpt lat="48.20901" lon="-3.10814">
        <ele>167</ele>
        <time>2015-10-12T14:26:22.1Z</time>
      </trkpt>
      <trkpt lat="48.20901" lon="-3.1081">
        <ele>167</ele>
        <time>2015-10-12T14:26:25.1Z</time>
      </trkpt>
      <trkpt lat="48.20901" lon="-3.10807">
        <ele>167</ele>
        <time>2015-10-12T14:26:28.1Z</time>
      </trkpt>
      <trkpt lat="48.209" lon="-3.10805">
        <ele>167</ele>
        <time>2015-10-12T14:26:30.1Z</time>
      </trkpt>
      <trkpt lat="48.209" lon="-3.10803">
        <ele>167</ele>
        <time>2015-10-12T14:26:33.1Z</time>
      </trkpt>
      <trkpt lat="48.209" lon="-3.108">
        <ele>167</ele>
        <time>2015-10-12T14:26:36.1Z</time>
      </trkpt>
      <trkpt lat="48.20899" lon="-3.10798">
        <ele>167</ele>
        <time>2015-10-12T14:26:38.1Z</time>
      </trkpt>
      <trkpt lat="48.20899" lon="-3.10794">
        <ele>167</ele>
        <time>2015-10-12T14:26:41.1Z</time>
      </trkpt>
      <trkpt lat="48.20898" lon="-3.1079">
        <ele>167</ele>
        <time>2015-10-12T14:26:44.1Z</time>
      </trkpt>
      <trkpt lat="48.20898" lon="-3.10787">
        <ele>167</ele>
        <time>2015-10-12T14:26:47.1Z</time>
      </trkpt>
      <trkpt lat="48.20896" lon="-3.10783">
        <ele>167</ele>
        <time>2015-10-12T14:26:50.1Z</time>
      </trkpt>
      <trkpt lat="48.20895" lon="-3.10781">
        <ele>166</ele>
        <time>2015-10-12T14:26:52.1Z</time>
      </trkpt>
      <trkpt lat="48.20895" lon="-3.10778">
        <ele>166</ele>
        <time>2015-10-12T14:26:54.1Z</time>
      </trkpt>
      <trkpt lat="48.20894" lon="-3.10772">
        <ele>165</ele>
        <time>2015-10-12T14:26:57.1Z</time>
      </trkpt>
      <trkpt lat="48.20893" lon="-3.10767">
        <ele>165</ele>
        <time>2015-10-12T14:27:00.1Z</time>
      </trkpt>
      <trkpt lat="48.20892" lon="-3.10763">
        <ele>165</ele>
        <time>2015-10-12T14:27:03.1Z</time>
      </trkpt>
      <trkpt lat="48.20892" lon="-3.10759">
        <ele>165</ele>
        <time>2015-10-12T14:27:06.1Z</time>
      </trkpt>
      <trkpt lat="48.20892" lon="-3.10756">
        <ele>165</ele>
        <time>2015-10-12T14:27:08.1Z</time>
      </trkpt>
      <trkpt lat="48.20892" lon="-3.10752">
        <ele>166</ele>
        <time>2015-10-12T14:27:11.1Z</time>
      </trkpt>
      <trkpt lat="48.20891" lon="-3.10748">
        <ele>166</ele>
        <time>2015-10-12T14:27:14.1Z</time>
      </trkpt>
      <trkpt lat="48.2089" lon="-3.10746">
        <ele>166</ele>
        <time>2015-10-12T14:27:16.1Z</time>
      </trkpt>
      <trkpt lat="48.20889" lon="-3.10742">
        <ele>167</ele>
        <time>2015-10-12T14:27:19.1Z</time>
      </trkpt>
      <trkpt lat="48.20888" lon="-3.10738">
        <ele>167</ele>
        <time>2015-10-12T14:27:22.1Z</time>
      </trkpt>
      <trkpt lat="48.20888" lon="-3.10735">
        <ele>166</ele>
        <time>2015-10-12T14:27:24.1Z</time>
      </trkpt>
      <trkpt lat="48.20888" lon="-3.1073">
        <ele>166</ele>
        <time>2015-10-12T14:27:26.1Z</time>
      </trkpt>
      <trkpt lat="48.20887" lon="-3.10726">
        <ele>166</ele>
        <time>2015-10-12T14:27:29.1Z</time>
      </trkpt>
      <trkpt lat="48.20886" lon="-3.10724">
        <ele>166</ele>
        <time>2015-10-12T14:27:31.1Z</time>
      </trkpt>
      <trkpt lat="48.20886" lon="-3.10721">
        <ele>166</ele>
        <time>2015-10-12T14:27:33.1Z</time>
      </trkpt>
      <trkpt lat="48.20883" lon="-3.10716">
        <ele>165</ele>
        <time>2015-10-12T14:27:36.1Z</time>
      </trkpt>
      <trkpt lat="48.20882" lon="-3.10711">
        <ele>165</ele>
        <time>2015-10-12T14:27:39.1Z</time>
      </trkpt>
      <trkpt lat="48.20882" lon="-3.10708">
        <ele>165</ele>
        <time>2015-10-12T14:27:41.1Z</time>
      </trkpt>
      <trkpt lat="48.20881" lon="-3.10705">
        <ele>165</ele>
        <time>2015-10-12T14:27:43.1Z</time>
      </trkpt>
      <trkpt lat="48.20879" lon="-3.10701">
        <ele>165</ele>
        <time>2015-10-12T14:27:46.1Z</time>
      </trkpt>
      <trkpt lat="48.20878" lon="-3.10697">
        <ele>165</ele>
        <time>2015-10-12T14:27:49.1Z</time>
      </trkpt>
      <trkpt lat="48.20877" lon="-3.10695">
        <ele>165</ele>
        <time>2015-10-12T14:27:51.1Z</time>
      </trkpt>
      <trkpt lat="48.20875" lon="-3.10693">
        <ele>165</ele>
        <time>2015-10-12T14:27:53.1Z</time>
      </trkpt>
      <trkpt lat="48.20874" lon="-3.10689">
        <ele>165</ele>
        <time>2015-10-12T14:27:56.1Z</time>
      </trkpt>
      <trkpt lat="48.20871" lon="-3.10688">
        <ele>165</ele>
        <time>2015-10-12T14:27:59.1Z</time>
      </trkpt>
      <trkpt lat="48.20869" lon="-3.10688">
        <ele>165</ele>
        <time>2015-10-12T14:28:01.1Z</time>
      </trkpt>
      <trkpt lat="48.20867" lon="-3.10687">
        <ele>165</ele>
        <time>2015-10-12T14:28:03.1Z</time>
      </trkpt>
      <trkpt lat="48.20865" lon="-3.10685">
        <ele>165</ele>
        <time>2015-10-12T14:28:05.1Z</time>
      </trkpt>
      <trkpt lat="48.20862" lon="-3.10682">
        <ele>165</ele>
        <time>2015-10-12T14:28:08.1Z</time>
      </trkpt>
      <trkpt lat="48.2086" lon="-3.10678">
        <ele>165</ele>
        <time>2015-10-12T14:28:11.1Z</time>
      </trkpt>
      <trkpt lat="48.20859" lon="-3.10674">
        <ele>165</ele>
        <time>2015-10-12T14:28:14.1Z</time>
      </trkpt>
      <trkpt lat="48.20858" lon="-3.10671">
        <ele>166</ele>
        <time>2015-10-12T14:28:16.1Z</time>
      </trkpt>
      <trkpt lat="48.20857" lon="-3.10668">
        <ele>167</ele>
        <time>2015-10-12T14:28:19.1Z</time>
      </trkpt>
      <trkpt lat="48.20855" lon="-3.10663">
        <ele>167</ele>
        <time>2015-10-12T14:28:22.1Z</time>
      </trkpt>
      <trkpt lat="48.20854" lon="-3.1066">
        <ele>168</ele>
        <time>2015-10-12T14:28:25.1Z</time>
      </trkpt>
      <trkpt lat="48.20852" lon="-3.10659">
        <ele>168</ele>
        <time>2015-10-12T14:28:27.1Z</time>
      </trkpt>
      <trkpt lat="48.2085" lon="-3.10657">
        <ele>168</ele>
        <time>2015-10-12T14:28:29.1Z</time>
      </trkpt>
      <trkpt lat="48.20846" lon="-3.10656">
        <ele>169</ele>
        <time>2015-10-12T14:28:32.1Z</time>
      </trkpt>
      <trkpt lat="48.20844" lon="-3.10655">
        <ele>169</ele>
        <time>2015-10-12T14:28:34.1Z</time>
      </trkpt>
      <trkpt lat="48.20842" lon="-3.10654">
        <ele>169</ele>
        <time>2015-10-12T14:28:36.1Z</time>
      </trkpt>
      <trkpt lat="48.20839" lon="-3.10652">
        <ele>170</ele>
        <time>2015-10-12T14:28:39.1Z</time>
      </trkpt>
      <trkpt lat="48.20838" lon="-3.10649">
        <ele>170</ele>
        <time>2015-10-12T14:28:42.1Z</time>
      </trkpt>
      <trkpt lat="48.20837" lon="-3.10647">
        <ele>171</ele>
        <time>2015-10-12T14:28:45.1Z</time>
      </trkpt>
      <trkpt lat="48.20835" lon="-3.10645">
        <ele>171</ele>
        <time>2015-10-12T14:28:47.1Z</time>
      </trkpt>
      <trkpt lat="48.20834" lon="-3.10643">
        <ele>172</ele>
        <time>2015-10-12T14:28:50.1Z</time>
      </trkpt>
      <trkpt lat="48.20832" lon="-3.1064">
        <ele>173</ele>
        <time>2015-10-12T14:28:53.1Z</time>
      </trkpt>
      <trkpt lat="48.20831" lon="-3.10637">
        <ele>173</ele>
        <time>2015-10-12T14:28:56.1Z</time>
      </trkpt>
      <trkpt lat="48.20829" lon="-3.10635">
        <ele>173</ele>
        <time>2015-10-12T14:28:59.1Z</time>
      </trkpt>
      <trkpt lat="48.20827" lon="-3.10633">
        <ele>174</ele>
        <time>2015-10-12T14:29:02.1Z</time>
      </trkpt>
      <trkpt lat="48.20826" lon="-3.10633">
        <ele>175</ele>
        <time>2015-10-12T14:29:05.1Z</time>
      </trkpt>
      <trkpt lat="48.20825" lon="-3.10633">
        <ele>175</ele>
        <time>2015-10-12T14:29:07.1Z</time>
      </trkpt>
      <trkpt lat="48.20824" lon="-3.10632">
        <ele>175</ele>
        <time>2015-10-12T14:29:10.1Z</time>
      </trkpt>
      <trkpt lat="48.20821" lon="-3.10631">
        <ele>175</ele>
        <time>2015-10-12T14:29:13.1Z</time>
      </trkpt>
      <trkpt lat="48.20818" lon="-3.10629">
        <ele>175</ele>
        <time>2015-10-12T14:29:16.1Z</time>
      </trkpt>
      <trkpt lat="48.20817" lon="-3.10628">
        <ele>176</ele>
        <time>2015-10-12T14:29:18.1Z</time>
      </trkpt>
      <trkpt lat="48.20815" lon="-3.10627">
        <ele>176</ele>
        <time>2015-10-12T14:29:21.1Z</time>
      </trkpt>
      <trkpt lat="48.20813" lon="-3.10626">
        <ele>176</ele>
        <time>2015-10-12T14:29:23.1Z</time>
      </trkpt>
      <trkpt lat="48.20811" lon="-3.10625">
        <ele>177</ele>
        <time>2015-10-12T14:29:26.1Z</time>
      </trkpt>
      <trkpt lat="48.20809" lon="-3.10624">
        <ele>177</ele>
        <time>2015-10-12T14:29:28.1Z</time>
      </trkpt>
      <trkpt lat="48.20807" lon="-3.10622">
        <ele>178</ele>
        <time>2015-10-12T14:29:31.1Z</time>
      </trkpt>
      <trkpt lat="48.20805" lon="-3.10621">
        <ele>178</ele>
        <time>2015-10-12T14:29:33.1Z</time>
      </trkpt>
      <trkpt lat="48.20803" lon="-3.1062">
        <ele>179</ele>
        <time>2015-10-12T14:29:36.1Z</time>
      </trkpt>
      <trkpt lat="48.20801" lon="-3.1062">
        <ele>179</ele>
        <time>2015-10-12T14:29:38.1Z</time>
      </trkpt>
      <trkpt lat="48.20798" lon="-3.10618">
        <ele>179</ele>
        <time>2015-10-12T14:29:41.1Z</time>
      </trkpt>
      <trkpt lat="48.20795" lon="-3.10617">
        <ele>180</ele>
        <time>2015-10-12T14:29:44.1Z</time>
      </trkpt>
      <trkpt lat="48.20794" lon="-3.10615">
        <ele>180</ele>
        <time>2015-10-12T14:29:46.1Z</time>
      </trkpt>
      <trkpt lat="48.20791" lon="-3.10615">
        <ele>181</ele>
        <time>2015-10-12T14:29:49.1Z</time>
      </trkpt>
      <trkpt lat="48.20789" lon="-3.10614">
        <ele>181</ele>
        <time>2015-10-12T14:29:51.1Z</time>
      </trkpt>
      <trkpt lat="48.20787" lon="-3.10613">
        <ele>181</ele>
        <time>2015-10-12T14:29:53.1Z</time>
      </trkpt>
      <trkpt lat="48.20785" lon="-3.10611">
        <ele>182</ele>
        <time>2015-10-12T14:29:56.1Z</time>
      </trkpt>
      <trkpt lat="48.20783" lon="-3.1061">
        <ele>182</ele>
        <time>2015-10-12T14:29:58.1Z</time>
      </trkpt>
      <trkpt lat="48.20781" lon="-3.10609">
        <ele>182</ele>
        <time>2015-10-12T14:30:01.1Z</time>
      </trkpt>
      <trkpt lat="48.20778" lon="-3.10608">
        <ele>183</ele>
        <time>2015-10-12T14:30:03.1Z</time>
      </trkpt>
      <trkpt lat="48.20776" lon="-3.10606">
        <ele>183</ele>
        <time>2015-10-12T14:30:05.1Z</time>
      </trkpt>
      <trkpt lat="48.20775" lon="-3.10606">
        <ele>184</ele>
        <time>2015-10-12T14:30:09.1Z</time>
      </trkpt>
      <trkpt lat="48.20773" lon="-3.10606">
        <ele>184</ele>
        <time>2015-10-12T14:30:11.1Z</time>
      </trkpt>
      <trkpt lat="48.20771" lon="-3.10606">
        <ele>184</ele>
        <time>2015-10-12T14:30:14.1Z</time>
      </trkpt>
      <trkpt lat="48.2077" lon="-3.10605">
        <ele>183</ele>
        <time>2015-10-12T14:30:17.1Z</time>
      </trkpt>
      <trkpt lat="48.20768" lon="-3.10603">
        <ele>183</ele>
        <time>2015-10-12T14:30:19.1Z</time>
      </trkpt>
      <trkpt lat="48.20765" lon="-3.10602">
        <ele>183</ele>
        <time>2015-10-12T14:30:22.1Z</time>
      </trkpt>
      <trkpt lat="48.20761" lon="-3.10602">
        <ele>183</ele>
        <time>2015-10-12T14:30:25.1Z</time>
      </trkpt>
      <trkpt lat="48.20759" lon="-3.106">
        <ele>183</ele>
        <time>2015-10-12T14:30:27.1Z</time>
      </trkpt>
      <trkpt lat="48.20756" lon="-3.10598">
        <ele>183</ele>
        <time>2015-10-12T14:30:30.1Z</time>
      </trkpt>
      <trkpt lat="48.20753" lon="-3.10598">
        <ele>183</ele>
        <time>2015-10-12T14:30:33.1Z</time>
      </trkpt>
      <trkpt lat="48.2075" lon="-3.10596">
        <ele>183</ele>
        <time>2015-10-12T14:30:36.1Z</time>
      </trkpt>
      <trkpt lat="48.20748" lon="-3.10594">
        <ele>183</ele>
        <time>2015-10-12T14:30:38.1Z</time>
      </trkpt>
      <trkpt lat="48.20744" lon="-3.10592">
        <ele>183</ele>
        <time>2015-10-12T14:30:41.1Z</time>
      </trkpt>
      <trkpt lat="48.20741" lon="-3.10589">
        <ele>184</ele>
        <time>2015-10-12T14:30:44.1Z</time>
      </trkpt>
      <trkpt lat="48.20739" lon="-3.10589">
        <ele>184</ele>
        <time>2015-10-12T14:30:46.1Z</time>
      </trkpt>
      <trkpt lat="48.20735" lon="-3.10586">
        <ele>183</ele>
        <time>2015-10-12T14:30:49.1Z</time>
      </trkpt>
      <trkpt lat="48.20733" lon="-3.10585">
        <ele>183</ele>
        <time>2015-10-12T14:30:51.1Z</time>
      </trkpt>
      <trkpt lat="48.20729" lon="-3.10585">
        <ele>183</ele>
        <time>2015-10-12T14:30:54.1Z</time>
      </trkpt>
      <trkpt lat="48.20726" lon="-3.10584">
        <ele>183</ele>
        <time>2015-10-12T14:30:57.1Z</time>
      </trkpt>
      <trkpt lat="48.20724" lon="-3.10584">
        <ele>183</ele>
        <time>2015-10-12T14:30:59.1Z</time>
      </trkpt>
      <trkpt lat="48.20722" lon="-3.10583">
        <ele>183</ele>
        <time>2015-10-12T14:31:02.1Z</time>
      </trkpt>
      <trkpt lat="48.2072" lon="-3.10582">
        <ele>183</ele>
        <time>2015-10-12T14:31:04.1Z</time>
      </trkpt>
      <trkpt lat="48.20717" lon="-3.10582">
        <ele>183</ele>
        <time>2015-10-12T14:31:07.1Z</time>
      </trkpt>
      <trkpt lat="48.20715" lon="-3.10581">
        <ele>183</ele>
        <time>2015-10-12T14:31:09.1Z</time>
      </trkpt>
      <trkpt lat="48.20712" lon="-3.10581">
        <ele>183</ele>
        <time>2015-10-12T14:31:12.1Z</time>
      </trkpt>
      <trkpt lat="48.2071" lon="-3.10581">
        <ele>183</ele>
        <time>2015-10-12T14:31:14.1Z</time>
      </trkpt>
      <trkpt lat="48.20707" lon="-3.10581">
        <ele>184</ele>
        <time>2015-10-12T14:31:17.1Z</time>
      </trkpt>
      <trkpt lat="48.20705" lon="-3.1058">
        <ele>184</ele>
        <time>2015-10-12T14:31:19.1Z</time>
      </trkpt>
      <trkpt lat="48.20702" lon="-3.1058">
        <ele>184</ele>
        <time>2015-10-12T14:31:22.1Z</time>
      </trkpt>
      <trkpt lat="48.20698" lon="-3.10579">
        <ele>184</ele>
        <time>2015-10-12T14:31:25.1Z</time>
      </trkpt>
      <trkpt lat="48.20694" lon="-3.10579">
        <ele>184</ele>
        <time>2015-10-12T14:31:28.1Z</time>
      </trkpt>
      <trkpt lat="48.20692" lon="-3.10579">
        <ele>184</ele>
        <time>2015-10-12T14:31:30.1Z</time>
      </trkpt>
      <trkpt lat="48.20689" lon="-3.1058">
        <ele>184</ele>
        <time>2015-10-12T14:31:33.1Z</time>
      </trkpt>
      <trkpt lat="48.20687" lon="-3.1058">
        <ele>184</ele>
        <time>2015-10-12T14:31:35.1Z</time>
      </trkpt>
      <trkpt lat="48.20685" lon="-3.10581">
        <ele>184</ele>
        <time>2015-10-12T14:31:37.1Z</time>
      </trkpt>
      <trkpt lat="48.20683" lon="-3.10582">
        <ele>184</ele>
        <time>2015-10-12T14:31:40.1Z</time>
      </trkpt>
      <trkpt lat="48.2068" lon="-3.10584">
        <ele>184</ele>
        <time>2015-10-12T14:31:43.1Z</time>
      </trkpt>
      <trkpt lat="48.20678" lon="-3.10585">
        <ele>183</ele>
        <time>2015-10-12T14:31:45.1Z</time>
      </trkpt>
      <trkpt lat="48.20676" lon="-3.10585">
        <ele>183</ele>
        <time>2015-10-12T14:31:48.1Z</time>
      </trkpt>
      <trkpt lat="48.20673" lon="-3.10588">
        <ele>182</ele>
        <time>2015-10-12T14:31:51.1Z</time>
      </trkpt>
      <trkpt lat="48.20671" lon="-3.1059">
        <ele>182</ele>
        <time>2015-10-12T14:31:53.1Z</time>
      </trkpt>
      <trkpt lat="48.20669" lon="-3.10591">
        <ele>182</ele>
        <time>2015-10-12T14:31:55.1Z</time>
      </trkpt>
      <trkpt lat="48.20667" lon="-3.10592">
        <ele>181</ele>
        <time>2015-10-12T14:31:58.1Z</time>
      </trkpt>
      <trkpt lat="48.20665" lon="-3.10593">
        <ele>180</ele>
        <time>2015-10-12T14:32:00.1Z</time>
      </trkpt>
      <trkpt lat="48.20662" lon="-3.10595">
        <ele>180</ele>
        <time>2015-10-12T14:32:03.1Z</time>
      </trkpt>
      <trkpt lat="48.2066" lon="-3.10597">
        <ele>179</ele>
        <time>2015-10-12T14:32:06.1Z</time>
      </trkpt>
      <trkpt lat="48.20657" lon="-3.10598">
        <ele>178</ele>
        <time>2015-10-12T14:32:09.1Z</time>
      </trkpt>
      <trkpt lat="48.20656" lon="-3.106">
        <ele>178</ele>
        <time>2015-10-12T14:32:11.1Z</time>
      </trkpt>
      <trkpt lat="48.20655" lon="-3.106">
        <ele>177</ele>
        <time>2015-10-12T14:32:13.1Z</time>
      </trkpt>
      <trkpt lat="48.20652" lon="-3.10602">
        <ele>176</ele>
        <time>2015-10-12T14:32:16.1Z</time>
      </trkpt>
      <trkpt lat="48.20649" lon="-3.10603">
        <ele>176</ele>
        <time>2015-10-12T14:32:19.1Z</time>
      </trkpt>
      <trkpt lat="48.20648" lon="-3.10603">
        <ele>175</ele>
        <time>2015-10-12T14:32:21.1Z</time>
      </trkpt>
      <trkpt lat="48.20646" lon="-3.10603">
        <ele>175</ele>
        <time>2015-10-12T14:32:24.1Z</time>
      </trkpt>
      <trkpt lat="48.20644" lon="-3.10603">
        <ele>174</ele>
        <time>2015-10-12T14:32:26.1Z</time>
      </trkpt>
      <trkpt lat="48.20641" lon="-3.106">
        <ele>174</ele>
        <time>2015-10-12T14:32:29.1Z</time>
      </trkpt>
      <trkpt lat="48.2064" lon="-3.10599">
        <ele>174</ele>
        <time>2015-10-12T14:32:31.1Z</time>
      </trkpt>
      <trkpt lat="48.20638" lon="-3.10597">
        <ele>174</ele>
        <time>2015-10-12T14:32:34.1Z</time>
      </trkpt>
      <trkpt lat="48.20636" lon="-3.10595">
        <ele>174</ele>
        <time>2015-10-12T14:32:36.1Z</time>
      </trkpt>
      <trkpt lat="48.20634" lon="-3.10592">
        <ele>174</ele>
        <time>2015-10-12T14:32:39.1Z</time>
      </trkpt>
      <trkpt lat="48.20632" lon="-3.1059">
        <ele>175</ele>
        <time>2015-10-12T14:32:41.1Z</time>
      </trkpt>
      <trkpt lat="48.20631" lon="-3.10589">
        <ele>175</ele>
        <time>2015-10-12T14:32:43.1Z</time>
      </trkpt>
      <trkpt lat="48.20629" lon="-3.10588">
        <ele>175</ele>
        <time>2015-10-12T14:32:46.1Z</time>
      </trkpt>
      <trkpt lat="48.20627" lon="-3.10585">
        <ele>175</ele>
        <time>2015-10-12T14:32:48.1Z</time>
      </trkpt>
      <trkpt lat="48.20625" lon="-3.10582">
        <ele>174</ele>
        <time>2015-10-12T14:32:51.1Z</time>
      </trkpt>
      <trkpt lat="48.20623" lon="-3.1058">
        <ele>174</ele>
        <time>2015-10-12T14:32:53.1Z</time>
      </trkpt>
      <trkpt lat="48.20621" lon="-3.10575">
        <ele>174</ele>
        <time>2015-10-12T14:32:56.1Z</time>
      </trkpt>
      <trkpt lat="48.20619" lon="-3.10573">
        <ele>174</ele>
        <time>2015-10-12T14:32:58.1Z</time>
      </trkpt>
      <trkpt lat="48.20617" lon="-3.1057">
        <ele>174</ele>
        <time>2015-10-12T14:33:01.1Z</time>
      </trkpt>
      <trkpt lat="48.20615" lon="-3.10566">
        <ele>175</ele>
        <time>2015-10-12T14:33:04.1Z</time>
      </trkpt>
      <trkpt lat="48.20614" lon="-3.10563">
        <ele>174</ele>
        <time>2015-10-12T14:33:06.1Z</time>
      </trkpt>
      <trkpt lat="48.20613" lon="-3.10559">
        <ele>175</ele>
        <time>2015-10-12T14:33:09.1Z</time>
      </trkpt>
      <trkpt lat="48.20612" lon="-3.10558">
        <ele>174</ele>
        <time>2015-10-12T14:33:11.1Z</time>
      </trkpt>
      <trkpt lat="48.20611" lon="-3.10556">
        <ele>174</ele>
        <time>2015-10-12T14:33:14.1Z</time>
      </trkpt>
      <trkpt lat="48.20609" lon="-3.10554">
        <ele>174</ele>
        <time>2015-10-12T14:33:17.1Z</time>
      </trkpt>
      <trkpt lat="48.20607" lon="-3.10552">
        <ele>175</ele>
        <time>2015-10-12T14:33:20.1Z</time>
      </trkpt>
      <trkpt lat="48.20605" lon="-3.1055">
        <ele>175</ele>
        <time>2015-10-12T14:33:22.1Z</time>
      </trkpt>
      <trkpt lat="48.20603" lon="-3.10547">
        <ele>174</ele>
        <time>2015-10-12T14:33:25.1Z</time>
      </trkpt>
      <trkpt lat="48.20602" lon="-3.10544">
        <ele>174</ele>
        <time>2015-10-12T14:33:27.1Z</time>
      </trkpt>
      <trkpt lat="48.20601" lon="-3.10541">
        <ele>173</ele>
        <time>2015-10-12T14:33:29.1Z</time>
      </trkpt>
      <trkpt lat="48.20599" lon="-3.10535">
        <ele>173</ele>
        <time>2015-10-12T14:33:32.1Z</time>
      </trkpt>
      <trkpt lat="48.20599" lon="-3.10532">
        <ele>172</ele>
        <time>2015-10-12T14:33:34.1Z</time>
      </trkpt>
      <trkpt lat="48.20598" lon="-3.10529">
        <ele>172</ele>
        <time>2015-10-12T14:33:36.1Z</time>
      </trkpt>
      <trkpt lat="48.20598" lon="-3.10525">
        <ele>172</ele>
        <time>2015-10-12T14:33:39.1Z</time>
      </trkpt>
      <trkpt lat="48.20597" lon="-3.10522">
        <ele>171</ele>
        <time>2015-10-12T14:33:41.1Z</time>
      </trkpt>
      <trkpt lat="48.20597" lon="-3.10519">
        <ele>171</ele>
        <time>2015-10-12T14:33:43.1Z</time>
      </trkpt>
      <trkpt lat="48.20597" lon="-3.10514">
        <ele>170</ele>
        <time>2015-10-12T14:33:46.1Z</time>
      </trkpt>
      <trkpt lat="48.20596" lon="-3.10508">
        <ele>170</ele>
        <time>2015-10-12T14:33:49.1Z</time>
      </trkpt>
      <trkpt lat="48.20596" lon="-3.10505">
        <ele>170</ele>
        <time>2015-10-12T14:33:51.1Z</time>
      </trkpt>
      <trkpt lat="48.20596" lon="-3.10504">
        <ele>170</ele>
        <time>2015-10-12T14:33:53.1Z</time>
      </trkpt>
      <trkpt lat="48.20596" lon="-3.10502">
        <ele>170</ele>
        <time>2015-10-12T14:33:55.1Z</time>
      </trkpt>
      <trkpt lat="48.20597" lon="-3.10499">
        <ele>170</ele>
        <time>2015-10-12T14:33:58.1Z</time>
      </trkpt>
      <trkpt lat="48.20598" lon="-3.10496">
        <ele>171</ele>
        <time>2015-10-12T14:34:00.1Z</time>
      </trkpt>
      <trkpt lat="48.20598" lon="-3.10494">
        <ele>171</ele>
        <time>2015-10-12T14:34:02.1Z</time>
      </trkpt>
      <trkpt lat="48.20598" lon="-3.10493">
        <ele>171</ele>
        <time>2015-10-12T14:34:04.1Z</time>
      </trkpt>
      <trkpt lat="48.20598" lon="-3.10491">
        <ele>171</ele>
        <time>2015-10-12T14:34:06.1Z</time>
      </trkpt>
      <trkpt lat="48.20597" lon="-3.1049">
        <ele>171</ele>
        <time>2015-10-12T14:34:09.1Z</time>
      </trkpt>
      <trkpt lat="48.20596" lon="-3.10487">
        <ele>171</ele>
        <time>2015-10-12T14:34:12.1Z</time>
      </trkpt>
      <trkpt lat="48.20596" lon="-3.10485">
        <ele>171</ele>
        <time>2015-10-12T14:34:15.1Z</time>
      </trkpt>
      <trkpt lat="48.20595" lon="-3.10484">
        <ele>171</ele>
        <time>2015-10-12T14:34:17.1Z</time>
      </trkpt>
      <trkpt lat="48.20595" lon="-3.10482">
        <ele>171</ele>
        <time>2015-10-12T14:34:19.1Z</time>
      </trkpt>
      <trkpt lat="48.20596" lon="-3.10479">
        <ele>172</ele>
        <time>2015-10-12T14:34:22.1Z</time>
      </trkpt>
      <trkpt lat="48.20596" lon="-3.10478">
        <ele>172</ele>
        <time>2015-10-12T14:34:24.1Z</time>
      </trkpt>
      <trkpt lat="48.20597" lon="-3.10475">
        <ele>172</ele>
        <time>2015-10-12T14:34:27.1Z</time>
      </trkpt>
      <trkpt lat="48.20598" lon="-3.10473">
        <ele>172</ele>
        <time>2015-10-12T14:34:29.1Z</time>
      </trkpt>
      <trkpt lat="48.20599" lon="-3.1047">
        <ele>173</ele>
        <time>2015-10-12T14:34:32.1Z</time>
      </trkpt>
      <trkpt lat="48.20599" lon="-3.10468">
        <ele>173</ele>
        <time>2015-10-12T14:34:34.1Z</time>
      </trkpt>
      <trkpt lat="48.20599" lon="-3.10467">
        <ele>173</ele>
        <time>2015-10-12T14:34:36.1Z</time>
      </trkpt>
      <trkpt lat="48.206" lon="-3.10466">
        <ele>173</ele>
        <time>2015-10-12T14:34:39.1Z</time>
      </trkpt>
      <trkpt lat="48.206" lon="-3.10465">
        <ele>173</ele>
        <time>2015-10-12T14:34:42.1Z</time>
      </trkpt>
      <trkpt lat="48.20601" lon="-3.10465">
        <ele>173</ele>
        <time>2015-10-12T14:34:44.1Z</time>
      </trkpt>
      <trkpt lat="48.20602" lon="-3.10464">
        <ele>174</ele>
        <time>2015-10-12T14:34:47.1Z</time>
      </trkpt>
      <trkpt lat="48.20602" lon="-3.10463">
        <ele>174</ele>
        <time>2015-10-12T14:34:50.1Z</time>
      </trkpt>
      <trkpt lat="48.20601" lon="-3.10462">
        <ele>174</ele>
        <time>2015-10-12T14:34:52.1Z</time>
      </trkpt>
      <trkpt lat="48.20601" lon="-3.1046">
        <ele>174</ele>
        <time>2015-10-12T14:34:55.1Z</time>
      </trkpt>
      <trkpt lat="48.20601" lon="-3.1046">
        <ele>174</ele>
        <time>2015-10-12T14:34:57.1Z</time>
      </trkpt>
      <trkpt lat="48.20602" lon="-3.1046">
        <ele>174</ele>
        <time>2015-10-12T14:35:00.1Z</time>
      </trkpt>
      <trkpt lat="48.20602" lon="-3.1046">
        <ele>174</ele>
        <time>2015-10-12T14:35:02.1Z</time>
      </trkpt>
      <trkpt lat="48.20603" lon="-3.1046">
        <ele>174</ele>
        <time>2015-10-12T14:35:05.1Z</time>
      </trkpt>
      <trkpt lat="48.20604" lon="-3.1046">
        <ele>174</ele>
        <time>2015-10-12T14:35:08.1Z</time>
      </trkpt>
      <trkpt lat="48.20603" lon="-3.10459">
        <ele>174</ele>
        <time>2015-10-12T14:35:10.1Z</time>
      </trkpt>
      <trkpt lat="48.20603" lon="-3.10459">
        <ele>174</ele>
        <time>2015-10-12T14:35:12.1Z</time>
      </trkpt>
      <trkpt lat="48.20603" lon="-3.10459">
        <ele>174</ele>
        <time>2015-10-12T14:35:16.1Z</time>
      </trkpt>
      <trkpt lat="48.20604" lon="-3.10457">
        <ele>174</ele>
        <time>2015-10-12T14:35:19.1Z</time>
      </trkpt>
      <trkpt lat="48.20604" lon="-3.10456">
        <ele>173</ele>
        <time>2015-10-12T14:35:21.1Z</time>
      </trkpt>
      <trkpt lat="48.20604" lon="-3.10456">
        <ele>173</ele>
        <time>2015-10-12T14:35:24.1Z</time>
      </trkpt>
      <trkpt lat="48.20604" lon="-3.10454">
        <ele>173</ele>
        <time>2015-10-12T14:35:26.1Z</time>
      </trkpt>
      <trkpt lat="48.20603" lon="-3.10453">
        <ele>173</ele>
        <time>2015-10-12T14:35:29.1Z</time>
      </trkpt>
      <trkpt lat="48.20603" lon="-3.10451">
        <ele>173</ele>
        <time>2015-10-12T14:35:32.1Z</time>
      </trkpt>
      <trkpt lat="48.20602" lon="-3.10449">
        <ele>172</ele>
        <time>2015-10-12T14:35:34.1Z</time>
      </trkpt>
      <trkpt lat="48.20602" lon="-3.10445">
        <ele>172</ele>
        <time>2015-10-12T14:35:37.1Z</time>
      </trkpt>
      <trkpt lat="48.20603" lon="-3.10442">
        <ele>172</ele>
        <time>2015-10-12T14:35:40.1Z</time>
      </trkpt>
      <trkpt lat="48.20604" lon="-3.1044">
        <ele>172</ele>
        <time>2015-10-12T14:35:42.1Z</time>
      </trkpt>
      <trkpt lat="48.20604" lon="-3.10439">
        <ele>172</ele>
        <time>2015-10-12T14:35:44.1Z</time>
      </trkpt>
      <trkpt lat="48.20603" lon="-3.10435">
        <ele>172</ele>
        <time>2015-10-12T14:35:47.1Z</time>
      </trkpt>
      <trkpt lat="48.20604" lon="-3.10432">
        <ele>172</ele>
        <time>2015-10-12T14:35:49.1Z</time>
      </trkpt>
      <trkpt lat="48.20604" lon="-3.10427">
        <ele>171</ele>
        <time>2015-10-12T14:35:52.1Z</time>
      </trkpt>
      <trkpt lat="48.20604" lon="-3.10424">
        <ele>171</ele>
        <time>2015-10-12T14:35:55.1Z</time>
      </trkpt>
      <trkpt lat="48.20605" lon="-3.10422">
        <ele>171</ele>
        <time>2015-10-12T14:35:58.1Z</time>
      </trkpt>
      <trkpt lat="48.20606" lon="-3.10419">
        <ele>171</ele>
        <time>2015-10-12T14:36:01.1Z</time>
      </trkpt>
      <trkpt lat="48.20605" lon="-3.10417">
        <ele>170</ele>
        <time>2015-10-12T14:36:04.1Z</time>
      </trkpt>
      <trkpt lat="48.20605" lon="-3.10414">
        <ele>169</ele>
        <time>2015-10-12T14:36:07.1Z</time>
      </trkpt>
      <trkpt lat="48.20605" lon="-3.10412">
        <ele>169</ele>
        <time>2015-10-12T14:36:09.1Z</time>
      </trkpt>
      <trkpt lat="48.20606" lon="-3.1041">
        <ele>168</ele>
        <time>2015-10-12T14:36:12.1Z</time>
      </trkpt>
      <trkpt lat="48.20605" lon="-3.10408">
        <ele>168</ele>
        <time>2015-10-12T14:36:14.1Z</time>
      </trkpt>
      <trkpt lat="48.20605" lon="-3.10404">
        <ele>167</ele>
        <time>2015-10-12T14:36:17.1Z</time>
      </trkpt>
      <trkpt lat="48.20605" lon="-3.10402">
        <ele>167</ele>
        <time>2015-10-12T14:36:19.1Z</time>
      </trkpt>
      <trkpt lat="48.20605" lon="-3.104">
        <ele>167</ele>
        <time>2015-10-12T14:36:21.1Z</time>
      </trkpt>
      <trkpt lat="48.20606" lon="-3.10398">
        <ele>167</ele>
        <time>2015-10-12T14:36:23.1Z</time>
      </trkpt>
      <trkpt lat="48.20607" lon="-3.10396">
        <ele>168</ele>
        <time>2015-10-12T14:36:26.1Z</time>
      </trkpt>
      <trkpt lat="48.20607" lon="-3.10393">
        <ele>168</ele>
        <time>2015-10-12T14:36:29.1Z</time>
      </trkpt>
      <trkpt lat="48.20607" lon="-3.1039">
        <ele>168</ele>
        <time>2015-10-12T14:36:31.1Z</time>
      </trkpt>
      <trkpt lat="48.20607" lon="-3.10389">
        <ele>168</ele>
        <time>2015-10-12T14:36:33.1Z</time>
      </trkpt>
      <trkpt lat="48.20608" lon="-3.10385">
        <ele>169</ele>
        <time>2015-10-12T14:36:36.1Z</time>
      </trkpt>
      <trkpt lat="48.20607" lon="-3.10382">
        <ele>168</ele>
        <time>2015-10-12T14:36:39.1Z</time>
      </trkpt>
      <trkpt lat="48.20608" lon="-3.10379">
        <ele>168</ele>
        <time>2015-10-12T14:36:41.1Z</time>
      </trkpt>
      <trkpt lat="48.2061" lon="-3.10376">
        <ele>168</ele>
        <time>2015-10-12T14:36:44.1Z</time>
      </trkpt>
      <trkpt lat="48.20611" lon="-3.10373">
        <ele>168</ele>
        <time>2015-10-12T14:36:46.1Z</time>
      </trkpt>
      <trkpt lat="48.20612" lon="-3.1037">
        <ele>168</ele>
        <time>2015-10-12T14:36:49.1Z</time>
      </trkpt>
      <trkpt lat="48.20613" lon="-3.10367">
        <ele>168</ele>
        <time>2015-10-12T14:36:52.1Z</time>
      </trkpt>
      <trkpt lat="48.20615" lon="-3.10365">
        <ele>168</ele>
        <time>2015-10-12T14:36:54.1Z</time>
      </trkpt>
      <trkpt lat="48.20616" lon="-3.10361">
        <ele>168</ele>
        <time>2015-10-12T14:36:57.1Z</time>
      </trkpt>
      <trkpt lat="48.20617" lon="-3.10358">
        <ele>168</ele>
        <time>2015-10-12T14:36:59.1Z</time>
      </trkpt>
      <trkpt lat="48.20618" lon="-3.10353">
        <ele>168</ele>
        <time>2015-10-12T14:37:02.1Z</time>
      </trkpt>
      <trkpt lat="48.2062" lon="-3.10349">
        <ele>168</ele>
        <time>2015-10-12T14:37:05.1Z</time>
      </trkpt>
      <trkpt lat="48.20621" lon="-3.10345">
        <ele>168</ele>
        <time>2015-10-12T14:37:08.1Z</time>
      </trkpt>
      <trkpt lat="48.20622" lon="-3.10341">
        <ele>168</ele>
        <time>2015-10-12T14:37:11.1Z</time>
      </trkpt>
      <trkpt lat="48.20622" lon="-3.10337">
        <ele>168</ele>
        <time>2015-10-12T14:37:14.1Z</time>
      </trkpt>
      <trkpt lat="48.20623" lon="-3.10333">
        <ele>168</ele>
        <time>2015-10-12T14:37:17.1Z</time>
      </trkpt>
      <trkpt lat="48.20624" lon="-3.10329">
        <ele>168</ele>
        <time>2015-10-12T14:37:20.1Z</time>
      </trkpt>
      <trkpt lat="48.20625" lon="-3.10327">
        <ele>168</ele>
        <time>2015-10-12T14:37:22.1Z</time>
      </trkpt>
      <trkpt lat="48.20626" lon="-3.10324">
        <ele>167</ele>
        <time>2015-10-12T14:37:24.1Z</time>
      </trkpt>
      <trkpt lat="48.20628" lon="-3.10319">
        <ele>167</ele>
        <time>2015-10-12T14:37:27.1Z</time>
      </trkpt>
      <trkpt lat="48.20628" lon="-3.10316">
        <ele>167</ele>
        <time>2015-10-12T14:37:29.1Z</time>
      </trkpt>
      <trkpt lat="48.20629" lon="-3.10312">
        <ele>167</ele>
        <time>2015-10-12T14:37:32.1Z</time>
      </trkpt>
      <trkpt lat="48.2063" lon="-3.10309">
        <ele>167</ele>
        <time>2015-10-12T14:37:34.1Z</time>
      </trkpt>
      <trkpt lat="48.20631" lon="-3.10305">
        <ele>167</ele>
        <time>2015-10-12T14:37:37.1Z</time>
      </trkpt>
      <trkpt lat="48.20633" lon="-3.10301">
        <ele>167</ele>
        <time>2015-10-12T14:37:40.1Z</time>
      </trkpt>
      <trkpt lat="48.20633" lon="-3.10298">
        <ele>167</ele>
        <time>2015-10-12T14:37:42.1Z</time>
      </trkpt>
      <trkpt lat="48.20634" lon="-3.10294">
        <ele>166</ele>
        <time>2015-10-12T14:37:45.1Z</time>
      </trkpt>
      <trkpt lat="48.20634" lon="-3.1029">
        <ele>166</ele>
        <time>2015-10-12T14:37:47.1Z</time>
      </trkpt>
      <trkpt lat="48.20634" lon="-3.10286">
        <ele>166</ele>
        <time>2015-10-12T14:37:50.1Z</time>
      </trkpt>
      <trkpt lat="48.20635" lon="-3.10283">
        <ele>166</ele>
        <time>2015-10-12T14:37:53.1Z</time>
      </trkpt>
      <trkpt lat="48.20636" lon="-3.10281">
        <ele>166</ele>
        <time>2015-10-12T14:37:55.1Z</time>
      </trkpt>
      <trkpt lat="48.20637" lon="-3.10277">
        <ele>165</ele>
        <time>2015-10-12T14:37:58.1Z</time>
      </trkpt>
      <trkpt lat="48.20638" lon="-3.10275">
        <ele>166</ele>
        <time>2015-10-12T14:38:00.1Z</time>
      </trkpt>
      <trkpt lat="48.20639" lon="-3.10271">
        <ele>166</ele>
        <time>2015-10-12T14:38:03.1Z</time>
      </trkpt>
      <trkpt lat="48.2064" lon="-3.10267">
        <ele>166</ele>
        <time>2015-10-12T14:38:06.1Z</time>
      </trkpt>
      <trkpt lat="48.20641" lon="-3.10262">
        <ele>166</ele>
        <time>2015-10-12T14:38:09.1Z</time>
      </trkpt>
      <trkpt lat="48.20642" lon="-3.10259">
        <ele>166</ele>
        <time>2015-10-12T14:38:11.1Z</time>
      </trkpt>
      <trkpt lat="48.20642" lon="-3.10256">
        <ele>165</ele>
        <time>2015-10-12T14:38:13.1Z</time>
      </trkpt>
      <trkpt lat="48.20643" lon="-3.10253">
        <ele>165</ele>
        <time>2015-10-12T14:38:16.1Z</time>
      </trkpt>
      <trkpt lat="48.20644" lon="-3.10249">
        <ele>165</ele>
        <time>2015-10-12T14:38:19.1Z</time>
      </trkpt>
      <trkpt lat="48.20645" lon="-3.10246">
        <ele>165</ele>
        <time>2015-10-12T14:38:21.1Z</time>
      </trkpt>
      <trkpt lat="48.20646" lon="-3.10242">
        <ele>165</ele>
        <time>2015-10-12T14:38:24.1Z</time>
      </trkpt>
      <trkpt lat="48.20647" lon="-3.10239">
        <ele>165</ele>
        <time>2015-10-12T14:38:26.1Z</time>
      </trkpt>
      <trkpt lat="48.20648" lon="-3.10235">
        <ele>165</ele>
        <time>2015-10-12T14:38:29.1Z</time>
      </trkpt>
      <trkpt lat="48.20649" lon="-3.10232">
        <ele>165</ele>
        <time>2015-10-12T14:38:31.1Z</time>
      </trkpt>
      <trkpt lat="48.20649" lon="-3.10229">
        <ele>165</ele>
        <time>2015-10-12T14:38:34.1Z</time>
      </trkpt>
      <trkpt lat="48.2065" lon="-3.10225">
        <ele>165</ele>
        <time>2015-10-12T14:38:37.1Z</time>
      </trkpt>
      <trkpt lat="48.20652" lon="-3.10222">
        <ele>164</ele>
        <time>2015-10-12T14:38:39.1Z</time>
      </trkpt>
      <trkpt lat="48.20653" lon="-3.10217">
        <ele>164</ele>
        <time>2015-10-12T14:38:42.1Z</time>
      </trkpt>
      <trkpt lat="48.20654" lon="-3.10214">
        <ele>163</ele>
        <time>2015-10-12T14:38:44.1Z</time>
      </trkpt>
      <trkpt lat="48.20654" lon="-3.10212">
        <ele>163</ele>
        <time>2015-10-12T14:38:46.1Z</time>
      </trkpt>
      <trkpt lat="48.20655" lon="-3.10207">
        <ele>163</ele>
        <time>2015-10-12T14:38:49.1Z</time>
      </trkpt>
      <trkpt lat="48.20656" lon="-3.10202">
        <ele>164</ele>
        <time>2015-10-12T14:38:52.1Z</time>
      </trkpt>
      <trkpt lat="48.20657" lon="-3.10196">
        <ele>164</ele>
        <time>2015-10-12T14:38:55.1Z</time>
      </trkpt>
      <trkpt lat="48.20657" lon="-3.10193">
        <ele>164</ele>
        <time>2015-10-12T14:38:57.1Z</time>
      </trkpt>
      <trkpt lat="48.20657" lon="-3.1019">
        <ele>164</ele>
        <time>2015-10-12T14:38:59.1Z</time>
      </trkpt>
      <trkpt lat="48.20658" lon="-3.10186">
        <ele>164</ele>
        <time>2015-10-12T14:39:02.1Z</time>
      </trkpt>
      <trkpt lat="48.20659" lon="-3.10183">
        <ele>164</ele>
        <time>2015-10-12T14:39:04.1Z</time>
      </trkpt>
      <trkpt lat="48.2066" lon="-3.1018">
        <ele>165</ele>
        <time>2015-10-12T14:39:07.1Z</time>
      </trkpt>
      <trkpt lat="48.20662" lon="-3.10176">
        <ele>165</ele>
        <time>2015-10-12T14:39:10.1Z</time>
      </trkpt>
      <trkpt lat="48.20663" lon="-3.10173">
        <ele>165</ele>
        <time>2015-10-12T14:39:12.1Z</time>
      </trkpt>
      <trkpt lat="48.20664" lon="-3.10171">
        <ele>165</ele>
        <time>2015-10-12T14:39:15.1Z</time>
      </trkpt>
      <trkpt lat="48.20665" lon="-3.10169">
        <ele>165</ele>
        <time>2015-10-12T14:39:18.1Z</time>
      </trkpt>
      <trkpt lat="48.20665" lon="-3.10166">
        <ele>165</ele>
        <time>2015-10-12T14:39:20.1Z</time>
      </trkpt>
      <trkpt lat="48.20666" lon="-3.10162">
        <ele>166</ele>
        <time>2015-10-12T14:39:23.1Z</time>
      </trkpt>
      <trkpt lat="48.20667" lon="-3.10159">
        <ele>166</ele>
        <time>2015-10-12T14:39:25.1Z</time>
      </trkpt>
      <trkpt lat="48.20667" lon="-3.10157">
        <ele>167</ele>
        <time>2015-10-12T14:39:27.1Z</time>
      </trkpt>
      <trkpt lat="48.20667" lon="-3.10154">
        <ele>167</ele>
        <time>2015-10-12T14:39:30.1Z</time>
      </trkpt>
      <trkpt lat="48.20667" lon="-3.10149">
        <ele>166</ele>
        <time>2015-10-12T14:39:33.1Z</time>
      </trkpt>
      <trkpt lat="48.20667" lon="-3.10145">
        <ele>166</ele>
        <time>2015-10-12T14:39:36.1Z</time>
      </trkpt>
      <trkpt lat="48.20668" lon="-3.10141">
        <ele>166</ele>
        <time>2015-10-12T14:39:39.1Z</time>
      </trkpt>
      <trkpt lat="48.20669" lon="-3.10137">
        <ele>166</ele>
        <time>2015-10-12T14:39:42.1Z</time>
      </trkpt>
      <trkpt lat="48.20668" lon="-3.10135">
        <ele>166</ele>
        <time>2015-10-12T14:39:44.1Z</time>
      </trkpt>
      <trkpt lat="48.20669" lon="-3.10132">
        <ele>166</ele>
        <time>2015-10-12T14:39:46.1Z</time>
      </trkpt>
      <trkpt lat="48.2067" lon="-3.10127">
        <ele>165</ele>
        <time>2015-10-12T14:39:49.1Z</time>
      </trkpt>
      <trkpt lat="48.20671" lon="-3.10123">
        <ele>166</ele>
        <time>2015-10-12T14:39:51.1Z</time>
      </trkpt>
      <trkpt lat="48.20673" lon="-3.10118">
        <ele>166</ele>
        <time>2015-10-12T14:39:53.1Z</time>
      </trkpt>
      <trkpt lat="48.20673" lon="-3.10115">
        <ele>166</ele>
        <time>2015-10-12T14:39:56.1Z</time>
      </trkpt>
      <trkpt lat="48.20674" lon="-3.10109">
        <ele>166</ele>
        <time>2015-10-12T14:39:59.1Z</time>
      </trkpt>
      <trkpt lat="48.20675" lon="-3.10105">
        <ele>166</ele>
        <time>2015-10-12T14:40:02.1Z</time>
      </trkpt>
      <trkpt lat="48.20675" lon="-3.10103">
        <ele>166</ele>
        <time>2015-10-12T14:40:04.1Z</time>
      </trkpt>
      <trkpt lat="48.20675" lon="-3.101">
        <ele>166</ele>
        <time>2015-10-12T14:40:07.1Z</time>
      </trkpt>
      <trkpt lat="48.20675" lon="-3.10096">
        <ele>165</ele>
        <time>2015-10-12T14:40:09.1Z</time>
      </trkpt>
      <trkpt lat="48.20675" lon="-3.10091">
        <ele>165</ele>
        <time>2015-10-12T14:40:12.1Z</time>
      </trkpt>
      <trkpt lat="48.20676" lon="-3.10088">
        <ele>165</ele>
        <time>2015-10-12T14:40:14.1Z</time>
      </trkpt>
      <trkpt lat="48.20676" lon="-3.10085">
        <ele>165</ele>
        <time>2015-10-12T14:40:17.1Z</time>
      </trkpt>
      <trkpt lat="48.20678" lon="-3.1008">
        <ele>166</ele>
        <time>2015-10-12T14:40:20.1Z</time>
      </trkpt>
      <trkpt lat="48.20679" lon="-3.10077">
        <ele>166</ele>
        <time>2015-10-12T14:40:22.1Z</time>
      </trkpt>
      <trkpt lat="48.2068" lon="-3.10073">
        <ele>166</ele>
        <time>2015-10-12T14:40:25.1Z</time>
      </trkpt>
      <trkpt lat="48.2068" lon="-3.10069">
        <ele>166</ele>
        <time>2015-10-12T14:40:28.1Z</time>
      </trkpt>
      <trkpt lat="48.2068" lon="-3.10066">
        <ele>166</ele>
        <time>2015-10-12T14:40:30.1Z</time>
      </trkpt>
      <trkpt lat="48.20679" lon="-3.10062">
        <ele>164</ele>
        <time>2015-10-12T14:40:33.1Z</time>
      </trkpt>
      <trkpt lat="48.20679" lon="-3.10057">
        <ele>164</ele>
        <time>2015-10-12T14:40:36.1Z</time>
      </trkpt>
      <trkpt lat="48.20679" lon="-3.10054">
        <ele>164</ele>
        <time>2015-10-12T14:40:39.1Z</time>
      </trkpt>
      <trkpt lat="48.20679" lon="-3.1005">
        <ele>164</ele>
        <time>2015-10-12T14:40:42.1Z</time>
      </trkpt>
      <trkpt lat="48.20679" lon="-3.10047">
        <ele>164</ele>
        <time>2015-10-12T14:40:44.1Z</time>
      </trkpt>
      <trkpt lat="48.20679" lon="-3.10043">
        <ele>164</ele>
        <time>2015-10-12T14:40:47.1Z</time>
      </trkpt>
      <trkpt lat="48.20679" lon="-3.1004">
        <ele>164</ele>
        <time>2015-10-12T14:40:49.1Z</time>
      </trkpt>
      <trkpt lat="48.2068" lon="-3.10038">
        <ele>164</ele>
        <time>2015-10-12T14:40:52.1Z</time>
      </trkpt>
      <trkpt lat="48.20681" lon="-3.10037">
        <ele>165</ele>
        <time>2015-10-12T14:40:55.1Z</time>
      </trkpt>
      <trkpt lat="48.20682" lon="-3.10034">
        <ele>165</ele>
        <time>2015-10-12T14:40:57.1Z</time>
      </trkpt>
      <trkpt lat="48.20683" lon="-3.10032">
        <ele>165</ele>
        <time>2015-10-12T14:40:59.1Z</time>
      </trkpt>
      <trkpt lat="48.20685" lon="-3.10029">
        <ele>166</ele>
        <time>2015-10-12T14:41:02.1Z</time>
      </trkpt>
      <trkpt lat="48.20686" lon="-3.10027">
        <ele>166</ele>
        <time>2015-10-12T14:41:05.1Z</time>
      </trkpt>
      <trkpt lat="48.20687" lon="-3.10026">
        <ele>167</ele>
        <time>2015-10-12T14:41:07.1Z</time>
      </trkpt>
      <trkpt lat="48.20688" lon="-3.10023">
        <ele>167</ele>
        <time>2015-10-12T14:41:10.1Z</time>
      </trkpt>
      <trkpt lat="48.20689" lon="-3.10021">
        <ele>167</ele>
        <time>2015-10-12T14:41:12.1Z</time>
      </trkpt>
      <trkpt lat="48.20689" lon="-3.10018">
        <ele>167</ele>
        <time>2015-10-12T14:41:15.1Z</time>
      </trkpt>
      <trkpt lat="48.20691" lon="-3.10017">
        <ele>168</ele>
        <time>2015-10-12T14:41:18.1Z</time>
      </trkpt>
      <trkpt lat="48.20692" lon="-3.10014">
        <ele>169</ele>
        <time>2015-10-12T14:41:21.1Z</time>
      </trkpt>
      <trkpt lat="48.20692" lon="-3.10012">
        <ele>169</ele>
        <time>2015-10-12T14:41:24.1Z</time>
      </trkpt>
      <trkpt lat="48.20693" lon="-3.10011">
        <ele>170</ele>
        <time>2015-10-12T14:41:27.1Z</time>
      </trkpt>
      <trkpt lat="48.20693" lon="-3.10009">
        <ele>170</ele>
        <time>2015-10-12T14:41:30.1Z</time>
      </trkpt>
      <trkpt lat="48.20693" lon="-3.10008">
        <ele>170</ele>
        <time>2015-10-12T14:41:33.1Z</time>
      </trkpt>
      <trkpt lat="48.20692" lon="-3.10006">
        <ele>169</ele>
        <time>2015-10-12T14:41:36.1Z</time>
      </trkpt>
      <trkpt lat="48.20692" lon="-3.10005">
        <ele>169</ele>
        <time>2015-10-12T14:41:39.1Z</time>
      </trkpt>
      <trkpt lat="48.20691" lon="-3.10004">
        <ele>169</ele>
        <time>2015-10-12T14:41:41.1Z</time>
      </trkpt>
      <trkpt lat="48.20691" lon="-3.10003">
        <ele>169</ele>
        <time>2015-10-12T14:41:43.1Z</time>
      </trkpt>
      <trkpt lat="48.20691" lon="-3.10001">
        <ele>169</ele>
        <time>2015-10-12T14:41:46.1Z</time>
      </trkpt>
      <trkpt lat="48.2069" lon="-3.10001">
        <ele>169</ele>
        <time>2015-10-12T14:41:48.1Z</time>
      </trkpt>
      <trkpt lat="48.2069" lon="-3.1">
        <ele>169</ele>
        <time>2015-10-12T14:41:51.1Z</time>
      </trkpt>
      <trkpt lat="48.20689" lon="-3.1">
        <ele>169</ele>
        <time>2015-10-12T14:41:53.1Z</time>
      </trkpt>
      <trkpt lat="48.20689" lon="-3.09999">
        <ele>169</ele>
        <time>2015-10-12T14:41:56.1Z</time>
      </trkpt>
      <trkpt lat="48.20688" lon="-3.09999">
        <ele>169</ele>
        <time>2015-10-12T14:41:59.1Z</time>
      </trkpt>
      <trkpt lat="48.20688" lon="-3.09999">
        <ele>169</ele>
        <time>2015-10-12T14:42:01.1Z</time>
      </trkpt>
      <trkpt lat="48.20688" lon="-3.09999">
        <ele>169</ele>
        <time>2015-10-12T14:42:04.1Z</time>
      </trkpt>
      <trkpt lat="48.20687" lon="-3.09999">
        <ele>169</ele>
        <time>2015-10-12T14:42:06.1Z</time>
      </trkpt>
      <trkpt lat="48.20687" lon="-3.09999">
        <ele>169</ele>
        <time>2015-10-12T14:42:08.1Z</time>
      </trkpt>
      <trkpt lat="48.20687" lon="-3.09999">
        <ele>169</ele>
        <time>2015-10-12T14:42:10.1Z</time>
      </trkpt>
      <trkpt lat="48.20686" lon="-3.09999">
        <ele>169</ele>
        <time>2015-10-12T14:42:13.1Z</time>
      </trkpt>
      <trkpt lat="48.20686" lon="-3.09998">
        <ele>169</ele>
        <time>2015-10-12T14:42:16.1Z</time>
      </trkpt>
      <trkpt lat="48.20687" lon="-3.09998">
        <ele>169</ele>
        <time>2015-10-12T14:42:18.1Z</time>
      </trkpt>
      <trkpt lat="48.20688" lon="-3.09998">
        <ele>169</ele>
        <time>2015-10-12T14:42:20.1Z</time>
      </trkpt>
      <trkpt lat="48.20688" lon="-3.09997">
        <ele>169</ele>
        <time>2015-10-12T14:42:22.1Z</time>
      </trkpt>
      <trkpt lat="48.20689" lon="-3.09997">
        <ele>169</ele>
        <time>2015-10-12T14:42:24.1Z</time>
      </trkpt>
      <trkpt lat="48.2069" lon="-3.09995">
        <ele>169</ele>
        <time>2015-10-12T14:42:27.1Z</time>
      </trkpt>
      <trkpt lat="48.20692" lon="-3.09994">
        <ele>170</ele>
        <time>2015-10-12T14:42:30.1Z</time>
      </trkpt>
      <trkpt lat="48.20692" lon="-3.09992">
        <ele>170</ele>
        <time>2015-10-12T14:42:32.1Z</time>
      </trkpt>
      <trkpt lat="48.20693" lon="-3.0999">
        <ele>170</ele>
        <time>2015-10-12T14:42:35.1Z</time>
      </trkpt>
      <trkpt lat="48.20693" lon="-3.09989">
        <ele>170</ele>
        <time>2015-10-12T14:42:38.1Z</time>
      </trkpt>
      <trkpt lat="48.20693" lon="-3.09987">
        <ele>170</ele>
        <time>2015-10-12T14:42:41.1Z</time>
      </trkpt>
      <trkpt lat="48.20694" lon="-3.09986">
        <ele>170</ele>
        <time>2015-10-12T14:42:43.1Z</time>
      </trkpt>
      <trkpt lat="48.20694" lon="-3.09985">
        <ele>170</ele>
        <time>2015-10-12T14:42:45.1Z</time>
      </trkpt>
      <trkpt lat="48.20693" lon="-3.09983">
        <ele>169</ele>
        <time>2015-10-12T14:42:48.1Z</time>
      </trkpt>
      <trkpt lat="48.20694" lon="-3.09981">
        <ele>169</ele>
        <time>2015-10-12T14:42:50.1Z</time>
      </trkpt>
      <trkpt lat="48.20694" lon="-3.09978">
        <ele>168</ele>
        <time>2015-10-12T14:42:52.1Z</time>
      </trkpt>
      <trkpt lat="48.20694" lon="-3.09976">
        <ele>168</ele>
        <time>2015-10-12T14:42:55.1Z</time>
      </trkpt>
      <trkpt lat="48.20693" lon="-3.09974">
        <ele>168</ele>
        <time>2015-10-12T14:42:57.1Z</time>
      </trkpt>
      <trkpt lat="48.20692" lon="-3.09973">
        <ele>168</ele>
        <time>2015-10-12T14:43:00.1Z</time>
      </trkpt>
      <trkpt lat="48.20692" lon="-3.09972">
        <ele>169</ele>
        <time>2015-10-12T14:43:02.1Z</time>
      </trkpt>
      <trkpt lat="48.20691" lon="-3.09972">
        <ele>168</ele>
        <time>2015-10-12T14:43:04.1Z</time>
      </trkpt>
      <trkpt lat="48.20691" lon="-3.09971">
        <ele>168</ele>
        <time>2015-10-12T14:43:07.1Z</time>
      </trkpt>
      <trkpt lat="48.20691" lon="-3.09969">
        <ele>168</ele>
        <time>2015-10-12T14:43:10.1Z</time>
      </trkpt>
      <trkpt lat="48.2069" lon="-3.09967">
        <ele>168</ele>
        <time>2015-10-12T14:43:13.1Z</time>
      </trkpt>
      <trkpt lat="48.2069" lon="-3.09965">
        <ele>169</ele>
        <time>2015-10-12T14:43:15.1Z</time>
      </trkpt>
      <trkpt lat="48.2069" lon="-3.09964">
        <ele>168</ele>
        <time>2015-10-12T14:43:17.1Z</time>
      </trkpt>
      <trkpt lat="48.20689" lon="-3.09963">
        <ele>169</ele>
        <time>2015-10-12T14:43:19.1Z</time>
      </trkpt>
      <trkpt lat="48.20689" lon="-3.09962">
        <ele>168</ele>
        <time>2015-10-12T14:43:21.1Z</time>
      </trkpt>
      <trkpt lat="48.20689" lon="-3.09961">
        <ele>168</ele>
        <time>2015-10-12T14:43:24.1Z</time>
      </trkpt>
      <trkpt lat="48.20688" lon="-3.09961">
        <ele>168</ele>
        <time>2015-10-12T14:43:27.1Z</time>
      </trkpt>
      <trkpt lat="48.20687" lon="-3.0996">
        <ele>167</ele>
        <time>2015-10-12T14:43:29.1Z</time>
      </trkpt>
      <trkpt lat="48.20687" lon="-3.09959">
        <ele>167</ele>
        <time>2015-10-12T14:43:33.1Z</time>
      </trkpt>
      <trkpt lat="48.20686" lon="-3.09956">
        <ele>167</ele>
        <time>2015-10-12T14:43:36.1Z</time>
      </trkpt>
      <trkpt lat="48.20686" lon="-3.09952">
        <ele>167</ele>
        <time>2015-10-12T14:43:39.1Z</time>
      </trkpt>
      <trkpt lat="48.20686" lon="-3.09952">
        <ele>167</ele>
        <time>2015-10-12T14:43:42.1Z</time>
      </trkpt>
      <trkpt lat="48.20686" lon="-3.09948">
        <ele>166</ele>
        <time>2015-10-12T14:43:44.1Z</time>
      </trkpt>
      <trkpt lat="48.20685" lon="-3.09947">
        <ele>165</ele>
        <time>2015-10-12T14:43:47.1Z</time>
      </trkpt>
      <trkpt lat="48.20685" lon="-3.09942">
        <ele>165</ele>
        <time>2015-10-12T14:43:50.1Z</time>
      </trkpt>
      <trkpt lat="48.20686" lon="-3.09939">
        <ele>165</ele>
        <time>2015-10-12T14:43:52.1Z</time>
      </trkpt>
      <trkpt lat="48.20686" lon="-3.09936">
        <ele>166</ele>
        <time>2015-10-12T14:43:55.1Z</time>
      </trkpt>
      <trkpt lat="48.20686" lon="-3.09932">
        <ele>166</ele>
        <time>2015-10-12T14:43:58.1Z</time>
      </trkpt>
      <trkpt lat="48.20686" lon="-3.0993">
        <ele>166</ele>
        <time>2015-10-12T14:44:00.1Z</time>
      </trkpt>
      <trkpt lat="48.20686" lon="-3.09927">
        <ele>166</ele>
        <time>2015-10-12T14:44:02.1Z</time>
      </trkpt>
      <trkpt lat="48.20686" lon="-3.09925">
        <ele>166</ele>
        <time>2015-10-12T14:44:05.1Z</time>
      </trkpt>
      <trkpt lat="48.20685" lon="-3.09923">
        <ele>165</ele>
        <time>2015-10-12T14:44:07.1Z</time>
      </trkpt>
      <trkpt lat="48.20684" lon="-3.0992">
        <ele>165</ele>
        <time>2015-10-12T14:44:10.1Z</time>
      </trkpt>
      <trkpt lat="48.20684" lon="-3.09917">
        <ele>164</ele>
        <time>2015-10-12T14:44:13.1Z</time>
      </trkpt>
      <trkpt lat="48.20684" lon="-3.09912">
        <ele>164</ele>
        <time>2015-10-12T14:44:15.1Z</time>
      </trkpt>
      <trkpt lat="48.20684" lon="-3.0991">
        <ele>164</ele>
        <time>2015-10-12T14:44:18.1Z</time>
      </trkpt>
      <trkpt lat="48.20685" lon="-3.09906">
        <ele>164</ele>
        <time>2015-10-12T14:44:21.1Z</time>
      </trkpt>
      <trkpt lat="48.20686" lon="-3.09904">
        <ele>164</ele>
        <time>2015-10-12T14:44:23.1Z</time>
      </trkpt>
      <trkpt lat="48.20687" lon="-3.09901">
        <ele>164</ele>
        <time>2015-10-12T14:44:26.1Z</time>
      </trkpt>
      <trkpt lat="48.20687" lon="-3.09898">
        <ele>164</ele>
        <time>2015-10-12T14:44:28.1Z</time>
      </trkpt>
      <trkpt lat="48.20687" lon="-3.09895">
        <ele>164</ele>
        <time>2015-10-12T14:44:31.1Z</time>
      </trkpt>
      <trkpt lat="48.20688" lon="-3.09893">
        <ele>164</ele>
        <time>2015-10-12T14:44:34.1Z</time>
      </trkpt>
      <trkpt lat="48.20688" lon="-3.09892">
        <ele>165</ele>
        <time>2015-10-12T14:44:36.1Z</time>
      </trkpt>
      <trkpt lat="48.20688" lon="-3.0989">
        <ele>165</ele>
        <time>2015-10-12T14:44:38.1Z</time>
      </trkpt>
      <trkpt lat="48.20688" lon="-3.09889">
        <ele>164</ele>
        <time>2015-10-12T14:44:41.1Z</time>
      </trkpt>
      <trkpt lat="48.20688" lon="-3.09887">
        <ele>164</ele>
        <time>2015-10-12T14:44:43.1Z</time>
      </trkpt>
      <trkpt lat="48.20688" lon="-3.09885">
        <ele>164</ele>
        <time>2015-10-12T14:44:45.1Z</time>
      </trkpt>
      <trkpt lat="48.20688" lon="-3.09885">
        <ele>165</ele>
        <time>2015-10-12T14:44:50.1Z</time>
      </trkpt>
      <trkpt lat="48.20688" lon="-3.09884">
        <ele>165</ele>
        <time>2015-10-12T14:44:52.1Z</time>
      </trkpt>
      <trkpt lat="48.20688" lon="-3.09884">
        <ele>165</ele>
        <time>2015-10-12T14:44:55.1Z</time>
      </trkpt>
      <trkpt lat="48.20688" lon="-3.09882">
        <ele>165</ele>
        <time>2015-10-12T14:44:58.1Z</time>
      </trkpt>
      <trkpt lat="48.20688" lon="-3.09882">
        <ele>165</ele>
        <time>2015-10-12T14:45:00.1Z</time>
      </trkpt>
      <trkpt lat="48.20688" lon="-3.09882">
        <ele>165</ele>
        <time>2015-10-12T14:45:03.1Z</time>
      </trkpt>
      <trkpt lat="48.20687" lon="-3.0988">
        <ele>165</ele>
        <time>2015-10-12T14:45:05.1Z</time>
      </trkpt>
      <trkpt lat="48.20686" lon="-3.09877">
        <ele>165</ele>
        <time>2015-10-12T14:45:09.1Z</time>
      </trkpt>
      <trkpt lat="48.20686" lon="-3.09875">
        <ele>165</ele>
        <time>2015-10-12T14:45:12.1Z</time>
      </trkpt>
      <trkpt lat="48.20686" lon="-3.09873">
        <ele>165</ele>
        <time>2015-10-12T14:45:14.1Z</time>
      </trkpt>
      <trkpt lat="48.20685" lon="-3.09871">
        <ele>165</ele>
        <time>2015-10-12T14:45:18.1Z</time>
      </trkpt>
      <trkpt lat="48.20685" lon="-3.09869">
        <ele>165</ele>
        <time>2015-10-12T14:45:20.1Z</time>
      </trkpt>
      <trkpt lat="48.20685" lon="-3.09868">
        <ele>165</ele>
        <time>2015-10-12T14:45:23.1Z</time>
      </trkpt>
      <trkpt lat="48.20685" lon="-3.09866">
        <ele>165</ele>
        <time>2015-10-12T14:45:27.1Z</time>
      </trkpt>
      <trkpt lat="48.20685" lon="-3.09864">
        <ele>165</ele>
        <time>2015-10-12T14:45:29.1Z</time>
      </trkpt>
      <trkpt lat="48.20686" lon="-3.09862">
        <ele>165</ele>
        <time>2015-10-12T14:45:31.1Z</time>
      </trkpt>
      <trkpt lat="48.20686" lon="-3.09861">
        <ele>165</ele>
        <time>2015-10-12T14:45:33.1Z</time>
      </trkpt>
      <trkpt lat="48.20686" lon="-3.0986">
        <ele>165</ele>
        <time>2015-10-12T14:45:36.1Z</time>
      </trkpt>
      <trkpt lat="48.20686" lon="-3.09858">
        <ele>165</ele>
        <time>2015-10-12T14:45:38.1Z</time>
      </trkpt>
      <trkpt lat="48.20687" lon="-3.09857">
        <ele>165</ele>
        <time>2015-10-12T14:45:41.1Z</time>
      </trkpt>
      <trkpt lat="48.20687" lon="-3.09855">
        <ele>165</ele>
        <time>2015-10-12T14:45:44.1Z</time>
      </trkpt>
      <trkpt lat="48.20687" lon="-3.09853">
        <ele>165</ele>
        <time>2015-10-12T14:45:46.1Z</time>
      </trkpt>
      <trkpt lat="48.20688" lon="-3.0985">
        <ele>166</ele>
        <time>2015-10-12T14:45:48.1Z</time>
      </trkpt>
      <trkpt lat="48.20689" lon="-3.09848">
        <ele>166</ele>
        <time>2015-10-12T14:45:51.1Z</time>
      </trkpt>
      <trkpt lat="48.20689" lon="-3.09848">
        <ele>166</ele>
        <time>2015-10-12T14:45:53.1Z</time>
      </trkpt>
      <trkpt lat="48.20689" lon="-3.09846">
        <ele>167</ele>
        <time>2015-10-12T14:45:55.1Z</time>
      </trkpt>
      <trkpt lat="48.20689" lon="-3.09845">
        <ele>167</ele>
        <time>2015-10-12T14:45:57.1Z</time>
      </trkpt>
      <trkpt lat="48.20688" lon="-3.09844">
        <ele>167</ele>
        <time>2015-10-12T14:46:00.1Z</time>
      </trkpt>
      <trkpt lat="48.20687" lon="-3.09842">
        <ele>167</ele>
        <time>2015-10-12T14:46:02.1Z</time>
      </trkpt>
      <trkpt lat="48.20687" lon="-3.09839">
        <ele>167</ele>
        <time>2015-10-12T14:46:05.1Z</time>
      </trkpt>
      <trkpt lat="48.20687" lon="-3.09838">
        <ele>167</ele>
        <time>2015-10-12T14:46:07.1Z</time>
      </trkpt>
      <trkpt lat="48.20688" lon="-3.09837">
        <ele>167</ele>
        <time>2015-10-12T14:46:09.1Z</time>
      </trkpt>
      <trkpt lat="48.20689" lon="-3.09835">
        <ele>168</ele>
        <time>2015-10-12T14:46:12.1Z</time>
      </trkpt>
      <trkpt lat="48.20689" lon="-3.09834">
        <ele>168</ele>
        <time>2015-10-12T14:46:15.1Z</time>
      </trkpt>
      <trkpt lat="48.20689" lon="-3.09832">
        <ele>169</ele>
        <time>2015-10-12T14:46:17.1Z</time>
      </trkpt>
      <trkpt lat="48.2069" lon="-3.09831">
        <ele>169</ele>
        <time>2015-10-12T14:46:20.1Z</time>
      </trkpt>
      <trkpt lat="48.20691" lon="-3.09828">
        <ele>170</ele>
        <time>2015-10-12T14:46:23.1Z</time>
      </trkpt>
      <trkpt lat="48.20691" lon="-3.09825">
        <ele>170</ele>
        <time>2015-10-12T14:46:25.1Z</time>
      </trkpt>
      <trkpt lat="48.20691" lon="-3.09822">
        <ele>170</ele>
        <time>2015-10-12T14:46:28.1Z</time>
      </trkpt>
      <trkpt lat="48.20692" lon="-3.0982">
        <ele>170</ele>
        <time>2015-10-12T14:46:30.1Z</time>
      </trkpt>
      <trkpt lat="48.20692" lon="-3.09818">
        <ele>171</ele>
        <time>2015-10-12T14:46:32.1Z</time>
      </trkpt>
      <trkpt lat="48.20692" lon="-3.09816">
        <ele>171</ele>
        <time>2015-10-12T14:46:34.1Z</time>
      </trkpt>
      <trkpt lat="48.20693" lon="-3.09812">
        <ele>171</ele>
        <time>2015-10-12T14:46:37.1Z</time>
      </trkpt>
      <trkpt lat="48.20693" lon="-3.0981">
        <ele>171</ele>
        <time>2015-10-12T14:46:39.1Z</time>
      </trkpt>
      <trkpt lat="48.20693" lon="-3.09808">
        <ele>172</ele>
        <time>2015-10-12T14:46:42.1Z</time>
      </trkpt>
      <trkpt lat="48.20692" lon="-3.09806">
        <ele>171</ele>
        <time>2015-10-12T14:46:45.1Z</time>
      </trkpt>
      <trkpt lat="48.20691" lon="-3.09804">
        <ele>171</ele>
        <time>2015-10-12T14:46:48.1Z</time>
      </trkpt>
      <trkpt lat="48.20691" lon="-3.09803">
        <ele>171</ele>
        <time>2015-10-12T14:46:51.1Z</time>
      </trkpt>
      <trkpt lat="48.20689" lon="-3.09803">
        <ele>171</ele>
        <time>2015-10-12T14:46:53.1Z</time>
      </trkpt>
      <trkpt lat="48.20689" lon="-3.09802">
        <ele>171</ele>
        <time>2015-10-12T14:46:55.1Z</time>
      </trkpt>
      <trkpt lat="48.20687" lon="-3.098">
        <ele>170</ele>
        <time>2015-10-12T14:46:58.1Z</time>
      </trkpt>
      <trkpt lat="48.20686" lon="-3.09797">
        <ele>169</ele>
        <time>2015-10-12T14:47:01.1Z</time>
      </trkpt>
      <trkpt lat="48.20686" lon="-3.09795">
        <ele>169</ele>
        <time>2015-10-12T14:47:03.1Z</time>
      </trkpt>
      <trkpt lat="48.20686" lon="-3.09792">
        <ele>168</ele>
        <time>2015-10-12T14:47:07.1Z</time>
      </trkpt>
      <trkpt lat="48.20686" lon="-3.09788">
        <ele>168</ele>
        <time>2015-10-12T14:47:09.1Z</time>
      </trkpt>
      <trkpt lat="48.20686" lon="-3.09786">
        <ele>168</ele>
        <time>2015-10-12T14:47:11.1Z</time>
      </trkpt>
      <trkpt lat="48.20686" lon="-3.09784">
        <ele>167</ele>
        <time>2015-10-12T14:47:13.1Z</time>
      </trkpt>
      <trkpt lat="48.20686" lon="-3.0978">
        <ele>167</ele>
        <time>2015-10-12T14:47:16.1Z</time>
      </trkpt>
      <trkpt lat="48.20686" lon="-3.09776">
        <ele>166</ele>
        <time>2015-10-12T14:47:19.1Z</time>
      </trkpt>
      <trkpt lat="48.20685" lon="-3.09773">
        <ele>166</ele>
        <time>2015-10-12T14:47:22.1Z</time>
      </trkpt>
      <trkpt lat="48.20685" lon="-3.0977">
        <ele>166</ele>
        <time>2015-10-12T14:47:24.1Z</time>
      </trkpt>
      <trkpt lat="48.20686" lon="-3.09767">
        <ele>166</ele>
        <time>2015-10-12T14:47:27.1Z</time>
      </trkpt>
      <trkpt lat="48.20686" lon="-3.09765">
        <ele>166</ele>
        <time>2015-10-12T14:47:29.1Z</time>
      </trkpt>
      <trkpt lat="48.20687" lon="-3.09761">
        <ele>167</ele>
        <time>2015-10-12T14:47:32.1Z</time>
      </trkpt>
      <trkpt lat="48.20686" lon="-3.09759">
        <ele>167</ele>
        <time>2015-10-12T14:47:35.1Z</time>
      </trkpt>
      <trkpt lat="48.20686" lon="-3.09756">
        <ele>167</ele>
        <time>2015-10-12T14:47:37.1Z</time>
      </trkpt>
      <trkpt lat="48.20686" lon="-3.09753">
        <ele>167</ele>
        <time>2015-10-12T14:47:39.1Z</time>
      </trkpt>
      <trkpt lat="48.20686" lon="-3.0975">
        <ele>167</ele>
        <time>2015-10-12T14:47:41.1Z</time>
      </trkpt>
      <trkpt lat="48.20687" lon="-3.09747">
        <ele>167</ele>
        <time>2015-10-12T14:47:43.1Z</time>
      </trkpt>
      <trkpt lat="48.20688" lon="-3.09744">
        <ele>167</ele>
        <time>2015-10-12T14:47:46.1Z</time>
      </trkpt>
      <trkpt lat="48.20689" lon="-3.09741">
        <ele>167</ele>
        <time>2015-10-12T14:47:48.1Z</time>
      </trkpt>
      <trkpt lat="48.2069" lon="-3.09737">
        <ele>167</ele>
        <time>2015-10-12T14:47:52.1Z</time>
      </trkpt>
      <trkpt lat="48.20691" lon="-3.09734">
        <ele>168</ele>
        <time>2015-10-12T14:47:54.1Z</time>
      </trkpt>
      <trkpt lat="48.20691" lon="-3.09731">
        <ele>168</ele>
        <time>2015-10-12T14:47:57.1Z</time>
      </trkpt>
      <trkpt lat="48.20691" lon="-3.09726">
        <ele>168</ele>
        <time>2015-10-12T14:48:00.1Z</time>
      </trkpt>
      <trkpt lat="48.20691" lon="-3.09724">
        <ele>168</ele>
        <time>2015-10-12T14:48:03.1Z</time>
      </trkpt>
      <trkpt lat="48.20689" lon="-3.09721">
        <ele>168</ele>
        <time>2015-10-12T14:48:06.1Z</time>
      </trkpt>
      <trkpt lat="48.20689" lon="-3.09722">
        <ele>169</ele>
        <time>2015-10-12T14:48:08.1Z</time>
      </trkpt>
      <trkpt lat="48.20688" lon="-3.09721">
        <ele>168</ele>
        <time>2015-10-12T14:48:11.1Z</time>
      </trkpt>
      <trkpt lat="48.20687" lon="-3.0972">
        <ele>168</ele>
        <time>2015-10-12T14:48:13.1Z</time>
      </trkpt>
      <trkpt lat="48.20688" lon="-3.09718">
        <ele>168</ele>
        <time>2015-10-12T14:48:16.1Z</time>
      </trkpt>
      <trkpt lat="48.20687" lon="-3.09717">
        <ele>169</ele>
        <time>2015-10-12T14:48:19.1Z</time>
      </trkpt>
      <trkpt lat="48.20687" lon="-3.09717">
        <ele>169</ele>
        <time>2015-10-12T14:48:21.1Z</time>
      </trkpt>
      <trkpt lat="48.20687" lon="-3.09717">
        <ele>169</ele>
        <time>2015-10-12T14:48:23.1Z</time>
      </trkpt>
      <trkpt lat="48.20686" lon="-3.09717">
        <ele>169</ele>
        <time>2015-10-12T14:48:26.1Z</time>
      </trkpt>
      <trkpt lat="48.20686" lon="-3.09716">
        <ele>169</ele>
        <time>2015-10-12T14:48:28.1Z</time>
      </trkpt>
      <trkpt lat="48.20686" lon="-3.09716">
        <ele>169</ele>
        <time>2015-10-12T14:48:30.1Z</time>
      </trkpt>
      <trkpt lat="48.20685" lon="-3.09716">
        <ele>169</ele>
        <time>2015-10-12T14:48:33.1Z</time>
      </trkpt>
      <trkpt lat="48.20685" lon="-3.09715">
        <ele>168</ele>
        <time>2015-10-12T14:48:35.1Z</time>
      </trkpt>
      <trkpt lat="48.20685" lon="-3.09715">
        <ele>168</ele>
        <time>2015-10-12T14:48:37.1Z</time>
      </trkpt>
      <trkpt lat="48.20685" lon="-3.09715">
        <ele>168</ele>
        <time>2015-10-12T14:48:39.1Z</time>
      </trkpt>
      <trkpt lat="48.20683" lon="-3.09717">
        <ele>168</ele>
        <time>2015-10-12T14:48:42.1Z</time>
      </trkpt>
      <trkpt lat="48.20682" lon="-3.09717">
        <ele>169</ele>
        <time>2015-10-12T14:48:45.1Z</time>
      </trkpt>
      <trkpt lat="48.20682" lon="-3.09716">
        <ele>168</ele>
        <time>2015-10-12T14:48:48.1Z</time>
      </trkpt>
      <trkpt lat="48.20681" lon="-3.09716">
        <ele>168</ele>
        <time>2015-10-12T14:48:51.1Z</time>
      </trkpt>
      <trkpt lat="48.20681" lon="-3.09715">
        <ele>168</ele>
        <time>2015-10-12T14:48:53.1Z</time>
      </trkpt>
      <trkpt lat="48.20681" lon="-3.09713">
        <ele>168</ele>
        <time>2015-10-12T14:48:56.1Z</time>
      </trkpt>
      <trkpt lat="48.20681" lon="-3.09712">
        <ele>168</ele>
        <time>2015-10-12T14:48:59.1Z</time>
      </trkpt>
      <trkpt lat="48.20681" lon="-3.09712">
        <ele>168</ele>
        <time>2015-10-12T14:49:02.1Z</time>
      </trkpt>
      <trkpt lat="48.20681" lon="-3.09711">
        <ele>168</ele>
        <time>2015-10-12T14:49:04.1Z</time>
      </trkpt>
      <trkpt lat="48.20681" lon="-3.09711">
        <ele>169</ele>
        <time>2015-10-12T14:49:07.1Z</time>
      </trkpt>
      <trkpt lat="48.20681" lon="-3.09711">
        <ele>169</ele>
        <time>2015-10-12T14:49:09.1Z</time>
      </trkpt>
      <trkpt lat="48.2068" lon="-3.09711">
        <ele>168</ele>
        <time>2015-10-12T14:49:12.1Z</time>
      </trkpt>
      <trkpt lat="48.2068" lon="-3.09711">
        <ele>168</ele>
        <time>2015-10-12T14:49:14.1Z</time>
      </trkpt>
      <trkpt lat="48.20679" lon="-3.0971">
        <ele>168</ele>
        <time>2015-10-12T14:49:16.1Z</time>
      </trkpt>
      <trkpt lat="48.20679" lon="-3.0971">
        <ele>168</ele>
        <time>2015-10-12T14:49:18.1Z</time>
      </trkpt>
      <trkpt lat="48.20679" lon="-3.09709">
        <ele>168</ele>
        <time>2015-10-12T14:49:21.1Z</time>
      </trkpt>
      <trkpt lat="48.20679" lon="-3.09709">
        <ele>168</ele>
        <time>2015-10-12T14:49:24.1Z</time>
      </trkpt>
      <trkpt lat="48.20679" lon="-3.09708">
        <ele>168</ele>
        <time>2015-10-12T14:49:27.1Z</time>
      </trkpt>
      <trkpt lat="48.20679" lon="-3.09708">
        <ele>168</ele>
        <time>2015-10-12T14:49:29.1Z</time>
      </trkpt>
      <trkpt lat="48.20679" lon="-3.09709">
        <ele>168</ele>
        <time>2015-10-12T14:49:32.1Z</time>
      </trkpt>
      <trkpt lat="48.2068" lon="-3.09709">
        <ele>168</ele>
        <time>2015-10-12T14:49:35.1Z</time>
      </trkpt>
      <trkpt lat="48.2068" lon="-3.0971">
        <ele>168</ele>
        <time>2015-10-12T14:49:37.1Z</time>
      </trkpt>
      <trkpt lat="48.2068" lon="-3.09711">
        <ele>169</ele>
        <time>2015-10-12T14:49:40.1Z</time>
      </trkpt>
      <trkpt lat="48.2068" lon="-3.09712">
        <ele>169</ele>
        <time>2015-10-12T14:49:42.1Z</time>
      </trkpt>
      <trkpt lat="48.2068" lon="-3.09713">
        <ele>169</ele>
        <time>2015-10-12T14:49:46.1Z</time>
      </trkpt>
      <trkpt lat="48.2068" lon="-3.09713">
        <ele>169</ele>
        <time>2015-10-12T14:49:49.1Z</time>
      </trkpt>
      <trkpt lat="48.20681" lon="-3.09713">
        <ele>169</ele>
        <time>2015-10-12T14:49:51.1Z</time>
      </trkpt>
      <trkpt lat="48.20681" lon="-3.09713">
        <ele>169</ele>
        <time>2015-10-12T14:49:54.1Z</time>
      </trkpt>
      <trkpt lat="48.20681" lon="-3.09713">
        <ele>169</ele>
        <time>2015-10-12T14:49:56.1Z</time>
      </trkpt>
      <trkpt lat="48.20681" lon="-3.09713">
        <ele>169</ele>
        <time>2015-10-12T14:49:59.1Z</time>
      </trkpt>
      <trkpt lat="48.20682" lon="-3.09713">
        <ele>169</ele>
        <time>2015-10-12T14:50:03.1Z</time>
      </trkpt>
      <trkpt lat="48.20682" lon="-3.09714">
        <ele>168</ele>
        <time>2015-10-12T14:50:06.1Z</time>
      </trkpt>
      <trkpt lat="48.20682" lon="-3.09714">
        <ele>168</ele>
        <time>2015-10-12T14:50:08.1Z</time>
      </trkpt>
      <trkpt lat="48.20682" lon="-3.09715">
        <ele>168</ele>
        <time>2015-10-12T14:50:11.1Z</time>
      </trkpt>
      <trkpt lat="48.20681" lon="-3.09716">
        <ele>169</ele>
        <time>2015-10-12T14:50:13.1Z</time>
      </trkpt>
      <trkpt lat="48.20681" lon="-3.09716">
        <ele>169</ele>
        <time>2015-10-12T14:50:15.1Z</time>
      </trkpt>
      <trkpt lat="48.20682" lon="-3.09714">
        <ele>169</ele>
        <time>2015-10-12T14:50:18.1Z</time>
      </trkpt>
      <trkpt lat="48.20683" lon="-3.09714">
        <ele>168</ele>
        <time>2015-10-12T14:50:20.1Z</time>
      </trkpt>
      <trkpt lat="48.20683" lon="-3.09714">
        <ele>168</ele>
        <time>2015-10-12T14:50:22.1Z</time>
      </trkpt>
      <trkpt lat="48.20683" lon="-3.09713">
        <ele>168</ele>
        <time>2015-10-12T14:50:25.1Z</time>
      </trkpt>
      <trkpt lat="48.20684" lon="-3.09713">
        <ele>168</ele>
        <time>2015-10-12T14:50:27.1Z</time>
      </trkpt>
      <trkpt lat="48.20684" lon="-3.09713">
        <ele>168</ele>
        <time>2015-10-12T14:50:29.1Z</time>
      </trkpt>
      <trkpt lat="48.20685" lon="-3.09713">
        <ele>168</ele>
        <time>2015-10-12T14:50:32.1Z</time>
      </trkpt>
      <trkpt lat="48.20685" lon="-3.09712">
        <ele>169</ele>
        <time>2015-10-12T14:50:35.1Z</time>
      </trkpt>
      <trkpt lat="48.20686" lon="-3.0971">
        <ele>169</ele>
        <time>2015-10-12T14:50:38.1Z</time>
      </trkpt>
      <trkpt lat="48.20686" lon="-3.09708">
        <ele>169</ele>
        <time>2015-10-12T14:50:40.1Z</time>
      </trkpt>
      <trkpt lat="48.20686" lon="-3.09705">
        <ele>170</ele>
        <time>2015-10-12T14:50:43.1Z</time>
      </trkpt>
      <trkpt lat="48.20686" lon="-3.09702">
        <ele>169</ele>
        <time>2015-10-12T14:50:46.1Z</time>
      </trkpt>
      <trkpt lat="48.20686" lon="-3.09698">
        <ele>169</ele>
        <time>2015-10-12T14:50:48.1Z</time>
      </trkpt>
      <trkpt lat="48.20686" lon="-3.09694">
        <ele>169</ele>
        <time>2015-10-12T14:50:51.1Z</time>
      </trkpt>
      <trkpt lat="48.20685" lon="-3.09691">
        <ele>169</ele>
        <time>2015-10-12T14:50:54.1Z</time>
      </trkpt>
      <trkpt lat="48.20685" lon="-3.09687">
        <ele>169</ele>
        <time>2015-10-12T14:50:57.1Z</time>
      </trkpt>
      <trkpt lat="48.20684" lon="-3.09684">
        <ele>169</ele>
        <time>2015-10-12T14:51:00.1Z</time>
      </trkpt>
      <trkpt lat="48.20684" lon="-3.09681">
        <ele>169</ele>
        <time>2015-10-12T14:51:02.1Z</time>
      </trkpt>
      <trkpt lat="48.20684" lon="-3.09678">
        <ele>169</ele>
        <time>2015-10-12T14:51:05.1Z</time>
      </trkpt>
      <trkpt lat="48.20684" lon="-3.09677">
        <ele>169</ele>
        <time>2015-10-12T14:51:07.1Z</time>
      </trkpt>
      <trkpt lat="48.20683" lon="-3.09674">
        <ele>169</ele>
        <time>2015-10-12T14:51:10.1Z</time>
      </trkpt>
      <trkpt lat="48.20682" lon="-3.09672">
        <ele>168</ele>
        <time>2015-10-12T14:51:12.1Z</time>
      </trkpt>
      <trkpt lat="48.20681" lon="-3.0967">
        <ele>168</ele>
        <time>2015-10-12T14:51:14.1Z</time>
      </trkpt>
      <trkpt lat="48.2068" lon="-3.09668">
        <ele>168</ele>
        <time>2015-10-12T14:51:17.1Z</time>
      </trkpt>
      <trkpt lat="48.20679" lon="-3.09667">
        <ele>167</ele>
        <time>2015-10-12T14:51:19.1Z</time>
      </trkpt>
      <trkpt lat="48.20678" lon="-3.09667">
        <ele>167</ele>
        <time>2015-10-12T14:51:21.1Z</time>
      </trkpt>
      <trkpt lat="48.20677" lon="-3.09666">
        <ele>167</ele>
        <time>2015-10-12T14:51:24.1Z</time>
      </trkpt>
      <trkpt lat="48.20675" lon="-3.09664">
        <ele>166</ele>
        <time>2015-10-12T14:51:26.1Z</time>
      </trkpt>
      <trkpt lat="48.20674" lon="-3.09661">
        <ele>166</ele>
        <time>2015-10-12T14:51:29.1Z</time>
      </trkpt>
      <trkpt lat="48.20672" lon="-3.09657">
        <ele>165</ele>
        <time>2015-10-12T14:51:32.1Z</time>
      </trkpt>
      <trkpt lat="48.20671" lon="-3.09652">
        <ele>165</ele>
        <time>2015-10-12T14:51:35.1Z</time>
      </trkpt>
      <trkpt lat="48.2067" lon="-3.09648">
        <ele>165</ele>
        <time>2015-10-12T14:51:38.1Z</time>
      </trkpt>
      <trkpt lat="48.20669" lon="-3.09644">
        <ele>165</ele>
        <time>2015-10-12T14:51:41.1Z</time>
      </trkpt>
      <trkpt lat="48.20668" lon="-3.09642">
        <ele>165</ele>
        <time>2015-10-12T14:51:43.1Z</time>
      </trkpt>
      <trkpt lat="48.20667" lon="-3.09639">
        <ele>165</ele>
        <time>2015-10-12T14:51:45.1Z</time>
      </trkpt>
      <trkpt lat="48.20666" lon="-3.09636">
        <ele>165</ele>
        <time>2015-10-12T14:51:48.1Z</time>
      </trkpt>
      <trkpt lat="48.20666" lon="-3.09631">
        <ele>165</ele>
        <time>2015-10-12T14:51:50.1Z</time>
      </trkpt>
      <trkpt lat="48.20665" lon="-3.09627">
        <ele>165</ele>
        <time>2015-10-12T14:51:53.1Z</time>
      </trkpt>
      <trkpt lat="48.20664" lon="-3.09624">
        <ele>166</ele>
        <time>2015-10-12T14:51:55.1Z</time>
      </trkpt>
      <trkpt lat="48.20664" lon="-3.09621">
        <ele>166</ele>
        <time>2015-10-12T14:51:57.1Z</time>
      </trkpt>
      <trkpt lat="48.20663" lon="-3.09616">
        <ele>167</ele>
        <time>2015-10-12T14:52:00.1Z</time>
      </trkpt>
      <trkpt lat="48.20663" lon="-3.09613">
        <ele>167</ele>
        <time>2015-10-12T14:52:02.1Z</time>
      </trkpt>
      <trkpt lat="48.20662" lon="-3.09609">
        <ele>167</ele>
        <time>2015-10-12T14:52:05.1Z</time>
      </trkpt>
      <trkpt lat="48.2066" lon="-3.09606">
        <ele>167</ele>
        <time>2015-10-12T14:52:08.1Z</time>
      </trkpt>
      <trkpt lat="48.20658" lon="-3.09604">
        <ele>167</ele>
        <time>2015-10-12T14:52:11.1Z</time>
      </trkpt>
      <trkpt lat="48.20656" lon="-3.09602">
        <ele>167</ele>
        <time>2015-10-12T14:52:13.1Z</time>
      </trkpt>
      <trkpt lat="48.20655" lon="-3.09601">
        <ele>167</ele>
        <time>2015-10-12T14:52:16.1Z</time>
      </trkpt>
      <trkpt lat="48.20653" lon="-3.09599">
        <ele>166</ele>
        <time>2015-10-12T14:52:18.1Z</time>
      </trkpt>
      <trkpt lat="48.20651" lon="-3.09597">
        <ele>166</ele>
        <time>2015-10-12T14:52:21.1Z</time>
      </trkpt>
      <trkpt lat="48.20649" lon="-3.09593">
        <ele>165</ele>
        <time>2015-10-12T14:52:24.1Z</time>
      </trkpt>
      <trkpt lat="48.20648" lon="-3.0959">
        <ele>165</ele>
        <time>2015-10-12T14:52:26.1Z</time>
      </trkpt>
      <trkpt lat="48.20648" lon="-3.09586">
        <ele>165</ele>
        <time>2015-10-12T14:52:30.1Z</time>
      </trkpt>
      <trkpt lat="48.20647" lon="-3.09583">
        <ele>165</ele>
        <time>2015-10-12T14:52:32.1Z</time>
      </trkpt>
      <trkpt lat="48.20646" lon="-3.0958">
        <ele>166</ele>
        <time>2015-10-12T14:52:35.1Z</time>
      </trkpt>
      <trkpt lat="48.20645" lon="-3.09578">
        <ele>167</ele>
        <time>2015-10-12T14:52:38.1Z</time>
      </trkpt>
      <trkpt lat="48.20644" lon="-3.09576">
        <ele>167</ele>
        <time>2015-10-12T14:52:41.1Z</time>
      </trkpt>
      <trkpt lat="48.20642" lon="-3.09573">
        <ele>167</ele>
        <time>2015-10-12T14:52:44.1Z</time>
      </trkpt>
      <trkpt lat="48.2064" lon="-3.09571">
        <ele>167</ele>
        <time>2015-10-12T14:52:47.1Z</time>
      </trkpt>
      <trkpt lat="48.20638" lon="-3.09569">
        <ele>166</ele>
        <time>2015-10-12T14:52:49.1Z</time>
      </trkpt>
      <trkpt lat="48.20636" lon="-3.09566">
        <ele>166</ele>
        <time>2015-10-12T14:52:52.1Z</time>
      </trkpt>
      <trkpt lat="48.20634" lon="-3.09565">
        <ele>166</ele>
        <time>2015-10-12T14:52:54.1Z</time>
      </trkpt>
      <trkpt lat="48.20633" lon="-3.09564">
        <ele>166</ele>
        <time>2015-10-12T14:52:56.1Z</time>
      </trkpt>
      <trkpt lat="48.20631" lon="-3.09563">
        <ele>166</ele>
        <time>2015-10-12T14:52:59.1Z</time>
      </trkpt>
      <trkpt lat="48.20628" lon="-3.09561">
        <ele>165</ele>
        <time>2015-10-12T14:53:02.1Z</time>
      </trkpt>
      <trkpt lat="48.20626" lon="-3.0956">
        <ele>165</ele>
        <time>2015-10-12T14:53:05.1Z</time>
      </trkpt>
      <trkpt lat="48.20624" lon="-3.09558">
        <ele>165</ele>
        <time>2015-10-12T14:53:07.1Z</time>
      </trkpt>
      <trkpt lat="48.20622" lon="-3.09556">
        <ele>165</ele>
        <time>2015-10-12T14:53:09.1Z</time>
      </trkpt>
      <trkpt lat="48.20621" lon="-3.09554">
        <ele>165</ele>
        <time>2015-10-12T14:53:11.1Z</time>
      </trkpt>
      <trkpt lat="48.20618" lon="-3.09551">
        <ele>165</ele>
        <time>2015-10-12T14:53:14.1Z</time>
      </trkpt>
      <trkpt lat="48.20617" lon="-3.09547">
        <ele>164</ele>
        <time>2015-10-12T14:53:17.1Z</time>
      </trkpt>
      <trkpt lat="48.20615" lon="-3.09544">
        <ele>164</ele>
        <time>2015-10-12T14:53:19.1Z</time>
      </trkpt>
      <trkpt lat="48.20616" lon="-3.09541">
        <ele>164</ele>
        <time>2015-10-12T14:53:22.1Z</time>
      </trkpt>
      <trkpt lat="48.20617" lon="-3.09539">
        <ele>164</ele>
        <time>2015-10-12T14:53:24.1Z</time>
      </trkpt>
      <trkpt lat="48.20617" lon="-3.09536">
        <ele>164</ele>
        <time>2015-10-12T14:53:27.1Z</time>
      </trkpt>
      <trkpt lat="48.20616" lon="-3.09534">
        <ele>165</ele>
        <time>2015-10-12T14:53:30.1Z</time>
      </trkpt>
      <trkpt lat="48.20615" lon="-3.09531">
        <ele>165</ele>
        <time>2015-10-12T14:53:32.1Z</time>
      </trkpt>
      <trkpt lat="48.20614" lon="-3.09529">
        <ele>166</ele>
        <time>2015-10-12T14:53:34.1Z</time>
      </trkpt>
      <trkpt lat="48.20614" lon="-3.09528">
        <ele>166</ele>
        <time>2015-10-12T14:53:36.1Z</time>
      </trkpt>
      <trkpt lat="48.20612" lon="-3.09526">
        <ele>166</ele>
        <time>2015-10-12T14:53:39.1Z</time>
      </trkpt>
      <trkpt lat="48.2061" lon="-3.09524">
        <ele>165</ele>
        <time>2015-10-12T14:53:41.1Z</time>
      </trkpt>
      <trkpt lat="48.20607" lon="-3.09524">
        <ele>165</ele>
        <time>2015-10-12T14:53:44.1Z</time>
      </trkpt>
      <trkpt lat="48.20605" lon="-3.09524">
        <ele>165</ele>
        <time>2015-10-12T14:53:46.1Z</time>
      </trkpt>
      <trkpt lat="48.20603" lon="-3.09523">
        <ele>164</ele>
        <time>2015-10-12T14:53:49.1Z</time>
      </trkpt>
      <trkpt lat="48.20599" lon="-3.09522">
        <ele>164</ele>
        <time>2015-10-12T14:53:52.1Z</time>
      </trkpt>
      <trkpt lat="48.20597" lon="-3.09521">
        <ele>164</ele>
        <time>2015-10-12T14:53:55.1Z</time>
      </trkpt>
      <trkpt lat="48.20596" lon="-3.09518">
        <ele>164</ele>
        <time>2015-10-12T14:53:57.1Z</time>
      </trkpt>
      <trkpt lat="48.20594" lon="-3.09515">
        <ele>164</ele>
        <time>2015-10-12T14:54:00.1Z</time>
      </trkpt>
      <trkpt lat="48.20592" lon="-3.09512">
        <ele>164</ele>
        <time>2015-10-12T14:54:03.1Z</time>
      </trkpt>
      <trkpt lat="48.20591" lon="-3.09509">
        <ele>163</ele>
        <time>2015-10-12T14:54:05.1Z</time>
      </trkpt>
      <trkpt lat="48.2059" lon="-3.09507">
        <ele>164</ele>
        <time>2015-10-12T14:54:07.1Z</time>
      </trkpt>
      <trkpt lat="48.20589" lon="-3.09504">
        <ele>164</ele>
        <time>2015-10-12T14:54:09.1Z</time>
      </trkpt>
      <trkpt lat="48.20588" lon="-3.09501">
        <ele>164</ele>
        <time>2015-10-12T14:54:11.1Z</time>
      </trkpt>
      <trkpt lat="48.20586" lon="-3.09499">
        <ele>164</ele>
        <time>2015-10-12T14:54:14.1Z</time>
      </trkpt>
      <trkpt lat="48.20584" lon="-3.09495">
        <ele>164</ele>
        <time>2015-10-12T14:54:17.1Z</time>
      </trkpt>
      <trkpt lat="48.20582" lon="-3.09491">
        <ele>164</ele>
        <time>2015-10-12T14:54:20.1Z</time>
      </trkpt>
      <trkpt lat="48.2058" lon="-3.09489">
        <ele>164</ele>
        <time>2015-10-12T14:54:22.1Z</time>
      </trkpt>
      <trkpt lat="48.20578" lon="-3.09487">
        <ele>164</ele>
        <time>2015-10-12T14:54:25.1Z</time>
      </trkpt>
      <trkpt lat="48.20575" lon="-3.09485">
        <ele>164</ele>
        <time>2015-10-12T14:54:28.1Z</time>
      </trkpt>
      <trkpt lat="48.20572" lon="-3.09482">
        <ele>164</ele>
        <time>2015-10-12T14:54:31.1Z</time>
      </trkpt>
      <trkpt lat="48.20569" lon="-3.09479">
        <ele>164</ele>
        <time>2015-10-12T14:54:34.1Z</time>
      </trkpt>
      <trkpt lat="48.20567" lon="-3.09477">
        <ele>164</ele>
        <time>2015-10-12T14:54:37.1Z</time>
      </trkpt>
      <trkpt lat="48.20564" lon="-3.09476">
        <ele>164</ele>
        <time>2015-10-12T14:54:40.1Z</time>
      </trkpt>
      <trkpt lat="48.20563" lon="-3.09474">
        <ele>164</ele>
        <time>2015-10-12T14:54:42.1Z</time>
      </trkpt>
      <trkpt lat="48.20561" lon="-3.09473">
        <ele>164</ele>
        <time>2015-10-12T14:54:44.1Z</time>
      </trkpt>
      <trkpt lat="48.20559" lon="-3.09471">
        <ele>164</ele>
        <time>2015-10-12T14:54:47.1Z</time>
      </trkpt>
      <trkpt lat="48.20558" lon="-3.0947">
        <ele>165</ele>
        <time>2015-10-12T14:54:49.1Z</time>
      </trkpt>
      <trkpt lat="48.20557" lon="-3.09469">
        <ele>165</ele>
        <time>2015-10-12T14:54:51.1Z</time>
      </trkpt>
      <trkpt lat="48.20555" lon="-3.09468">
        <ele>165</ele>
        <time>2015-10-12T14:54:53.1Z</time>
      </trkpt>
      <trkpt lat="48.20553" lon="-3.09466">
        <ele>165</ele>
        <time>2015-10-12T14:54:56.1Z</time>
      </trkpt>
      <trkpt lat="48.20551" lon="-3.09463">
        <ele>164</ele>
        <time>2015-10-12T14:54:59.1Z</time>
      </trkpt>
      <trkpt lat="48.20549" lon="-3.09461">
        <ele>164</ele>
        <time>2015-10-12T14:55:02.1Z</time>
      </trkpt>
      <trkpt lat="48.20548" lon="-3.09459">
        <ele>164</ele>
        <time>2015-10-12T14:55:04.1Z</time>
      </trkpt>
      <trkpt lat="48.20547" lon="-3.09458">
        <ele>164</ele>
        <time>2015-10-12T14:55:06.1Z</time>
      </trkpt>
      <trkpt lat="48.20545" lon="-3.09456">
        <ele>164</ele>
        <time>2015-10-12T14:55:08.1Z</time>
      </trkpt>
      <trkpt lat="48.20544" lon="-3.09453">
        <ele>164</ele>
        <time>2015-10-12T14:55:11.1Z</time>
      </trkpt>
      <trkpt lat="48.20543" lon="-3.09452">
        <ele>164</ele>
        <time>2015-10-12T14:55:13.1Z</time>
      </trkpt>
      <trkpt lat="48.20541" lon="-3.0945">
        <ele>165</ele>
        <time>2015-10-12T14:55:15.1Z</time>
      </trkpt>
      <trkpt lat="48.20539" lon="-3.09448">
        <ele>165</ele>
        <time>2015-10-12T14:55:18.1Z</time>
      </trkpt>
      <trkpt lat="48.20537" lon="-3.09446">
        <ele>165</ele>
        <time>2015-10-12T14:55:21.1Z</time>
      </trkpt>
      <trkpt lat="48.20535" lon="-3.09444">
        <ele>165</ele>
        <time>2015-10-12T14:55:24.1Z</time>
      </trkpt>
      <trkpt lat="48.20533" lon="-3.09441">
        <ele>165</ele>
        <time>2015-10-12T14:55:27.1Z</time>
      </trkpt>
      <trkpt lat="48.20532" lon="-3.09439">
        <ele>165</ele>
        <time>2015-10-12T14:55:29.1Z</time>
      </trkpt>
      <trkpt lat="48.2053" lon="-3.09437">
        <ele>166</ele>
        <time>2015-10-12T14:55:32.1Z</time>
      </trkpt>
      <trkpt lat="48.20528" lon="-3.09436">
        <ele>166</ele>
        <time>2015-10-12T14:55:34.1Z</time>
      </trkpt>
      <trkpt lat="48.20526" lon="-3.09435">
        <ele>166</ele>
        <time>2015-10-12T14:55:36.1Z</time>
      </trkpt>
      <trkpt lat="48.20523" lon="-3.09434">
        <ele>165</ele>
        <time>2015-10-12T14:55:39.1Z</time>
      </trkpt>
      <trkpt lat="48.20521" lon="-3.09432">
        <ele>165</ele>
        <time>2015-10-12T14:55:41.1Z</time>
      </trkpt>
      <trkpt lat="48.2052" lon="-3.0943">
        <ele>165</ele>
        <time>2015-10-12T14:55:44.1Z</time>
      </trkpt>
      <trkpt lat="48.20519" lon="-3.09429">
        <ele>165</ele>
        <time>2015-10-12T14:55:47.1Z</time>
      </trkpt>
      <trkpt lat="48.20517" lon="-3.09426">
        <ele>165</ele>
        <time>2015-10-12T14:55:49.1Z</time>
      </trkpt>
      <trkpt lat="48.20516" lon="-3.09425">
        <ele>165</ele>
        <time>2015-10-12T14:55:51.1Z</time>
      </trkpt>
      <trkpt lat="48.20515" lon="-3.09421">
        <ele>165</ele>
        <time>2015-10-12T14:55:54.1Z</time>
      </trkpt>
      <trkpt lat="48.20514" lon="-3.09418">
        <ele>166</ele>
        <time>2015-10-12T14:55:57.1Z</time>
      </trkpt>
      <trkpt lat="48.20512" lon="-3.09416">
        <ele>166</ele>
        <time>2015-10-12T14:56:00.1Z</time>
      </trkpt>
      <trkpt lat="48.20511" lon="-3.09416">
        <ele>166</ele>
        <time>2015-10-12T14:56:02.1Z</time>
      </trkpt>
      <trkpt lat="48.20509" lon="-3.09415">
        <ele>166</ele>
        <time>2015-10-12T14:56:05.1Z</time>
      </trkpt>
      <trkpt lat="48.20507" lon="-3.09413">
        <ele>166</ele>
        <time>2015-10-12T14:56:08.1Z</time>
      </trkpt>
      <trkpt lat="48.20505" lon="-3.09411">
        <ele>165</ele>
        <time>2015-10-12T14:56:11.1Z</time>
      </trkpt>
      <trkpt lat="48.20503" lon="-3.0941">
        <ele>165</ele>
        <time>2015-10-12T14:56:14.1Z</time>
      </trkpt>
      <trkpt lat="48.20501" lon="-3.0941">
        <ele>165</ele>
        <time>2015-10-12T14:56:16.1Z</time>
      </trkpt>
      <trkpt lat="48.205" lon="-3.09409">
        <ele>165</ele>
        <time>2015-10-12T14:56:18.1Z</time>
      </trkpt>
      <trkpt lat="48.20498" lon="-3.09407">
        <ele>164</ele>
        <time>2015-10-12T14:56:21.1Z</time>
      </trkpt>
      <trkpt lat="48.20497" lon="-3.09407">
        <ele>164</ele>
        <time>2015-10-12T14:56:23.1Z</time>
      </trkpt>
      <trkpt lat="48.20495" lon="-3.09406">
        <ele>164</ele>
        <time>2015-10-12T14:56:25.1Z</time>
      </trkpt>
      <trkpt lat="48.20493" lon="-3.09405">
        <ele>164</ele>
        <time>2015-10-12T14:56:28.1Z</time>
      </trkpt>
      <trkpt lat="48.20491" lon="-3.09405">
        <ele>164</ele>
        <time>2015-10-12T14:56:30.1Z</time>
      </trkpt>
      <trkpt lat="48.2049" lon="-3.09404">
        <ele>164</ele>
        <time>2015-10-12T14:56:32.1Z</time>
      </trkpt>
      <trkpt lat="48.20489" lon="-3.09404">
        <ele>164</ele>
        <time>2015-10-12T14:56:34.1Z</time>
      </trkpt>
      <trkpt lat="48.20487" lon="-3.09402">
        <ele>165</ele>
        <time>2015-10-12T14:56:37.1Z</time>
      </trkpt>
      <trkpt lat="48.20486" lon="-3.09402">
        <ele>164</ele>
        <time>2015-10-12T14:56:39.1Z</time>
      </trkpt>
      <trkpt lat="48.20485" lon="-3.09402">
        <ele>165</ele>
        <time>2015-10-12T14:56:41.1Z</time>
      </trkpt>
      <trkpt lat="48.20483" lon="-3.09401">
        <ele>165</ele>
        <time>2015-10-12T14:56:43.1Z</time>
      </trkpt>
      <trkpt lat="48.20482" lon="-3.094">
        <ele>164</ele>
        <time>2015-10-12T14:56:45.1Z</time>
      </trkpt>
      <trkpt lat="48.20481" lon="-3.09398">
        <ele>164</ele>
        <time>2015-10-12T14:56:48.1Z</time>
      </trkpt>
      <trkpt lat="48.2048" lon="-3.09396">
        <ele>164</ele>
        <time>2015-10-12T14:56:50.1Z</time>
      </trkpt>
      <trkpt lat="48.20477" lon="-3.09395">
        <ele>164</ele>
        <time>2015-10-12T14:56:53.1Z</time>
      </trkpt>
      <trkpt lat="48.20476" lon="-3.09395">
        <ele>164</ele>
        <time>2015-10-12T14:56:55.1Z</time>
      </trkpt>
      <trkpt lat="48.20474" lon="-3.09396">
        <ele>164</ele>
        <time>2015-10-12T14:56:57.1Z</time>
      </trkpt>
      <trkpt lat="48.20472" lon="-3.09396">
        <ele>164</ele>
        <time>2015-10-12T14:56:59.1Z</time>
      </trkpt>
      <trkpt lat="48.2047" lon="-3.09395">
        <ele>164</ele>
        <time>2015-10-12T14:57:02.1Z</time>
      </trkpt>
      <trkpt lat="48.20468" lon="-3.09393">
        <ele>164</ele>
        <time>2015-10-12T14:57:05.1Z</time>
      </trkpt>
      <trkpt lat="48.20467" lon="-3.09392">
        <ele>164</ele>
        <time>2015-10-12T14:57:07.1Z</time>
      </trkpt>
      <trkpt lat="48.20465" lon="-3.0939">
        <ele>164</ele>
        <time>2015-10-12T14:57:10.1Z</time>
      </trkpt>
      <trkpt lat="48.20463" lon="-3.09389">
        <ele>164</ele>
        <time>2015-10-12T14:57:13.1Z</time>
      </trkpt>
      <trkpt lat="48.20462" lon="-3.09389">
        <ele>164</ele>
        <time>2015-10-12T14:57:15.1Z</time>
      </trkpt>
      <trkpt lat="48.20459" lon="-3.09388">
        <ele>164</ele>
        <time>2015-10-12T14:57:18.1Z</time>
      </trkpt>
      <trkpt lat="48.20457" lon="-3.09387">
        <ele>164</ele>
        <time>2015-10-12T14:57:20.1Z</time>
      </trkpt>
      <trkpt lat="48.20454" lon="-3.09386">
        <ele>165</ele>
        <time>2015-10-12T14:57:23.1Z</time>
      </trkpt>
      <trkpt lat="48.20452" lon="-3.09385">
        <ele>164</ele>
        <time>2015-10-12T14:57:25.1Z</time>
      </trkpt>
      <trkpt lat="48.20451" lon="-3.09383">
        <ele>164</ele>
        <time>2015-10-12T14:57:27.1Z</time>
      </trkpt>
      <trkpt lat="48.20449" lon="-3.09382">
        <ele>164</ele>
        <time>2015-10-12T14:57:29.1Z</time>
      </trkpt>
      <trkpt lat="48.20448" lon="-3.0938">
        <ele>164</ele>
        <time>2015-10-12T14:57:32.1Z</time>
      </trkpt>
      <trkpt lat="48.20447" lon="-3.09378">
        <ele>165</ele>
        <time>2015-10-12T14:57:34.1Z</time>
      </trkpt>
      <trkpt lat="48.20445" lon="-3.09376">
        <ele>165</ele>
        <time>2015-10-12T14:57:37.1Z</time>
      </trkpt>
      <trkpt lat="48.20444" lon="-3.09376">
        <ele>166</ele>
        <time>2015-10-12T14:57:39.1Z</time>
      </trkpt>
      <trkpt lat="48.20443" lon="-3.09373">
        <ele>166</ele>
        <time>2015-10-12T14:57:42.1Z</time>
      </trkpt>
      <trkpt lat="48.20443" lon="-3.09372">
        <ele>166</ele>
        <time>2015-10-12T14:57:44.1Z</time>
      </trkpt>
      <trkpt lat="48.20442" lon="-3.09371">
        <ele>167</ele>
        <time>2015-10-12T14:57:46.1Z</time>
      </trkpt>
      <trkpt lat="48.2044" lon="-3.09369">
        <ele>167</ele>
        <time>2015-10-12T14:57:49.1Z</time>
      </trkpt>
      <trkpt lat="48.20437" lon="-3.09368">
        <ele>167</ele>
        <time>2015-10-12T14:57:52.1Z</time>
      </trkpt>
      <trkpt lat="48.20436" lon="-3.09367">
        <ele>167</ele>
        <time>2015-10-12T14:57:54.1Z</time>
      </trkpt>
      <trkpt lat="48.20434" lon="-3.09367">
        <ele>167</ele>
        <time>2015-10-12T14:57:56.1Z</time>
      </trkpt>
      <trkpt lat="48.20431" lon="-3.09367">
        <ele>167</ele>
        <time>2015-10-12T14:57:59.1Z</time>
      </trkpt>
      <trkpt lat="48.20428" lon="-3.09366">
        <ele>167</ele>
        <time>2015-10-12T14:58:02.1Z</time>
      </trkpt>
      <trkpt lat="48.20426" lon="-3.09366">
        <ele>167</ele>
        <time>2015-10-12T14:58:05.1Z</time>
      </trkpt>
      <trkpt lat="48.20424" lon="-3.09365">
        <ele>167</ele>
        <time>2015-10-12T14:58:07.1Z</time>
      </trkpt>
      <trkpt lat="48.20422" lon="-3.09364">
        <ele>166</ele>
        <time>2015-10-12T14:58:10.1Z</time>
      </trkpt>
      <trkpt lat="48.2042" lon="-3.09365">
        <ele>166</ele>
        <time>2015-10-12T14:58:12.1Z</time>
      </trkpt>
      <trkpt lat="48.20417" lon="-3.09365">
        <ele>166</ele>
        <time>2015-10-12T14:58:15.1Z</time>
      </trkpt>
      <trkpt lat="48.20415" lon="-3.09366">
        <ele>166</ele>
        <time>2015-10-12T14:58:17.1Z</time>
      </trkpt>
      <trkpt lat="48.20412" lon="-3.09366">
        <ele>166</ele>
        <time>2015-10-12T14:58:20.1Z</time>
      </trkpt>
      <trkpt lat="48.2041" lon="-3.09365">
        <ele>166</ele>
        <time>2015-10-12T14:58:22.1Z</time>
      </trkpt>
      <trkpt lat="48.20407" lon="-3.09366">
        <ele>165</ele>
        <time>2015-10-12T14:58:25.1Z</time>
      </trkpt>
      <trkpt lat="48.20406" lon="-3.09366">
        <ele>165</ele>
        <time>2015-10-12T14:58:27.1Z</time>
      </trkpt>
      <trkpt lat="48.20403" lon="-3.09366">
        <ele>166</ele>
        <time>2015-10-12T14:58:30.1Z</time>
      </trkpt>
      <trkpt lat="48.20401" lon="-3.09367">
        <ele>166</ele>
        <time>2015-10-12T14:58:33.1Z</time>
      </trkpt>
      <trkpt lat="48.20398" lon="-3.09367">
        <ele>165</ele>
        <time>2015-10-12T14:58:36.1Z</time>
      </trkpt>
      <trkpt lat="48.20396" lon="-3.09367">
        <ele>165</ele>
        <time>2015-10-12T14:58:38.1Z</time>
      </trkpt>
      <trkpt lat="48.20394" lon="-3.09367">
        <ele>165</ele>
        <time>2015-10-12T14:58:41.1Z</time>
      </trkpt>
      <trkpt lat="48.20392" lon="-3.09368">
        <ele>165</ele>
        <time>2015-10-12T14:58:43.1Z</time>
      </trkpt>
      <trkpt lat="48.2039" lon="-3.09368">
        <ele>164</ele>
        <time>2015-10-12T14:58:46.1Z</time>
      </trkpt>
      <trkpt lat="48.20389" lon="-3.09368">
        <ele>164</ele>
        <time>2015-10-12T14:58:48.1Z</time>
      </trkpt>
      <trkpt lat="48.20388" lon="-3.09368">
        <ele>164</ele>
        <time>2015-10-12T14:58:50.1Z</time>
      </trkpt>
      <trkpt lat="48.20385" lon="-3.09368">
        <ele>164</ele>
        <time>2015-10-12T14:58:53.1Z</time>
      </trkpt>
      <trkpt lat="48.20383" lon="-3.09369">
        <ele>164</ele>
        <time>2015-10-12T14:58:55.1Z</time>
      </trkpt>
      <trkpt lat="48.20381" lon="-3.09368">
        <ele>164</ele>
        <time>2015-10-12T14:58:58.1Z</time>
      </trkpt>
      <trkpt lat="48.2038" lon="-3.09366">
        <ele>164</ele>
        <time>2015-10-12T14:59:00.1Z</time>
      </trkpt>
      <trkpt lat="48.20378" lon="-3.09366">
        <ele>164</ele>
        <time>2015-10-12T14:59:03.1Z</time>
      </trkpt>
      <trkpt lat="48.20376" lon="-3.09366">
        <ele>165</ele>
        <time>2015-10-12T14:59:05.1Z</time>
      </trkpt>
      <trkpt lat="48.20375" lon="-3.09366">
        <ele>164</ele>
        <time>2015-10-12T14:59:07.1Z</time>
      </trkpt>
      <trkpt lat="48.20372" lon="-3.09366">
        <ele>165</ele>
        <time>2015-10-12T14:59:10.1Z</time>
      </trkpt>
      <trkpt lat="48.20369" lon="-3.09366">
        <ele>164</ele>
        <time>2015-10-12T14:59:13.1Z</time>
      </trkpt>
      <trkpt lat="48.20367" lon="-3.09366">
        <ele>165</ele>
        <time>2015-10-12T14:59:15.1Z</time>
      </trkpt>
      <trkpt lat="48.20365" lon="-3.09365">
        <ele>165</ele>
        <time>2015-10-12T14:59:18.1Z</time>
      </trkpt>
      <trkpt lat="48.20364" lon="-3.09365">
        <ele>165</ele>
        <time>2015-10-12T14:59:20.1Z</time>
      </trkpt>
      <trkpt lat="48.20361" lon="-3.09364">
        <ele>165</ele>
        <time>2015-10-12T14:59:23.1Z</time>
      </trkpt>
      <trkpt lat="48.20359" lon="-3.09365">
        <ele>166</ele>
        <time>2015-10-12T14:59:26.1Z</time>
      </trkpt>
      <trkpt lat="48.20357" lon="-3.09365">
        <ele>166</ele>
        <time>2015-10-12T14:59:29.1Z</time>
      </trkpt>
      <trkpt lat="48.20356" lon="-3.09366">
        <ele>166</ele>
        <time>2015-10-12T14:59:31.1Z</time>
      </trkpt>
      <trkpt lat="48.20354" lon="-3.09366">
        <ele>167</ele>
        <time>2015-10-12T14:59:33.1Z</time>
      </trkpt>
      <trkpt lat="48.20353" lon="-3.09367">
        <ele>167</ele>
        <time>2015-10-12T14:59:35.1Z</time>
      </trkpt>
      <trkpt lat="48.20352" lon="-3.09369">
        <ele>167</ele>
        <time>2015-10-12T14:59:37.1Z</time>
      </trkpt>
      <trkpt lat="48.20351" lon="-3.0937">
        <ele>167</ele>
        <time>2015-10-12T14:59:39.1Z</time>
      </trkpt>
      <trkpt lat="48.20348" lon="-3.09372">
        <ele>167</ele>
        <time>2015-10-12T14:59:42.1Z</time>
      </trkpt>
      <trkpt lat="48.20347" lon="-3.09373">
        <ele>166</ele>
        <time>2015-10-12T14:59:44.1Z</time>
      </trkpt>
      <trkpt lat="48.20346" lon="-3.09374">
        <ele>166</ele>
        <time>2015-10-12T14:59:46.1Z</time>
      </trkpt>
      <trkpt lat="48.20343" lon="-3.09373">
        <ele>166</ele>
        <time>2015-10-12T14:59:49.1Z</time>
      </trkpt>
      <trkpt lat="48.20342" lon="-3.09374">
        <ele>166</ele>
        <time>2015-10-12T14:59:51.1Z</time>
      </trkpt>
      <trkpt lat="48.2034" lon="-3.09375">
        <ele>167</ele>
        <time>2015-10-12T14:59:53.1Z</time>
      </trkpt>
      <trkpt lat="48.20337" lon="-3.09376">
        <ele>167</ele>
        <time>2015-10-12T14:59:56.1Z</time>
      </trkpt>
      <trkpt lat="48.20335" lon="-3.09377">
        <ele>167</ele>
        <time>2015-10-12T14:59:58.1Z</time>
      </trkpt>
      <trkpt lat="48.20333" lon="-3.09377">
        <ele>167</ele>
        <time>2015-10-12T15:00:01.1Z</time>
      </trkpt>
      <trkpt lat="48.20333" lon="-3.09376">
        <ele>168</ele>
        <time>2015-10-12T15:00:03.1Z</time>
      </trkpt>
      <trkpt lat="48.20333" lon="-3.09375">
        <ele>168</ele>
        <time>2015-10-12T15:00:05.1Z</time>
      </trkpt>
      <trkpt lat="48.20333" lon="-3.09374">
        <ele>168</ele>
        <time>2015-10-12T15:00:08.1Z</time>
      </trkpt>
      <trkpt lat="48.20333" lon="-3.09373">
        <ele>168</ele>
        <time>2015-10-12T15:00:10.1Z</time>
      </trkpt>
      <trkpt lat="48.20333" lon="-3.09372">
        <ele>169</ele>
        <time>2015-10-12T15:00:12.1Z</time>
      </trkpt>
      <trkpt lat="48.20332" lon="-3.09372">
        <ele>170</ele>
        <time>2015-10-12T15:00:15.1Z</time>
      </trkpt>
      <trkpt lat="48.20332" lon="-3.0937">
        <ele>170</ele>
        <time>2015-10-12T15:00:18.1Z</time>
      </trkpt>
      <trkpt lat="48.20331" lon="-3.0937">
        <ele>171</ele>
        <time>2015-10-12T15:00:20.1Z</time>
      </trkpt>
      <trkpt lat="48.2033" lon="-3.09369">
        <ele>171</ele>
        <time>2015-10-12T15:00:23.1Z</time>
      </trkpt>
      <trkpt lat="48.2033" lon="-3.09366">
        <ele>172</ele>
        <time>2015-10-12T15:00:26.1Z</time>
      </trkpt>
      <trkpt lat="48.20329" lon="-3.09365">
        <ele>172</ele>
        <time>2015-10-12T15:00:29.1Z</time>
      </trkpt>
      <trkpt lat="48.20329" lon="-3.09365">
        <ele>172</ele>
        <time>2015-10-12T15:00:31.1Z</time>
      </trkpt>
      <trkpt lat="48.20329" lon="-3.09365">
        <ele>173</ele>
        <time>2015-10-12T15:00:33.1Z</time>
      </trkpt>
      <trkpt lat="48.20327" lon="-3.09364">
        <ele>173</ele>
        <time>2015-10-12T15:00:36.1Z</time>
      </trkpt>
      <trkpt lat="48.20327" lon="-3.09363">
        <ele>173</ele>
        <time>2015-10-12T15:00:38.1Z</time>
      </trkpt>
      <trkpt lat="48.20326" lon="-3.09362">
        <ele>173</ele>
        <time>2015-10-12T15:00:40.1Z</time>
      </trkpt>
      <trkpt lat="48.20325" lon="-3.09361">
        <ele>174</ele>
        <time>2015-10-12T15:00:43.1Z</time>
      </trkpt>
      <trkpt lat="48.20325" lon="-3.0936">
        <ele>174</ele>
        <time>2015-10-12T15:00:45.1Z</time>
      </trkpt>
      <trkpt lat="48.20323" lon="-3.0936">
        <ele>175</ele>
        <time>2015-10-12T15:00:48.1Z</time>
      </trkpt>
      <trkpt lat="48.20321" lon="-3.09359">
        <ele>175</ele>
        <time>2015-10-12T15:00:51.1Z</time>
      </trkpt>
      <trkpt lat="48.2032" lon="-3.09359">
        <ele>175</ele>
        <time>2015-10-12T15:00:54.1Z</time>
      </trkpt>
      <trkpt lat="48.20319" lon="-3.09359">
        <ele>175</ele>
        <time>2015-10-12T15:00:57.1Z</time>
      </trkpt>
      <trkpt lat="48.20317" lon="-3.09359">
        <ele>176</ele>
        <time>2015-10-12T15:01:00.1Z</time>
      </trkpt>
      <trkpt lat="48.20317" lon="-3.09358">
        <ele>176</ele>
        <time>2015-10-12T15:01:02.1Z</time>
      </trkpt>
      <trkpt lat="48.20316" lon="-3.09357">
        <ele>176</ele>
        <time>2015-10-12T15:01:05.1Z</time>
      </trkpt>
      <trkpt lat="48.20315" lon="-3.09355">
        <ele>176</ele>
        <time>2015-10-12T15:01:08.1Z</time>
      </trkpt>
      <trkpt lat="48.20315" lon="-3.09354">
        <ele>177</ele>
        <time>2015-10-12T15:01:10.1Z</time>
      </trkpt>
      <trkpt lat="48.20314" lon="-3.09353">
        <ele>177</ele>
        <time>2015-10-12T15:01:13.1Z</time>
      </trkpt>
      <trkpt lat="48.20313" lon="-3.09353">
        <ele>178</ele>
        <time>2015-10-12T15:01:15.1Z</time>
      </trkpt>
      <trkpt lat="48.20311" lon="-3.09351">
        <ele>178</ele>
        <time>2015-10-12T15:01:18.1Z</time>
      </trkpt>
      <trkpt lat="48.20311" lon="-3.09349">
        <ele>178</ele>
        <time>2015-10-12T15:01:21.1Z</time>
      </trkpt>
      <trkpt lat="48.20309" lon="-3.09348">
        <ele>178</ele>
        <time>2015-10-12T15:01:23.1Z</time>
      </trkpt>
      <trkpt lat="48.20308" lon="-3.09347">
        <ele>179</ele>
        <time>2015-10-12T15:01:26.1Z</time>
      </trkpt>
      <trkpt lat="48.20308" lon="-3.09346">
        <ele>179</ele>
        <time>2015-10-12T15:01:28.1Z</time>
      </trkpt>
      <trkpt lat="48.20307" lon="-3.09345">
        <ele>179</ele>
        <time>2015-10-12T15:01:31.1Z</time>
      </trkpt>
      <trkpt lat="48.20307" lon="-3.09344">
        <ele>179</ele>
        <time>2015-10-12T15:01:33.1Z</time>
      </trkpt>
      <trkpt lat="48.20306" lon="-3.09343">
        <ele>179</ele>
        <time>2015-10-12T15:01:36.1Z</time>
      </trkpt>
      <trkpt lat="48.20306" lon="-3.09343">
        <ele>179</ele>
        <time>2015-10-12T15:01:38.1Z</time>
      </trkpt>
      <trkpt lat="48.20306" lon="-3.09343">
        <ele>179</ele>
        <time>2015-10-12T15:01:41.1Z</time>
      </trkpt>
      <trkpt lat="48.20306" lon="-3.09343">
        <ele>179</ele>
        <time>2015-10-12T15:01:44.1Z</time>
      </trkpt>
      <trkpt lat="48.20305" lon="-3.09342">
        <ele>179</ele>
        <time>2015-10-12T15:01:47.1Z</time>
      </trkpt>
      <trkpt lat="48.20304" lon="-3.09343">
        <ele>179</ele>
        <time>2015-10-12T15:01:50.1Z</time>
      </trkpt>
      <trkpt lat="48.20304" lon="-3.09343">
        <ele>179</ele>
        <time>2015-10-12T15:01:52.1Z</time>
      </trkpt>
      <trkpt lat="48.20303" lon="-3.09343">
        <ele>179</ele>
        <time>2015-10-12T15:01:54.1Z</time>
      </trkpt>
      <trkpt lat="48.20303" lon="-3.09344">
        <ele>179</ele>
        <time>2015-10-12T15:01:57.1Z</time>
      </trkpt>
      <trkpt lat="48.20303" lon="-3.09344">
        <ele>179</ele>
        <time>2015-10-12T15:01:59.1Z</time>
      </trkpt>
      <trkpt lat="48.20303" lon="-3.09344">
        <ele>179</ele>
        <time>2015-10-12T15:02:02.1Z</time>
      </trkpt>
      <trkpt lat="48.20303" lon="-3.09345">
        <ele>179</ele>
        <time>2015-10-12T15:02:04.1Z</time>
      </trkpt>
      <trkpt lat="48.20303" lon="-3.09346">
        <ele>179</ele>
        <time>2015-10-12T15:02:07.1Z</time>
      </trkpt>
      <trkpt lat="48.20302" lon="-3.09346">
        <ele>179</ele>
        <time>2015-10-12T15:02:10.1Z</time>
      </trkpt>
      <trkpt lat="48.20301" lon="-3.09347">
        <ele>179</ele>
        <time>2015-10-12T15:02:13.1Z</time>
      </trkpt>
      <trkpt lat="48.20301" lon="-3.09347">
        <ele>179</ele>
        <time>2015-10-12T15:02:15.1Z</time>
      </trkpt>
      <trkpt lat="48.203" lon="-3.09348">
        <ele>179</ele>
        <time>2015-10-12T15:02:18.1Z</time>
      </trkpt>
      <trkpt lat="48.203" lon="-3.09348">
        <ele>179</ele>
        <time>2015-10-12T15:02:20.1Z</time>
      </trkpt>
      <trkpt lat="48.20299" lon="-3.09348">
        <ele>179</ele>
        <time>2015-10-12T15:02:23.1Z</time>
      </trkpt>
      <trkpt lat="48.20298" lon="-3.09348">
        <ele>179</ele>
        <time>2015-10-12T15:02:26.1Z</time>
      </trkpt>
      <trkpt lat="48.20298" lon="-3.09348">
        <ele>179</ele>
        <time>2015-10-12T15:02:29.1Z</time>
      </trkpt>
      <trkpt lat="48.20298" lon="-3.09347">
        <ele>179</ele>
        <time>2015-10-12T15:02:31.1Z</time>
      </trkpt>
      <trkpt lat="48.20298" lon="-3.09347">
        <ele>179</ele>
        <time>2015-10-12T15:02:33.1Z</time>
      </trkpt>
      <trkpt lat="48.20299" lon="-3.09346">
        <ele>179</ele>
        <time>2015-10-12T15:02:35.1Z</time>
      </trkpt>
      <trkpt lat="48.20298" lon="-3.09345">
        <ele>179</ele>
        <time>2015-10-12T15:02:38.1Z</time>
      </trkpt>
      <trkpt lat="48.20298" lon="-3.09344">
        <ele>179</ele>
        <time>2015-10-12T15:02:41.1Z</time>
      </trkpt>
      <trkpt lat="48.20298" lon="-3.09345">
        <ele>179</ele>
        <time>2015-10-12T15:02:45.1Z</time>
      </trkpt>
      <trkpt lat="48.20298" lon="-3.09345">
        <ele>179</ele>
        <time>2015-10-12T15:02:47.1Z</time>
      </trkpt>
      <trkpt lat="48.20298" lon="-3.09344">
        <ele>178</ele>
        <time>2015-10-12T15:02:50.1Z</time>
      </trkpt>
      <trkpt lat="48.203" lon="-3.09343">
        <ele>179</ele>
        <time>2015-10-12T15:02:53.1Z</time>
      </trkpt>
      <trkpt lat="48.20301" lon="-3.09342">
        <ele>179</ele>
        <time>2015-10-12T15:02:55.1Z</time>
      </trkpt>
      <trkpt lat="48.20304" lon="-3.09342">
        <ele>180</ele>
        <time>2015-10-12T15:02:58.1Z</time>
      </trkpt>
      <trkpt lat="48.20307" lon="-3.0934">
        <ele>180</ele>
        <time>2015-10-12T15:03:00.1Z</time>
      </trkpt>
      <trkpt lat="48.20309" lon="-3.0934">
        <ele>180</ele>
        <time>2015-10-12T15:03:03.1Z</time>
      </trkpt>
      <trkpt lat="48.20311" lon="-3.09341">
        <ele>180</ele>
        <time>2015-10-12T15:03:05.1Z</time>
      </trkpt>
      <trkpt lat="48.20312" lon="-3.09342">
        <ele>180</ele>
        <time>2015-10-12T15:03:07.1Z</time>
      </trkpt>
      <trkpt lat="48.20312" lon="-3.09342">
        <ele>180</ele>
        <time>2015-10-12T15:03:09.1Z</time>
      </trkpt>
      <trkpt lat="48.20314" lon="-3.09343">
        <ele>180</ele>
        <time>2015-10-12T15:03:11.1Z</time>
      </trkpt>
      <trkpt lat="48.20316" lon="-3.09343">
        <ele>180</ele>
        <time>2015-10-12T15:03:14.1Z</time>
      </trkpt>
      <trkpt lat="48.20319" lon="-3.09342">
        <ele>180</ele>
        <time>2015-10-12T15:03:17.1Z</time>
      </trkpt>
      <trkpt lat="48.2032" lon="-3.09342">
        <ele>180</ele>
        <time>2015-10-12T15:03:19.1Z</time>
      </trkpt>
      <trkpt lat="48.20321" lon="-3.09342">
        <ele>180</ele>
        <time>2015-10-12T15:03:21.1Z</time>
      </trkpt>
      <trkpt lat="48.2032" lon="-3.09343">
        <ele>180</ele>
        <time>2015-10-12T15:03:24.1Z</time>
      </trkpt>
      <trkpt lat="48.20319" lon="-3.09343">
        <ele>181</ele>
        <time>2015-10-12T15:03:28.1Z</time>
      </trkpt>
      <trkpt lat="48.20317" lon="-3.09344">
        <ele>180</ele>
        <time>2015-10-12T15:03:31.1Z</time>
      </trkpt>
      <trkpt lat="48.20315" lon="-3.09343">
        <ele>180</ele>
        <time>2015-10-12T15:03:33.1Z</time>
      </trkpt>
      <trkpt lat="48.20313" lon="-3.09341">
        <ele>179</ele>
        <time>2015-10-12T15:03:36.1Z</time>
      </trkpt>
      <trkpt lat="48.20311" lon="-3.09339">
        <ele>179</ele>
        <time>2015-10-12T15:03:39.1Z</time>
      </trkpt>
      <trkpt lat="48.20309" lon="-3.09337">
        <ele>179</ele>
        <time>2015-10-12T15:03:42.1Z</time>
      </trkpt>
      <trkpt lat="48.20308" lon="-3.09335">
        <ele>179</ele>
        <time>2015-10-12T15:03:44.1Z</time>
      </trkpt>
      <trkpt lat="48.20304" lon="-3.09333">
        <ele>179</ele>
        <time>2015-10-12T15:03:47.1Z</time>
      </trkpt>
      <trkpt lat="48.20303" lon="-3.09332">
        <ele>179</ele>
        <time>2015-10-12T15:03:49.1Z</time>
      </trkpt>
      <trkpt lat="48.203" lon="-3.0933">
        <ele>178</ele>
        <time>2015-10-12T15:03:52.1Z</time>
      </trkpt>
      <trkpt lat="48.20297" lon="-3.09328">
        <ele>178</ele>
        <time>2015-10-12T15:03:55.1Z</time>
      </trkpt>
      <trkpt lat="48.20296" lon="-3.09326">
        <ele>178</ele>
        <time>2015-10-12T15:03:57.1Z</time>
      </trkpt>
      <trkpt lat="48.20295" lon="-3.09324">
        <ele>178</ele>
        <time>2015-10-12T15:03:59.1Z</time>
      </trkpt>
      <trkpt lat="48.20293" lon="-3.09322">
        <ele>178</ele>
        <time>2015-10-12T15:04:01.1Z</time>
      </trkpt>
      <trkpt lat="48.20292" lon="-3.09318">
        <ele>178</ele>
        <time>2015-10-12T15:04:04.1Z</time>
      </trkpt>
      <trkpt lat="48.2029" lon="-3.09316">
        <ele>178</ele>
        <time>2015-10-12T15:04:07.1Z</time>
      </trkpt>
      <trkpt lat="48.20288" lon="-3.09314">
        <ele>178</ele>
        <time>2015-10-12T15:04:09.1Z</time>
      </trkpt>
      <trkpt lat="48.20287" lon="-3.09312">
        <ele>179</ele>
        <time>2015-10-12T15:04:12.1Z</time>
      </trkpt>
      <trkpt lat="48.20285" lon="-3.09309">
        <ele>178</ele>
        <time>2015-10-12T15:04:14.1Z</time>
      </trkpt>
      <trkpt lat="48.20285" lon="-3.09306">
        <ele>178</ele>
        <time>2015-10-12T15:04:16.1Z</time>
      </trkpt>
      <trkpt lat="48.20283" lon="-3.09303">
        <ele>178</ele>
        <time>2015-10-12T15:04:18.1Z</time>
      </trkpt>
      <trkpt lat="48.20282" lon="-3.093">
        <ele>178</ele>
        <time>2015-10-12T15:04:21.1Z</time>
      </trkpt>
      <trkpt lat="48.20282" lon="-3.09297">
        <ele>178</ele>
        <time>2015-10-12T15:04:24.1Z</time>
      </trkpt>
      <trkpt lat="48.20282" lon="-3.09295">
        <ele>178</ele>
        <time>2015-10-12T15:04:26.1Z</time>
      </trkpt>
      <trkpt lat="48.20281" lon="-3.09292">
        <ele>177</ele>
        <time>2015-10-12T15:04:29.1Z</time>
      </trkpt>
      <trkpt lat="48.20281" lon="-3.09291">
        <ele>177</ele>
        <time>2015-10-12T15:04:31.1Z</time>
      </trkpt>
      <trkpt lat="48.20281" lon="-3.09288">
        <ele>177</ele>
        <time>2015-10-12T15:04:34.1Z</time>
      </trkpt>
      <trkpt lat="48.20282" lon="-3.09285">
        <ele>176</ele>
        <time>2015-10-12T15:04:37.1Z</time>
      </trkpt>
      <trkpt lat="48.20281" lon="-3.09282">
        <ele>176</ele>
        <time>2015-10-12T15:04:39.1Z</time>
      </trkpt>
      <trkpt lat="48.2028" lon="-3.0928">
        <ele>175</ele>
        <time>2015-10-12T15:04:42.1Z</time>
      </trkpt>
      <trkpt lat="48.20279" lon="-3.09278">
        <ele>175</ele>
        <time>2015-10-12T15:04:44.1Z</time>
      </trkpt>
      <trkpt lat="48.20279" lon="-3.09277">
        <ele>175</ele>
        <time>2015-10-12T15:04:46.1Z</time>
      </trkpt>
      <trkpt lat="48.20279" lon="-3.09274">
        <ele>174</ele>
        <time>2015-10-12T15:04:49.1Z</time>
      </trkpt>
      <trkpt lat="48.20278" lon="-3.09271">
        <ele>174</ele>
        <time>2015-10-12T15:04:52.1Z</time>
      </trkpt>
      <trkpt lat="48.20279" lon="-3.09269">
        <ele>173</ele>
        <time>2015-10-12T15:04:54.1Z</time>
      </trkpt>
      <trkpt lat="48.20279" lon="-3.09267">
        <ele>173</ele>
        <time>2015-10-12T15:04:56.1Z</time>
      </trkpt>
      <trkpt lat="48.20279" lon="-3.09266">
        <ele>173</ele>
        <time>2015-10-12T15:04:58.1Z</time>
      </trkpt>
      <trkpt lat="48.20279" lon="-3.09265">
        <ele>173</ele>
        <time>2015-10-12T15:05:00.1Z</time>
      </trkpt>
      <trkpt lat="48.20279" lon="-3.09264">
        <ele>172</ele>
        <time>2015-10-12T15:05:02.1Z</time>
      </trkpt>
      <trkpt lat="48.20279" lon="-3.09262">
        <ele>172</ele>
        <time>2015-10-12T15:05:04.1Z</time>
      </trkpt>
      <trkpt lat="48.2028" lon="-3.09259">
        <ele>172</ele>
        <time>2015-10-12T15:05:07.1Z</time>
      </trkpt>
      <trkpt lat="48.2028" lon="-3.09256">
        <ele>171</ele>
        <time>2015-10-12T15:05:10.1Z</time>
      </trkpt>
      <trkpt lat="48.20281" lon="-3.09254">
        <ele>170</ele>
        <time>2015-10-12T15:05:12.1Z</time>
      </trkpt>
      <trkpt lat="48.20282" lon="-3.09252">
        <ele>170</ele>
        <time>2015-10-12T15:05:15.1Z</time>
      </trkpt>
      <trkpt lat="48.20281" lon="-3.09249">
        <ele>169</ele>
        <time>2015-10-12T15:05:18.1Z</time>
      </trkpt>
      <trkpt lat="48.20281" lon="-3.09246">
        <ele>169</ele>
        <time>2015-10-12T15:05:20.1Z</time>
      </trkpt>
      <trkpt lat="48.20282" lon="-3.09243">
        <ele>169</ele>
        <time>2015-10-12T15:05:22.1Z</time>
      </trkpt>
      <trkpt lat="48.20282" lon="-3.0924">
        <ele>169</ele>
        <time>2015-10-12T15:05:25.1Z</time>
      </trkpt>
      <trkpt lat="48.20283" lon="-3.09238">
        <ele>169</ele>
        <time>2015-10-12T15:05:27.1Z</time>
      </trkpt>
      <trkpt lat="48.20283" lon="-3.09235">
        <ele>169</ele>
        <time>2015-10-12T15:05:30.1Z</time>
      </trkpt>
      <trkpt lat="48.20284" lon="-3.09233">
        <ele>169</ele>
        <time>2015-10-12T15:05:33.1Z</time>
      </trkpt>
      <trkpt lat="48.20285" lon="-3.0923">
        <ele>169</ele>
        <time>2015-10-12T15:05:36.1Z</time>
      </trkpt>
      <trkpt lat="48.20285" lon="-3.09228">
        <ele>169</ele>
        <time>2015-10-12T15:05:38.1Z</time>
      </trkpt>
      <trkpt lat="48.20286" lon="-3.09227">
        <ele>169</ele>
        <time>2015-10-12T15:05:40.1Z</time>
      </trkpt>
      <trkpt lat="48.20286" lon="-3.09226">
        <ele>169</ele>
        <time>2015-10-12T15:05:42.1Z</time>
      </trkpt>
      <trkpt lat="48.20287" lon="-3.09223">
        <ele>170</ele>
        <time>2015-10-12T15:05:45.1Z</time>
      </trkpt>
      <trkpt lat="48.20287" lon="-3.0922">
        <ele>170</ele>
        <time>2015-10-12T15:05:48.1Z</time>
      </trkpt>
      <trkpt lat="48.20288" lon="-3.09218">
        <ele>171</ele>
        <time>2015-10-12T15:05:50.1Z</time>
      </trkpt>
      <trkpt lat="48.20288" lon="-3.09215">
        <ele>171</ele>
        <time>2015-10-12T15:05:53.1Z</time>
      </trkpt>
      <trkpt lat="48.20289" lon="-3.09214">
        <ele>171</ele>
        <time>2015-10-12T15:05:55.1Z</time>
      </trkpt>
      <trkpt lat="48.2029" lon="-3.09212">
        <ele>171</ele>
        <time>2015-10-12T15:05:58.1Z</time>
      </trkpt>
      <trkpt lat="48.2029" lon="-3.09209">
        <ele>172</ele>
        <time>2015-10-12T15:06:01.1Z</time>
      </trkpt>
      <trkpt lat="48.20291" lon="-3.09206">
        <ele>171</ele>
        <time>2015-10-12T15:06:03.1Z</time>
      </trkpt>
      <trkpt lat="48.20292" lon="-3.09204">
        <ele>172</ele>
        <time>2015-10-12T15:06:05.1Z</time>
      </trkpt>
      <trkpt lat="48.20293" lon="-3.09201">
        <ele>171</ele>
        <time>2015-10-12T15:06:08.1Z</time>
      </trkpt>
      <trkpt lat="48.20294" lon="-3.09199">
        <ele>172</ele>
        <time>2015-10-12T15:06:10.1Z</time>
      </trkpt>
      <trkpt lat="48.20294" lon="-3.09196">
        <ele>171</ele>
        <time>2015-10-12T15:06:13.1Z</time>
      </trkpt>
      <trkpt lat="48.20295" lon="-3.09193">
        <ele>171</ele>
        <time>2015-10-12T15:06:16.1Z</time>
      </trkpt>
      <trkpt lat="48.20296" lon="-3.09191">
        <ele>170</ele>
        <time>2015-10-12T15:06:18.1Z</time>
      </trkpt>
      <trkpt lat="48.20297" lon="-3.09188">
        <ele>170</ele>
        <time>2015-10-12T15:06:20.1Z</time>
      </trkpt>
      <trkpt lat="48.20298" lon="-3.09184">
        <ele>170</ele>
        <time>2015-10-12T15:06:23.1Z</time>
      </trkpt>
      <trkpt lat="48.20298" lon="-3.09181">
        <ele>170</ele>
        <time>2015-10-12T15:06:25.1Z</time>
      </trkpt>
      <trkpt lat="48.20299" lon="-3.09178">
        <ele>170</ele>
        <time>2015-10-12T15:06:28.1Z</time>
      </trkpt>
      <trkpt lat="48.203" lon="-3.09176">
        <ele>170</ele>
        <time>2015-10-12T15:06:30.1Z</time>
      </trkpt>
      <trkpt lat="48.203" lon="-3.09173">
        <ele>170</ele>
        <time>2015-10-12T15:06:32.1Z</time>
      </trkpt>
      <trkpt lat="48.20301" lon="-3.0917">
        <ele>170</ele>
        <time>2015-10-12T15:06:34.1Z</time>
      </trkpt>
      <trkpt lat="48.20301" lon="-3.09167">
        <ele>170</ele>
        <time>2015-10-12T15:06:36.1Z</time>
      </trkpt>
      <trkpt lat="48.20301" lon="-3.09163">
        <ele>170</ele>
        <time>2015-10-12T15:06:39.1Z</time>
      </trkpt>
      <trkpt lat="48.20301" lon="-3.09161">
        <ele>169</ele>
        <time>2015-10-12T15:06:42.1Z</time>
      </trkpt>
      <trkpt lat="48.20301" lon="-3.09158">
        <ele>169</ele>
        <time>2015-10-12T15:06:45.1Z</time>
      </trkpt>
      <trkpt lat="48.20301" lon="-3.09156">
        <ele>168</ele>
        <time>2015-10-12T15:06:47.1Z</time>
      </trkpt>
      <trkpt lat="48.20301" lon="-3.09154">
        <ele>169</ele>
        <time>2015-10-12T15:06:49.1Z</time>
      </trkpt>
      <trkpt lat="48.20301" lon="-3.09152">
        <ele>169</ele>
        <time>2015-10-12T15:06:51.1Z</time>
      </trkpt>
      <trkpt lat="48.20301" lon="-3.09148">
        <ele>168</ele>
        <time>2015-10-12T15:06:54.1Z</time>
      </trkpt>
      <trkpt lat="48.20301" lon="-3.09144">
        <ele>168</ele>
        <time>2015-10-12T15:06:57.1Z</time>
      </trkpt>
      <trkpt lat="48.20301" lon="-3.09142">
        <ele>167</ele>
        <time>2015-10-12T15:06:59.1Z</time>
      </trkpt>
      <trkpt lat="48.20301" lon="-3.0914">
        <ele>167</ele>
        <time>2015-10-12T15:07:01.1Z</time>
      </trkpt>
      <trkpt lat="48.20302" lon="-3.09137">
        <ele>166</ele>
        <time>2015-10-12T15:07:04.1Z</time>
      </trkpt>
      <trkpt lat="48.20301" lon="-3.09135">
        <ele>166</ele>
        <time>2015-10-12T15:07:07.1Z</time>
      </trkpt>
      <trkpt lat="48.20301" lon="-3.09132">
        <ele>166</ele>
        <time>2015-10-12T15:07:10.1Z</time>
      </trkpt>
      <trkpt lat="48.20303" lon="-3.0913">
        <ele>166</ele>
        <time>2015-10-12T15:07:13.1Z</time>
      </trkpt>
      <trkpt lat="48.20304" lon="-3.09126">
        <ele>166</ele>
        <time>2015-10-12T15:07:16.1Z</time>
      </trkpt>
      <trkpt lat="48.20304" lon="-3.09124">
        <ele>166</ele>
        <time>2015-10-12T15:07:18.1Z</time>
      </trkpt>
      <trkpt lat="48.20305" lon="-3.09121">
        <ele>166</ele>
        <time>2015-10-12T15:07:20.1Z</time>
      </trkpt>
      <trkpt lat="48.20305" lon="-3.0912">
        <ele>166</ele>
        <time>2015-10-12T15:07:22.1Z</time>
      </trkpt>
      <trkpt lat="48.20306" lon="-3.09116">
        <ele>166</ele>
        <time>2015-10-12T15:07:25.1Z</time>
      </trkpt>
      <trkpt lat="48.20308" lon="-3.09114">
        <ele>166</ele>
        <time>2015-10-12T15:07:28.1Z</time>
      </trkpt>
      <trkpt lat="48.20309" lon="-3.09112">
        <ele>166</ele>
        <time>2015-10-12T15:07:30.1Z</time>
      </trkpt>
      <trkpt lat="48.2031" lon="-3.0911">
        <ele>166</ele>
        <time>2015-10-12T15:07:33.1Z</time>
      </trkpt>
      <trkpt lat="48.20312" lon="-3.09107">
        <ele>167</ele>
        <time>2015-10-12T15:07:36.1Z</time>
      </trkpt>
      <trkpt lat="48.20314" lon="-3.09104">
        <ele>167</ele>
        <time>2015-10-12T15:07:38.1Z</time>
      </trkpt>
      <trkpt lat="48.20315" lon="-3.09101">
        <ele>167</ele>
        <time>2015-10-12T15:07:40.1Z</time>
      </trkpt>
      <trkpt lat="48.20316" lon="-3.09099">
        <ele>167</ele>
        <time>2015-10-12T15:07:43.1Z</time>
      </trkpt>
      <trkpt lat="48.20316" lon="-3.09097">
        <ele>167</ele>
        <time>2015-10-12T15:07:45.1Z</time>
      </trkpt>
      <trkpt lat="48.20317" lon="-3.09093">
        <ele>167</ele>
        <time>2015-10-12T15:07:48.1Z</time>
      </trkpt>
      <trkpt lat="48.20318" lon="-3.09091">
        <ele>166</ele>
        <time>2015-10-12T15:07:50.1Z</time>
      </trkpt>
      <trkpt lat="48.20319" lon="-3.09088">
        <ele>166</ele>
        <time>2015-10-12T15:07:53.1Z</time>
      </trkpt>
      <trkpt lat="48.20321" lon="-3.09085">
        <ele>166</ele>
        <time>2015-10-12T15:07:56.1Z</time>
      </trkpt>
      <trkpt lat="48.20322" lon="-3.09083">
        <ele>166</ele>
        <time>2015-10-12T15:07:58.1Z</time>
      </trkpt>
      <trkpt lat="48.20323" lon="-3.09081">
        <ele>167</ele>
        <time>2015-10-12T15:08:01.1Z</time>
      </trkpt>
      <trkpt lat="48.20324" lon="-3.09078">
        <ele>167</ele>
        <time>2015-10-12T15:08:04.1Z</time>
      </trkpt>
      <trkpt lat="48.20325" lon="-3.09075">
        <ele>168</ele>
        <time>2015-10-12T15:08:06.1Z</time>
      </trkpt>
      <trkpt lat="48.20325" lon="-3.09071">
        <ele>168</ele>
        <time>2015-10-12T15:08:09.1Z</time>
      </trkpt>
      <trkpt lat="48.20326" lon="-3.09069">
        <ele>167</ele>
        <time>2015-10-12T15:08:11.1Z</time>
      </trkpt>
      <trkpt lat="48.20326" lon="-3.09067">
        <ele>167</ele>
        <time>2015-10-12T15:08:13.1Z</time>
      </trkpt>
      <trkpt lat="48.20328" lon="-3.09063">
        <ele>167</ele>
        <time>2015-10-12T15:08:16.1Z</time>
      </trkpt>
      <trkpt lat="48.20329" lon="-3.0906">
        <ele>167</ele>
        <time>2015-10-12T15:08:18.1Z</time>
      </trkpt>
      <trkpt lat="48.2033" lon="-3.09057">
        <ele>167</ele>
        <time>2015-10-12T15:08:21.1Z</time>
      </trkpt>
      <trkpt lat="48.20331" lon="-3.09054">
        <ele>166</ele>
        <time>2015-10-12T15:08:24.1Z</time>
      </trkpt>
      <trkpt lat="48.20332" lon="-3.09051">
        <ele>166</ele>
        <time>2015-10-12T15:08:27.1Z</time>
      </trkpt>
      <trkpt lat="48.20334" lon="-3.0905">
        <ele>165</ele>
        <time>2015-10-12T15:08:29.1Z</time>
      </trkpt>
      <trkpt lat="48.20335" lon="-3.09046">
        <ele>165</ele>
        <time>2015-10-12T15:08:32.1Z</time>
      </trkpt>
      <trkpt lat="48.20335" lon="-3.09044">
        <ele>165</ele>
        <time>2015-10-12T15:08:34.1Z</time>
      </trkpt>
      <trkpt lat="48.20337" lon="-3.0904">
        <ele>165</ele>
        <time>2015-10-12T15:08:37.1Z</time>
      </trkpt>
      <trkpt lat="48.20338" lon="-3.09037">
        <ele>164</ele>
        <time>2015-10-12T15:08:40.1Z</time>
      </trkpt>
      <trkpt lat="48.2034" lon="-3.09033">
        <ele>164</ele>
        <time>2015-10-12T15:08:43.1Z</time>
      </trkpt>
      <trkpt lat="48.2034" lon="-3.0903">
        <ele>164</ele>
        <time>2015-10-12T15:08:45.1Z</time>
      </trkpt>
      <trkpt lat="48.20341" lon="-3.09027">
        <ele>164</ele>
        <time>2015-10-12T15:08:48.1Z</time>
      </trkpt>
      <trkpt lat="48.20342" lon="-3.09025">
        <ele>164</ele>
        <time>2015-10-12T15:08:51.1Z</time>
      </trkpt>
      <trkpt lat="48.20343" lon="-3.09023">
        <ele>164</ele>
        <time>2015-10-12T15:08:53.1Z</time>
      </trkpt>
      <trkpt lat="48.20343" lon="-3.09021">
        <ele>164</ele>
        <time>2015-10-12T15:08:56.1Z</time>
      </trkpt>
      <trkpt lat="48.20343" lon="-3.0902">
        <ele>164</ele>
        <time>2015-10-12T15:08:59.1Z</time>
      </trkpt>
      <trkpt lat="48.20344" lon="-3.09018">
        <ele>165</ele>
        <time>2015-10-12T15:09:02.1Z</time>
      </trkpt>
      <trkpt lat="48.20344" lon="-3.09017">
        <ele>164</ele>
        <time>2015-10-12T15:09:04.1Z</time>
      </trkpt>
      <trkpt lat="48.20344" lon="-3.09016">
        <ele>164</ele>
        <time>2015-10-12T15:09:07.1Z</time>
      </trkpt>
      <trkpt lat="48.20346" lon="-3.09015">
        <ele>164</ele>
        <time>2015-10-12T15:09:10.1Z</time>
      </trkpt>
      <trkpt lat="48.20347" lon="-3.09013">
        <ele>164</ele>
        <time>2015-10-12T15:09:13.1Z</time>
      </trkpt>
      <trkpt lat="48.20348" lon="-3.09011">
        <ele>164</ele>
        <time>2015-10-12T15:09:15.1Z</time>
      </trkpt>
      <trkpt lat="48.20349" lon="-3.0901">
        <ele>164</ele>
        <time>2015-10-12T15:09:17.1Z</time>
      </trkpt>
      <trkpt lat="48.2035" lon="-3.09007">
        <ele>164</ele>
        <time>2015-10-12T15:09:20.1Z</time>
      </trkpt>
      <trkpt lat="48.20351" lon="-3.09006">
        <ele>164</ele>
        <time>2015-10-12T15:09:22.1Z</time>
      </trkpt>
      <trkpt lat="48.20352" lon="-3.09004">
        <ele>164</ele>
        <time>2015-10-12T15:09:24.1Z</time>
      </trkpt>
      <trkpt lat="48.20353" lon="-3.09003">
        <ele>164</ele>
        <time>2015-10-12T15:09:27.1Z</time>
      </trkpt>
      <trkpt lat="48.20355" lon="-3.09">
        <ele>164</ele>
        <time>2015-10-12T15:09:30.1Z</time>
      </trkpt>
      <trkpt lat="48.20356" lon="-3.08998">
        <ele>164</ele>
        <time>2015-10-12T15:09:32.1Z</time>
      </trkpt>
      <trkpt lat="48.20357" lon="-3.08996">
        <ele>164</ele>
        <time>2015-10-12T15:09:34.1Z</time>
      </trkpt>
      <trkpt lat="48.20358" lon="-3.08994">
        <ele>164</ele>
        <time>2015-10-12T15:09:36.1Z</time>
      </trkpt>
      <trkpt lat="48.20359" lon="-3.08993">
        <ele>164</ele>
        <time>2015-10-12T15:09:39.1Z</time>
      </trkpt>
      <trkpt lat="48.2036" lon="-3.08991">
        <ele>164</ele>
        <time>2015-10-12T15:09:41.1Z</time>
      </trkpt>
      <trkpt lat="48.20362" lon="-3.08989">
        <ele>165</ele>
        <time>2015-10-12T15:09:44.1Z</time>
      </trkpt>
      <trkpt lat="48.20363" lon="-3.08986">
        <ele>165</ele>
        <time>2015-10-12T15:09:46.1Z</time>
      </trkpt>
      <trkpt lat="48.20364" lon="-3.08984">
        <ele>165</ele>
        <time>2015-10-12T15:09:48.1Z</time>
      </trkpt>
      <trkpt lat="48.20367" lon="-3.0898">
        <ele>165</ele>
        <time>2015-10-12T15:09:51.1Z</time>
      </trkpt>
      <trkpt lat="48.20369" lon="-3.08976">
        <ele>164</ele>
        <time>2015-10-12T15:09:54.1Z</time>
      </trkpt>
      <trkpt lat="48.20371" lon="-3.08973">
        <ele>164</ele>
        <time>2015-10-12T15:09:57.1Z</time>
      </trkpt>
      <trkpt lat="48.20373" lon="-3.08971">
        <ele>164</ele>
        <time>2015-10-12T15:10:00.1Z</time>
      </trkpt>
      <trkpt lat="48.20375" lon="-3.08968">
        <ele>164</ele>
        <time>2015-10-12T15:10:03.1Z</time>
      </trkpt>
      <trkpt lat="48.20375" lon="-3.08966">
        <ele>164</ele>
        <time>2015-10-12T15:10:05.1Z</time>
      </trkpt>
      <trkpt lat="48.20376" lon="-3.08965">
        <ele>164</ele>
        <time>2015-10-12T15:10:07.1Z</time>
      </trkpt>
      <trkpt lat="48.20378" lon="-3.08964">
        <ele>164</ele>
        <time>2015-10-12T15:10:10.1Z</time>
      </trkpt>
      <trkpt lat="48.20378" lon="-3.08962">
        <ele>164</ele>
        <time>2015-10-12T15:10:12.1Z</time>
      </trkpt>
      <trkpt lat="48.20379" lon="-3.08958">
        <ele>165</ele>
        <time>2015-10-12T15:10:15.1Z</time>
      </trkpt>
      <trkpt lat="48.2038" lon="-3.08955">
        <ele>164</ele>
        <time>2015-10-12T15:10:18.1Z</time>
      </trkpt>
      <trkpt lat="48.20382" lon="-3.08953">
        <ele>164</ele>
        <time>2015-10-12T15:10:20.1Z</time>
      </trkpt>
      <trkpt lat="48.20383" lon="-3.0895">
        <ele>164</ele>
        <time>2015-10-12T15:10:23.1Z</time>
      </trkpt>
      <trkpt lat="48.20383" lon="-3.08949">
        <ele>164</ele>
        <time>2015-10-12T15:10:25.1Z</time>
      </trkpt>
      <trkpt lat="48.20384" lon="-3.08947">
        <ele>164</ele>
        <time>2015-10-12T15:10:27.1Z</time>
      </trkpt>
      <trkpt lat="48.20385" lon="-3.08943">
        <ele>164</ele>
        <time>2015-10-12T15:10:30.1Z</time>
      </trkpt>
      <trkpt lat="48.20386" lon="-3.08941">
        <ele>164</ele>
        <time>2015-10-12T15:10:32.1Z</time>
      </trkpt>
      <trkpt lat="48.20387" lon="-3.0894">
        <ele>164</ele>
        <time>2015-10-12T15:10:34.1Z</time>
      </trkpt>
      <trkpt lat="48.20387" lon="-3.08939">
        <ele>164</ele>
        <time>2015-10-12T15:10:37.1Z</time>
      </trkpt>
      <trkpt lat="48.20387" lon="-3.0894">
        <ele>164</ele>
        <time>2015-10-12T15:10:40.1Z</time>
      </trkpt>
      <trkpt lat="48.20388" lon="-3.08938">
        <ele>164</ele>
        <time>2015-10-12T15:10:43.1Z</time>
      </trkpt>
      <trkpt lat="48.20387" lon="-3.08938">
        <ele>164</ele>
        <time>2015-10-12T15:10:45.1Z</time>
      </trkpt>
      <trkpt lat="48.20388" lon="-3.08936">
        <ele>164</ele>
        <time>2015-10-12T15:10:48.1Z</time>
      </trkpt>
      <trkpt lat="48.20388" lon="-3.08935">
        <ele>164</ele>
        <time>2015-10-12T15:10:50.1Z</time>
      </trkpt>
      <trkpt lat="48.20388" lon="-3.08935">
        <ele>164</ele>
        <time>2015-10-12T15:10:52.1Z</time>
      </trkpt>
      <trkpt lat="48.20388" lon="-3.08934">
        <ele>165</ele>
        <time>2015-10-12T15:10:54.1Z</time>
      </trkpt>
      <trkpt lat="48.20388" lon="-3.08933">
        <ele>165</ele>
        <time>2015-10-12T15:10:57.1Z</time>
      </trkpt>
      <trkpt lat="48.20388" lon="-3.08931">
        <ele>165</ele>
        <time>2015-10-12T15:10:59.1Z</time>
      </trkpt>
      <trkpt lat="48.20388" lon="-3.08928">
        <ele>164</ele>
        <time>2015-10-12T15:11:02.1Z</time>
      </trkpt>
      <trkpt lat="48.20388" lon="-3.08926">
        <ele>164</ele>
        <time>2015-10-12T15:11:05.1Z</time>
      </trkpt>
      <trkpt lat="48.20389" lon="-3.08924">
        <ele>163</ele>
        <time>2015-10-12T15:11:07.1Z</time>
      </trkpt>
      <trkpt lat="48.20389" lon="-3.08922">
        <ele>163</ele>
        <time>2015-10-12T15:11:09.1Z</time>
      </trkpt>
      <trkpt lat="48.20391" lon="-3.0892">
        <ele>163</ele>
        <time>2015-10-12T15:11:12.1Z</time>
      </trkpt>
      <trkpt lat="48.20393" lon="-3.08918">
        <ele>163</ele>
        <time>2015-10-12T15:11:15.1Z</time>
      </trkpt>
      <trkpt lat="48.20395" lon="-3.08915">
        <ele>163</ele>
        <time>2015-10-12T15:11:18.1Z</time>
      </trkpt>
      <trkpt lat="48.20396" lon="-3.08914">
        <ele>163</ele>
        <time>2015-10-12T15:11:20.1Z</time>
      </trkpt>
      <trkpt lat="48.20398" lon="-3.08913">
        <ele>164</ele>
        <time>2015-10-12T15:11:23.1Z</time>
      </trkpt>
      <trkpt lat="48.20398" lon="-3.08911">
        <ele>164</ele>
        <time>2015-10-12T15:11:25.1Z</time>
      </trkpt>
      <trkpt lat="48.204" lon="-3.08907">
        <ele>164</ele>
        <time>2015-10-12T15:11:28.1Z</time>
      </trkpt>
      <trkpt lat="48.20401" lon="-3.08906">
        <ele>164</ele>
        <time>2015-10-12T15:11:30.1Z</time>
      </trkpt>
      <trkpt lat="48.20403" lon="-3.08904">
        <ele>164</ele>
        <time>2015-10-12T15:11:33.1Z</time>
      </trkpt>
      <trkpt lat="48.20403" lon="-3.08902">
        <ele>164</ele>
        <time>2015-10-12T15:11:35.1Z</time>
      </trkpt>
      <trkpt lat="48.20404" lon="-3.08898">
        <ele>164</ele>
        <time>2015-10-12T15:11:38.1Z</time>
      </trkpt>
      <trkpt lat="48.20405" lon="-3.08895">
        <ele>164</ele>
        <time>2015-10-12T15:11:40.1Z</time>
      </trkpt>
      <trkpt lat="48.20406" lon="-3.08892">
        <ele>164</ele>
        <time>2015-10-12T15:11:43.1Z</time>
      </trkpt>
      <trkpt lat="48.20406" lon="-3.0889">
        <ele>164</ele>
        <time>2015-10-12T15:11:45.1Z</time>
      </trkpt>
      <trkpt lat="48.20406" lon="-3.08888">
        <ele>164</ele>
        <time>2015-10-12T15:11:47.1Z</time>
      </trkpt>
      <trkpt lat="48.20406" lon="-3.08886">
        <ele>164</ele>
        <time>2015-10-12T15:11:49.1Z</time>
      </trkpt>
      <trkpt lat="48.20407" lon="-3.08884">
        <ele>164</ele>
        <time>2015-10-12T15:11:51.1Z</time>
      </trkpt>
      <trkpt lat="48.20409" lon="-3.08882">
        <ele>164</ele>
        <time>2015-10-12T15:11:54.1Z</time>
      </trkpt>
      <trkpt lat="48.20409" lon="-3.0888">
        <ele>164</ele>
        <time>2015-10-12T15:11:56.1Z</time>
      </trkpt>
      <trkpt lat="48.2041" lon="-3.08876">
        <ele>164</ele>
        <time>2015-10-12T15:11:59.1Z</time>
      </trkpt>
      <trkpt lat="48.20411" lon="-3.08872">
        <ele>164</ele>
        <time>2015-10-12T15:12:02.1Z</time>
      </trkpt>
      <trkpt lat="48.20412" lon="-3.0887">
        <ele>164</ele>
        <time>2015-10-12T15:12:04.1Z</time>
      </trkpt>
      <trkpt lat="48.20412" lon="-3.08868">
        <ele>163</ele>
        <time>2015-10-12T15:12:06.1Z</time>
      </trkpt>
      <trkpt lat="48.20414" lon="-3.08863">
        <ele>163</ele>
        <time>2015-10-12T15:12:09.1Z</time>
      </trkpt>
      <trkpt lat="48.20414" lon="-3.0886">
        <ele>163</ele>
        <time>2015-10-12T15:12:12.1Z</time>
      </trkpt>
      <trkpt lat="48.20414" lon="-3.08858">
        <ele>163</ele>
        <time>2015-10-12T15:12:14.1Z</time>
      </trkpt>
      <trkpt lat="48.20413" lon="-3.08856">
        <ele>163</ele>
        <time>2015-10-12T15:12:16.1Z</time>
      </trkpt>
      <trkpt lat="48.20414" lon="-3.08853">
        <ele>163</ele>
        <time>2015-10-12T15:12:19.1Z</time>
      </trkpt>
      <trkpt lat="48.20414" lon="-3.08851">
        <ele>163</ele>
        <time>2015-10-12T15:12:21.1Z</time>
      </trkpt>
      <trkpt lat="48.20415" lon="-3.0885">
        <ele>163</ele>
        <time>2015-10-12T15:12:23.1Z</time>
      </trkpt>
      <trkpt lat="48.20415" lon="-3.08847">
        <ele>163</ele>
        <time>2015-10-12T15:12:26.1Z</time>
      </trkpt>
      <trkpt lat="48.20415" lon="-3.08845">
        <ele>164</ele>
        <time>2015-10-12T15:12:28.1Z</time>
      </trkpt>
      <trkpt lat="48.20415" lon="-3.08844">
        <ele>164</ele>
        <time>2015-10-12T15:12:30.1Z</time>
      </trkpt>
      <trkpt lat="48.20416" lon="-3.08844">
        <ele>163</ele>
        <time>2015-10-12T15:12:33.1Z</time>
      </trkpt>
      <trkpt lat="48.20416" lon="-3.08844">
        <ele>164</ele>
        <time>2015-10-12T15:12:36.1Z</time>
      </trkpt>
      <trkpt lat="48.20416" lon="-3.08842">
        <ele>164</ele>
        <time>2015-10-12T15:12:39.1Z</time>
      </trkpt>
      <trkpt lat="48.20417" lon="-3.08841">
        <ele>164</ele>
        <time>2015-10-12T15:12:41.1Z</time>
      </trkpt>
      <trkpt lat="48.20419" lon="-3.0884">
        <ele>165</ele>
        <time>2015-10-12T15:12:43.1Z</time>
      </trkpt>
      <trkpt lat="48.20419" lon="-3.08841">
        <ele>165</ele>
        <time>2015-10-12T15:12:45.1Z</time>
      </trkpt>
      <trkpt lat="48.2042" lon="-3.0884">
        <ele>166</ele>
        <time>2015-10-12T15:12:48.1Z</time>
      </trkpt>
      <trkpt lat="48.2042" lon="-3.08839">
        <ele>166</ele>
        <time>2015-10-12T15:12:50.1Z</time>
      </trkpt>
      <trkpt lat="48.20421" lon="-3.08838">
        <ele>166</ele>
        <time>2015-10-12T15:12:52.1Z</time>
      </trkpt>
      <trkpt lat="48.20422" lon="-3.08837">
        <ele>166</ele>
        <time>2015-10-12T15:12:55.1Z</time>
      </trkpt>
      <trkpt lat="48.20423" lon="-3.08836">
        <ele>167</ele>
        <time>2015-10-12T15:12:57.1Z</time>
      </trkpt>
      <trkpt lat="48.20424" lon="-3.08834">
        <ele>167</ele>
        <time>2015-10-12T15:13:00.1Z</time>
      </trkpt>
      <trkpt lat="48.20424" lon="-3.08834">
        <ele>168</ele>
        <time>2015-10-12T15:13:03.1Z</time>
      </trkpt>
      <trkpt lat="48.20424" lon="-3.08832">
        <ele>168</ele>
        <time>2015-10-12T15:13:05.1Z</time>
      </trkpt>
      <trkpt lat="48.20425" lon="-3.08831">
        <ele>168</ele>
        <time>2015-10-12T15:13:08.1Z</time>
      </trkpt>
      <trkpt lat="48.20426" lon="-3.08828">
        <ele>169</ele>
        <time>2015-10-12T15:13:11.1Z</time>
      </trkpt>
      <trkpt lat="48.20427" lon="-3.08826">
        <ele>169</ele>
        <time>2015-10-12T15:13:14.1Z</time>
      </trkpt>
      <trkpt lat="48.20427" lon="-3.08824">
        <ele>169</ele>
        <time>2015-10-12T15:13:16.1Z</time>
      </trkpt>
      <trkpt lat="48.20427" lon="-3.08822">
        <ele>169</ele>
        <time>2015-10-12T15:13:19.1Z</time>
      </trkpt>
      <trkpt lat="48.20427" lon="-3.0882">
        <ele>169</ele>
        <time>2015-10-12T15:13:21.1Z</time>
      </trkpt>
      <trkpt lat="48.20428" lon="-3.08818">
        <ele>168</ele>
        <time>2015-10-12T15:13:24.1Z</time>
      </trkpt>
      <trkpt lat="48.20428" lon="-3.08816">
        <ele>168</ele>
        <time>2015-10-12T15:13:26.1Z</time>
      </trkpt>
      <trkpt lat="48.20428" lon="-3.08815">
        <ele>168</ele>
        <time>2015-10-12T15:13:28.1Z</time>
      </trkpt>
      <trkpt lat="48.20429" lon="-3.08812">
        <ele>167</ele>
        <time>2015-10-12T15:13:31.1Z</time>
      </trkpt>
      <trkpt lat="48.20428" lon="-3.0881">
        <ele>167</ele>
        <time>2015-10-12T15:13:33.1Z</time>
      </trkpt>
      <trkpt lat="48.20428" lon="-3.08809">
        <ele>167</ele>
        <time>2015-10-12T15:13:36.1Z</time>
      </trkpt>
      <trkpt lat="48.20428" lon="-3.08809">
        <ele>167</ele>
        <time>2015-10-12T15:13:38.1Z</time>
      </trkpt>
      <trkpt lat="48.20427" lon="-3.08808">
        <ele>166</ele>
        <time>2015-10-12T15:13:40.1Z</time>
      </trkpt>
      <trkpt lat="48.20427" lon="-3.08805">
        <ele>166</ele>
        <time>2015-10-12T15:13:43.1Z</time>
      </trkpt>
      <trkpt lat="48.20427" lon="-3.08803">
        <ele>166</ele>
        <time>2015-10-12T15:13:45.1Z</time>
      </trkpt>
      <trkpt lat="48.20426" lon="-3.088">
        <ele>166</ele>
        <time>2015-10-12T15:13:47.1Z</time>
      </trkpt>
      <trkpt lat="48.20427" lon="-3.08797">
        <ele>165</ele>
        <time>2015-10-12T15:13:50.1Z</time>
      </trkpt>
      <trkpt lat="48.20428" lon="-3.08793">
        <ele>164</ele>
        <time>2015-10-12T15:13:53.1Z</time>
      </trkpt>
      <trkpt lat="48.20429" lon="-3.08791">
        <ele>164</ele>
        <time>2015-10-12T15:13:56.1Z</time>
      </trkpt>
      <trkpt lat="48.2043" lon="-3.0879">
        <ele>164</ele>
        <time>2015-10-12T15:13:59.1Z</time>
      </trkpt>
      <trkpt lat="48.20431" lon="-3.08788">
        <ele>164</ele>
        <time>2015-10-12T15:14:01.1Z</time>
      </trkpt>
      <trkpt lat="48.20432" lon="-3.08786">
        <ele>164</ele>
        <time>2015-10-12T15:14:04.1Z</time>
      </trkpt>
      <trkpt lat="48.20433" lon="-3.08786">
        <ele>165</ele>
        <time>2015-10-12T15:14:07.1Z</time>
      </trkpt>
      <trkpt lat="48.20434" lon="-3.08784">
        <ele>165</ele>
        <time>2015-10-12T15:14:10.1Z</time>
      </trkpt>
      <trkpt lat="48.20435" lon="-3.08781">
        <ele>165</ele>
        <time>2015-10-12T15:14:13.1Z</time>
      </trkpt>
      <trkpt lat="48.20436" lon="-3.08779">
        <ele>165</ele>
        <time>2015-10-12T15:14:15.1Z</time>
      </trkpt>
      <trkpt lat="48.20437" lon="-3.08776">
        <ele>165</ele>
        <time>2015-10-12T15:14:18.1Z</time>
      </trkpt>
      <trkpt lat="48.20438" lon="-3.08774">
        <ele>165</ele>
        <time>2015-10-12T15:14:21.1Z</time>
      </trkpt>
      <trkpt lat="48.2044" lon="-3.08771">
        <ele>164</ele>
        <time>2015-10-12T15:14:24.1Z</time>
      </trkpt>
      <trkpt lat="48.2044" lon="-3.0877">
        <ele>164</ele>
        <time>2015-10-12T15:14:26.1Z</time>
      </trkpt>
      <trkpt lat="48.20441" lon="-3.08769">
        <ele>164</ele>
        <time>2015-10-12T15:14:28.1Z</time>
      </trkpt>
      <trkpt lat="48.20442" lon="-3.08767">
        <ele>164</ele>
        <time>2015-10-12T15:14:31.1Z</time>
      </trkpt>
      <trkpt lat="48.20443" lon="-3.08763">
        <ele>164</ele>
        <time>2015-10-12T15:14:34.1Z</time>
      </trkpt>
      <trkpt lat="48.20445" lon="-3.0876">
        <ele>164</ele>
        <time>2015-10-12T15:14:37.1Z</time>
      </trkpt>
      <trkpt lat="48.20447" lon="-3.08758">
        <ele>164</ele>
        <time>2015-10-12T15:14:39.1Z</time>
      </trkpt>
      <trkpt lat="48.20448" lon="-3.08756">
        <ele>164</ele>
        <time>2015-10-12T15:14:41.1Z</time>
      </trkpt>
      <trkpt lat="48.20449" lon="-3.08754">
        <ele>165</ele>
        <time>2015-10-12T15:14:43.1Z</time>
      </trkpt>
      <trkpt lat="48.2045" lon="-3.08752">
        <ele>166</ele>
        <time>2015-10-12T15:14:46.1Z</time>
      </trkpt>
      <trkpt lat="48.20451" lon="-3.0875">
        <ele>166</ele>
        <time>2015-10-12T15:14:48.1Z</time>
      </trkpt>
      <trkpt lat="48.20453" lon="-3.08749">
        <ele>167</ele>
        <time>2015-10-12T15:14:51.1Z</time>
      </trkpt>
      <trkpt lat="48.20455" lon="-3.08747">
        <ele>167</ele>
        <time>2015-10-12T15:14:54.1Z</time>
      </trkpt>
      <trkpt lat="48.20455" lon="-3.08746">
        <ele>168</ele>
        <time>2015-10-12T15:14:57.1Z</time>
      </trkpt>
      <trkpt lat="48.20456" lon="-3.08746">
        <ele>168</ele>
        <time>2015-10-12T15:14:59.1Z</time>
      </trkpt>
      <trkpt lat="48.20457" lon="-3.08745">
        <ele>169</ele>
        <time>2015-10-12T15:15:01.1Z</time>
      </trkpt>
      <trkpt lat="48.20457" lon="-3.08744">
        <ele>169</ele>
        <time>2015-10-12T15:15:03.1Z</time>
      </trkpt>
      <trkpt lat="48.20459" lon="-3.08742">
        <ele>169</ele>
        <time>2015-10-12T15:15:06.1Z</time>
      </trkpt>
      <trkpt lat="48.2046" lon="-3.0874">
        <ele>170</ele>
        <time>2015-10-12T15:15:09.1Z</time>
      </trkpt>
      <trkpt lat="48.20461" lon="-3.08739">
        <ele>169</ele>
        <time>2015-10-12T15:15:11.1Z</time>
      </trkpt>
      <trkpt lat="48.20462" lon="-3.08737">
        <ele>169</ele>
        <time>2015-10-12T15:15:13.1Z</time>
      </trkpt>
      <trkpt lat="48.20463" lon="-3.08735">
        <ele>169</ele>
        <time>2015-10-12T15:15:15.1Z</time>
      </trkpt>
      <trkpt lat="48.20464" lon="-3.0873">
        <ele>169</ele>
        <time>2015-10-12T15:15:18.1Z</time>
      </trkpt>
      <trkpt lat="48.20464" lon="-3.08726">
        <ele>169</ele>
        <time>2015-10-12T15:15:21.1Z</time>
      </trkpt>
      <trkpt lat="48.20465" lon="-3.08722">
        <ele>168</ele>
        <time>2015-10-12T15:15:24.1Z</time>
      </trkpt>
      <trkpt lat="48.20466" lon="-3.08719">
        <ele>167</ele>
        <time>2015-10-12T15:15:27.1Z</time>
      </trkpt>
      <trkpt lat="48.20467" lon="-3.08716">
        <ele>167</ele>
        <time>2015-10-12T15:15:30.1Z</time>
      </trkpt>
      <trkpt lat="48.20468" lon="-3.08714">
        <ele>167</ele>
        <time>2015-10-12T15:15:33.1Z</time>
      </trkpt>
      <trkpt lat="48.20469" lon="-3.08711">
        <ele>167</ele>
        <time>2015-10-12T15:15:35.1Z</time>
      </trkpt>
      <trkpt lat="48.20469" lon="-3.0871">
        <ele>167</ele>
        <time>2015-10-12T15:15:37.1Z</time>
      </trkpt>
      <trkpt lat="48.20471" lon="-3.08705">
        <ele>166</ele>
        <time>2015-10-12T15:15:40.1Z</time>
      </trkpt>
      <trkpt lat="48.20472" lon="-3.08701">
        <ele>165</ele>
        <time>2015-10-12T15:15:43.1Z</time>
      </trkpt>
      <trkpt lat="48.20472" lon="-3.08699">
        <ele>165</ele>
        <time>2015-10-12T15:15:45.1Z</time>
      </trkpt>
      <trkpt lat="48.20474" lon="-3.08696">
        <ele>165</ele>
        <time>2015-10-12T15:15:48.1Z</time>
      </trkpt>
      <trkpt lat="48.20475" lon="-3.08695">
        <ele>165</ele>
        <time>2015-10-12T15:15:50.1Z</time>
      </trkpt>
      <trkpt lat="48.20476" lon="-3.08694">
        <ele>164</ele>
        <time>2015-10-12T15:15:52.1Z</time>
      </trkpt>
      <trkpt lat="48.20477" lon="-3.08693">
        <ele>164</ele>
        <time>2015-10-12T15:15:54.1Z</time>
      </trkpt>
      <trkpt lat="48.20478" lon="-3.08693">
        <ele>163</ele>
        <time>2015-10-12T15:15:57.1Z</time>
      </trkpt>
      <trkpt lat="48.2048" lon="-3.08692">
        <ele>163</ele>
        <time>2015-10-12T15:16:00.1Z</time>
      </trkpt>
      <trkpt lat="48.2048" lon="-3.08695">
        <ele>163</ele>
        <time>2015-10-12T15:16:02.1Z</time>
      </trkpt>
      <trkpt lat="48.20482" lon="-3.08696">
        <ele>164</ele>
        <time>2015-10-12T15:16:04.1Z</time>
      </trkpt>
      <trkpt lat="48.20483" lon="-3.08696">
        <ele>164</ele>
        <time>2015-10-12T15:16:07.1Z</time>
      </trkpt>
      <trkpt lat="48.20485" lon="-3.08697">
        <ele>164</ele>
        <time>2015-10-12T15:16:09.1Z</time>
      </trkpt>
      <trkpt lat="48.20487" lon="-3.08697">
        <ele>164</ele>
        <time>2015-10-12T15:16:11.1Z</time>
      </trkpt>
      <trkpt lat="48.20489" lon="-3.08696">
        <ele>164</ele>
        <time>2015-10-12T15:16:14.1Z</time>
      </trkpt>
      <trkpt lat="48.20491" lon="-3.08696">
        <ele>164</ele>
        <time>2015-10-12T15:16:17.1Z</time>
      </trkpt>
      <trkpt lat="48.20492" lon="-3.08696">
        <ele>164</ele>
        <time>2015-10-12T15:16:20.1Z</time>
      </trkpt>
      <trkpt lat="48.20494" lon="-3.08694">
        <ele>164</ele>
        <time>2015-10-12T15:16:23.1Z</time>
      </trkpt>
      <trkpt lat="48.20496" lon="-3.08693">
        <ele>164</ele>
        <time>2015-10-12T15:16:26.1Z</time>
      </trkpt>
      <trkpt lat="48.20497" lon="-3.08694">
        <ele>164</ele>
        <time>2015-10-12T15:16:28.1Z</time>
      </trkpt>
      <trkpt lat="48.20499" lon="-3.08694">
        <ele>164</ele>
        <time>2015-10-12T15:16:31.1Z</time>
      </trkpt>
      <trkpt lat="48.20501" lon="-3.08694">
        <ele>164</ele>
        <time>2015-10-12T15:16:34.1Z</time>
      </trkpt>
      <trkpt lat="48.20503" lon="-3.08693">
        <ele>164</ele>
        <time>2015-10-12T15:16:37.1Z</time>
      </trkpt>
      <trkpt lat="48.20504" lon="-3.08693">
        <ele>164</ele>
        <time>2015-10-12T15:16:40.1Z</time>
      </trkpt>
      <trkpt lat="48.20507" lon="-3.08691">
        <ele>164</ele>
        <time>2015-10-12T15:16:43.1Z</time>
      </trkpt>
      <trkpt lat="48.20508" lon="-3.08691">
        <ele>164</ele>
        <time>2015-10-12T15:16:45.1Z</time>
      </trkpt>
      <trkpt lat="48.20511" lon="-3.08689">
        <ele>164</ele>
        <time>2015-10-12T15:16:48.1Z</time>
      </trkpt>
      <trkpt lat="48.20512" lon="-3.08689">
        <ele>164</ele>
        <time>2015-10-12T15:16:50.1Z</time>
      </trkpt>
      <trkpt lat="48.20515" lon="-3.08688">
        <ele>164</ele>
        <time>2015-10-12T15:16:53.1Z</time>
      </trkpt>
      <trkpt lat="48.20516" lon="-3.08688">
        <ele>163</ele>
        <time>2015-10-12T15:16:55.1Z</time>
      </trkpt>
      <trkpt lat="48.20519" lon="-3.08688">
        <ele>163</ele>
        <time>2015-10-12T15:16:58.1Z</time>
      </trkpt>
      <trkpt lat="48.20521" lon="-3.08688">
        <ele>163</ele>
        <time>2015-10-12T15:17:00.1Z</time>
      </trkpt>
      <trkpt lat="48.20523" lon="-3.08686">
        <ele>163</ele>
        <time>2015-10-12T15:17:03.1Z</time>
      </trkpt>
      <trkpt lat="48.20526" lon="-3.08686">
        <ele>163</ele>
        <time>2015-10-12T15:17:06.1Z</time>
      </trkpt>
      <trkpt lat="48.20529" lon="-3.08686">
        <ele>163</ele>
        <time>2015-10-12T15:17:09.1Z</time>
      </trkpt>
      <trkpt lat="48.2053" lon="-3.08686">
        <ele>163</ele>
        <time>2015-10-12T15:17:11.1Z</time>
      </trkpt>
      <trkpt lat="48.20532" lon="-3.08685">
        <ele>163</ele>
        <time>2015-10-12T15:17:13.1Z</time>
      </trkpt>
      <trkpt lat="48.20533" lon="-3.08686">
        <ele>163</ele>
        <time>2015-10-12T15:17:15.1Z</time>
      </trkpt>
      <trkpt lat="48.20534" lon="-3.08686">
        <ele>163</ele>
        <time>2015-10-12T15:17:17.1Z</time>
      </trkpt>
      <trkpt lat="48.20536" lon="-3.08687">
        <ele>163</ele>
        <time>2015-10-12T15:17:19.1Z</time>
      </trkpt>
      <trkpt lat="48.20538" lon="-3.08688">
        <ele>163</ele>
        <time>2015-10-12T15:17:21.1Z</time>
      </trkpt>
      <trkpt lat="48.20539" lon="-3.08689">
        <ele>163</ele>
        <time>2015-10-12T15:17:24.1Z</time>
      </trkpt>
      <trkpt lat="48.20541" lon="-3.08689">
        <ele>163</ele>
        <time>2015-10-12T15:17:26.1Z</time>
      </trkpt>
      <trkpt lat="48.20544" lon="-3.08689">
        <ele>163</ele>
        <time>2015-10-12T15:17:29.1Z</time>
      </trkpt>
      <trkpt lat="48.20545" lon="-3.08689">
        <ele>163</ele>
        <time>2015-10-12T15:17:31.1Z</time>
      </trkpt>
      <trkpt lat="48.20547" lon="-3.0869">
        <ele>163</ele>
        <time>2015-10-12T15:17:33.1Z</time>
      </trkpt>
      <trkpt lat="48.20549" lon="-3.08691">
        <ele>163</ele>
        <time>2015-10-12T15:17:36.1Z</time>
      </trkpt>
      <trkpt lat="48.20551" lon="-3.08691">
        <ele>163</ele>
        <time>2015-10-12T15:17:38.1Z</time>
      </trkpt>
      <trkpt lat="48.20554" lon="-3.08691">
        <ele>163</ele>
        <time>2015-10-12T15:17:41.1Z</time>
      </trkpt>
      <trkpt lat="48.20556" lon="-3.0869">
        <ele>163</ele>
        <time>2015-10-12T15:17:43.1Z</time>
      </trkpt>
      <trkpt lat="48.20557" lon="-3.0869">
        <ele>163</ele>
        <time>2015-10-12T15:17:45.1Z</time>
      </trkpt>
      <trkpt lat="48.20559" lon="-3.0869">
        <ele>163</ele>
        <time>2015-10-12T15:17:48.1Z</time>
      </trkpt>
      <trkpt lat="48.20561" lon="-3.08691">
        <ele>163</ele>
        <time>2015-10-12T15:17:50.1Z</time>
      </trkpt>
      <trkpt lat="48.20563" lon="-3.08691">
        <ele>163</ele>
        <time>2015-10-12T15:17:53.1Z</time>
      </trkpt>
      <trkpt lat="48.20565" lon="-3.08691">
        <ele>163</ele>
        <time>2015-10-12T15:17:55.1Z</time>
      </trkpt>
      <trkpt lat="48.20567" lon="-3.08691">
        <ele>163</ele>
        <time>2015-10-12T15:17:58.1Z</time>
      </trkpt>
      <trkpt lat="48.20569" lon="-3.08692">
        <ele>162</ele>
        <time>2015-10-12T15:18:00.1Z</time>
      </trkpt>
      <trkpt lat="48.20573" lon="-3.08693">
        <ele>163</ele>
        <time>2015-10-12T15:18:03.1Z</time>
      </trkpt>
      <trkpt lat="48.20574" lon="-3.08693">
        <ele>163</ele>
        <time>2015-10-12T15:18:05.1Z</time>
      </trkpt>
      <trkpt lat="48.20578" lon="-3.08693">
        <ele>163</ele>
        <time>2015-10-12T15:18:08.1Z</time>
      </trkpt>
      <trkpt lat="48.2058" lon="-3.08694">
        <ele>164</ele>
        <time>2015-10-12T15:18:10.1Z</time>
      </trkpt>
      <trkpt lat="48.20581" lon="-3.08695">
        <ele>163</ele>
        <time>2015-10-12T15:18:12.1Z</time>
      </trkpt>
      <trkpt lat="48.20583" lon="-3.08696">
        <ele>164</ele>
        <time>2015-10-12T15:18:15.1Z</time>
      </trkpt>
      <trkpt lat="48.20585" lon="-3.08697">
        <ele>164</ele>
        <time>2015-10-12T15:18:18.1Z</time>
      </trkpt>
      <trkpt lat="48.20586" lon="-3.08696">
        <ele>164</ele>
        <time>2015-10-12T15:18:21.1Z</time>
      </trkpt>
      <trkpt lat="48.20588" lon="-3.08697">
        <ele>164</ele>
        <time>2015-10-12T15:18:24.1Z</time>
      </trkpt>
      <trkpt lat="48.20588" lon="-3.08697">
        <ele>164</ele>
        <time>2015-10-12T15:18:26.1Z</time>
      </trkpt>
      <trkpt lat="48.2059" lon="-3.08697">
        <ele>164</ele>
        <time>2015-10-12T15:18:29.1Z</time>
      </trkpt>
      <trkpt lat="48.2059" lon="-3.08697">
        <ele>164</ele>
        <time>2015-10-12T15:18:31.1Z</time>
      </trkpt>
      <trkpt lat="48.20591" lon="-3.08698">
        <ele>165</ele>
        <time>2015-10-12T15:18:33.1Z</time>
      </trkpt>
      <trkpt lat="48.20592" lon="-3.08699">
        <ele>165</ele>
        <time>2015-10-12T15:18:35.1Z</time>
      </trkpt>
      <trkpt lat="48.20594" lon="-3.08697">
        <ele>165</ele>
        <time>2015-10-12T15:18:38.1Z</time>
      </trkpt>
      <trkpt lat="48.20595" lon="-3.08696">
        <ele>165</ele>
        <time>2015-10-12T15:18:40.1Z</time>
      </trkpt>
      <trkpt lat="48.20597" lon="-3.08695">
        <ele>165</ele>
        <time>2015-10-12T15:18:43.1Z</time>
      </trkpt>
      <trkpt lat="48.20599" lon="-3.08695">
        <ele>165</ele>
        <time>2015-10-12T15:18:45.1Z</time>
      </trkpt>
      <trkpt lat="48.20601" lon="-3.08694">
        <ele>164</ele>
        <time>2015-10-12T15:18:48.1Z</time>
      </trkpt>
      <trkpt lat="48.20603" lon="-3.08694">
        <ele>164</ele>
        <time>2015-10-12T15:18:51.1Z</time>
      </trkpt>
      <trkpt lat="48.20606" lon="-3.08693">
        <ele>164</ele>
        <time>2015-10-12T15:18:54.1Z</time>
      </trkpt>
      <trkpt lat="48.20608" lon="-3.08692">
        <ele>165</ele>
        <time>2015-10-12T15:18:57.1Z</time>
      </trkpt>
      <trkpt lat="48.20611" lon="-3.08693">
        <ele>164</ele>
        <time>2015-10-12T15:19:00.1Z</time>
      </trkpt>
      <trkpt lat="48.20613" lon="-3.08694">
        <ele>164</ele>
        <time>2015-10-12T15:19:03.1Z</time>
      </trkpt>
      <trkpt lat="48.20614" lon="-3.08694">
        <ele>164</ele>
        <time>2015-10-12T15:19:06.1Z</time>
      </trkpt>
      <trkpt lat="48.20617" lon="-3.08694">
        <ele>164</ele>
        <time>2015-10-12T15:19:09.1Z</time>
      </trkpt>
      <trkpt lat="48.20619" lon="-3.08693">
        <ele>164</ele>
        <time>2015-10-12T15:19:12.1Z</time>
      </trkpt>
      <trkpt lat="48.2062" lon="-3.08692">
        <ele>164</ele>
        <time>2015-10-12T15:19:14.1Z</time>
      </trkpt>
      <trkpt lat="48.20621" lon="-3.08693">
        <ele>164</ele>
        <time>2015-10-12T15:19:17.1Z</time>
      </trkpt>
      <trkpt lat="48.20622" lon="-3.08692">
        <ele>164</ele>
        <time>2015-10-12T15:19:19.1Z</time>
      </trkpt>
      <trkpt lat="48.20625" lon="-3.08692">
        <ele>164</ele>
        <time>2015-10-12T15:19:22.1Z</time>
      </trkpt>
      <trkpt lat="48.20628" lon="-3.08692">
        <ele>164</ele>
        <time>2015-10-12T15:19:25.1Z</time>
      </trkpt>
      <trkpt lat="48.2063" lon="-3.08691">
        <ele>163</ele>
        <time>2015-10-12T15:19:27.1Z</time>
      </trkpt>
      <trkpt lat="48.20631" lon="-3.0869">
        <ele>163</ele>
        <time>2015-10-12T15:19:29.1Z</time>
      </trkpt>
      <trkpt lat="48.20632" lon="-3.08689">
        <ele>163</ele>
        <time>2015-10-12T15:19:32.1Z</time>
      </trkpt>
      <trkpt lat="48.20633" lon="-3.08689">
        <ele>163</ele>
        <time>2015-10-12T15:19:34.1Z</time>
      </trkpt>
      <trkpt lat="48.20634" lon="-3.0869">
        <ele>163</ele>
        <time>2015-10-12T15:19:37.1Z</time>
      </trkpt>
      <trkpt lat="48.20636" lon="-3.08692">
        <ele>163</ele>
        <time>2015-10-12T15:19:40.1Z</time>
      </trkpt>
      <trkpt lat="48.20637" lon="-3.08693">
        <ele>163</ele>
        <time>2015-10-12T15:19:42.1Z</time>
      </trkpt>
      <trkpt lat="48.20638" lon="-3.08693">
        <ele>163</ele>
        <time>2015-10-12T15:19:44.1Z</time>
      </trkpt>
      <trkpt lat="48.2064" lon="-3.08694">
        <ele>163</ele>
        <time>2015-10-12T15:19:47.1Z</time>
      </trkpt>
      <trkpt lat="48.20642" lon="-3.08693">
        <ele>163</ele>
        <time>2015-10-12T15:19:49.1Z</time>
      </trkpt>
      <trkpt lat="48.20645" lon="-3.08694">
        <ele>163</ele>
        <time>2015-10-12T15:19:52.1Z</time>
      </trkpt>
      <trkpt lat="48.20649" lon="-3.08694">
        <ele>163</ele>
        <time>2015-10-12T15:19:55.1Z</time>
      </trkpt>
      <trkpt lat="48.20651" lon="-3.08693">
        <ele>163</ele>
        <time>2015-10-12T15:19:58.1Z</time>
      </trkpt>
      <trkpt lat="48.20654" lon="-3.08693">
        <ele>163</ele>
        <time>2015-10-12T15:20:00.1Z</time>
      </trkpt>
      <trkpt lat="48.20656" lon="-3.08693">
        <ele>162</ele>
        <time>2015-10-12T15:20:03.1Z</time>
      </trkpt>
      <trkpt lat="48.2066" lon="-3.08693">
        <ele>163</ele>
        <time>2015-10-12T15:20:06.1Z</time>
      </trkpt>
      <trkpt lat="48.20661" lon="-3.08692">
        <ele>163</ele>
        <time>2015-10-12T15:20:08.1Z</time>
      </trkpt>
      <trkpt lat="48.20663" lon="-3.08692">
        <ele>162</ele>
        <time>2015-10-12T15:20:10.1Z</time>
      </trkpt>
      <trkpt lat="48.20667" lon="-3.08692">
        <ele>162</ele>
        <time>2015-10-12T15:20:13.1Z</time>
      </trkpt>
      <trkpt lat="48.20669" lon="-3.08691">
        <ele>162</ele>
        <time>2015-10-12T15:20:16.1Z</time>
      </trkpt>
      <trkpt lat="48.20671" lon="-3.08691">
        <ele>162</ele>
        <time>2015-10-12T15:20:19.1Z</time>
      </trkpt>
      <trkpt lat="48.20673" lon="-3.08692">
        <ele>162</ele>
        <time>2015-10-12T15:20:21.1Z</time>
      </trkpt>
      <trkpt lat="48.20676" lon="-3.08693">
        <ele>162</ele>
        <time>2015-10-12T15:20:24.1Z</time>
      </trkpt>
      <trkpt lat="48.20677" lon="-3.08694">
        <ele>162</ele>
        <time>2015-10-12T15:20:26.1Z</time>
      </trkpt>
      <trkpt lat="48.20679" lon="-3.08694">
        <ele>163</ele>
        <time>2015-10-12T15:20:28.1Z</time>
      </trkpt>
      <trkpt lat="48.20681" lon="-3.08695">
        <ele>163</ele>
        <time>2015-10-12T15:20:31.1Z</time>
      </trkpt>
      <trkpt lat="48.20683" lon="-3.08696">
        <ele>163</ele>
        <time>2015-10-12T15:20:34.1Z</time>
      </trkpt>
      <trkpt lat="48.20684" lon="-3.08696">
        <ele>163</ele>
        <time>2015-10-12T15:20:36.1Z</time>
      </trkpt>
      <trkpt lat="48.20686" lon="-3.08697">
        <ele>163</ele>
        <time>2015-10-12T15:20:39.1Z</time>
      </trkpt>
      <trkpt lat="48.20687" lon="-3.08697">
        <ele>163</ele>
        <time>2015-10-12T15:20:41.1Z</time>
      </trkpt>
      <trkpt lat="48.20689" lon="-3.08698">
        <ele>163</ele>
        <time>2015-10-12T15:20:44.1Z</time>
      </trkpt>
      <trkpt lat="48.20691" lon="-3.08699">
        <ele>163</ele>
        <time>2015-10-12T15:20:46.1Z</time>
      </trkpt>
      <trkpt lat="48.20692" lon="-3.08701">
        <ele>163</ele>
        <time>2015-10-12T15:20:49.1Z</time>
      </trkpt>
      <trkpt lat="48.20694" lon="-3.08703">
        <ele>163</ele>
        <time>2015-10-12T15:20:52.1Z</time>
      </trkpt>
      <trkpt lat="48.20695" lon="-3.08702">
        <ele>163</ele>
        <time>2015-10-12T15:20:54.1Z</time>
      </trkpt>
      <trkpt lat="48.20697" lon="-3.087">
        <ele>163</ele>
        <time>2015-10-12T15:20:57.1Z</time>
      </trkpt>
      <trkpt lat="48.20699" lon="-3.087">
        <ele>163</ele>
        <time>2015-10-12T15:20:59.1Z</time>
      </trkpt>
      <trkpt lat="48.20702" lon="-3.087">
        <ele>163</ele>
        <time>2015-10-12T15:21:02.1Z</time>
      </trkpt>
      <trkpt lat="48.20704" lon="-3.087">
        <ele>163</ele>
        <time>2015-10-12T15:21:04.1Z</time>
      </trkpt>
      <trkpt lat="48.20706" lon="-3.08701">
        <ele>163</ele>
        <time>2015-10-12T15:21:07.1Z</time>
      </trkpt>
      <trkpt lat="48.20709" lon="-3.08701">
        <ele>163</ele>
        <time>2015-10-12T15:21:10.1Z</time>
      </trkpt>
      <trkpt lat="48.20711" lon="-3.08702">
        <ele>163</ele>
        <time>2015-10-12T15:21:13.1Z</time>
      </trkpt>
      <trkpt lat="48.20712" lon="-3.08703">
        <ele>163</ele>
        <time>2015-10-12T15:21:15.1Z</time>
      </trkpt>
      <trkpt lat="48.20714" lon="-3.08705">
        <ele>163</ele>
        <time>2015-10-12T15:21:17.1Z</time>
      </trkpt>
      <trkpt lat="48.20715" lon="-3.08705">
        <ele>163</ele>
        <time>2015-10-12T15:21:19.1Z</time>
      </trkpt>
      <trkpt lat="48.20717" lon="-3.08705">
        <ele>163</ele>
        <time>2015-10-12T15:21:22.1Z</time>
      </trkpt>
      <trkpt lat="48.20718" lon="-3.08705">
        <ele>163</ele>
        <time>2015-10-12T15:21:24.1Z</time>
      </trkpt>
      <trkpt lat="48.20719" lon="-3.08703">
        <ele>163</ele>
        <time>2015-10-12T15:21:27.1Z</time>
      </trkpt>
      <trkpt lat="48.2072" lon="-3.08703">
        <ele>163</ele>
        <time>2015-10-12T15:21:29.1Z</time>
      </trkpt>
      <trkpt lat="48.2072" lon="-3.08703">
        <ele>163</ele>
        <time>2015-10-12T15:21:31.1Z</time>
      </trkpt>
      <trkpt lat="48.20721" lon="-3.08703">
        <ele>162</ele>
        <time>2015-10-12T15:21:34.1Z</time>
      </trkpt>
      <trkpt lat="48.20723" lon="-3.08703">
        <ele>163</ele>
        <time>2015-10-12T15:21:36.1Z</time>
      </trkpt>
      <trkpt lat="48.20724" lon="-3.08702">
        <ele>163</ele>
        <time>2015-10-12T15:21:39.1Z</time>
      </trkpt>
      <trkpt lat="48.20725" lon="-3.08703">
        <ele>163</ele>
        <time>2015-10-12T15:21:42.1Z</time>
      </trkpt>
      <trkpt lat="48.20727" lon="-3.08703">
        <ele>164</ele>
        <time>2015-10-12T15:21:45.1Z</time>
      </trkpt>
      <trkpt lat="48.20729" lon="-3.08702">
        <ele>164</ele>
        <time>2015-10-12T15:21:48.1Z</time>
      </trkpt>
      <trkpt lat="48.20729" lon="-3.08701">
        <ele>164</ele>
        <time>2015-10-12T15:21:50.1Z</time>
      </trkpt>
      <trkpt lat="48.2073" lon="-3.08699">
        <ele>164</ele>
        <time>2015-10-12T15:21:52.1Z</time>
      </trkpt>
      <trkpt lat="48.20731" lon="-3.08698">
        <ele>163</ele>
        <time>2015-10-12T15:21:54.1Z</time>
      </trkpt>
      <trkpt lat="48.20733" lon="-3.08697">
        <ele>163</ele>
        <time>2015-10-12T15:21:56.1Z</time>
      </trkpt>
      <trkpt lat="48.20736" lon="-3.08697">
        <ele>163</ele>
        <time>2015-10-12T15:21:59.1Z</time>
      </trkpt>
      <trkpt lat="48.20737" lon="-3.08697">
        <ele>163</ele>
        <time>2015-10-12T15:22:02.1Z</time>
      </trkpt>
      <trkpt lat="48.20739" lon="-3.08697">
        <ele>163</ele>
        <time>2015-10-12T15:22:04.1Z</time>
      </trkpt>
      <trkpt lat="48.2074" lon="-3.08697">
        <ele>163</ele>
        <time>2015-10-12T15:22:07.1Z</time>
      </trkpt>
      <trkpt lat="48.20741" lon="-3.08697">
        <ele>164</ele>
        <time>2015-10-12T15:22:10.1Z</time>
      </trkpt>
      <trkpt lat="48.20743" lon="-3.08698">
        <ele>164</ele>
        <time>2015-10-12T15:22:13.1Z</time>
      </trkpt>
      <trkpt lat="48.20744" lon="-3.08698">
        <ele>164</ele>
        <time>2015-10-12T15:22:16.1Z</time>
      </trkpt>
      <trkpt lat="48.20745" lon="-3.08697">
        <ele>164</ele>
        <time>2015-10-12T15:22:18.1Z</time>
      </trkpt>
      <trkpt lat="48.20745" lon="-3.08697">
        <ele>164</ele>
        <time>2015-10-12T15:22:20.1Z</time>
      </trkpt>
      <trkpt lat="48.20747" lon="-3.08696">
        <ele>163</ele>
        <time>2015-10-12T15:22:23.1Z</time>
      </trkpt>
      <trkpt lat="48.2075" lon="-3.08698">
        <ele>163</ele>
        <time>2015-10-12T15:22:26.1Z</time>
      </trkpt>
      <trkpt lat="48.2075" lon="-3.08697">
        <ele>163</ele>
        <time>2015-10-12T15:22:28.1Z</time>
      </trkpt>
      <trkpt lat="48.20753" lon="-3.08696">
        <ele>163</ele>
        <time>2015-10-12T15:22:31.1Z</time>
      </trkpt>
      <trkpt lat="48.20754" lon="-3.08697">
        <ele>163</ele>
        <time>2015-10-12T15:22:33.1Z</time>
      </trkpt>
      <trkpt lat="48.20756" lon="-3.08697">
        <ele>163</ele>
        <time>2015-10-12T15:22:35.1Z</time>
      </trkpt>
      <trkpt lat="48.20758" lon="-3.08698">
        <ele>163</ele>
        <time>2015-10-12T15:22:38.1Z</time>
      </trkpt>
      <trkpt lat="48.2076" lon="-3.08698">
        <ele>163</ele>
        <time>2015-10-12T15:22:40.1Z</time>
      </trkpt>
      <trkpt lat="48.20762" lon="-3.08699">
        <ele>163</ele>
        <time>2015-10-12T15:22:43.1Z</time>
      </trkpt>
      <trkpt lat="48.20764" lon="-3.08699">
        <ele>163</ele>
        <time>2015-10-12T15:22:46.1Z</time>
      </trkpt>
      <trkpt lat="48.20765" lon="-3.08699">
        <ele>163</ele>
        <time>2015-10-12T15:22:48.1Z</time>
      </trkpt>
      <trkpt lat="48.20766" lon="-3.08699">
        <ele>163</ele>
        <time>2015-10-12T15:22:51.1Z</time>
      </trkpt>
      <trkpt lat="48.20768" lon="-3.08702">
        <ele>163</ele>
        <time>2015-10-12T15:22:54.1Z</time>
      </trkpt>
      <trkpt lat="48.20769" lon="-3.08703">
        <ele>163</ele>
        <time>2015-10-12T15:22:56.1Z</time>
      </trkpt>
      <trkpt lat="48.2077" lon="-3.08703">
        <ele>163</ele>
        <time>2015-10-12T15:22:58.1Z</time>
      </trkpt>
      <trkpt lat="48.20771" lon="-3.08705">
        <ele>164</ele>
        <time>2015-10-12T15:23:01.1Z</time>
      </trkpt>
      <trkpt lat="48.20772" lon="-3.08707">
        <ele>164</ele>
        <time>2015-10-12T15:23:04.1Z</time>
      </trkpt>
      <trkpt lat="48.20773" lon="-3.08707">
        <ele>164</ele>
        <time>2015-10-12T15:23:06.1Z</time>
      </trkpt>
      <trkpt lat="48.20775" lon="-3.08708">
        <ele>165</ele>
        <time>2015-10-12T15:23:09.1Z</time>
      </trkpt>
      <trkpt lat="48.20776" lon="-3.08708">
        <ele>165</ele>
        <time>2015-10-12T15:23:11.1Z</time>
      </trkpt>
      <trkpt lat="48.20777" lon="-3.08709">
        <ele>165</ele>
        <time>2015-10-12T15:23:13.1Z</time>
      </trkpt>
      <trkpt lat="48.20777" lon="-3.08709">
        <ele>165</ele>
        <time>2015-10-12T15:23:15.1Z</time>
      </trkpt>
      <trkpt lat="48.20778" lon="-3.08709">
        <ele>164</ele>
        <time>2015-10-12T15:23:18.1Z</time>
      </trkpt>
      <trkpt lat="48.20779" lon="-3.08708">
        <ele>164</ele>
        <time>2015-10-12T15:23:20.1Z</time>
      </trkpt>
      <trkpt lat="48.20781" lon="-3.08707">
        <ele>164</ele>
        <time>2015-10-12T15:23:23.1Z</time>
      </trkpt>
      <trkpt lat="48.20783" lon="-3.08707">
        <ele>165</ele>
        <time>2015-10-12T15:23:26.1Z</time>
      </trkpt>
      <trkpt lat="48.20784" lon="-3.08708">
        <ele>165</ele>
        <time>2015-10-12T15:23:28.1Z</time>
      </trkpt>
      <trkpt lat="48.20784" lon="-3.08709">
        <ele>165</ele>
        <time>2015-10-12T15:23:30.1Z</time>
      </trkpt>
      <trkpt lat="48.20786" lon="-3.08709">
        <ele>165</ele>
        <time>2015-10-12T15:23:33.1Z</time>
      </trkpt>
      <trkpt lat="48.20787" lon="-3.08709">
        <ele>166</ele>
        <time>2015-10-12T15:23:35.1Z</time>
      </trkpt>
      <trkpt lat="48.20787" lon="-3.08711">
        <ele>166</ele>
        <time>2015-10-12T15:23:38.1Z</time>
      </trkpt>
      <trkpt lat="48.20787" lon="-3.08711">
        <ele>166</ele>
        <time>2015-10-12T15:23:40.1Z</time>
      </trkpt>
      <trkpt lat="48.20788" lon="-3.08712">
        <ele>167</ele>
        <time>2015-10-12T15:23:43.1Z</time>
      </trkpt>
      <trkpt lat="48.20789" lon="-3.08712">
        <ele>167</ele>
        <time>2015-10-12T15:23:45.1Z</time>
      </trkpt>
      <trkpt lat="48.20789" lon="-3.08712">
        <ele>168</ele>
        <time>2015-10-12T15:23:48.1Z</time>
      </trkpt>
      <trkpt lat="48.20789" lon="-3.08713">
        <ele>168</ele>
        <time>2015-10-12T15:23:51.1Z</time>
      </trkpt>
      <trkpt lat="48.20789" lon="-3.08712">
        <ele>168</ele>
        <time>2015-10-12T15:23:54.1Z</time>
      </trkpt>
      <trkpt lat="48.20788" lon="-3.08712">
        <ele>169</ele>
        <time>2015-10-12T15:23:56.1Z</time>
      </trkpt>
      <trkpt lat="48.20788" lon="-3.08712">
        <ele>169</ele>
        <time>2015-10-12T15:23:59.1Z</time>
      </trkpt>
      <trkpt lat="48.20787" lon="-3.0871">
        <ele>169</ele>
        <time>2015-10-12T15:24:02.1Z</time>
      </trkpt>
      <trkpt lat="48.20787" lon="-3.0871">
        <ele>169</ele>
        <time>2015-10-12T15:24:04.1Z</time>
      </trkpt>
      <trkpt lat="48.20787" lon="-3.0871">
        <ele>169</ele>
        <time>2015-10-12T15:24:06.1Z</time>
      </trkpt>
      <trkpt lat="48.20786" lon="-3.08711">
        <ele>169</ele>
        <time>2015-10-12T15:24:09.1Z</time>
      </trkpt>
      <trkpt lat="48.20787" lon="-3.08713">
        <ele>169</ele>
        <time>2015-10-12T15:24:11.1Z</time>
      </trkpt>
      <trkpt lat="48.20787" lon="-3.08714">
        <ele>170</ele>
        <time>2015-10-12T15:24:14.1Z</time>
      </trkpt>
      <trkpt lat="48.20787" lon="-3.08716">
        <ele>171</ele>
        <time>2015-10-12T15:24:16.1Z</time>
      </trkpt>
      <trkpt lat="48.20787" lon="-3.08717">
        <ele>171</ele>
        <time>2015-10-12T15:24:19.1Z</time>
      </trkpt>
      <trkpt lat="48.20789" lon="-3.08718">
        <ele>171</ele>
        <time>2015-10-12T15:24:22.1Z</time>
      </trkpt>
      <trkpt lat="48.20789" lon="-3.08718">
        <ele>172</ele>
        <time>2015-10-12T15:24:24.1Z</time>
      </trkpt>
      <trkpt lat="48.20788" lon="-3.08719">
        <ele>172</ele>
        <time>2015-10-12T15:24:27.1Z</time>
      </trkpt>
      <trkpt lat="48.20789" lon="-3.08719">
        <ele>172</ele>
        <time>2015-10-12T15:24:29.1Z</time>
      </trkpt>
      <trkpt lat="48.2079" lon="-3.08721">
        <ele>172</ele>
        <time>2015-10-12T15:24:32.1Z</time>
      </trkpt>
      <trkpt lat="48.20791" lon="-3.08722">
        <ele>172</ele>
        <time>2015-10-12T15:24:35.1Z</time>
      </trkpt>
      <trkpt lat="48.20792" lon="-3.08722">
        <ele>173</ele>
        <time>2015-10-12T15:24:37.1Z</time>
      </trkpt>
      <trkpt lat="48.20793" lon="-3.08721">
        <ele>173</ele>
        <time>2015-10-12T15:24:40.1Z</time>
      </trkpt>
      <trkpt lat="48.20794" lon="-3.08721">
        <ele>174</ele>
        <time>2015-10-12T15:24:43.1Z</time>
      </trkpt>
      <trkpt lat="48.20795" lon="-3.08723">
        <ele>174</ele>
        <time>2015-10-12T15:24:46.1Z</time>
      </trkpt>
      <trkpt lat="48.20795" lon="-3.08722">
        <ele>174</ele>
        <time>2015-10-12T15:24:49.1Z</time>
      </trkpt>
      <trkpt lat="48.20795" lon="-3.08724">
        <ele>174</ele>
        <time>2015-10-12T15:24:52.1Z</time>
      </trkpt>
      <trkpt lat="48.20794" lon="-3.08725">
        <ele>174</ele>
        <time>2015-10-12T15:24:55.1Z</time>
      </trkpt>
      <trkpt lat="48.20793" lon="-3.08726">
        <ele>175</ele>
        <time>2015-10-12T15:24:58.1Z</time>
      </trkpt>
      <trkpt lat="48.20792" lon="-3.08728">
        <ele>175</ele>
        <time>2015-10-12T15:25:01.1Z</time>
      </trkpt>
      <trkpt lat="48.20792" lon="-3.08729">
        <ele>175</ele>
        <time>2015-10-12T15:25:03.1Z</time>
      </trkpt>
      <trkpt lat="48.20792" lon="-3.0873">
        <ele>176</ele>
        <time>2015-10-12T15:25:05.1Z</time>
      </trkpt>
      <trkpt lat="48.20792" lon="-3.0873">
        <ele>176</ele>
        <time>2015-10-12T15:25:08.1Z</time>
      </trkpt>
      <trkpt lat="48.20791" lon="-3.08731">
        <ele>176</ele>
        <time>2015-10-12T15:25:11.1Z</time>
      </trkpt>
      <trkpt lat="48.20791" lon="-3.08731">
        <ele>176</ele>
        <time>2015-10-12T15:25:13.1Z</time>
      </trkpt>
      <trkpt lat="48.20791" lon="-3.08734">
        <ele>176</ele>
        <time>2015-10-12T15:25:16.1Z</time>
      </trkpt>
      <trkpt lat="48.20792" lon="-3.08736">
        <ele>177</ele>
        <time>2015-10-12T15:25:19.1Z</time>
      </trkpt>
      <trkpt lat="48.20792" lon="-3.08736">
        <ele>177</ele>
        <time>2015-10-12T15:25:21.1Z</time>
      </trkpt>
      <trkpt lat="48.20793" lon="-3.08736">
        <ele>178</ele>
        <time>2015-10-12T15:25:24.1Z</time>
      </trkpt>
      <trkpt lat="48.20793" lon="-3.08736">
        <ele>178</ele>
        <time>2015-10-12T15:25:27.1Z</time>
      </trkpt>
      <trkpt lat="48.20794" lon="-3.08736">
        <ele>178</ele>
        <time>2015-10-12T15:25:30.1Z</time>
      </trkpt>
      <trkpt lat="48.20794" lon="-3.08736">
        <ele>178</ele>
        <time>2015-10-12T15:25:32.1Z</time>
      </trkpt>
      <trkpt lat="48.20794" lon="-3.08737">
        <ele>178</ele>
        <time>2015-10-12T15:25:35.1Z</time>
      </trkpt>
      <trkpt lat="48.20793" lon="-3.08738">
        <ele>179</ele>
        <time>2015-10-12T15:25:38.1Z</time>
      </trkpt>
      <trkpt lat="48.20791" lon="-3.08737">
        <ele>180</ele>
        <time>2015-10-12T15:25:41.1Z</time>
      </trkpt>
      <trkpt lat="48.2079" lon="-3.08737">
        <ele>180</ele>
        <time>2015-10-12T15:25:44.1Z</time>
      </trkpt>
      <trkpt lat="48.20789" lon="-3.08736">
        <ele>181</ele>
        <time>2015-10-12T15:25:46.1Z</time>
      </trkpt>
      <trkpt lat="48.20788" lon="-3.08734">
        <ele>181</ele>
        <time>2015-10-12T15:25:49.1Z</time>
      </trkpt>
      <trkpt lat="48.20786" lon="-3.08734">
        <ele>181</ele>
        <time>2015-10-12T15:25:51.1Z</time>
      </trkpt>
      <trkpt lat="48.20784" lon="-3.08734">
        <ele>181</ele>
        <time>2015-10-12T15:25:54.1Z</time>
      </trkpt>
      <trkpt lat="48.20783" lon="-3.08734">
        <ele>182</ele>
        <time>2015-10-12T15:25:56.1Z</time>
      </trkpt>
      <trkpt lat="48.20782" lon="-3.08735">
        <ele>182</ele>
        <time>2015-10-12T15:25:59.1Z</time>
      </trkpt>
      <trkpt lat="48.20781" lon="-3.08734">
        <ele>182</ele>
        <time>2015-10-12T15:26:02.1Z</time>
      </trkpt>
      <trkpt lat="48.20781" lon="-3.08734">
        <ele>182</ele>
        <time>2015-10-12T15:26:04.1Z</time>
      </trkpt>
      <trkpt lat="48.20779" lon="-3.08734">
        <ele>182</ele>
        <time>2015-10-12T15:26:07.1Z</time>
      </trkpt>
      <trkpt lat="48.20779" lon="-3.08735">
        <ele>183</ele>
        <time>2015-10-12T15:26:09.1Z</time>
      </trkpt>
      <trkpt lat="48.20779" lon="-3.08737">
        <ele>183</ele>
        <time>2015-10-12T15:26:12.1Z</time>
      </trkpt>
      <trkpt lat="48.20779" lon="-3.08738">
        <ele>183</ele>
        <time>2015-10-12T15:26:14.1Z</time>
      </trkpt>
      <trkpt lat="48.20779" lon="-3.0874">
        <ele>184</ele>
        <time>2015-10-12T15:26:17.1Z</time>
      </trkpt>
      <trkpt lat="48.20779" lon="-3.08742">
        <ele>184</ele>
        <time>2015-10-12T15:26:19.1Z</time>
      </trkpt>
      <trkpt lat="48.20779" lon="-3.08743">
        <ele>184</ele>
        <time>2015-10-12T15:26:21.1Z</time>
      </trkpt>
      <trkpt lat="48.2078" lon="-3.08745">
        <ele>184</ele>
        <time>2015-10-12T15:26:24.1Z</time>
      </trkpt>
      <trkpt lat="48.20781" lon="-3.08747">
        <ele>185</ele>
        <time>2015-10-12T15:26:27.1Z</time>
      </trkpt>
      <trkpt lat="48.20782" lon="-3.08749">
        <ele>185</ele>
        <time>2015-10-12T15:26:29.1Z</time>
      </trkpt>
      <trkpt lat="48.20784" lon="-3.08749">
        <ele>185</ele>
        <time>2015-10-12T15:26:32.1Z</time>
      </trkpt>
      <trkpt lat="48.20785" lon="-3.08751">
        <ele>186</ele>
        <time>2015-10-12T15:26:34.1Z</time>
      </trkpt>
      <trkpt lat="48.20787" lon="-3.08753">
        <ele>187</ele>
        <time>2015-10-12T15:26:37.1Z</time>
      </trkpt>
      <trkpt lat="48.20787" lon="-3.08754">
        <ele>187</ele>
        <time>2015-10-12T15:26:39.1Z</time>
      </trkpt>
      <trkpt lat="48.20787" lon="-3.08756">
        <ele>187</ele>
        <time>2015-10-12T15:26:41.1Z</time>
      </trkpt>
      <trkpt lat="48.20787" lon="-3.08758">
        <ele>188</ele>
        <time>2015-10-12T15:26:44.1Z</time>
      </trkpt>
      <trkpt lat="48.20788" lon="-3.08759">
        <ele>188</ele>
        <time>2015-10-12T15:26:47.1Z</time>
      </trkpt>
      <trkpt lat="48.20788" lon="-3.08759">
        <ele>189</ele>
        <time>2015-10-12T15:26:49.1Z</time>
      </trkpt>
      <trkpt lat="48.20788" lon="-3.08762">
        <ele>189</ele>
        <time>2015-10-12T15:26:52.1Z</time>
      </trkpt>
      <trkpt lat="48.20787" lon="-3.08762">
        <ele>189</ele>
        <time>2015-10-12T15:26:54.1Z</time>
      </trkpt>
      <trkpt lat="48.20787" lon="-3.08763">
        <ele>189</ele>
        <time>2015-10-12T15:26:58.1Z</time>
      </trkpt>
      <trkpt lat="48.20787" lon="-3.08763">
        <ele>189</ele>
        <time>2015-10-12T15:27:00.1Z</time>
      </trkpt>
      <trkpt lat="48.20788" lon="-3.08763">
        <ele>189</ele>
        <time>2015-10-12T15:27:03.1Z</time>
      </trkpt>
      <trkpt lat="48.20788" lon="-3.08764">
        <ele>189</ele>
        <time>2015-10-12T15:27:05.1Z</time>
      </trkpt>
      <trkpt lat="48.20788" lon="-3.08764">
        <ele>189</ele>
        <time>2015-10-12T15:27:10.1Z</time>
      </trkpt>
      <trkpt lat="48.20788" lon="-3.08764">
        <ele>189</ele>
        <time>2015-10-12T15:27:13.1Z</time>
      </trkpt>
      <trkpt lat="48.20789" lon="-3.08764">
        <ele>190</ele>
        <time>2015-10-12T15:27:16.1Z</time>
      </trkpt>
      <trkpt lat="48.20789" lon="-3.08764">
        <ele>190</ele>
        <time>2015-10-12T15:27:18.1Z</time>
      </trkpt>
      <trkpt lat="48.20789" lon="-3.08764">
        <ele>190</ele>
        <time>2015-10-12T15:27:20.1Z</time>
      </trkpt>
      <trkpt lat="48.20789" lon="-3.08764">
        <ele>190</ele>
        <time>2015-10-12T15:27:22.1Z</time>
      </trkpt>
      <trkpt lat="48.20787" lon="-3.08765">
        <ele>191</ele>
        <time>2015-10-12T15:27:25.1Z</time>
      </trkpt>
      <trkpt lat="48.20786" lon="-3.08766">
        <ele>191</ele>
        <time>2015-10-12T15:27:28.1Z</time>
      </trkpt>
      <trkpt lat="48.20785" lon="-3.08766">
        <ele>191</ele>
        <time>2015-10-12T15:27:30.1Z</time>
      </trkpt>
      <trkpt lat="48.20784" lon="-3.08766">
        <ele>192</ele>
        <time>2015-10-12T15:27:32.1Z</time>
      </trkpt>
      <trkpt lat="48.20783" lon="-3.08768">
        <ele>192</ele>
        <time>2015-10-12T15:27:35.1Z</time>
      </trkpt>
      <trkpt lat="48.20783" lon="-3.08769">
        <ele>193</ele>
        <time>2015-10-12T15:27:38.1Z</time>
      </trkpt>
      <trkpt lat="48.20782" lon="-3.0877">
        <ele>193</ele>
        <time>2015-10-12T15:27:40.1Z</time>
      </trkpt>
      <trkpt lat="48.20781" lon="-3.08771">
        <ele>193</ele>
        <time>2015-10-12T15:27:43.1Z</time>
      </trkpt>
      <trkpt lat="48.2078" lon="-3.08772">
        <ele>194</ele>
        <time>2015-10-12T15:27:45.1Z</time>
      </trkpt>
      <trkpt lat="48.20778" lon="-3.08775">
        <ele>194</ele>
        <time>2015-10-12T15:27:48.1Z</time>
      </trkpt>
      <trkpt lat="48.20777" lon="-3.08777">
        <ele>195</ele>
        <time>2015-10-12T15:27:51.1Z</time>
      </trkpt>
      <trkpt lat="48.20776" lon="-3.08779">
        <ele>195</ele>
        <time>2015-10-12T15:27:54.1Z</time>
      </trkpt>
      <trkpt lat="48.20776" lon="-3.08781">
        <ele>195</ele>
        <time>2015-10-12T15:27:56.1Z</time>
      </trkpt>
      <trkpt lat="48.20776" lon="-3.08782">
        <ele>196</ele>
        <time>2015-10-12T15:27:59.1Z</time>
      </trkpt>
      <trkpt lat="48.20778" lon="-3.08783">
        <ele>196</ele>
        <time>2015-10-12T15:28:02.1Z</time>
      </trkpt>
      <trkpt lat="48.20779" lon="-3.08784">
        <ele>196</ele>
        <time>2015-10-12T15:28:04.1Z</time>
      </trkpt>
      <trkpt lat="48.20781" lon="-3.08784">
        <ele>196</ele>
        <time>2015-10-12T15:28:07.1Z</time>
      </trkpt>
      <trkpt lat="48.20782" lon="-3.08785">
        <ele>197</ele>
        <time>2015-10-12T15:28:09.1Z</time>
      </trkpt>
      <trkpt lat="48.20784" lon="-3.08787">
        <ele>197</ele>
        <time>2015-10-12T15:28:12.1Z</time>
      </trkpt>
      <trkpt lat="48.20785" lon="-3.08787">
        <ele>198</ele>
        <time>2015-10-12T15:28:14.1Z</time>
      </trkpt>
      <trkpt lat="48.20786" lon="-3.08787">
        <ele>198</ele>
        <time>2015-10-12T15:28:17.1Z</time>
      </trkpt>
      <trkpt lat="48.20787" lon="-3.08788">
        <ele>199</ele>
        <time>2015-10-12T15:28:20.1Z</time>
      </trkpt>
      <trkpt lat="48.20788" lon="-3.08788">
        <ele>199</ele>
        <time>2015-10-12T15:28:23.1Z</time>
      </trkpt>
      <trkpt lat="48.20789" lon="-3.08789">
        <ele>200</ele>
        <time>2015-10-12T15:28:26.1Z</time>
      </trkpt>
      <trkpt lat="48.20789" lon="-3.08789">
        <ele>200</ele>
        <time>2015-10-12T15:28:28.1Z</time>
      </trkpt>
      <trkpt lat="48.2079" lon="-3.08788">
        <ele>199</ele>
        <time>2015-10-12T15:28:31.1Z</time>
      </trkpt>
      <trkpt lat="48.20791" lon="-3.08788">
        <ele>200</ele>
        <time>2015-10-12T15:28:34.1Z</time>
      </trkpt>
      <trkpt lat="48.20792" lon="-3.08788">
        <ele>200</ele>
        <time>2015-10-12T15:28:36.1Z</time>
      </trkpt>
      <trkpt lat="48.20793" lon="-3.08788">
        <ele>200</ele>
        <time>2015-10-12T15:28:39.1Z</time>
      </trkpt>
      <trkpt lat="48.20793" lon="-3.08787">
        <ele>200</ele>
        <time>2015-10-12T15:28:41.1Z</time>
      </trkpt>
      <trkpt lat="48.20794" lon="-3.08787">
        <ele>199</ele>
        <time>2015-10-12T15:28:44.1Z</time>
      </trkpt>
      <trkpt lat="48.20795" lon="-3.08787">
        <ele>200</ele>
        <time>2015-10-12T15:28:47.1Z</time>
      </trkpt>
      <trkpt lat="48.20795" lon="-3.08787">
        <ele>200</ele>
        <time>2015-10-12T15:28:51.1Z</time>
      </trkpt>
      <trkpt lat="48.20796" lon="-3.08786">
        <ele>200</ele>
        <time>2015-10-12T15:28:55.1Z</time>
      </trkpt>
      <trkpt lat="48.20796" lon="-3.08786">
        <ele>200</ele>
        <time>2015-10-12T15:28:58.1Z</time>
      </trkpt>
      <trkpt lat="48.20795" lon="-3.08786">
        <ele>200</ele>
        <time>2015-10-12T15:29:00.1Z</time>
      </trkpt>
      <trkpt lat="48.20794" lon="-3.08785">
        <ele>200</ele>
        <time>2015-10-12T15:29:03.1Z</time>
      </trkpt>
      <trkpt lat="48.20794" lon="-3.08785">
        <ele>200</ele>
        <time>2015-10-12T15:29:05.1Z</time>
      </trkpt>
      <trkpt lat="48.20794" lon="-3.08784">
        <ele>200</ele>
        <time>2015-10-12T15:29:08.1Z</time>
      </trkpt>
      <trkpt lat="48.20795" lon="-3.08782">
        <ele>201</ele>
        <time>2015-10-12T15:29:10.1Z</time>
      </trkpt>
      <trkpt lat="48.20793" lon="-3.08781">
        <ele>200</ele>
        <time>2015-10-12T15:29:13.1Z</time>
      </trkpt>
      <trkpt lat="48.20794" lon="-3.08782">
        <ele>200</ele>
        <time>2015-10-12T15:29:16.1Z</time>
      </trkpt>
      <trkpt lat="48.20794" lon="-3.08782">
        <ele>200</ele>
        <time>2015-10-12T15:29:19.1Z</time>
      </trkpt>
      <trkpt lat="48.20794" lon="-3.08783">
        <ele>200</ele>
        <time>2015-10-12T15:29:21.1Z</time>
      </trkpt>
      <trkpt lat="48.20795" lon="-3.08784">
        <ele>200</ele>
        <time>2015-10-12T15:29:23.1Z</time>
      </trkpt>
      <trkpt lat="48.20795" lon="-3.08784">
        <ele>200</ele>
        <time>2015-10-12T15:29:27.1Z</time>
      </trkpt>
      <trkpt lat="48.20794" lon="-3.08783">
        <ele>199</ele>
        <time>2015-10-12T15:29:30.1Z</time>
      </trkpt>
      <trkpt lat="48.20794" lon="-3.08782">
        <ele>200</ele>
        <time>2015-10-12T15:29:33.1Z</time>
      </trkpt>
      <trkpt lat="48.20795" lon="-3.08783">
        <ele>200</ele>
        <time>2015-10-12T15:29:36.1Z</time>
      </trkpt>
      <trkpt lat="48.20795" lon="-3.08784">
        <ele>200</ele>
        <time>2015-10-12T15:29:38.1Z</time>
      </trkpt>
      <trkpt lat="48.20795" lon="-3.08785">
        <ele>201</ele>
        <time>2015-10-12T15:29:41.1Z</time>
      </trkpt>
      <trkpt lat="48.20795" lon="-3.08786">
        <ele>201</ele>
        <time>2015-10-12T15:29:43.1Z</time>
      </trkpt>
      <trkpt lat="48.20795" lon="-3.08788">
        <ele>201</ele>
        <time>2015-10-12T15:29:46.1Z</time>
      </trkpt>
      <trkpt lat="48.20795" lon="-3.08788">
        <ele>201</ele>
        <time>2015-10-12T15:29:48.1Z</time>
      </trkpt>
      <trkpt lat="48.20795" lon="-3.08789">
        <ele>201</ele>
        <time>2015-10-12T15:29:50.1Z</time>
      </trkpt>
      <trkpt lat="48.20795" lon="-3.0879">
        <ele>201</ele>
        <time>2015-10-12T15:29:53.1Z</time>
      </trkpt>
      <trkpt lat="48.20797" lon="-3.0879">
        <ele>201</ele>
        <time>2015-10-12T15:29:56.1Z</time>
      </trkpt>
      <trkpt lat="48.20798" lon="-3.08789">
        <ele>202</ele>
        <time>2015-10-12T15:29:59.1Z</time>
      </trkpt>
      <trkpt lat="48.20799" lon="-3.08788">
        <ele>202</ele>
        <time>2015-10-12T15:30:02.1Z</time>
      </trkpt>
      <trkpt lat="48.20799" lon="-3.08787">
        <ele>202</ele>
        <time>2015-10-12T15:30:05.1Z</time>
      </trkpt>
      <trkpt lat="48.208" lon="-3.08786">
        <ele>202</ele>
        <time>2015-10-12T15:30:07.1Z</time>
      </trkpt>
      <trkpt lat="48.208" lon="-3.08785">
        <ele>202</ele>
        <time>2015-10-12T15:30:10.1Z</time>
      </trkpt>
      <trkpt lat="48.20801" lon="-3.08785">
        <ele>202</ele>
        <time>2015-10-12T15:30:13.1Z</time>
      </trkpt>
      <trkpt lat="48.20801" lon="-3.08784">
        <ele>202</ele>
        <time>2015-10-12T15:30:15.1Z</time>
      </trkpt>
      <trkpt lat="48.208" lon="-3.08782">
        <ele>202</ele>
        <time>2015-10-12T15:30:17.1Z</time>
      </trkpt>
      <trkpt lat="48.20801" lon="-3.0878">
        <ele>202</ele>
        <time>2015-10-12T15:30:20.1Z</time>
      </trkpt>
      <trkpt lat="48.20802" lon="-3.08779">
        <ele>201</ele>
        <time>2015-10-12T15:30:23.1Z</time>
      </trkpt>
      <trkpt lat="48.20802" lon="-3.08779">
        <ele>201</ele>
        <time>2015-10-12T15:30:25.1Z</time>
      </trkpt>
      <trkpt lat="48.20803" lon="-3.08778">
        <ele>201</ele>
        <time>2015-10-12T15:30:27.1Z</time>
      </trkpt>
      <trkpt lat="48.20803" lon="-3.08778">
        <ele>201</ele>
        <time>2015-10-12T15:30:29.1Z</time>
      </trkpt>
      <trkpt lat="48.20803" lon="-3.08778">
        <ele>201</ele>
        <time>2015-10-12T15:30:32.1Z</time>
      </trkpt>
      <trkpt lat="48.20804" lon="-3.08777">
        <ele>201</ele>
        <time>2015-10-12T15:30:35.1Z</time>
      </trkpt>
      <trkpt lat="48.20804" lon="-3.08775">
        <ele>201</ele>
        <time>2015-10-12T15:30:38.1Z</time>
      </trkpt>
      <trkpt lat="48.20804" lon="-3.08775">
        <ele>201</ele>
        <time>2015-10-12T15:30:40.1Z</time>
      </trkpt>
      <trkpt lat="48.20804" lon="-3.08773">
        <ele>201</ele>
        <time>2015-10-12T15:30:43.1Z</time>
      </trkpt>
      <trkpt lat="48.20804" lon="-3.08772">
        <ele>200</ele>
        <time>2015-10-12T15:30:46.1Z</time>
      </trkpt>
      <trkpt lat="48.20804" lon="-3.08771">
        <ele>200</ele>
        <time>2015-10-12T15:30:49.1Z</time>
      </trkpt>
      <trkpt lat="48.20805" lon="-3.0877">
        <ele>200</ele>
        <time>2015-10-12T15:30:51.1Z</time>
      </trkpt>
      <trkpt lat="48.20805" lon="-3.08769">
        <ele>199</ele>
        <time>2015-10-12T15:30:54.1Z</time>
      </trkpt>
      <trkpt lat="48.20805" lon="-3.08768">
        <ele>199</ele>
        <time>2015-10-12T15:30:56.1Z</time>
      </trkpt>
      <trkpt lat="48.20805" lon="-3.08767">
        <ele>199</ele>
        <time>2015-10-12T15:30:59.1Z</time>
      </trkpt>
      <trkpt lat="48.20806" lon="-3.08767">
        <ele>199</ele>
        <time>2015-10-12T15:31:01.1Z</time>
      </trkpt>
      <trkpt lat="48.20806" lon="-3.08766">
        <ele>199</ele>
        <time>2015-10-12T15:31:04.1Z</time>
      </trkpt>
      <trkpt lat="48.20806" lon="-3.08765">
        <ele>199</ele>
        <time>2015-10-12T15:31:07.1Z</time>
      </trkpt>
      <trkpt lat="48.20806" lon="-3.08765">
        <ele>199</ele>
        <time>2015-10-12T15:31:09.1Z</time>
      </trkpt>
      <trkpt lat="48.20806" lon="-3.08765">
        <ele>199</ele>
        <time>2015-10-12T15:31:11.1Z</time>
      </trkpt>
      <trkpt lat="48.20806" lon="-3.08765">
        <ele>199</ele>
        <time>2015-10-12T15:31:14.1Z</time>
      </trkpt>
      <trkpt lat="48.20806" lon="-3.08764">
        <ele>198</ele>
        <time>2015-10-12T15:31:18.1Z</time>
      </trkpt>
      <trkpt lat="48.20807" lon="-3.08763">
        <ele>198</ele>
        <time>2015-10-12T15:31:21.1Z</time>
      </trkpt>
      <trkpt lat="48.20807" lon="-3.08763">
        <ele>198</ele>
        <time>2015-10-12T15:31:23.1Z</time>
      </trkpt>
      <trkpt lat="48.20807" lon="-3.08763">
        <ele>198</ele>
        <time>2015-10-12T15:31:26.1Z</time>
      </trkpt>
      <trkpt lat="48.20807" lon="-3.08762">
        <ele>198</ele>
        <time>2015-10-12T15:31:28.1Z</time>
      </trkpt>
      <trkpt lat="48.20807" lon="-3.08762">
        <ele>198</ele>
        <time>2015-10-12T15:31:31.1Z</time>
      </trkpt>
      <trkpt lat="48.20807" lon="-3.08762">
        <ele>198</ele>
        <time>2015-10-12T15:31:34.1Z</time>
      </trkpt>
      <trkpt lat="48.20806" lon="-3.08762">
        <ele>198</ele>
        <time>2015-10-12T15:31:36.1Z</time>
      </trkpt>
      <trkpt lat="48.20806" lon="-3.08762">
        <ele>198</ele>
        <time>2015-10-12T15:31:39.1Z</time>
      </trkpt>
      <trkpt lat="48.20806" lon="-3.08762">
        <ele>198</ele>
        <time>2015-10-12T15:31:43.1Z</time>
      </trkpt>
      <trkpt lat="48.20806" lon="-3.0876">
        <ele>197</ele>
        <time>2015-10-12T15:31:45.1Z</time>
      </trkpt>
      <trkpt lat="48.20805" lon="-3.08758">
        <ele>197</ele>
        <time>2015-10-12T15:31:48.1Z</time>
      </trkpt>
      <trkpt lat="48.20805" lon="-3.08755">
        <ele>196</ele>
        <time>2015-10-12T15:31:50.1Z</time>
      </trkpt>
      <trkpt lat="48.20805" lon="-3.08753">
        <ele>196</ele>
        <time>2015-10-12T15:31:53.1Z</time>
      </trkpt>
      <trkpt lat="48.20805" lon="-3.08752">
        <ele>196</ele>
        <time>2015-10-12T15:31:55.1Z</time>
      </trkpt>
      <trkpt lat="48.20805" lon="-3.08751">
        <ele>195</ele>
        <time>2015-10-12T15:31:57.1Z</time>
      </trkpt>
      <trkpt lat="48.20805" lon="-3.0875">
        <ele>195</ele>
        <time>2015-10-12T15:32:00.1Z</time>
      </trkpt>
      <trkpt lat="48.20805" lon="-3.08747">
        <ele>194</ele>
        <time>2015-10-12T15:32:03.1Z</time>
      </trkpt>
      <trkpt lat="48.20806" lon="-3.08745">
        <ele>194</ele>
        <time>2015-10-12T15:32:05.1Z</time>
      </trkpt>
      <trkpt lat="48.20806" lon="-3.08743">
        <ele>193</ele>
        <time>2015-10-12T15:32:08.1Z</time>
      </trkpt>
      <trkpt lat="48.20806" lon="-3.08741">
        <ele>193</ele>
        <time>2015-10-12T15:32:10.1Z</time>
      </trkpt>
      <trkpt lat="48.20808" lon="-3.08739">
        <ele>192</ele>
        <time>2015-10-12T15:32:13.1Z</time>
      </trkpt>
      <trkpt lat="48.20808" lon="-3.08738">
        <ele>192</ele>
        <time>2015-10-12T15:32:15.1Z</time>
      </trkpt>
      <trkpt lat="48.20808" lon="-3.08738">
        <ele>192</ele>
        <time>2015-10-12T15:32:17.1Z</time>
      </trkpt>
      <trkpt lat="48.20809" lon="-3.08737">
        <ele>191</ele>
        <time>2015-10-12T15:32:20.1Z</time>
      </trkpt>
      <trkpt lat="48.20809" lon="-3.08735">
        <ele>191</ele>
        <time>2015-10-12T15:32:22.1Z</time>
      </trkpt>
      <trkpt lat="48.2081" lon="-3.08733">
        <ele>191</ele>
        <time>2015-10-12T15:32:25.1Z</time>
      </trkpt>
      <trkpt lat="48.2081" lon="-3.08731">
        <ele>190</ele>
        <time>2015-10-12T15:32:28.1Z</time>
      </trkpt>
      <trkpt lat="48.2081" lon="-3.08729">
        <ele>189</ele>
        <time>2015-10-12T15:32:31.1Z</time>
      </trkpt>
      <trkpt lat="48.20811" lon="-3.08729">
        <ele>189</ele>
        <time>2015-10-12T15:32:33.1Z</time>
      </trkpt>
      <trkpt lat="48.20812" lon="-3.08729">
        <ele>189</ele>
        <time>2015-10-12T15:32:35.1Z</time>
      </trkpt>
      <trkpt lat="48.20812" lon="-3.08728">
        <ele>189</ele>
        <time>2015-10-12T15:32:38.1Z</time>
      </trkpt>
      <trkpt lat="48.20813" lon="-3.08726">
        <ele>189</ele>
        <time>2015-10-12T15:32:40.1Z</time>
      </trkpt>
      <trkpt lat="48.20813" lon="-3.08724">
        <ele>188</ele>
        <time>2015-10-12T15:32:43.1Z</time>
      </trkpt>
      <trkpt lat="48.20816" lon="-3.08723">
        <ele>187</ele>
        <time>2015-10-12T15:32:46.1Z</time>
      </trkpt>
      <trkpt lat="48.20817" lon="-3.08722">
        <ele>187</ele>
        <time>2015-10-12T15:32:48.1Z</time>
      </trkpt>
      <trkpt lat="48.20818" lon="-3.08722">
        <ele>187</ele>
        <time>2015-10-12T15:32:50.1Z</time>
      </trkpt>
      <trkpt lat="48.20818" lon="-3.08722">
        <ele>187</ele>
        <time>2015-10-12T15:32:54.1Z</time>
      </trkpt>
      <trkpt lat="48.20818" lon="-3.08722">
        <ele>188</ele>
        <time>2015-10-12T15:32:57.1Z</time>
      </trkpt>
      <trkpt lat="48.20819" lon="-3.08722">
        <ele>189</ele>
        <time>2015-10-12T15:32:59.1Z</time>
      </trkpt>
      <trkpt lat="48.20819" lon="-3.08722">
        <ele>189</ele>
        <time>2015-10-12T15:33:02.1Z</time>
      </trkpt>
      <trkpt lat="48.2082" lon="-3.08722">
        <ele>190</ele>
        <time>2015-10-12T15:33:05.1Z</time>
      </trkpt>
      <trkpt lat="48.2082" lon="-3.08723">
        <ele>190</ele>
        <time>2015-10-12T15:33:08.1Z</time>
      </trkpt>
      <trkpt lat="48.20821" lon="-3.08724">
        <ele>191</ele>
        <time>2015-10-12T15:33:10.1Z</time>
      </trkpt>
      <trkpt lat="48.20821" lon="-3.08723">
        <ele>191</ele>
        <time>2015-10-12T15:33:13.1Z</time>
      </trkpt>
      <trkpt lat="48.20822" lon="-3.08723">
        <ele>192</ele>
        <time>2015-10-12T15:33:15.1Z</time>
      </trkpt>
      <trkpt lat="48.20822" lon="-3.08723">
        <ele>192</ele>
        <time>2015-10-12T15:33:17.1Z</time>
      </trkpt>
      <trkpt lat="48.20824" lon="-3.08723">
        <ele>192</ele>
        <time>2015-10-12T15:33:20.1Z</time>
      </trkpt>
      <trkpt lat="48.20824" lon="-3.08723">
        <ele>193</ele>
        <time>2015-10-12T15:33:23.1Z</time>
      </trkpt>
      <trkpt lat="48.20825" lon="-3.08723">
        <ele>193</ele>
        <time>2015-10-12T15:33:25.1Z</time>
      </trkpt>
      <trkpt lat="48.20825" lon="-3.08724">
        <ele>193</ele>
        <time>2015-10-12T15:33:27.1Z</time>
      </trkpt>
      <trkpt lat="48.20826" lon="-3.08725">
        <ele>193</ele>
        <time>2015-10-12T15:33:30.1Z</time>
      </trkpt>
      <trkpt lat="48.20827" lon="-3.08726">
        <ele>194</ele>
        <time>2015-10-12T15:33:32.1Z</time>
      </trkpt>
      <trkpt lat="48.20828" lon="-3.08727">
        <ele>194</ele>
        <time>2015-10-12T15:33:35.1Z</time>
      </trkpt>
      <trkpt lat="48.20829" lon="-3.08728">
        <ele>194</ele>
        <time>2015-10-12T15:33:38.1Z</time>
      </trkpt>
      <trkpt lat="48.2083" lon="-3.08729">
        <ele>194</ele>
        <time>2015-10-12T15:33:40.1Z</time>
      </trkpt>
      <trkpt lat="48.20831" lon="-3.08729">
        <ele>195</ele>
        <time>2015-10-12T15:33:43.1Z</time>
      </trkpt>
      <trkpt lat="48.20831" lon="-3.0873">
        <ele>195</ele>
        <time>2015-10-12T15:33:45.1Z</time>
      </trkpt>
      <trkpt lat="48.20832" lon="-3.08731">
        <ele>196</ele>
        <time>2015-10-12T15:33:47.1Z</time>
      </trkpt>
      <trkpt lat="48.20833" lon="-3.08731">
        <ele>196</ele>
        <time>2015-10-12T15:33:49.1Z</time>
      </trkpt>
      <trkpt lat="48.20834" lon="-3.08733">
        <ele>196</ele>
        <time>2015-10-12T15:33:52.1Z</time>
      </trkpt>
      <trkpt lat="48.20835" lon="-3.08734">
        <ele>196</ele>
        <time>2015-10-12T15:33:54.1Z</time>
      </trkpt>
      <trkpt lat="48.20836" lon="-3.08734">
        <ele>196</ele>
        <time>2015-10-12T15:33:57.1Z</time>
      </trkpt>
      <trkpt lat="48.20837" lon="-3.08735">
        <ele>197</ele>
        <time>2015-10-12T15:34:00.1Z</time>
      </trkpt>
      <trkpt lat="48.20839" lon="-3.08736">
        <ele>198</ele>
        <time>2015-10-12T15:34:03.1Z</time>
      </trkpt>
      <trkpt lat="48.20839" lon="-3.08736">
        <ele>198</ele>
        <time>2015-10-12T15:34:05.1Z</time>
      </trkpt>
      <trkpt lat="48.2084" lon="-3.08737">
        <ele>199</ele>
        <time>2015-10-12T15:34:07.1Z</time>
      </trkpt>
      <trkpt lat="48.20842" lon="-3.08738">
        <ele>199</ele>
        <time>2015-10-12T15:34:10.1Z</time>
      </trkpt>
      <trkpt lat="48.20842" lon="-3.08739">
        <ele>200</ele>
        <time>2015-10-12T15:34:12.1Z</time>
      </trkpt>
      <trkpt lat="48.20844" lon="-3.08739">
        <ele>200</ele>
        <time>2015-10-12T15:34:14.1Z</time>
      </trkpt>
      <trkpt lat="48.20844" lon="-3.0874">
        <ele>201</ele>
        <time>2015-10-12T15:34:16.1Z</time>
      </trkpt>
      <trkpt lat="48.20845" lon="-3.0874">
        <ele>201</ele>
        <time>2015-10-12T15:34:19.1Z</time>
      </trkpt>
      <trkpt lat="48.20847" lon="-3.08741">
        <ele>201</ele>
        <time>2015-10-12T15:34:22.1Z</time>
      </trkpt>
      <trkpt lat="48.20848" lon="-3.08742">
        <ele>202</ele>
        <time>2015-10-12T15:34:24.1Z</time>
      </trkpt>
      <trkpt lat="48.20849" lon="-3.08744">
        <ele>202</ele>
        <time>2015-10-12T15:34:27.1Z</time>
      </trkpt>
      <trkpt lat="48.20851" lon="-3.08745">
        <ele>202</ele>
        <time>2015-10-12T15:34:29.1Z</time>
      </trkpt>
      <trkpt lat="48.20852" lon="-3.08746">
        <ele>202</ele>
        <time>2015-10-12T15:34:31.1Z</time>
      </trkpt>
      <trkpt lat="48.20853" lon="-3.08748">
        <ele>202</ele>
        <time>2015-10-12T15:34:33.1Z</time>
      </trkpt>
      <trkpt lat="48.20854" lon="-3.0875">
        <ele>203</ele>
        <time>2015-10-12T15:34:35.1Z</time>
      </trkpt>
      <trkpt lat="48.20855" lon="-3.08752">
        <ele>203</ele>
        <time>2015-10-12T15:34:38.1Z</time>
      </trkpt>
      <trkpt lat="48.20855" lon="-3.08753">
        <ele>203</ele>
        <time>2015-10-12T15:34:40.1Z</time>
      </trkpt>
      <trkpt lat="48.20856" lon="-3.08753">
        <ele>202</ele>
        <time>2015-10-12T15:34:42.1Z</time>
      </trkpt>
      <trkpt lat="48.20857" lon="-3.08754">
        <ele>202</ele>
        <time>2015-10-12T15:34:44.1Z</time>
      </trkpt>
      <trkpt lat="48.20859" lon="-3.08755">
        <ele>202</ele>
        <time>2015-10-12T15:34:47.1Z</time>
      </trkpt>
      <trkpt lat="48.20861" lon="-3.08755">
        <ele>201</ele>
        <time>2015-10-12T15:34:50.1Z</time>
      </trkpt>
      <trkpt lat="48.20863" lon="-3.08756">
        <ele>201</ele>
        <time>2015-10-12T15:34:52.1Z</time>
      </trkpt>
      <trkpt lat="48.20864" lon="-3.08756">
        <ele>201</ele>
        <time>2015-10-12T15:34:54.1Z</time>
      </trkpt>
      <trkpt lat="48.20866" lon="-3.08758">
        <ele>200</ele>
        <time>2015-10-12T15:34:57.1Z</time>
      </trkpt>
      <trkpt lat="48.20868" lon="-3.0876">
        <ele>200</ele>
        <time>2015-10-12T15:34:59.1Z</time>
      </trkpt>
      <trkpt lat="48.2087" lon="-3.08762">
        <ele>200</ele>
        <time>2015-10-12T15:35:02.1Z</time>
      </trkpt>
      <trkpt lat="48.20871" lon="-3.08764">
        <ele>199</ele>
        <time>2015-10-12T15:35:04.1Z</time>
      </trkpt>
      <trkpt lat="48.20872" lon="-3.08764">
        <ele>199</ele>
        <time>2015-10-12T15:35:07.1Z</time>
      </trkpt>
      <trkpt lat="48.20874" lon="-3.08765">
        <ele>198</ele>
        <time>2015-10-12T15:35:09.1Z</time>
      </trkpt>
      <trkpt lat="48.20876" lon="-3.08766">
        <ele>198</ele>
        <time>2015-10-12T15:35:12.1Z</time>
      </trkpt>
      <trkpt lat="48.20878" lon="-3.08767">
        <ele>198</ele>
        <time>2015-10-12T15:35:14.1Z</time>
      </trkpt>
      <trkpt lat="48.20879" lon="-3.08768">
        <ele>198</ele>
        <time>2015-10-12T15:35:16.1Z</time>
      </trkpt>
      <trkpt lat="48.20881" lon="-3.0877">
        <ele>198</ele>
        <time>2015-10-12T15:35:18.1Z</time>
      </trkpt>
      <trkpt lat="48.20883" lon="-3.08773">
        <ele>197</ele>
        <time>2015-10-12T15:35:21.1Z</time>
      </trkpt>
      <trkpt lat="48.20884" lon="-3.08775">
        <ele>197</ele>
        <time>2015-10-12T15:35:24.1Z</time>
      </trkpt>
      <trkpt lat="48.20885" lon="-3.08777">
        <ele>197</ele>
        <time>2015-10-12T15:35:27.1Z</time>
      </trkpt>
      <trkpt lat="48.20886" lon="-3.08779">
        <ele>197</ele>
        <time>2015-10-12T15:35:30.1Z</time>
      </trkpt>
      <trkpt lat="48.20887" lon="-3.08781">
        <ele>197</ele>
        <time>2015-10-12T15:35:33.1Z</time>
      </trkpt>
      <trkpt lat="48.20888" lon="-3.08783">
        <ele>197</ele>
        <time>2015-10-12T15:35:35.1Z</time>
      </trkpt>
      <trkpt lat="48.2089" lon="-3.08786">
        <ele>197</ele>
        <time>2015-10-12T15:35:38.1Z</time>
      </trkpt>
      <trkpt lat="48.20891" lon="-3.08787">
        <ele>197</ele>
        <time>2015-10-12T15:35:40.1Z</time>
      </trkpt>
      <trkpt lat="48.20892" lon="-3.0879">
        <ele>197</ele>
        <time>2015-10-12T15:35:43.1Z</time>
      </trkpt>
      <trkpt lat="48.20894" lon="-3.08791">
        <ele>197</ele>
        <time>2015-10-12T15:35:45.1Z</time>
      </trkpt>
      <trkpt lat="48.20896" lon="-3.08793">
        <ele>196</ele>
        <time>2015-10-12T15:35:48.1Z</time>
      </trkpt>
      <trkpt lat="48.20897" lon="-3.08794">
        <ele>196</ele>
        <time>2015-10-12T15:35:50.1Z</time>
      </trkpt>
      <trkpt lat="48.20898" lon="-3.08797">
        <ele>195</ele>
        <time>2015-10-12T15:35:53.1Z</time>
      </trkpt>
      <trkpt lat="48.20899" lon="-3.08801">
        <ele>195</ele>
        <time>2015-10-12T15:35:56.1Z</time>
      </trkpt>
      <trkpt lat="48.20901" lon="-3.08803">
        <ele>194</ele>
        <time>2015-10-12T15:35:59.1Z</time>
      </trkpt>
      <trkpt lat="48.20901" lon="-3.08804">
        <ele>194</ele>
        <time>2015-10-12T15:36:01.1Z</time>
      </trkpt>
      <trkpt lat="48.20902" lon="-3.08804">
        <ele>194</ele>
        <time>2015-10-12T15:36:03.1Z</time>
      </trkpt>
      <trkpt lat="48.20903" lon="-3.08804">
        <ele>193</ele>
        <time>2015-10-12T15:36:05.1Z</time>
      </trkpt>
      <trkpt lat="48.20904" lon="-3.08804">
        <ele>192</ele>
        <time>2015-10-12T15:36:07.1Z</time>
      </trkpt>
      <trkpt lat="48.20906" lon="-3.08804">
        <ele>192</ele>
        <time>2015-10-12T15:36:10.1Z</time>
      </trkpt>
      <trkpt lat="48.20908" lon="-3.08804">
        <ele>191</ele>
        <time>2015-10-12T15:36:12.1Z</time>
      </trkpt>
      <trkpt lat="48.20909" lon="-3.08805">
        <ele>190</ele>
        <time>2015-10-12T15:36:15.1Z</time>
      </trkpt>
      <trkpt lat="48.2091" lon="-3.08804">
        <ele>189</ele>
        <time>2015-10-12T15:36:17.1Z</time>
      </trkpt>
      <trkpt lat="48.20913" lon="-3.08805">
        <ele>188</ele>
        <time>2015-10-12T15:36:20.1Z</time>
      </trkpt>
      <trkpt lat="48.20914" lon="-3.08808">
        <ele>188</ele>
        <time>2015-10-12T15:36:22.1Z</time>
      </trkpt>
      <trkpt lat="48.20916" lon="-3.08812">
        <ele>188</ele>
        <time>2015-10-12T15:36:25.1Z</time>
      </trkpt>
      <trkpt lat="48.20918" lon="-3.08814">
        <ele>188</ele>
        <time>2015-10-12T15:36:28.1Z</time>
      </trkpt>
      <trkpt lat="48.20919" lon="-3.08815">
        <ele>188</ele>
        <time>2015-10-12T15:36:30.1Z</time>
      </trkpt>
      <trkpt lat="48.2092" lon="-3.08816">
        <ele>188</ele>
        <time>2015-10-12T15:36:32.1Z</time>
      </trkpt>
      <trkpt lat="48.20922" lon="-3.08817">
        <ele>188</ele>
        <time>2015-10-12T15:36:34.1Z</time>
      </trkpt>
      <trkpt lat="48.20924" lon="-3.08817">
        <ele>188</ele>
        <time>2015-10-12T15:36:37.1Z</time>
      </trkpt>
      <trkpt lat="48.20926" lon="-3.08817">
        <ele>188</ele>
        <time>2015-10-12T15:36:39.1Z</time>
      </trkpt>
      <trkpt lat="48.20929" lon="-3.08817">
        <ele>187</ele>
        <time>2015-10-12T15:36:42.1Z</time>
      </trkpt>
      <trkpt lat="48.20931" lon="-3.08817">
        <ele>187</ele>
        <time>2015-10-12T15:36:44.1Z</time>
      </trkpt>
      <trkpt lat="48.20933" lon="-3.08816">
        <ele>186</ele>
        <time>2015-10-12T15:36:46.1Z</time>
      </trkpt>
      <trkpt lat="48.20935" lon="-3.08816">
        <ele>186</ele>
        <time>2015-10-12T15:36:48.1Z</time>
      </trkpt>
      <trkpt lat="48.20937" lon="-3.08815">
        <ele>185</ele>
        <time>2015-10-12T15:36:50.1Z</time>
      </trkpt>
      <trkpt lat="48.2094" lon="-3.08812">
        <ele>185</ele>
        <time>2015-10-12T15:36:53.1Z</time>
      </trkpt>
      <trkpt lat="48.20941" lon="-3.0881">
        <ele>184</ele>
        <time>2015-10-12T15:36:55.1Z</time>
      </trkpt>
      <trkpt lat="48.20943" lon="-3.08808">
        <ele>184</ele>
        <time>2015-10-12T15:36:58.1Z</time>
      </trkpt>
      <trkpt lat="48.20943" lon="-3.08807">
        <ele>184</ele>
        <time>2015-10-12T15:37:01.1Z</time>
      </trkpt>
      <trkpt lat="48.20945" lon="-3.08805">
        <ele>183</ele>
        <time>2015-10-12T15:37:04.1Z</time>
      </trkpt>
      <trkpt lat="48.20947" lon="-3.08804">
        <ele>183</ele>
        <time>2015-10-12T15:37:06.1Z</time>
      </trkpt>
      <trkpt lat="48.20948" lon="-3.08802">
        <ele>183</ele>
        <time>2015-10-12T15:37:09.1Z</time>
      </trkpt>
      <trkpt lat="48.20951" lon="-3.08799">
        <ele>182</ele>
        <time>2015-10-12T15:37:12.1Z</time>
      </trkpt>
      <trkpt lat="48.20951" lon="-3.08796">
        <ele>182</ele>
        <time>2015-10-12T15:37:14.1Z</time>
      </trkpt>
      <trkpt lat="48.20952" lon="-3.08793">
        <ele>181</ele>
        <time>2015-10-12T15:37:17.1Z</time>
      </trkpt>
      <trkpt lat="48.20953" lon="-3.08791">
        <ele>181</ele>
        <time>2015-10-12T15:37:19.1Z</time>
      </trkpt>
      <trkpt lat="48.20954" lon="-3.08789">
        <ele>181</ele>
        <time>2015-10-12T15:37:22.1Z</time>
      </trkpt>
      <trkpt lat="48.20955" lon="-3.08787">
        <ele>180</ele>
        <time>2015-10-12T15:37:24.1Z</time>
      </trkpt>
      <trkpt lat="48.20956" lon="-3.08786">
        <ele>180</ele>
        <time>2015-10-12T15:37:26.1Z</time>
      </trkpt>
      <trkpt lat="48.20957" lon="-3.08783">
        <ele>179</ele>
        <time>2015-10-12T15:37:29.1Z</time>
      </trkpt>
      <trkpt lat="48.20958" lon="-3.08781">
        <ele>179</ele>
        <time>2015-10-12T15:37:31.1Z</time>
      </trkpt>
      <trkpt lat="48.20959" lon="-3.0878">
        <ele>179</ele>
        <time>2015-10-12T15:37:33.1Z</time>
      </trkpt>
      <trkpt lat="48.2096" lon="-3.08779">
        <ele>178</ele>
        <time>2015-10-12T15:37:36.1Z</time>
      </trkpt>
      <trkpt lat="48.20962" lon="-3.08778">
        <ele>178</ele>
        <time>2015-10-12T15:37:39.1Z</time>
      </trkpt>
      <trkpt lat="48.20964" lon="-3.08778">
        <ele>177</ele>
        <time>2015-10-12T15:37:42.1Z</time>
      </trkpt>
      <trkpt lat="48.20966" lon="-3.08777">
        <ele>177</ele>
        <time>2015-10-12T15:37:44.1Z</time>
      </trkpt>
      <trkpt lat="48.20968" lon="-3.08777">
        <ele>177</ele>
        <time>2015-10-12T15:37:47.1Z</time>
      </trkpt>
      <trkpt lat="48.20969" lon="-3.08777">
        <ele>176</ele>
        <time>2015-10-12T15:37:50.1Z</time>
      </trkpt>
      <trkpt lat="48.2097" lon="-3.08777">
        <ele>176</ele>
        <time>2015-10-12T15:37:53.1Z</time>
      </trkpt>
      <trkpt lat="48.20972" lon="-3.08777">
        <ele>176</ele>
        <time>2015-10-12T15:37:56.1Z</time>
      </trkpt>
      <trkpt lat="48.20972" lon="-3.08776">
        <ele>175</ele>
        <time>2015-10-12T15:37:58.1Z</time>
      </trkpt>
      <trkpt lat="48.20974" lon="-3.08775">
        <ele>175</ele>
        <time>2015-10-12T15:38:00.1Z</time>
      </trkpt>
      <trkpt lat="48.20976" lon="-3.08775">
        <ele>174</ele>
        <time>2015-10-12T15:38:03.1Z</time>
      </trkpt>
      <trkpt lat="48.20978" lon="-3.08775">
        <ele>174</ele>
        <time>2015-10-12T15:38:06.1Z</time>
      </trkpt>
      <trkpt lat="48.20979" lon="-3.08775">
        <ele>173</ele>
        <time>2015-10-12T15:38:08.1Z</time>
      </trkpt>
      <trkpt lat="48.20981" lon="-3.08773">
        <ele>173</ele>
        <time>2015-10-12T15:38:11.1Z</time>
      </trkpt>
      <trkpt lat="48.20984" lon="-3.08769">
        <ele>173</ele>
        <time>2015-10-12T15:38:14.1Z</time>
      </trkpt>
      <trkpt lat="48.20984" lon="-3.08767">
        <ele>173</ele>
        <time>2015-10-12T15:38:16.1Z</time>
      </trkpt>
      <trkpt lat="48.20984" lon="-3.08763">
        <ele>173</ele>
        <time>2015-10-12T15:38:19.1Z</time>
      </trkpt>
      <trkpt lat="48.20985" lon="-3.0876">
        <ele>172</ele>
        <time>2015-10-12T15:38:21.1Z</time>
      </trkpt>
      <trkpt lat="48.20985" lon="-3.08759">
        <ele>172</ele>
        <time>2015-10-12T15:38:24.1Z</time>
      </trkpt>
      <trkpt lat="48.20986" lon="-3.08758">
        <ele>172</ele>
        <time>2015-10-12T15:38:26.1Z</time>
      </trkpt>
      <trkpt lat="48.20986" lon="-3.08757">
        <ele>172</ele>
        <time>2015-10-12T15:38:28.1Z</time>
      </trkpt>
      <trkpt lat="48.20987" lon="-3.08754">
        <ele>172</ele>
        <time>2015-10-12T15:38:31.1Z</time>
      </trkpt>
      <trkpt lat="48.20987" lon="-3.08753">
        <ele>172</ele>
        <time>2015-10-12T15:38:34.1Z</time>
      </trkpt>
      <trkpt lat="48.20986" lon="-3.08753">
        <ele>172</ele>
        <time>2015-10-12T15:38:36.1Z</time>
      </trkpt>
      <trkpt lat="48.20986" lon="-3.08751">
        <ele>172</ele>
        <time>2015-10-12T15:38:39.1Z</time>
      </trkpt>
      <trkpt lat="48.20986" lon="-3.08749">
        <ele>172</ele>
        <time>2015-10-12T15:38:41.1Z</time>
      </trkpt>
      <trkpt lat="48.20986" lon="-3.08747">
        <ele>172</ele>
        <time>2015-10-12T15:38:44.1Z</time>
      </trkpt>
      <trkpt lat="48.20987" lon="-3.08745">
        <ele>172</ele>
        <time>2015-10-12T15:38:47.1Z</time>
      </trkpt>
      <trkpt lat="48.20987" lon="-3.08744">
        <ele>172</ele>
        <time>2015-10-12T15:38:49.1Z</time>
      </trkpt>
      <trkpt lat="48.20987" lon="-3.08745">
        <ele>171</ele>
        <time>2015-10-12T15:38:52.1Z</time>
      </trkpt>
      <trkpt lat="48.20987" lon="-3.08745">
        <ele>171</ele>
        <time>2015-10-12T15:38:56.1Z</time>
      </trkpt>
      <trkpt lat="48.20986" lon="-3.08745">
        <ele>171</ele>
        <time>2015-10-12T15:38:59.1Z</time>
      </trkpt>
      <trkpt lat="48.20986" lon="-3.08746">
        <ele>171</ele>
        <time>2015-10-12T15:39:01.1Z</time>
      </trkpt>
      <trkpt lat="48.20986" lon="-3.08747">
        <ele>171</ele>
        <time>2015-10-12T15:39:03.1Z</time>
      </trkpt>
      <trkpt lat="48.20987" lon="-3.08746">
        <ele>171</ele>
        <time>2015-10-12T15:39:06.1Z</time>
      </trkpt>
      <trkpt lat="48.20988" lon="-3.08746">
        <ele>171</ele>
        <time>2015-10-12T15:39:08.1Z</time>
      </trkpt>
      <trkpt lat="48.20988" lon="-3.08745">
        <ele>170</ele>
        <time>2015-10-12T15:39:10.1Z</time>
      </trkpt>
      <trkpt lat="48.20989" lon="-3.08746">
        <ele>169</ele>
        <time>2015-10-12T15:39:13.1Z</time>
      </trkpt>
      <trkpt lat="48.2099" lon="-3.08748">
        <ele>169</ele>
        <time>2015-10-12T15:39:15.1Z</time>
      </trkpt>
      <trkpt lat="48.20991" lon="-3.08748">
        <ele>168</ele>
        <time>2015-10-12T15:39:18.1Z</time>
      </trkpt>
      <trkpt lat="48.20993" lon="-3.08747">
        <ele>168</ele>
        <time>2015-10-12T15:39:20.1Z</time>
      </trkpt>
      <trkpt lat="48.20995" lon="-3.08746">
        <ele>168</ele>
        <time>2015-10-12T15:39:23.1Z</time>
      </trkpt>
      <trkpt lat="48.20997" lon="-3.08745">
        <ele>167</ele>
        <time>2015-10-12T15:39:26.1Z</time>
      </trkpt>
      <trkpt lat="48.21" lon="-3.08745">
        <ele>167</ele>
        <time>2015-10-12T15:39:29.1Z</time>
      </trkpt>
      <trkpt lat="48.21001" lon="-3.08745">
        <ele>166</ele>
        <time>2015-10-12T15:39:31.1Z</time>
      </trkpt>
      <trkpt lat="48.21002" lon="-3.08745">
        <ele>166</ele>
        <time>2015-10-12T15:39:33.1Z</time>
      </trkpt>
      <trkpt lat="48.21004" lon="-3.08743">
        <ele>166</ele>
        <time>2015-10-12T15:39:36.1Z</time>
      </trkpt>
      <trkpt lat="48.21005" lon="-3.08741">
        <ele>166</ele>
        <time>2015-10-12T15:39:38.1Z</time>
      </trkpt>
      <trkpt lat="48.21006" lon="-3.08738">
        <ele>165</ele>
        <time>2015-10-12T15:39:40.1Z</time>
      </trkpt>
      <trkpt lat="48.21007" lon="-3.08736">
        <ele>165</ele>
        <time>2015-10-12T15:39:42.1Z</time>
      </trkpt>
      <trkpt lat="48.2101" lon="-3.08734">
        <ele>164</ele>
        <time>2015-10-12T15:39:45.1Z</time>
      </trkpt>
      <trkpt lat="48.21012" lon="-3.08734">
        <ele>163</ele>
        <time>2015-10-12T15:39:48.1Z</time>
      </trkpt>
      <trkpt lat="48.21014" lon="-3.08733">
        <ele>163</ele>
        <time>2015-10-12T15:39:50.1Z</time>
      </trkpt>
      <trkpt lat="48.21016" lon="-3.08734">
        <ele>163</ele>
        <time>2015-10-12T15:39:53.1Z</time>
      </trkpt>
      <trkpt lat="48.21018" lon="-3.08735">
        <ele>162</ele>
        <time>2015-10-12T15:39:55.1Z</time>
      </trkpt>
      <trkpt lat="48.21021" lon="-3.08737">
        <ele>162</ele>
        <time>2015-10-12T15:39:58.1Z</time>
      </trkpt>
      <trkpt lat="48.21022" lon="-3.08739">
        <ele>162</ele>
        <time>2015-10-12T15:40:00.1Z</time>
      </trkpt>
      <trkpt lat="48.21024" lon="-3.08742">
        <ele>162</ele>
        <time>2015-10-12T15:40:03.1Z</time>
      </trkpt>
      <trkpt lat="48.21025" lon="-3.08744">
        <ele>161</ele>
        <time>2015-10-12T15:40:05.1Z</time>
      </trkpt>
      <trkpt lat="48.21027" lon="-3.08747">
        <ele>161</ele>
        <time>2015-10-12T15:40:08.1Z</time>
      </trkpt>
      <trkpt lat="48.21029" lon="-3.0875">
        <ele>161</ele>
        <time>2015-10-12T15:40:11.1Z</time>
      </trkpt>
      <trkpt lat="48.21031" lon="-3.08751">
        <ele>161</ele>
        <time>2015-10-12T15:40:14.1Z</time>
      </trkpt>
      <trkpt lat="48.21034" lon="-3.08753">
        <ele>162</ele>
        <time>2015-10-12T15:40:17.1Z</time>
      </trkpt>
      <trkpt lat="48.21035" lon="-3.08754">
        <ele>162</ele>
        <time>2015-10-12T15:40:19.1Z</time>
      </trkpt>
      <trkpt lat="48.21036" lon="-3.08757">
        <ele>162</ele>
        <time>2015-10-12T15:40:22.1Z</time>
      </trkpt>
      <trkpt lat="48.21039" lon="-3.08759">
        <ele>161</ele>
        <time>2015-10-12T15:40:25.1Z</time>
      </trkpt>
      <trkpt lat="48.21041" lon="-3.08762">
        <ele>161</ele>
        <time>2015-10-12T15:40:28.1Z</time>
      </trkpt>
      <trkpt lat="48.21042" lon="-3.08764">
        <ele>162</ele>
        <time>2015-10-12T15:40:30.1Z</time>
      </trkpt>
      <trkpt lat="48.21043" lon="-3.08768">
        <ele>162</ele>
        <time>2015-10-12T15:40:33.1Z</time>
      </trkpt>
      <trkpt lat="48.21045" lon="-3.0877">
        <ele>162</ele>
        <time>2015-10-12T15:40:35.1Z</time>
      </trkpt>
      <trkpt lat="48.21047" lon="-3.08773">
        <ele>162</ele>
        <time>2015-10-12T15:40:38.1Z</time>
      </trkpt>
      <trkpt lat="48.21048" lon="-3.08775">
        <ele>162</ele>
        <time>2015-10-12T15:40:40.1Z</time>
      </trkpt>
      <trkpt lat="48.21049" lon="-3.08776">
        <ele>162</ele>
        <time>2015-10-12T15:40:42.1Z</time>
      </trkpt>
      <trkpt lat="48.21052" lon="-3.08777">
        <ele>162</ele>
        <time>2015-10-12T15:40:45.1Z</time>
      </trkpt>
      <trkpt lat="48.21055" lon="-3.08779">
        <ele>162</ele>
        <time>2015-10-12T15:40:48.1Z</time>
      </trkpt>
      <trkpt lat="48.21057" lon="-3.08781">
        <ele>162</ele>
        <time>2015-10-12T15:40:50.1Z</time>
      </trkpt>
      <trkpt lat="48.21058" lon="-3.08782">
        <ele>162</ele>
        <time>2015-10-12T15:40:52.1Z</time>
      </trkpt>
      <trkpt lat="48.2106" lon="-3.08784">
        <ele>162</ele>
        <time>2015-10-12T15:40:54.1Z</time>
      </trkpt>
      <trkpt lat="48.21063" lon="-3.08785">
        <ele>162</ele>
        <time>2015-10-12T15:40:57.1Z</time>
      </trkpt>
      <trkpt lat="48.21065" lon="-3.08786">
        <ele>162</ele>
        <time>2015-10-12T15:40:59.1Z</time>
      </trkpt>
      <trkpt lat="48.21069" lon="-3.08787">
        <ele>162</ele>
        <time>2015-10-12T15:41:02.1Z</time>
      </trkpt>
      <trkpt lat="48.2107" lon="-3.08787">
        <ele>161</ele>
        <time>2015-10-12T15:41:04.1Z</time>
      </trkpt>
      <trkpt lat="48.21073" lon="-3.08786">
        <ele>161</ele>
        <time>2015-10-12T15:41:07.1Z</time>
      </trkpt>
      <trkpt lat="48.21077" lon="-3.08786">
        <ele>160</ele>
        <time>2015-10-12T15:41:10.1Z</time>
      </trkpt>
      <trkpt lat="48.21078" lon="-3.08786">
        <ele>161</ele>
        <time>2015-10-12T15:41:12.1Z</time>
      </trkpt>
      <trkpt lat="48.21081" lon="-3.08787">
        <ele>160</ele>
        <time>2015-10-12T15:41:15.1Z</time>
      </trkpt>
      <trkpt lat="48.21083" lon="-3.08788">
        <ele>161</ele>
        <time>2015-10-12T15:41:18.1Z</time>
      </trkpt>
      <trkpt lat="48.21087" lon="-3.0879">
        <ele>161</ele>
        <time>2015-10-12T15:41:21.1Z</time>
      </trkpt>
      <trkpt lat="48.21089" lon="-3.08792">
        <ele>161</ele>
        <time>2015-10-12T15:41:24.1Z</time>
      </trkpt>
      <trkpt lat="48.21091" lon="-3.08794">
        <ele>161</ele>
        <time>2015-10-12T15:41:26.1Z</time>
      </trkpt>
      <trkpt lat="48.21093" lon="-3.08796">
        <ele>161</ele>
        <time>2015-10-12T15:41:29.1Z</time>
      </trkpt>
      <trkpt lat="48.21095" lon="-3.08798">
        <ele>161</ele>
        <time>2015-10-12T15:41:31.1Z</time>
      </trkpt>
      <trkpt lat="48.21098" lon="-3.08801">
        <ele>161</ele>
        <time>2015-10-12T15:41:34.1Z</time>
      </trkpt>
      <trkpt lat="48.21101" lon="-3.08803">
        <ele>161</ele>
        <time>2015-10-12T15:41:37.1Z</time>
      </trkpt>
      <trkpt lat="48.21102" lon="-3.08804">
        <ele>161</ele>
        <time>2015-10-12T15:41:39.1Z</time>
      </trkpt>
      <trkpt lat="48.21104" lon="-3.08807">
        <ele>161</ele>
        <time>2015-10-12T15:41:42.1Z</time>
      </trkpt>
      <trkpt lat="48.21106" lon="-3.08809">
        <ele>162</ele>
        <time>2015-10-12T15:41:45.1Z</time>
      </trkpt>
      <trkpt lat="48.21108" lon="-3.0881">
        <ele>162</ele>
        <time>2015-10-12T15:41:48.1Z</time>
      </trkpt>
      <trkpt lat="48.21109" lon="-3.08813">
        <ele>162</ele>
        <time>2015-10-12T15:41:50.1Z</time>
      </trkpt>
      <trkpt lat="48.21111" lon="-3.08815">
        <ele>162</ele>
        <time>2015-10-12T15:41:53.1Z</time>
      </trkpt>
      <trkpt lat="48.21114" lon="-3.08818">
        <ele>162</ele>
        <time>2015-10-12T15:41:56.1Z</time>
      </trkpt>
      <trkpt lat="48.21116" lon="-3.0882">
        <ele>162</ele>
        <time>2015-10-12T15:41:58.1Z</time>
      </trkpt>
      <trkpt lat="48.21119" lon="-3.08822">
        <ele>162</ele>
        <time>2015-10-12T15:42:01.1Z</time>
      </trkpt>
      <trkpt lat="48.21122" lon="-3.08824">
        <ele>162</ele>
        <time>2015-10-12T15:42:04.1Z</time>
      </trkpt>
      <trkpt lat="48.21122" lon="-3.08825">
        <ele>162</ele>
        <time>2015-10-12T15:42:06.1Z</time>
      </trkpt>
      <trkpt lat="48.21124" lon="-3.08827">
        <ele>162</ele>
        <time>2015-10-12T15:42:08.1Z</time>
      </trkpt>
      <trkpt lat="48.21125" lon="-3.08829">
        <ele>163</ele>
        <time>2015-10-12T15:42:11.1Z</time>
      </trkpt>
      <trkpt lat="48.21127" lon="-3.08832">
        <ele>163</ele>
        <time>2015-10-12T15:42:14.1Z</time>
      </trkpt>
      <trkpt lat="48.21128" lon="-3.08833">
        <ele>163</ele>
        <time>2015-10-12T15:42:16.1Z</time>
      </trkpt>
      <trkpt lat="48.2113" lon="-3.08834">
        <ele>163</ele>
        <time>2015-10-12T15:42:18.1Z</time>
      </trkpt>
      <trkpt lat="48.21132" lon="-3.08834">
        <ele>163</ele>
        <time>2015-10-12T15:42:20.1Z</time>
      </trkpt>
      <trkpt lat="48.21135" lon="-3.08834">
        <ele>162</ele>
        <time>2015-10-12T15:42:23.1Z</time>
      </trkpt>
      <trkpt lat="48.21138" lon="-3.08833">
        <ele>162</ele>
        <time>2015-10-12T15:42:26.1Z</time>
      </trkpt>
      <trkpt lat="48.2114" lon="-3.08832">
        <ele>162</ele>
        <time>2015-10-12T15:42:29.1Z</time>
      </trkpt>
      <trkpt lat="48.21141" lon="-3.08832">
        <ele>163</ele>
        <time>2015-10-12T15:42:31.1Z</time>
      </trkpt>
      <trkpt lat="48.21145" lon="-3.0883">
        <ele>163</ele>
        <time>2015-10-12T15:42:34.1Z</time>
      </trkpt>
      <trkpt lat="48.21146" lon="-3.08829">
        <ele>163</ele>
        <time>2015-10-12T15:42:36.1Z</time>
      </trkpt>
      <trkpt lat="48.21149" lon="-3.08827">
        <ele>163</ele>
        <time>2015-10-12T15:42:39.1Z</time>
      </trkpt>
      <trkpt lat="48.21151" lon="-3.08826">
        <ele>163</ele>
        <time>2015-10-12T15:42:41.1Z</time>
      </trkpt>
      <trkpt lat="48.21153" lon="-3.08824">
        <ele>163</ele>
        <time>2015-10-12T15:42:44.1Z</time>
      </trkpt>
      <trkpt lat="48.21155" lon="-3.08822">
        <ele>163</ele>
        <time>2015-10-12T15:42:46.1Z</time>
      </trkpt>
      <trkpt lat="48.21156" lon="-3.0882">
        <ele>164</ele>
        <time>2015-10-12T15:42:48.1Z</time>
      </trkpt>
      <trkpt lat="48.21158" lon="-3.08817">
        <ele>164</ele>
        <time>2015-10-12T15:42:50.1Z</time>
      </trkpt>
      <trkpt lat="48.21159" lon="-3.08813">
        <ele>164</ele>
        <time>2015-10-12T15:42:52.1Z</time>
      </trkpt>
      <trkpt lat="48.2116" lon="-3.08809">
        <ele>164</ele>
        <time>2015-10-12T15:42:55.1Z</time>
      </trkpt>
      <trkpt lat="48.21161" lon="-3.08806">
        <ele>164</ele>
        <time>2015-10-12T15:42:57.1Z</time>
      </trkpt>
      <trkpt lat="48.21161" lon="-3.08803">
        <ele>164</ele>
        <time>2015-10-12T15:43:00.1Z</time>
      </trkpt>
      <trkpt lat="48.21161" lon="-3.08801">
        <ele>165</ele>
        <time>2015-10-12T15:43:02.1Z</time>
      </trkpt>
      <trkpt lat="48.21161" lon="-3.08798">
        <ele>165</ele>
        <time>2015-10-12T15:43:04.1Z</time>
      </trkpt>
      <trkpt lat="48.21161" lon="-3.08796">
        <ele>166</ele>
        <time>2015-10-12T15:43:07.1Z</time>
      </trkpt>
      <trkpt lat="48.21161" lon="-3.08795">
        <ele>166</ele>
        <time>2015-10-12T15:43:10.1Z</time>
      </trkpt>
      <trkpt lat="48.2116" lon="-3.08794">
        <ele>167</ele>
        <time>2015-10-12T15:43:13.1Z</time>
      </trkpt>
      <trkpt lat="48.2116" lon="-3.08794">
        <ele>167</ele>
        <time>2015-10-12T15:43:15.1Z</time>
      </trkpt>
      <trkpt lat="48.21159" lon="-3.08793">
        <ele>167</ele>
        <time>2015-10-12T15:43:18.1Z</time>
      </trkpt>
      <trkpt lat="48.21159" lon="-3.08792">
        <ele>167</ele>
        <time>2015-10-12T15:43:21.1Z</time>
      </trkpt>
      <trkpt lat="48.21158" lon="-3.08792">
        <ele>167</ele>
        <time>2015-10-12T15:43:24.1Z</time>
      </trkpt>
      <trkpt lat="48.21157" lon="-3.08791">
        <ele>167</ele>
        <time>2015-10-12T15:43:27.1Z</time>
      </trkpt>
      <trkpt lat="48.21157" lon="-3.08791">
        <ele>167</ele>
        <time>2015-10-12T15:43:29.1Z</time>
      </trkpt>
      <trkpt lat="48.21155" lon="-3.08792">
        <ele>167</ele>
        <time>2015-10-12T15:43:32.1Z</time>
      </trkpt>
      <trkpt lat="48.21155" lon="-3.08792">
        <ele>166</ele>
        <time>2015-10-12T15:43:34.1Z</time>
      </trkpt>
      <trkpt lat="48.21154" lon="-3.08793">
        <ele>167</ele>
        <time>2015-10-12T15:43:37.1Z</time>
      </trkpt>
      <trkpt lat="48.21154" lon="-3.08793">
        <ele>167</ele>
        <time>2015-10-12T15:43:39.1Z</time>
      </trkpt>
      <trkpt lat="48.21154" lon="-3.08793">
        <ele>167</ele>
        <time>2015-10-12T15:43:41.1Z</time>
      </trkpt>
      <trkpt lat="48.21153" lon="-3.08794">
        <ele>167</ele>
        <time>2015-10-12T15:43:44.1Z</time>
      </trkpt>
      <trkpt lat="48.21153" lon="-3.08794">
        <ele>167</ele>
        <time>2015-10-12T15:43:47.1Z</time>
      </trkpt>
      <trkpt lat="48.21153" lon="-3.08794">
        <ele>167</ele>
        <time>2015-10-12T15:43:49.1Z</time>
      </trkpt>
      <trkpt lat="48.21152" lon="-3.08795">
        <ele>167</ele>
        <time>2015-10-12T15:43:51.1Z</time>
      </trkpt>
      <trkpt lat="48.21151" lon="-3.08795">
        <ele>167</ele>
        <time>2015-10-12T15:43:53.1Z</time>
      </trkpt>
      <trkpt lat="48.21151" lon="-3.08793">
        <ele>167</ele>
        <time>2015-10-12T15:43:56.1Z</time>
      </trkpt>
      <trkpt lat="48.21151" lon="-3.08791">
        <ele>167</ele>
        <time>2015-10-12T15:43:58.1Z</time>
      </trkpt>
      <trkpt lat="48.2115" lon="-3.08788">
        <ele>168</ele>
        <time>2015-10-12T15:44:01.1Z</time>
      </trkpt>
      <trkpt lat="48.21151" lon="-3.08787">
        <ele>168</ele>
        <time>2015-10-12T15:44:03.1Z</time>
      </trkpt>
      <trkpt lat="48.21151" lon="-3.08784">
        <ele>168</ele>
        <time>2015-10-12T15:44:06.1Z</time>
      </trkpt>
      <trkpt lat="48.21151" lon="-3.0878">
        <ele>169</ele>
        <time>2015-10-12T15:44:09.1Z</time>
      </trkpt>
      <trkpt lat="48.21151" lon="-3.08777">
        <ele>169</ele>
        <time>2015-10-12T15:44:11.1Z</time>
      </trkpt>
      <trkpt lat="48.21151" lon="-3.08775">
        <ele>170</ele>
        <time>2015-10-12T15:44:14.1Z</time>
      </trkpt>
      <trkpt lat="48.21151" lon="-3.08771">
        <ele>171</ele>
        <time>2015-10-12T15:44:17.1Z</time>
      </trkpt>
      <trkpt lat="48.21152" lon="-3.08769">
        <ele>171</ele>
        <time>2015-10-12T15:44:19.1Z</time>
      </trkpt>
      <trkpt lat="48.21152" lon="-3.08766">
        <ele>171</ele>
        <time>2015-10-12T15:44:22.1Z</time>
      </trkpt>
      <trkpt lat="48.21152" lon="-3.08763">
        <ele>171</ele>
        <time>2015-10-12T15:44:24.1Z</time>
      </trkpt>
      <trkpt lat="48.21152" lon="-3.08761">
        <ele>172</ele>
        <time>2015-10-12T15:44:26.1Z</time>
      </trkpt>
      <trkpt lat="48.21153" lon="-3.08759">
        <ele>172</ele>
        <time>2015-10-12T15:44:28.1Z</time>
      </trkpt>
      <trkpt lat="48.21152" lon="-3.08756">
        <ele>172</ele>
        <time>2015-10-12T15:44:31.1Z</time>
      </trkpt>
      <trkpt lat="48.21153" lon="-3.08754">
        <ele>172</ele>
        <time>2015-10-12T15:44:33.1Z</time>
      </trkpt>
      <trkpt lat="48.21152" lon="-3.08752">
        <ele>172</ele>
        <time>2015-10-12T15:44:36.1Z</time>
      </trkpt>
      <trkpt lat="48.21152" lon="-3.08749">
        <ele>173</ele>
        <time>2015-10-12T15:44:39.1Z</time>
      </trkpt>
      <trkpt lat="48.21153" lon="-3.08747">
        <ele>174</ele>
        <time>2015-10-12T15:44:41.1Z</time>
      </trkpt>
      <trkpt lat="48.21153" lon="-3.08743">
        <ele>174</ele>
        <time>2015-10-12T15:44:44.1Z</time>
      </trkpt>
      <trkpt lat="48.21153" lon="-3.08741">
        <ele>174</ele>
        <time>2015-10-12T15:44:46.1Z</time>
      </trkpt>
      <trkpt lat="48.21153" lon="-3.08736">
        <ele>174</ele>
        <time>2015-10-12T15:44:49.1Z</time>
      </trkpt>
      <trkpt lat="48.21153" lon="-3.08733">
        <ele>175</ele>
        <time>2015-10-12T15:44:51.1Z</time>
      </trkpt>
      <trkpt lat="48.21153" lon="-3.08729">
        <ele>175</ele>
        <time>2015-10-12T15:44:54.1Z</time>
      </trkpt>
      <trkpt lat="48.21152" lon="-3.08727">
        <ele>175</ele>
        <time>2015-10-12T15:44:56.1Z</time>
      </trkpt>
      <trkpt lat="48.21152" lon="-3.08723">
        <ele>175</ele>
        <time>2015-10-12T15:44:59.1Z</time>
      </trkpt>
      <trkpt lat="48.21152" lon="-3.08721">
        <ele>175</ele>
        <time>2015-10-12T15:45:01.1Z</time>
      </trkpt>
      <trkpt lat="48.21151" lon="-3.08719">
        <ele>176</ele>
        <time>2015-10-12T15:45:03.1Z</time>
      </trkpt>
      <trkpt lat="48.21151" lon="-3.08717">
        <ele>176</ele>
        <time>2015-10-12T15:45:05.1Z</time>
      </trkpt>
      <trkpt lat="48.21151" lon="-3.08712">
        <ele>176</ele>
        <time>2015-10-12T15:45:08.1Z</time>
      </trkpt>
      <trkpt lat="48.2115" lon="-3.0871">
        <ele>176</ele>
        <time>2015-10-12T15:45:10.1Z</time>
      </trkpt>
      <trkpt lat="48.2115" lon="-3.08705">
        <ele>175</ele>
        <time>2015-10-12T15:45:13.1Z</time>
      </trkpt>
      <trkpt lat="48.21149" lon="-3.08702">
        <ele>175</ele>
        <time>2015-10-12T15:45:15.1Z</time>
      </trkpt>
      <trkpt lat="48.21149" lon="-3.08696">
        <ele>175</ele>
        <time>2015-10-12T15:45:18.1Z</time>
      </trkpt>
      <trkpt lat="48.21148" lon="-3.08691">
        <ele>176</ele>
        <time>2015-10-12T15:45:21.1Z</time>
      </trkpt>
      <trkpt lat="48.21148" lon="-3.08687">
        <ele>176</ele>
        <time>2015-10-12T15:45:23.1Z</time>
      </trkpt>
      <trkpt lat="48.21147" lon="-3.08683">
        <ele>176</ele>
        <time>2015-10-12T15:45:26.1Z</time>
      </trkpt>
      <trkpt lat="48.21147" lon="-3.0868">
        <ele>176</ele>
        <time>2015-10-12T15:45:28.1Z</time>
      </trkpt>
      <trkpt lat="48.21147" lon="-3.08675">
        <ele>176</ele>
        <time>2015-10-12T15:45:31.1Z</time>
      </trkpt>
      <trkpt lat="48.21147" lon="-3.08669">
        <ele>176</ele>
        <time>2015-10-12T15:45:34.1Z</time>
      </trkpt>
      <trkpt lat="48.21146" lon="-3.08666">
        <ele>176</ele>
        <time>2015-10-12T15:45:36.1Z</time>
      </trkpt>
      <trkpt lat="48.21145" lon="-3.08663">
        <ele>176</ele>
        <time>2015-10-12T15:45:38.1Z</time>
      </trkpt>
      <trkpt lat="48.21145" lon="-3.08658">
        <ele>175</ele>
        <time>2015-10-12T15:45:41.1Z</time>
      </trkpt>
      <trkpt lat="48.21146" lon="-3.08655">
        <ele>175</ele>
        <time>2015-10-12T15:45:43.1Z</time>
      </trkpt>
      <trkpt lat="48.21145" lon="-3.08651">
        <ele>175</ele>
        <time>2015-10-12T15:45:46.1Z</time>
      </trkpt>
      <trkpt lat="48.21145" lon="-3.08647">
        <ele>175</ele>
        <time>2015-10-12T15:45:48.1Z</time>
      </trkpt>
      <trkpt lat="48.21144" lon="-3.08644">
        <ele>175</ele>
        <time>2015-10-12T15:45:50.1Z</time>
      </trkpt>
      <trkpt lat="48.21144" lon="-3.08639">
        <ele>175</ele>
        <time>2015-10-12T15:45:53.1Z</time>
      </trkpt>
      <trkpt lat="48.21144" lon="-3.08634">
        <ele>175</ele>
        <time>2015-10-12T15:45:56.1Z</time>
      </trkpt>
      <trkpt lat="48.21144" lon="-3.08629">
        <ele>175</ele>
        <time>2015-10-12T15:45:59.1Z</time>
      </trkpt>
      <trkpt lat="48.21144" lon="-3.08626">
        <ele>175</ele>
        <time>2015-10-12T15:46:01.1Z</time>
      </trkpt>
      <trkpt lat="48.21143" lon="-3.08622">
        <ele>175</ele>
        <time>2015-10-12T15:46:04.1Z</time>
      </trkpt>
      <trkpt lat="48.21143" lon="-3.08618">
        <ele>175</ele>
        <time>2015-10-12T15:46:06.1Z</time>
      </trkpt>
      <trkpt lat="48.21142" lon="-3.08613">
        <ele>176</ele>
        <time>2015-10-12T15:46:09.1Z</time>
      </trkpt>
      <trkpt lat="48.21141" lon="-3.08608">
        <ele>175</ele>
        <time>2015-10-12T15:46:12.1Z</time>
      </trkpt>
      <trkpt lat="48.21141" lon="-3.08603">
        <ele>175</ele>
        <time>2015-10-12T15:46:15.1Z</time>
      </trkpt>
      <trkpt lat="48.21141" lon="-3.086">
        <ele>175</ele>
        <time>2015-10-12T15:46:17.1Z</time>
      </trkpt>
      <trkpt lat="48.21141" lon="-3.08596">
        <ele>175</ele>
        <time>2015-10-12T15:46:20.1Z</time>
      </trkpt>
      <trkpt lat="48.2114" lon="-3.08593">
        <ele>175</ele>
        <time>2015-10-12T15:46:22.1Z</time>
      </trkpt>
      <trkpt lat="48.2114" lon="-3.0859">
        <ele>175</ele>
        <time>2015-10-12T15:46:24.1Z</time>
      </trkpt>
      <trkpt lat="48.21139" lon="-3.08588">
        <ele>175</ele>
        <time>2015-10-12T15:46:26.1Z</time>
      </trkpt>
      <trkpt lat="48.21138" lon="-3.08583">
        <ele>175</ele>
        <time>2015-10-12T15:46:29.1Z</time>
      </trkpt>
      <trkpt lat="48.21138" lon="-3.0858">
        <ele>174</ele>
        <time>2015-10-12T15:46:31.1Z</time>
      </trkpt>
      <trkpt lat="48.21138" lon="-3.08575">
        <ele>174</ele>
        <time>2015-10-12T15:46:34.1Z</time>
      </trkpt>
      <trkpt lat="48.21138" lon="-3.08572">
        <ele>174</ele>
        <time>2015-10-12T15:46:36.1Z</time>
      </trkpt>
      <trkpt lat="48.21138" lon="-3.08569">
        <ele>174</ele>
        <time>2015-10-12T15:46:39.1Z</time>
      </trkpt>
      <trkpt lat="48.21138" lon="-3.08567">
        <ele>174</ele>
        <time>2015-10-12T15:46:41.1Z</time>
      </trkpt>
      <trkpt lat="48.21137" lon="-3.08563">
        <ele>174</ele>
        <time>2015-10-12T15:46:44.1Z</time>
      </trkpt>
      <trkpt lat="48.21138" lon="-3.0856">
        <ele>174</ele>
        <time>2015-10-12T15:46:47.1Z</time>
      </trkpt>
      <trkpt lat="48.21137" lon="-3.08558">
        <ele>174</ele>
        <time>2015-10-12T15:46:49.1Z</time>
      </trkpt>
      <trkpt lat="48.21138" lon="-3.08557">
        <ele>173</ele>
        <time>2015-10-12T15:46:51.1Z</time>
      </trkpt>
      <trkpt lat="48.21137" lon="-3.08556">
        <ele>174</ele>
        <time>2015-10-12T15:46:54.1Z</time>
      </trkpt>
      <trkpt lat="48.21136" lon="-3.08554">
        <ele>174</ele>
        <time>2015-10-12T15:46:56.1Z</time>
      </trkpt>
      <trkpt lat="48.21136" lon="-3.0855">
        <ele>174</ele>
        <time>2015-10-12T15:46:58.1Z</time>
      </trkpt>
      <trkpt lat="48.21136" lon="-3.08547">
        <ele>175</ele>
        <time>2015-10-12T15:47:01.1Z</time>
      </trkpt>
      <trkpt lat="48.21137" lon="-3.08544">
        <ele>175</ele>
        <time>2015-10-12T15:47:04.1Z</time>
      </trkpt>
      <trkpt lat="48.21136" lon="-3.08541">
        <ele>175</ele>
        <time>2015-10-12T15:47:07.1Z</time>
      </trkpt>
      <trkpt lat="48.21137" lon="-3.08538">
        <ele>176</ele>
        <time>2015-10-12T15:47:09.1Z</time>
      </trkpt>
      <trkpt lat="48.21136" lon="-3.08536">
        <ele>176</ele>
        <time>2015-10-12T15:47:11.1Z</time>
      </trkpt>
      <trkpt lat="48.21136" lon="-3.08533">
        <ele>176</ele>
        <time>2015-10-12T15:47:13.1Z</time>
      </trkpt>
      <trkpt lat="48.21136" lon="-3.08529">
        <ele>176</ele>
        <time>2015-10-12T15:47:16.1Z</time>
      </trkpt>
      <trkpt lat="48.21136" lon="-3.08527">
        <ele>177</ele>
        <time>2015-10-12T15:47:18.1Z</time>
      </trkpt>
      <trkpt lat="48.21136" lon="-3.08524">
        <ele>177</ele>
        <time>2015-10-12T15:47:20.1Z</time>
      </trkpt>
      <trkpt lat="48.21136" lon="-3.0852">
        <ele>177</ele>
        <time>2015-10-12T15:47:23.1Z</time>
      </trkpt>
      <trkpt lat="48.21136" lon="-3.08517">
        <ele>178</ele>
        <time>2015-10-12T15:47:25.1Z</time>
      </trkpt>
      <trkpt lat="48.21137" lon="-3.08513">
        <ele>178</ele>
        <time>2015-10-12T15:47:27.1Z</time>
      </trkpt>
      <trkpt lat="48.21136" lon="-3.08509">
        <ele>178</ele>
        <time>2015-10-12T15:47:30.1Z</time>
      </trkpt>
      <trkpt lat="48.21136" lon="-3.08506">
        <ele>178</ele>
        <time>2015-10-12T15:47:32.1Z</time>
      </trkpt>
      <trkpt lat="48.21137" lon="-3.08502">
        <ele>179</ele>
        <time>2015-10-12T15:47:35.1Z</time>
      </trkpt>
      <trkpt lat="48.21137" lon="-3.08497">
        <ele>179</ele>
        <time>2015-10-12T15:47:38.1Z</time>
      </trkpt>
      <trkpt lat="48.21138" lon="-3.08493">
        <ele>179</ele>
        <time>2015-10-12T15:47:41.1Z</time>
      </trkpt>
      <trkpt lat="48.21139" lon="-3.0849">
        <ele>179</ele>
        <time>2015-10-12T15:47:43.1Z</time>
      </trkpt>
      <trkpt lat="48.21139" lon="-3.08489">
        <ele>179</ele>
        <time>2015-10-12T15:47:45.1Z</time>
      </trkpt>
      <trkpt lat="48.21139" lon="-3.08487">
        <ele>179</ele>
        <time>2015-10-12T15:47:48.1Z</time>
      </trkpt>
      <trkpt lat="48.2114" lon="-3.08484">
        <ele>179</ele>
        <time>2015-10-12T15:47:51.1Z</time>
      </trkpt>
      <trkpt lat="48.21141" lon="-3.08482">
        <ele>179</ele>
        <time>2015-10-12T15:47:54.1Z</time>
      </trkpt>
      <trkpt lat="48.21141" lon="-3.08479">
        <ele>179</ele>
        <time>2015-10-12T15:47:56.1Z</time>
      </trkpt>
      <trkpt lat="48.21143" lon="-3.08476">
        <ele>179</ele>
        <time>2015-10-12T15:47:59.1Z</time>
      </trkpt>
      <trkpt lat="48.21144" lon="-3.08474">
        <ele>180</ele>
        <time>2015-10-12T15:48:01.1Z</time>
      </trkpt>
      <trkpt lat="48.21146" lon="-3.0847">
        <ele>180</ele>
        <time>2015-10-12T15:48:04.1Z</time>
      </trkpt>
      <trkpt lat="48.21148" lon="-3.08467">
        <ele>181</ele>
        <time>2015-10-12T15:48:06.1Z</time>
      </trkpt>
      <trkpt lat="48.21149" lon="-3.08464">
        <ele>181</ele>
        <time>2015-10-12T15:48:08.1Z</time>
      </trkpt>
      <trkpt lat="48.21149" lon="-3.08459">
        <ele>180</ele>
        <time>2015-10-12T15:48:11.1Z</time>
      </trkpt>
      <trkpt lat="48.2115" lon="-3.08454">
        <ele>180</ele>
        <time>2015-10-12T15:48:14.1Z</time>
      </trkpt>
      <trkpt lat="48.2115" lon="-3.08449">
        <ele>180</ele>
        <time>2015-10-12T15:48:17.1Z</time>
      </trkpt>
      <trkpt lat="48.21149" lon="-3.08444">
        <ele>180</ele>
        <time>2015-10-12T15:48:20.1Z</time>
      </trkpt>
      <trkpt lat="48.2115" lon="-3.08441">
        <ele>180</ele>
        <time>2015-10-12T15:48:23.1Z</time>
      </trkpt>
      <trkpt lat="48.21149" lon="-3.08438">
        <ele>180</ele>
        <time>2015-10-12T15:48:25.1Z</time>
      </trkpt>
      <trkpt lat="48.21149" lon="-3.08434">
        <ele>180</ele>
        <time>2015-10-12T15:48:28.1Z</time>
      </trkpt>
      <trkpt lat="48.21149" lon="-3.08429">
        <ele>180</ele>
        <time>2015-10-12T15:48:31.1Z</time>
      </trkpt>
      <trkpt lat="48.2115" lon="-3.08425">
        <ele>180</ele>
        <time>2015-10-12T15:48:34.1Z</time>
      </trkpt>
      <trkpt lat="48.2115" lon="-3.08421">
        <ele>180</ele>
        <time>2015-10-12T15:48:37.1Z</time>
      </trkpt>
      <trkpt lat="48.21151" lon="-3.08417">
        <ele>180</ele>
        <time>2015-10-12T15:48:40.1Z</time>
      </trkpt>
      <trkpt lat="48.21151" lon="-3.08412">
        <ele>180</ele>
        <time>2015-10-12T15:48:43.1Z</time>
      </trkpt>
      <trkpt lat="48.21151" lon="-3.08409">
        <ele>180</ele>
        <time>2015-10-12T15:48:45.1Z</time>
      </trkpt>
      <trkpt lat="48.21151" lon="-3.08407">
        <ele>180</ele>
        <time>2015-10-12T15:48:48.1Z</time>
      </trkpt>
      <trkpt lat="48.2115" lon="-3.08406">
        <ele>180</ele>
        <time>2015-10-12T15:48:50.1Z</time>
      </trkpt>
      <trkpt lat="48.21151" lon="-3.08403">
        <ele>180</ele>
        <time>2015-10-12T15:48:53.1Z</time>
      </trkpt>
      <trkpt lat="48.21152" lon="-3.08401">
        <ele>180</ele>
        <time>2015-10-12T15:48:55.1Z</time>
      </trkpt>
      <trkpt lat="48.21153" lon="-3.08396">
        <ele>179</ele>
        <time>2015-10-12T15:48:58.1Z</time>
      </trkpt>
      <trkpt lat="48.21154" lon="-3.08392">
        <ele>179</ele>
        <time>2015-10-12T15:49:01.1Z</time>
      </trkpt>
      <trkpt lat="48.21154" lon="-3.08389">
        <ele>179</ele>
        <time>2015-10-12T15:49:03.1Z</time>
      </trkpt>
      <trkpt lat="48.21155" lon="-3.08385">
        <ele>179</ele>
        <time>2015-10-12T15:49:06.1Z</time>
      </trkpt>
      <trkpt lat="48.21156" lon="-3.08383">
        <ele>178</ele>
        <time>2015-10-12T15:49:08.1Z</time>
      </trkpt>
      <trkpt lat="48.21158" lon="-3.08382">
        <ele>178</ele>
        <time>2015-10-12T15:49:11.1Z</time>
      </trkpt>
      <trkpt lat="48.21161" lon="-3.0838">
        <ele>178</ele>
        <time>2015-10-12T15:49:14.1Z</time>
      </trkpt>
      <trkpt lat="48.21162" lon="-3.08379">
        <ele>178</ele>
        <time>2015-10-12T15:49:17.1Z</time>
      </trkpt>
      <trkpt lat="48.21164" lon="-3.08379">
        <ele>178</ele>
        <time>2015-10-12T15:49:19.1Z</time>
      </trkpt>
      <trkpt lat="48.21167" lon="-3.08381">
        <ele>179</ele>
        <time>2015-10-12T15:49:22.1Z</time>
      </trkpt>
      <trkpt lat="48.21169" lon="-3.08381">
        <ele>179</ele>
        <time>2015-10-12T15:49:24.1Z</time>
      </trkpt>
      <trkpt lat="48.21171" lon="-3.0838">
        <ele>180</ele>
        <time>2015-10-12T15:49:26.1Z</time>
      </trkpt>
      <trkpt lat="48.21174" lon="-3.0838">
        <ele>180</ele>
        <time>2015-10-12T15:49:29.1Z</time>
      </trkpt>
      <trkpt lat="48.21176" lon="-3.0838">
        <ele>180</ele>
        <time>2015-10-12T15:49:31.1Z</time>
      </trkpt>
      <trkpt lat="48.21179" lon="-3.08379">
        <ele>180</ele>
        <time>2015-10-12T15:49:34.1Z</time>
      </trkpt>
      <trkpt lat="48.21182" lon="-3.08379">
        <ele>180</ele>
        <time>2015-10-12T15:49:37.1Z</time>
      </trkpt>
      <trkpt lat="48.21184" lon="-3.08379">
        <ele>180</ele>
        <time>2015-10-12T15:49:39.1Z</time>
      </trkpt>
      <trkpt lat="48.21187" lon="-3.08379">
        <ele>180</ele>
        <time>2015-10-12T15:49:42.1Z</time>
      </trkpt>
      <trkpt lat="48.21189" lon="-3.08379">
        <ele>180</ele>
        <time>2015-10-12T15:49:44.1Z</time>
      </trkpt>
      <trkpt lat="48.21192" lon="-3.08379">
        <ele>180</ele>
        <time>2015-10-12T15:49:47.1Z</time>
      </trkpt>
      <trkpt lat="48.21194" lon="-3.08378">
        <ele>181</ele>
        <time>2015-10-12T15:49:49.1Z</time>
      </trkpt>
      <trkpt lat="48.21196" lon="-3.08378">
        <ele>181</ele>
        <time>2015-10-12T15:49:51.1Z</time>
      </trkpt>
      <trkpt lat="48.21199" lon="-3.08377">
        <ele>182</ele>
        <time>2015-10-12T15:49:54.1Z</time>
      </trkpt>
      <trkpt lat="48.21202" lon="-3.08377">
        <ele>182</ele>
        <time>2015-10-12T15:49:57.1Z</time>
      </trkpt>
      <trkpt lat="48.21204" lon="-3.08377">
        <ele>182</ele>
        <time>2015-10-12T15:49:59.1Z</time>
      </trkpt>
      <trkpt lat="48.21207" lon="-3.08376">
        <ele>182</ele>
        <time>2015-10-12T15:50:02.1Z</time>
      </trkpt>
      <trkpt lat="48.21209" lon="-3.08375">
        <ele>182</ele>
        <time>2015-10-12T15:50:04.1Z</time>
      </trkpt>
      <trkpt lat="48.21212" lon="-3.08375">
        <ele>182</ele>
        <time>2015-10-12T15:50:06.1Z</time>
      </trkpt>
      <trkpt lat="48.21215" lon="-3.08375">
        <ele>183</ele>
        <time>2015-10-12T15:50:09.1Z</time>
      </trkpt>
      <trkpt lat="48.21217" lon="-3.08375">
        <ele>183</ele>
        <time>2015-10-12T15:50:11.1Z</time>
      </trkpt>
      <trkpt lat="48.21219" lon="-3.08374">
        <ele>183</ele>
        <time>2015-10-12T15:50:13.1Z</time>
      </trkpt>
      <trkpt lat="48.21222" lon="-3.08375">
        <ele>184</ele>
        <time>2015-10-12T15:50:16.1Z</time>
      </trkpt>
      <trkpt lat="48.21224" lon="-3.08375">
        <ele>184</ele>
        <time>2015-10-12T15:50:18.1Z</time>
      </trkpt>
      <trkpt lat="48.21227" lon="-3.08375">
        <ele>184</ele>
        <time>2015-10-12T15:50:21.1Z</time>
      </trkpt>
      <trkpt lat="48.2123" lon="-3.08375">
        <ele>185</ele>
        <time>2015-10-12T15:50:24.1Z</time>
      </trkpt>
      <trkpt lat="48.21233" lon="-3.08374">
        <ele>185</ele>
        <time>2015-10-12T15:50:27.1Z</time>
      </trkpt>
      <trkpt lat="48.21236" lon="-3.08374">
        <ele>185</ele>
        <time>2015-10-12T15:50:30.1Z</time>
      </trkpt>
      <trkpt lat="48.21239" lon="-3.08374">
        <ele>185</ele>
        <time>2015-10-12T15:50:33.1Z</time>
      </trkpt>
      <trkpt lat="48.21241" lon="-3.08374">
        <ele>185</ele>
        <time>2015-10-12T15:50:35.1Z</time>
      </trkpt>
      <trkpt lat="48.21244" lon="-3.08373">
        <ele>185</ele>
        <time>2015-10-12T15:50:37.1Z</time>
      </trkpt>
      <trkpt lat="48.21247" lon="-3.08373">
        <ele>185</ele>
        <time>2015-10-12T15:50:40.1Z</time>
      </trkpt>
      <trkpt lat="48.21249" lon="-3.08373">
        <ele>186</ele>
        <time>2015-10-12T15:50:42.1Z</time>
      </trkpt>
      <trkpt lat="48.21252" lon="-3.08373">
        <ele>186</ele>
        <time>2015-10-12T15:50:45.1Z</time>
      </trkpt>
      <trkpt lat="48.21255" lon="-3.08374">
        <ele>187</ele>
        <time>2015-10-12T15:50:48.1Z</time>
      </trkpt>
      <trkpt lat="48.21257" lon="-3.08374">
        <ele>187</ele>
        <time>2015-10-12T15:50:50.1Z</time>
      </trkpt>
      <trkpt lat="48.21259" lon="-3.08375">
        <ele>187</ele>
        <time>2015-10-12T15:50:53.1Z</time>
      </trkpt>
      <trkpt lat="48.21261" lon="-3.08375">
        <ele>187</ele>
        <time>2015-10-12T15:50:55.1Z</time>
      </trkpt>
      <trkpt lat="48.21264" lon="-3.08375">
        <ele>187</ele>
        <time>2015-10-12T15:50:58.1Z</time>
      </trkpt>
      <trkpt lat="48.21266" lon="-3.08375">
        <ele>187</ele>
        <time>2015-10-12T15:51:01.1Z</time>
      </trkpt>
      <trkpt lat="48.21267" lon="-3.08374">
        <ele>187</ele>
        <time>2015-10-12T15:51:03.1Z</time>
      </trkpt>
      <trkpt lat="48.21269" lon="-3.08374">
        <ele>188</ele>
        <time>2015-10-12T15:51:05.1Z</time>
      </trkpt>
      <trkpt lat="48.21271" lon="-3.08377">
        <ele>189</ele>
        <time>2015-10-12T15:51:08.1Z</time>
      </trkpt>
      <trkpt lat="48.21273" lon="-3.08379">
        <ele>189</ele>
        <time>2015-10-12T15:51:11.1Z</time>
      </trkpt>
      <trkpt lat="48.21276" lon="-3.0838">
        <ele>189</ele>
        <time>2015-10-12T15:51:13.1Z</time>
      </trkpt>
      <trkpt lat="48.21279" lon="-3.08378">
        <ele>189</ele>
        <time>2015-10-12T15:51:16.1Z</time>
      </trkpt>
      <trkpt lat="48.21282" lon="-3.08377">
        <ele>188</ele>
        <time>2015-10-12T15:51:19.1Z</time>
      </trkpt>
      <trkpt lat="48.21284" lon="-3.08375">
        <ele>188</ele>
        <time>2015-10-12T15:51:21.1Z</time>
      </trkpt>
      <trkpt lat="48.21286" lon="-3.08373">
        <ele>188</ele>
        <time>2015-10-12T15:51:23.1Z</time>
      </trkpt>
      <trkpt lat="48.21289" lon="-3.08372">
        <ele>188</ele>
        <time>2015-10-12T15:51:26.1Z</time>
      </trkpt>
      <trkpt lat="48.21292" lon="-3.08371">
        <ele>189</ele>
        <time>2015-10-12T15:51:29.1Z</time>
      </trkpt>
      <trkpt lat="48.21295" lon="-3.0837">
        <ele>189</ele>
        <time>2015-10-12T15:51:31.1Z</time>
      </trkpt>
      <trkpt lat="48.21297" lon="-3.08369">
        <ele>189</ele>
        <time>2015-10-12T15:51:34.1Z</time>
      </trkpt>
      <trkpt lat="48.213" lon="-3.0837">
        <ele>189</ele>
        <time>2015-10-12T15:51:36.1Z</time>
      </trkpt>
      <trkpt lat="48.21303" lon="-3.08369">
        <ele>190</ele>
        <time>2015-10-12T15:51:39.1Z</time>
      </trkpt>
      <trkpt lat="48.21305" lon="-3.08369">
        <ele>190</ele>
        <time>2015-10-12T15:51:41.1Z</time>
      </trkpt>
      <trkpt lat="48.21309" lon="-3.0837">
        <ele>190</ele>
        <time>2015-10-12T15:51:44.1Z</time>
      </trkpt>
      <trkpt lat="48.21312" lon="-3.08371">
        <ele>190</ele>
        <time>2015-10-12T15:51:46.1Z</time>
      </trkpt>
      <trkpt lat="48.21315" lon="-3.08372">
        <ele>190</ele>
        <time>2015-10-12T15:51:49.1Z</time>
      </trkpt>
      <trkpt lat="48.21318" lon="-3.08373">
        <ele>191</ele>
        <time>2015-10-12T15:51:52.1Z</time>
      </trkpt>
      <trkpt lat="48.2132" lon="-3.08375">
        <ele>191</ele>
        <time>2015-10-12T15:51:54.1Z</time>
      </trkpt>
      <trkpt lat="48.21322" lon="-3.08376">
        <ele>192</ele>
        <time>2015-10-12T15:51:56.1Z</time>
      </trkpt>
      <trkpt lat="48.21324" lon="-3.08378">
        <ele>192</ele>
        <time>2015-10-12T15:51:58.1Z</time>
      </trkpt>
      <trkpt lat="48.21326" lon="-3.08381">
        <ele>192</ele>
        <time>2015-10-12T15:52:01.1Z</time>
      </trkpt>
      <trkpt lat="48.21326" lon="-3.08384">
        <ele>192</ele>
        <time>2015-10-12T15:52:03.1Z</time>
      </trkpt>
      <trkpt lat="48.21327" lon="-3.08386">
        <ele>192</ele>
        <time>2015-10-12T15:52:05.1Z</time>
      </trkpt>
      <trkpt lat="48.21329" lon="-3.0839">
        <ele>192</ele>
        <time>2015-10-12T15:52:08.1Z</time>
      </trkpt>
      <trkpt lat="48.21331" lon="-3.08394">
        <ele>193</ele>
        <time>2015-10-12T15:52:11.1Z</time>
      </trkpt>
      <trkpt lat="48.21331" lon="-3.08398">
        <ele>193</ele>
        <time>2015-10-12T15:52:14.1Z</time>
      </trkpt>
      <trkpt lat="48.21332" lon="-3.08403">
        <ele>193</ele>
        <time>2015-10-12T15:52:17.1Z</time>
      </trkpt>
      <trkpt lat="48.21333" lon="-3.08406">
        <ele>194</ele>
        <time>2015-10-12T15:52:19.1Z</time>
      </trkpt>
      <trkpt lat="48.21333" lon="-3.08411">
        <ele>194</ele>
        <time>2015-10-12T15:52:22.1Z</time>
      </trkpt>
      <trkpt lat="48.21333" lon="-3.08414">
        <ele>194</ele>
        <time>2015-10-12T15:52:24.1Z</time>
      </trkpt>
      <trkpt lat="48.21333" lon="-3.08416">
        <ele>194</ele>
        <time>2015-10-12T15:52:26.1Z</time>
      </trkpt>
      <trkpt lat="48.21333" lon="-3.08419">
        <ele>194</ele>
        <time>2015-10-12T15:52:28.1Z</time>
      </trkpt>
      <trkpt lat="48.21333" lon="-3.08422">
        <ele>194</ele>
        <time>2015-10-12T15:52:30.1Z</time>
      </trkpt>
      <trkpt lat="48.21333" lon="-3.08426">
        <ele>194</ele>
        <time>2015-10-12T15:52:33.1Z</time>
      </trkpt>
      <trkpt lat="48.21333" lon="-3.0843">
        <ele>194</ele>
        <time>2015-10-12T15:52:36.1Z</time>
      </trkpt>
      <trkpt lat="48.21333" lon="-3.08435">
        <ele>194</ele>
        <time>2015-10-12T15:52:39.1Z</time>
      </trkpt>
      <trkpt lat="48.21334" lon="-3.08439">
        <ele>194</ele>
        <time>2015-10-12T15:52:42.1Z</time>
      </trkpt>
      <trkpt lat="48.21335" lon="-3.08442">
        <ele>194</ele>
        <time>2015-10-12T15:52:44.1Z</time>
      </trkpt>
      <trkpt lat="48.21335" lon="-3.08445">
        <ele>194</ele>
        <time>2015-10-12T15:52:46.1Z</time>
      </trkpt>
      <trkpt lat="48.21336" lon="-3.08448">
        <ele>194</ele>
        <time>2015-10-12T15:52:49.1Z</time>
      </trkpt>
      <trkpt lat="48.21336" lon="-3.0845">
        <ele>195</ele>
        <time>2015-10-12T15:52:51.1Z</time>
      </trkpt>
      <trkpt lat="48.21339" lon="-3.08452">
        <ele>195</ele>
        <time>2015-10-12T15:52:54.1Z</time>
      </trkpt>
      <trkpt lat="48.21341" lon="-3.08454">
        <ele>196</ele>
        <time>2015-10-12T15:52:57.1Z</time>
      </trkpt>
      <trkpt lat="48.21344" lon="-3.08455">
        <ele>196</ele>
        <time>2015-10-12T15:53:00.1Z</time>
      </trkpt>
      <trkpt lat="48.21346" lon="-3.08457">
        <ele>196</ele>
        <time>2015-10-12T15:53:02.1Z</time>
      </trkpt>
      <trkpt lat="48.21349" lon="-3.08458">
        <ele>196</ele>
        <time>2015-10-12T15:53:04.1Z</time>
      </trkpt>
      <trkpt lat="48.21351" lon="-3.0846">
        <ele>196</ele>
        <time>2015-10-12T15:53:07.1Z</time>
      </trkpt>
      <trkpt lat="48.21354" lon="-3.08462">
        <ele>196</ele>
        <time>2015-10-12T15:53:10.1Z</time>
      </trkpt>
      <trkpt lat="48.21356" lon="-3.08463">
        <ele>197</ele>
        <time>2015-10-12T15:53:12.1Z</time>
      </trkpt>
      <trkpt lat="48.2136" lon="-3.08465">
        <ele>197</ele>
        <time>2015-10-12T15:53:15.1Z</time>
      </trkpt>
      <trkpt lat="48.21361" lon="-3.08466">
        <ele>197</ele>
        <time>2015-10-12T15:53:17.1Z</time>
      </trkpt>
      <trkpt lat="48.21364" lon="-3.08467">
        <ele>198</ele>
        <time>2015-10-12T15:53:19.1Z</time>
      </trkpt>
      <trkpt lat="48.21366" lon="-3.08468">
        <ele>198</ele>
        <time>2015-10-12T15:53:21.1Z</time>
      </trkpt>
      <trkpt lat="48.2137" lon="-3.08469">
        <ele>198</ele>
        <time>2015-10-12T15:53:24.1Z</time>
      </trkpt>
      <trkpt lat="48.21372" lon="-3.0847">
        <ele>198</ele>
        <time>2015-10-12T15:53:26.1Z</time>
      </trkpt>
      <trkpt lat="48.21374" lon="-3.0847">
        <ele>198</ele>
        <time>2015-10-12T15:53:28.1Z</time>
      </trkpt>
      <trkpt lat="48.21376" lon="-3.08471">
        <ele>198</ele>
        <time>2015-10-12T15:53:30.1Z</time>
      </trkpt>
      <trkpt lat="48.21379" lon="-3.08471">
        <ele>198</ele>
        <time>2015-10-12T15:53:32.1Z</time>
      </trkpt>
      <trkpt lat="48.21382" lon="-3.08472">
        <ele>198</ele>
        <time>2015-10-12T15:53:35.1Z</time>
      </trkpt>
      <trkpt lat="48.21384" lon="-3.08472">
        <ele>198</ele>
        <time>2015-10-12T15:53:37.1Z</time>
      </trkpt>
      <trkpt lat="48.21384" lon="-3.08472">
        <ele>198</ele>
        <time>2015-10-12T15:53:39.1Z</time>
      </trkpt>
    </trkseg>
  </trk>
</gpx>